<?xml version="1.0" encoding="UTF-8" standalone="no" ?>
<gpx xmlns="http://www.topografix.com/GPX/1/1" xmlns:xsi="http://www.w3.org/2001/XMLSchema-instance" xsi:schemaLocation="http://www.topografix.com/GPX/1/1 http://www.topografix.com/GPX/1/1/gpx.xsd" version="1.1" creator="VisuGPX - https://www.visugpx.com">
  <metadata>
    <name>Le Vercors</name>
    <desc><![CDATA[2009-06-03_Le Vercors Dist.167Km 7h00 Asc.2334m.gpx]]></desc>
  </metadata>
  <trk>
    <name><![CDATA[Le Vercors]]></name>
    <cmt><![CDATA[Gorges de la bournes, pont de la goule noir, st Julien en vercors, col de lachau, la Rama St do]]></cmt>
    <trkseg>
      <trkpt lat="45.11581" lon="4.96438">
        <ele>201.7380065918</ele>
        <time>2009-06-03T11:17:45Z</time>
      </trkpt>
      <trkpt lat="45.11553" lon="4.96463">
        <ele>200.97700500488</ele>
        <time>2009-06-03T11:17:49Z</time>
      </trkpt>
      <trkpt lat="45.11558" lon="4.96471">
        <ele>201.91799926758</ele>
        <time>2009-06-03T11:17:57Z</time>
      </trkpt>
      <trkpt lat="45.11562" lon="4.96478">
        <ele>202.01499938965</ele>
        <time>2009-06-03T11:18:04Z</time>
      </trkpt>
      <trkpt lat="45.11579" lon="4.96497">
        <ele>201.1609954834</ele>
        <time>2009-06-03T11:18:13Z</time>
      </trkpt>
      <trkpt lat="45.11579" lon="4.96505">
        <ele>199.06700134277</ele>
        <time>2009-06-03T11:18:17Z</time>
      </trkpt>
      <trkpt lat="45.11599" lon="4.96552">
        <ele>198.40299987793</ele>
        <time>2009-06-03T11:18:23Z</time>
      </trkpt>
      <trkpt lat="45.11612" lon="4.96581">
        <ele>198.77099609375</ele>
        <time>2009-06-03T11:18:27Z</time>
      </trkpt>
      <trkpt lat="45.11621" lon="4.96603">
        <ele>199.85800170898</ele>
        <time>2009-06-03T11:18:31Z</time>
      </trkpt>
      <trkpt lat="45.1164" lon="4.96651">
        <ele>199.60899353027</ele>
        <time>2009-06-03T11:18:36Z</time>
      </trkpt>
      <trkpt lat="45.11664" lon="4.96712">
        <ele>200.69500732422</ele>
        <time>2009-06-03T11:18:44Z</time>
      </trkpt>
      <trkpt lat="45.1169" lon="4.96766">
        <ele>200.46600341797</ele>
        <time>2009-06-03T11:18:52Z</time>
      </trkpt>
      <trkpt lat="45.11724" lon="4.96815">
        <ele>201.77900695801</ele>
        <time>2009-06-03T11:19:01Z</time>
      </trkpt>
      <trkpt lat="45.11745" lon="4.96869">
        <ele>200.83399963379</ele>
        <time>2009-06-03T11:19:09Z</time>
      </trkpt>
      <trkpt lat="45.11757" lon="4.96904">
        <ele>201.26800537109</ele>
        <time>2009-06-03T11:19:13Z</time>
      </trkpt>
      <trkpt lat="45.11844" lon="4.97006">
        <ele>202.31900024414</ele>
        <time>2009-06-03T11:19:33Z</time>
      </trkpt>
      <trkpt lat="45.11869" lon="4.97043">
        <ele>203.00399780273</ele>
        <time>2009-06-03T11:19:39Z</time>
      </trkpt>
      <trkpt lat="45.1188" lon="4.97082">
        <ele>201.49099731445</ele>
        <time>2009-06-03T11:19:44Z</time>
      </trkpt>
      <trkpt lat="45.1188" lon="4.9712">
        <ele>201.9700012207</ele>
        <time>2009-06-03T11:19:48Z</time>
      </trkpt>
      <trkpt lat="45.11879" lon="4.97139">
        <ele>200.96699523926</ele>
        <time>2009-06-03T11:19:50Z</time>
      </trkpt>
      <trkpt lat="45.11884" lon="4.97209">
        <ele>199.10200500488</ele>
        <time>2009-06-03T11:19:57Z</time>
      </trkpt>
      <trkpt lat="45.11893" lon="4.97255">
        <ele>198.90100097656</ele>
        <time>2009-06-03T11:20:02Z</time>
      </trkpt>
      <trkpt lat="45.11894" lon="4.97264">
        <ele>199.66900634766</ele>
        <time>2009-06-03T11:20:03Z</time>
      </trkpt>
      <trkpt lat="45.11924" lon="4.97432">
        <ele>199.83500671387</ele>
        <time>2009-06-03T11:20:22Z</time>
      </trkpt>
      <trkpt lat="45.1195" lon="4.97573">
        <ele>202.2440032959</ele>
        <time>2009-06-03T11:20:39Z</time>
      </trkpt>
      <trkpt lat="45.11958" lon="4.9762">
        <ele>202.80400085449</ele>
        <time>2009-06-03T11:20:45Z</time>
      </trkpt>
      <trkpt lat="45.11996" lon="4.97831">
        <ele>203.7380065918</ele>
        <time>2009-06-03T11:21:09Z</time>
      </trkpt>
      <trkpt lat="45.1203" lon="4.98004">
        <ele>205.70500183106</ele>
        <time>2009-06-03T11:21:30Z</time>
      </trkpt>
      <trkpt lat="45.12062" lon="4.98153">
        <ele>207.21899414062</ele>
        <time>2009-06-03T11:21:47Z</time>
      </trkpt>
      <trkpt lat="45.12064" lon="4.98171">
        <ele>207.56399536133</ele>
        <time>2009-06-03T11:21:49Z</time>
      </trkpt>
      <trkpt lat="45.12054" lon="4.98336">
        <ele>208.94000244141</ele>
        <time>2009-06-03T11:22:07Z</time>
      </trkpt>
      <trkpt lat="45.12049" lon="4.9837">
        <ele>209.47300720215</ele>
        <time>2009-06-03T11:22:11Z</time>
      </trkpt>
      <trkpt lat="45.12046" lon="4.98389">
        <ele>210.14599609375</ele>
        <time>2009-06-03T11:22:14Z</time>
      </trkpt>
      <trkpt lat="45.12029" lon="4.98423">
        <ele>209.71699523926</ele>
        <time>2009-06-03T11:22:18Z</time>
      </trkpt>
      <trkpt lat="45.12016" lon="4.9857">
        <ele>208.72500610352</ele>
        <time>2009-06-03T11:22:33Z</time>
      </trkpt>
      <trkpt lat="45.12028" lon="4.98693">
        <ele>208.60000610352</ele>
        <time>2009-06-03T11:22:46Z</time>
      </trkpt>
      <trkpt lat="45.12043" lon="4.98754">
        <ele>209.12399291992</ele>
        <time>2009-06-03T11:22:54Z</time>
      </trkpt>
      <trkpt lat="45.12083" lon="4.98863">
        <ele>210.52799987793</ele>
        <time>2009-06-03T11:23:08Z</time>
      </trkpt>
      <trkpt lat="45.1215" lon="4.98982">
        <ele>212.15299987793</ele>
        <time>2009-06-03T11:23:24Z</time>
      </trkpt>
      <trkpt lat="45.12202" lon="4.99045">
        <ele>215.69799804688</ele>
        <time>2009-06-03T11:23:36Z</time>
      </trkpt>
      <trkpt lat="45.12214" lon="4.99095">
        <ele>215.15699768066</ele>
        <time>2009-06-03T11:23:43Z</time>
      </trkpt>
      <trkpt lat="45.12211" lon="4.99113">
        <ele>214.17999267578</ele>
        <time>2009-06-03T11:23:45Z</time>
      </trkpt>
      <trkpt lat="45.12157" lon="4.99319">
        <ele>212.07600402832</ele>
        <time>2009-06-03T11:24:07Z</time>
      </trkpt>
      <trkpt lat="45.12112" lon="4.99459">
        <ele>213.11799621582</ele>
        <time>2009-06-03T11:24:23Z</time>
      </trkpt>
      <trkpt lat="45.12106" lon="4.99476">
        <ele>214.09599304199</ele>
        <time>2009-06-03T11:24:25Z</time>
      </trkpt>
      <trkpt lat="45.12025" lon="4.99619">
        <ele>215.32499694824</ele>
        <time>2009-06-03T11:24:45Z</time>
      </trkpt>
      <trkpt lat="45.11925" lon="4.99784">
        <ele>216.13999938965</ele>
        <time>2009-06-03T11:25:06Z</time>
      </trkpt>
      <trkpt lat="45.11855" lon="4.99847">
        <ele>221.25100708008</ele>
        <time>2009-06-03T11:25:20Z</time>
      </trkpt>
      <trkpt lat="45.11776" lon="4.99882">
        <ele>226.34300231934</ele>
        <time>2009-06-03T11:25:39Z</time>
      </trkpt>
      <trkpt lat="45.11718" lon="4.99908">
        <ele>230.30499267578</ele>
        <time>2009-06-03T11:25:54Z</time>
      </trkpt>
      <trkpt lat="45.11658" lon="4.99945">
        <ele>234.21600341797</ele>
        <time>2009-06-03T11:26:12Z</time>
      </trkpt>
      <trkpt lat="45.11605" lon="5.00013">
        <ele>237.85000610352</ele>
        <time>2009-06-03T11:26:31Z</time>
      </trkpt>
      <trkpt lat="45.11601" lon="5.00015">
        <ele>238.36999511719</ele>
        <time>2009-06-03T11:26:33Z</time>
      </trkpt>
      <trkpt lat="45.116" lon="5.00015">
        <ele>237.91400146484</ele>
        <time>2009-06-03T11:26:46Z</time>
      </trkpt>
      <trkpt lat="45.11597" lon="5.00014">
        <ele>238.36799621582</ele>
        <time>2009-06-03T11:26:54Z</time>
      </trkpt>
      <trkpt lat="45.11589" lon="5.00035">
        <ele>238.36099243164</ele>
        <time>2009-06-03T11:26:59Z</time>
      </trkpt>
      <trkpt lat="45.11523" lon="5.00109">
        <ele>239.0059967041</ele>
        <time>2009-06-03T11:27:17Z</time>
      </trkpt>
      <trkpt lat="45.1147" lon="5.00158">
        <ele>238.81300354004</ele>
        <time>2009-06-03T11:27:28Z</time>
      </trkpt>
      <trkpt lat="45.1141" lon="5.00211">
        <ele>239.21000671387</ele>
        <time>2009-06-03T11:27:41Z</time>
      </trkpt>
      <trkpt lat="45.11321" lon="5.0029">
        <ele>240.07600402832</ele>
        <time>2009-06-03T11:27:59Z</time>
      </trkpt>
      <trkpt lat="45.11261" lon="5.00335">
        <ele>241.8869934082</ele>
        <time>2009-06-03T11:28:10Z</time>
      </trkpt>
      <trkpt lat="45.11217" lon="5.00357">
        <ele>243.64199829102</ele>
        <time>2009-06-03T11:28:18Z</time>
      </trkpt>
      <trkpt lat="45.11207" lon="5.00362">
        <ele>244.0119934082</ele>
        <time>2009-06-03T11:28:20Z</time>
      </trkpt>
      <trkpt lat="45.11192" lon="5.0037">
        <ele>245.27200317383</ele>
        <time>2009-06-03T11:28:23Z</time>
      </trkpt>
      <trkpt lat="45.11166" lon="5.00383">
        <ele>246</ele>
        <time>2009-06-03T11:28:28Z</time>
      </trkpt>
      <trkpt lat="45.11151" lon="5.00391">
        <ele>247.50900268555</ele>
        <time>2009-06-03T11:28:31Z</time>
      </trkpt>
      <trkpt lat="45.11093" lon="5.00424">
        <ele>250.85899353027</ele>
        <time>2009-06-03T11:28:43Z</time>
      </trkpt>
      <trkpt lat="45.11045" lon="5.00454">
        <ele>253.32600402832</ele>
        <time>2009-06-03T11:28:53Z</time>
      </trkpt>
      <trkpt lat="45.11006" lon="5.00481">
        <ele>256.15200805664</ele>
        <time>2009-06-03T11:29:01Z</time>
      </trkpt>
      <trkpt lat="45.10908" lon="5.00548">
        <ele>258.51699829102</ele>
        <time>2009-06-03T11:29:20Z</time>
      </trkpt>
      <trkpt lat="45.10835" lon="5.00566">
        <ele>254.07299804688</ele>
        <time>2009-06-03T11:29:29Z</time>
      </trkpt>
      <trkpt lat="45.10771" lon="5.0058">
        <ele>248.62899780273</ele>
        <time>2009-06-03T11:29:35Z</time>
      </trkpt>
      <trkpt lat="45.1076" lon="5.00583">
        <ele>247.31399536133</ele>
        <time>2009-06-03T11:29:36Z</time>
      </trkpt>
      <trkpt lat="45.10689" lon="5.00598">
        <ele>242.83700561523</ele>
        <time>2009-06-03T11:29:42Z</time>
      </trkpt>
      <trkpt lat="45.10641" lon="5.00616">
        <ele>241.35000610352</ele>
        <time>2009-06-03T11:29:46Z</time>
      </trkpt>
      <trkpt lat="45.10593" lon="5.00646">
        <ele>239.07699584961</ele>
        <time>2009-06-03T11:29:50Z</time>
      </trkpt>
      <trkpt lat="45.10569" lon="5.00666">
        <ele>236.05000305176</ele>
        <time>2009-06-03T11:29:52Z</time>
      </trkpt>
      <trkpt lat="45.10558" lon="5.00676">
        <ele>236.24499511719</ele>
        <time>2009-06-03T11:29:53Z</time>
      </trkpt>
      <trkpt lat="45.10523" lon="5.00707">
        <ele>233.99299621582</ele>
        <time>2009-06-03T11:29:56Z</time>
      </trkpt>
      <trkpt lat="45.10465" lon="5.00755">
        <ele>233.40299987793</ele>
        <time>2009-06-03T11:30:01Z</time>
      </trkpt>
      <trkpt lat="45.10443" lon="5.00772">
        <ele>232.03399658203</ele>
        <time>2009-06-03T11:30:03Z</time>
      </trkpt>
      <trkpt lat="45.1032" lon="5.00878">
        <ele>234.88499450684</ele>
        <time>2009-06-03T11:30:16Z</time>
      </trkpt>
      <trkpt lat="45.10235" lon="5.00943">
        <ele>236.29400634766</ele>
        <time>2009-06-03T11:30:27Z</time>
      </trkpt>
      <trkpt lat="45.10192" lon="5.01001">
        <ele>237.20700073242</ele>
        <time>2009-06-03T11:30:35Z</time>
      </trkpt>
      <trkpt lat="45.10144" lon="5.01075">
        <ele>240.58799743652</ele>
        <time>2009-06-03T11:30:47Z</time>
      </trkpt>
      <trkpt lat="45.10142" lon="5.01077">
        <ele>240.47599792481</ele>
        <time>2009-06-03T11:30:48Z</time>
      </trkpt>
      <trkpt lat="45.10142" lon="5.01077">
        <ele>241.06100463867</ele>
        <time>2009-06-03T11:31:03Z</time>
      </trkpt>
      <trkpt lat="45.10141" lon="5.01076">
        <ele>241.21699523926</ele>
        <time>2009-06-03T11:31:05Z</time>
      </trkpt>
      <trkpt lat="45.10142" lon="5.01077">
        <ele>240.58599853516</ele>
        <time>2009-06-03T11:31:14Z</time>
      </trkpt>
      <trkpt lat="45.10143" lon="5.01077">
        <ele>240.62800598144</ele>
        <time>2009-06-03T11:31:21Z</time>
      </trkpt>
      <trkpt lat="45.10123" lon="5.01112">
        <ele>241.34899902344</ele>
        <time>2009-06-03T11:31:39Z</time>
      </trkpt>
      <trkpt lat="45.10091" lon="5.01182">
        <ele>241.68800354004</ele>
        <time>2009-06-03T11:31:51Z</time>
      </trkpt>
      <trkpt lat="45.10082" lon="5.01255">
        <ele>241.70300292969</ele>
        <time>2009-06-03T11:31:59Z</time>
      </trkpt>
      <trkpt lat="45.10072" lon="5.01351">
        <ele>241.03799438477</ele>
        <time>2009-06-03T11:32:08Z</time>
      </trkpt>
      <trkpt lat="45.10064" lon="5.01432">
        <ele>239.96099853516</ele>
        <time>2009-06-03T11:32:16Z</time>
      </trkpt>
      <trkpt lat="45.10033" lon="5.01687">
        <ele>239.73500061035</ele>
        <time>2009-06-03T11:32:37Z</time>
      </trkpt>
      <trkpt lat="45.09985" lon="5.0183">
        <ele>242.93699645996</ele>
        <time>2009-06-03T11:32:53Z</time>
      </trkpt>
      <trkpt lat="45.09935" lon="5.01975">
        <ele>245.95399475098</ele>
        <time>2009-06-03T11:33:13Z</time>
      </trkpt>
      <trkpt lat="45.09891" lon="5.02095">
        <ele>250.41200256348</ele>
        <time>2009-06-03T11:33:33Z</time>
      </trkpt>
      <trkpt lat="45.09854" lon="5.02219">
        <ele>256.25299072266</ele>
        <time>2009-06-03T11:33:55Z</time>
      </trkpt>
      <trkpt lat="45.09848" lon="5.02252">
        <ele>257.52801513672</ele>
        <time>2009-06-03T11:34:01Z</time>
      </trkpt>
      <trkpt lat="45.09863" lon="5.02349">
        <ele>261.23498535156</ele>
        <time>2009-06-03T11:34:18Z</time>
      </trkpt>
      <trkpt lat="45.09883" lon="5.02423">
        <ele>260.53799438477</ele>
        <time>2009-06-03T11:34:29Z</time>
      </trkpt>
      <trkpt lat="45.09896" lon="5.02456">
        <ele>258.1960144043</ele>
        <time>2009-06-03T11:34:33Z</time>
      </trkpt>
      <trkpt lat="45.09952" lon="5.02559">
        <ele>251.25500488281</ele>
        <time>2009-06-03T11:34:43Z</time>
      </trkpt>
      <trkpt lat="45.1" lon="5.02666">
        <ele>245.91600036621</ele>
        <time>2009-06-03T11:34:51Z</time>
      </trkpt>
      <trkpt lat="45.10008" lon="5.02676">
        <ele>245.31199645996</ele>
        <time>2009-06-03T11:34:52Z</time>
      </trkpt>
      <trkpt lat="45.10035" lon="5.02708">
        <ele>243.2859954834</ele>
        <time>2009-06-03T11:34:55Z</time>
      </trkpt>
      <trkpt lat="45.1006" lon="5.02746">
        <ele>241.88200378418</ele>
        <time>2009-06-03T11:34:58Z</time>
      </trkpt>
      <trkpt lat="45.10059" lon="5.02809">
        <ele>238.91999816894</ele>
        <time>2009-06-03T11:35:02Z</time>
      </trkpt>
      <trkpt lat="45.10042" lon="5.02831">
        <ele>237.90199279785</ele>
        <time>2009-06-03T11:35:05Z</time>
      </trkpt>
      <trkpt lat="45.10049" lon="5.02871">
        <ele>238.25999450684</ele>
        <time>2009-06-03T11:35:08Z</time>
      </trkpt>
      <trkpt lat="45.10048" lon="5.02875">
        <ele>238.11199951172</ele>
        <time>2009-06-03T11:35:09Z</time>
      </trkpt>
      <trkpt lat="45.10048" lon="5.02875">
        <ele>238.24000549316</ele>
        <time>2009-06-03T11:35:10Z</time>
      </trkpt>
      <trkpt lat="45.10046" lon="5.02879">
        <ele>237.97099304199</ele>
        <time>2009-06-03T11:35:26Z</time>
      </trkpt>
      <trkpt lat="45.1004" lon="5.02904">
        <ele>235.66900634766</ele>
        <time>2009-06-03T11:35:31Z</time>
      </trkpt>
      <trkpt lat="45.10006" lon="5.03025">
        <ele>230.7619934082</ele>
        <time>2009-06-03T11:35:43Z</time>
      </trkpt>
      <trkpt lat="45.10003" lon="5.03035">
        <ele>230.61000061035</ele>
        <time>2009-06-03T11:35:44Z</time>
      </trkpt>
      <trkpt lat="45.09996" lon="5.03057">
        <ele>230.32600402832</ele>
        <time>2009-06-03T11:35:47Z</time>
      </trkpt>
      <trkpt lat="45.09993" lon="5.03068">
        <ele>230.28100585938</ele>
        <time>2009-06-03T11:35:49Z</time>
      </trkpt>
      <trkpt lat="45.09992" lon="5.03071">
        <ele>230.20599365234</ele>
        <time>2009-06-03T11:35:50Z</time>
      </trkpt>
      <trkpt lat="45.09992" lon="5.03071">
        <ele>230.22599792481</ele>
        <time>2009-06-03T11:35:51Z</time>
      </trkpt>
      <trkpt lat="45.09988" lon="5.03088">
        <ele>229.97900390625</ele>
        <time>2009-06-03T11:36:02Z</time>
      </trkpt>
      <trkpt lat="45.09967" lon="5.03159">
        <ele>227.32400512695</ele>
        <time>2009-06-03T11:36:12Z</time>
      </trkpt>
      <trkpt lat="45.09933" lon="5.03279">
        <ele>222.90899658203</ele>
        <time>2009-06-03T11:36:24Z</time>
      </trkpt>
      <trkpt lat="45.09926" lon="5.03303">
        <ele>221.89100646973</ele>
        <time>2009-06-03T11:36:26Z</time>
      </trkpt>
      <trkpt lat="45.09873" lon="5.0345">
        <ele>219.10299682617</ele>
        <time>2009-06-03T11:36:38Z</time>
      </trkpt>
      <trkpt lat="45.09807" lon="5.03565">
        <ele>220.12100219727</ele>
        <time>2009-06-03T11:36:50Z</time>
      </trkpt>
      <trkpt lat="45.09795" lon="5.03604">
        <ele>219.82899475098</ele>
        <time>2009-06-03T11:36:54Z</time>
      </trkpt>
      <trkpt lat="45.09789" lon="5.03651">
        <ele>219.44000244141</ele>
        <time>2009-06-03T11:36:59Z</time>
      </trkpt>
      <trkpt lat="45.09797" lon="5.03711">
        <ele>218.50100708008</ele>
        <time>2009-06-03T11:37:05Z</time>
      </trkpt>
      <trkpt lat="45.09805" lon="5.03754">
        <ele>216.06199645996</ele>
        <time>2009-06-03T11:37:09Z</time>
      </trkpt>
      <trkpt lat="45.09857" lon="5.03907">
        <ele>216.67300415039</ele>
        <time>2009-06-03T11:37:24Z</time>
      </trkpt>
      <trkpt lat="45.0988" lon="5.03968">
        <ele>216.22300720215</ele>
        <time>2009-06-03T11:37:30Z</time>
      </trkpt>
      <trkpt lat="45.09882" lon="5.04034">
        <ele>215.65699768066</ele>
        <time>2009-06-03T11:37:36Z</time>
      </trkpt>
      <trkpt lat="45.09864" lon="5.04111">
        <ele>215.86000061035</ele>
        <time>2009-06-03T11:37:43Z</time>
      </trkpt>
      <trkpt lat="45.0984" lon="5.04153">
        <ele>216.50300598144</ele>
        <time>2009-06-03T11:37:48Z</time>
      </trkpt>
      <trkpt lat="45.09707" lon="5.04301">
        <ele>218.72099304199</ele>
        <time>2009-06-03T11:38:09Z</time>
      </trkpt>
      <trkpt lat="45.09644" lon="5.04399">
        <ele>218.55200195312</ele>
        <time>2009-06-03T11:38:22Z</time>
      </trkpt>
      <trkpt lat="45.09621" lon="5.04489">
        <ele>218.05499267578</ele>
        <time>2009-06-03T11:38:31Z</time>
      </trkpt>
      <trkpt lat="45.0962" lon="5.04496">
        <ele>218.17100524902</ele>
        <time>2009-06-03T11:38:32Z</time>
      </trkpt>
      <trkpt lat="45.09615" lon="5.04521">
        <ele>217.49600219727</ele>
        <time>2009-06-03T11:38:36Z</time>
      </trkpt>
      <trkpt lat="45.09583" lon="5.04573">
        <ele>214.65100097656</ele>
        <time>2009-06-03T11:38:44Z</time>
      </trkpt>
      <trkpt lat="45.09521" lon="5.04623">
        <ele>213.35099792481</ele>
        <time>2009-06-03T11:38:53Z</time>
      </trkpt>
      <trkpt lat="45.09493" lon="5.04637">
        <ele>213.07499694824</ele>
        <time>2009-06-03T11:38:57Z</time>
      </trkpt>
      <trkpt lat="45.09469" lon="5.04649">
        <ele>212.83799743652</ele>
        <time>2009-06-03T11:39:01Z</time>
      </trkpt>
      <trkpt lat="45.09446" lon="5.04661">
        <ele>212.35699462891</ele>
        <time>2009-06-03T11:39:05Z</time>
      </trkpt>
      <trkpt lat="45.09358" lon="5.04709">
        <ele>210.05499267578</ele>
        <time>2009-06-03T11:39:17Z</time>
      </trkpt>
      <trkpt lat="45.09314" lon="5.04745">
        <ele>209.65299987793</ele>
        <time>2009-06-03T11:39:23Z</time>
      </trkpt>
      <trkpt lat="45.09306" lon="5.04754">
        <ele>209.57099914551</ele>
        <time>2009-06-03T11:39:25Z</time>
      </trkpt>
      <trkpt lat="45.09298" lon="5.04768">
        <ele>209.26400756836</ele>
        <time>2009-06-03T11:39:31Z</time>
      </trkpt>
      <trkpt lat="45.09303" lon="5.04804">
        <ele>208.0890045166</ele>
        <time>2009-06-03T11:39:36Z</time>
      </trkpt>
      <trkpt lat="45.09299" lon="5.04844">
        <ele>208.33500671387</ele>
        <time>2009-06-03T11:39:40Z</time>
      </trkpt>
      <trkpt lat="45.09295" lon="5.04876">
        <ele>208.72399902344</ele>
        <time>2009-06-03T11:39:43Z</time>
      </trkpt>
      <trkpt lat="45.09279" lon="5.04914">
        <ele>209.3690032959</ele>
        <time>2009-06-03T11:39:47Z</time>
      </trkpt>
      <trkpt lat="45.09255" lon="5.04955">
        <ele>210.97999572754</ele>
        <time>2009-06-03T11:39:52Z</time>
      </trkpt>
      <trkpt lat="45.09238" lon="5.05023">
        <ele>212.89300537109</ele>
        <time>2009-06-03T11:40:00Z</time>
      </trkpt>
      <trkpt lat="45.0927" lon="5.05107">
        <ele>215.0299987793</ele>
        <time>2009-06-03T11:40:11Z</time>
      </trkpt>
      <trkpt lat="45.0933" lon="5.05221">
        <ele>213.82099914551</ele>
        <time>2009-06-03T11:40:26Z</time>
      </trkpt>
      <trkpt lat="45.09377" lon="5.05307">
        <ele>214.50500488281</ele>
        <time>2009-06-03T11:40:36Z</time>
      </trkpt>
      <trkpt lat="45.09411" lon="5.05386">
        <ele>214.37100219727</ele>
        <time>2009-06-03T11:40:45Z</time>
      </trkpt>
      <trkpt lat="45.09428" lon="5.05528">
        <ele>215.36399841309</ele>
        <time>2009-06-03T11:41:00Z</time>
      </trkpt>
      <trkpt lat="45.09425" lon="5.05691">
        <ele>215.29499816894</ele>
        <time>2009-06-03T11:41:17Z</time>
      </trkpt>
      <trkpt lat="45.09386" lon="5.05878">
        <ele>213.2200012207</ele>
        <time>2009-06-03T11:41:34Z</time>
      </trkpt>
      <trkpt lat="45.09369" lon="5.06063">
        <ele>213.09399414062</ele>
        <time>2009-06-03T11:41:51Z</time>
      </trkpt>
      <trkpt lat="45.09369" lon="5.06207">
        <ele>215.31700134277</ele>
        <time>2009-06-03T11:42:07Z</time>
      </trkpt>
      <trkpt lat="45.09369" lon="5.0622">
        <ele>216.13900756836</ele>
        <time>2009-06-03T11:42:10Z</time>
      </trkpt>
      <trkpt lat="45.09369" lon="5.06224">
        <ele>216.16400146484</ele>
        <time>2009-06-03T11:42:23Z</time>
      </trkpt>
      <trkpt lat="45.09369" lon="5.06282">
        <ele>215.97500610352</ele>
        <time>2009-06-03T11:42:37Z</time>
      </trkpt>
      <trkpt lat="45.09369" lon="5.0629">
        <ele>216.36700439453</ele>
        <time>2009-06-03T11:42:39Z</time>
      </trkpt>
      <trkpt lat="45.0937" lon="5.06251">
        <ele>217.14500427246</ele>
        <time>2009-06-03T11:42:41Z</time>
      </trkpt>
      <trkpt lat="45.09369" lon="5.06343">
        <ele>217.32200622559</ele>
        <time>2009-06-03T11:43:02Z</time>
      </trkpt>
      <trkpt lat="45.09371" lon="5.06411">
        <ele>217.7619934082</ele>
        <time>2009-06-03T11:43:11Z</time>
      </trkpt>
      <trkpt lat="45.09373" lon="5.06455">
        <ele>217.49899291992</ele>
        <time>2009-06-03T11:43:17Z</time>
      </trkpt>
      <trkpt lat="45.09375" lon="5.06506">
        <ele>219.61500549316</ele>
        <time>2009-06-03T11:43:25Z</time>
      </trkpt>
      <trkpt lat="45.09377" lon="5.0656">
        <ele>219.81799316406</ele>
        <time>2009-06-03T11:43:34Z</time>
      </trkpt>
      <trkpt lat="45.09372" lon="5.06652">
        <ele>221.63400268555</ele>
        <time>2009-06-03T11:43:49Z</time>
      </trkpt>
      <trkpt lat="45.09372" lon="5.06652">
        <ele>220.89799499512</ele>
        <time>2009-06-03T11:44:06Z</time>
      </trkpt>
      <trkpt lat="45.09369" lon="5.06713">
        <ele>221.71299743652</ele>
        <time>2009-06-03T11:44:18Z</time>
      </trkpt>
      <trkpt lat="45.09369" lon="5.06737">
        <ele>221.65199279785</ele>
        <time>2009-06-03T11:44:22Z</time>
      </trkpt>
      <trkpt lat="45.09369" lon="5.06743">
        <ele>221.7440032959</ele>
        <time>2009-06-03T11:44:24Z</time>
      </trkpt>
      <trkpt lat="45.09369" lon="5.06743">
        <ele>221.34700012207</ele>
        <time>2009-06-03T11:44:33Z</time>
      </trkpt>
      <trkpt lat="45.09372" lon="5.06797">
        <ele>221.38600158691</ele>
        <time>2009-06-03T11:44:45Z</time>
      </trkpt>
      <trkpt lat="45.09372" lon="5.06801">
        <ele>221.70899963379</ele>
        <time>2009-06-03T11:44:46Z</time>
      </trkpt>
      <trkpt lat="45.09368" lon="5.06807">
        <ele>221.60200500488</ele>
        <time>2009-06-03T11:44:49Z</time>
      </trkpt>
      <trkpt lat="45.09368" lon="5.06806">
        <ele>221.35000610352</ele>
        <time>2009-06-03T11:45:22Z</time>
      </trkpt>
      <trkpt lat="45.09372" lon="5.06803">
        <ele>222.22799682617</ele>
        <time>2009-06-03T11:45:39Z</time>
      </trkpt>
      <trkpt lat="45.09372" lon="5.06805">
        <ele>220.92900085449</ele>
        <time>2009-06-03T11:45:49Z</time>
      </trkpt>
      <trkpt lat="45.09373" lon="5.06829">
        <ele>221.41400146484</ele>
        <time>2009-06-03T11:46:05Z</time>
      </trkpt>
      <trkpt lat="45.09377" lon="5.06923">
        <ele>221.64900207519</ele>
        <time>2009-06-03T11:46:20Z</time>
      </trkpt>
      <trkpt lat="45.09381" lon="5.07031">
        <ele>222.43899536133</ele>
        <time>2009-06-03T11:46:36Z</time>
      </trkpt>
      <trkpt lat="45.09383" lon="5.07086">
        <ele>224.04100036621</ele>
        <time>2009-06-03T11:46:44Z</time>
      </trkpt>
      <trkpt lat="45.09381" lon="5.07152">
        <ele>226.05499267578</ele>
        <time>2009-06-03T11:46:54Z</time>
      </trkpt>
      <trkpt lat="45.09365" lon="5.07188">
        <ele>226.7200012207</ele>
        <time>2009-06-03T11:47:01Z</time>
      </trkpt>
      <trkpt lat="45.09347" lon="5.07204">
        <ele>226.76899719238</ele>
        <time>2009-06-03T11:47:05Z</time>
      </trkpt>
      <trkpt lat="45.09299" lon="5.07289">
        <ele>223.17399597168</ele>
        <time>2009-06-03T11:47:16Z</time>
      </trkpt>
      <trkpt lat="45.09239" lon="5.07417">
        <ele>226.05799865723</ele>
        <time>2009-06-03T11:47:31Z</time>
      </trkpt>
      <trkpt lat="45.09203" lon="5.07488">
        <ele>227.70899963379</ele>
        <time>2009-06-03T11:47:40Z</time>
      </trkpt>
      <trkpt lat="45.09133" lon="5.0763">
        <ele>231.9880065918</ele>
        <time>2009-06-03T11:47:59Z</time>
      </trkpt>
      <trkpt lat="45.09065" lon="5.07716">
        <ele>233.67900085449</ele>
        <time>2009-06-03T11:48:13Z</time>
      </trkpt>
      <trkpt lat="45.08963" lon="5.07805">
        <ele>231.63999938965</ele>
        <time>2009-06-03T11:48:29Z</time>
      </trkpt>
      <trkpt lat="45.08905" lon="5.07836">
        <ele>229.10299682617</ele>
        <time>2009-06-03T11:48:36Z</time>
      </trkpt>
      <trkpt lat="45.08844" lon="5.07911">
        <ele>224.77799987793</ele>
        <time>2009-06-03T11:48:44Z</time>
      </trkpt>
      <trkpt lat="45.08839" lon="5.07925">
        <ele>224.50700378418</ele>
        <time>2009-06-03T11:48:45Z</time>
      </trkpt>
      <trkpt lat="45.08804" lon="5.08106">
        <ele>219.8630065918</ele>
        <time>2009-06-03T11:48:57Z</time>
      </trkpt>
      <trkpt lat="45.08793" lon="5.08182">
        <ele>214.89100646973</ele>
        <time>2009-06-03T11:49:03Z</time>
      </trkpt>
      <trkpt lat="45.08777" lon="5.08284">
        <ele>211.96699523926</ele>
        <time>2009-06-03T11:49:08Z</time>
      </trkpt>
      <trkpt lat="45.08759" lon="5.08401">
        <ele>208.12199401856</ele>
        <time>2009-06-03T11:49:17Z</time>
      </trkpt>
      <trkpt lat="45.08751" lon="5.08497">
        <ele>205.55900573731</ele>
        <time>2009-06-03T11:49:21Z</time>
      </trkpt>
      <trkpt lat="45.08744" lon="5.08574">
        <ele>203.73500061035</ele>
        <time>2009-06-03T11:49:26Z</time>
      </trkpt>
      <trkpt lat="45.08707" lon="5.08749">
        <ele>201.00300598144</ele>
        <time>2009-06-03T11:49:39Z</time>
      </trkpt>
      <trkpt lat="45.08646" lon="5.08934">
        <ele>200.81700134277</ele>
        <time>2009-06-03T11:49:53Z</time>
      </trkpt>
      <trkpt lat="45.08587" lon="5.0908">
        <ele>196.96299743652</ele>
        <time>2009-06-03T11:50:04Z</time>
      </trkpt>
      <trkpt lat="45.08554" lon="5.09185">
        <ele>196.47200012207</ele>
        <time>2009-06-03T11:50:12Z</time>
      </trkpt>
      <trkpt lat="45.08535" lon="5.09231">
        <ele>196.80400085449</ele>
        <time>2009-06-03T11:50:16Z</time>
      </trkpt>
      <trkpt lat="45.08474" lon="5.09361">
        <ele>194.64199829102</ele>
        <time>2009-06-03T11:50:27Z</time>
      </trkpt>
      <trkpt lat="45.08453" lon="5.09514">
        <ele>195.05999755859</ele>
        <time>2009-06-03T11:50:38Z</time>
      </trkpt>
      <trkpt lat="45.08452" lon="5.09541">
        <ele>195.18400573731</ele>
        <time>2009-06-03T11:50:40Z</time>
      </trkpt>
      <trkpt lat="45.08497" lon="5.09666">
        <ele>196.88000488281</ele>
        <time>2009-06-03T11:50:51Z</time>
      </trkpt>
      <trkpt lat="45.08511" lon="5.09699">
        <ele>195.64399719238</ele>
        <time>2009-06-03T11:50:54Z</time>
      </trkpt>
      <trkpt lat="45.08561" lon="5.09849">
        <ele>196.75100708008</ele>
        <time>2009-06-03T11:51:09Z</time>
      </trkpt>
      <trkpt lat="45.08609" lon="5.10027">
        <ele>198.1549987793</ele>
        <time>2009-06-03T11:51:27Z</time>
      </trkpt>
      <trkpt lat="45.08627" lon="5.10099">
        <ele>199.91700744629</ele>
        <time>2009-06-03T11:51:35Z</time>
      </trkpt>
      <trkpt lat="45.08665" lon="5.10274">
        <ele>199.25700378418</ele>
        <time>2009-06-03T11:51:53Z</time>
      </trkpt>
      <trkpt lat="45.08671" lon="5.10295">
        <ele>198.41299438477</ele>
        <time>2009-06-03T11:51:55Z</time>
      </trkpt>
      <trkpt lat="45.08738" lon="5.10556">
        <ele>197.53799438477</ele>
        <time>2009-06-03T11:52:19Z</time>
      </trkpt>
      <trkpt lat="45.0878" lon="5.10773">
        <ele>198.13800048828</ele>
        <time>2009-06-03T11:52:38Z</time>
      </trkpt>
      <trkpt lat="45.08784" lon="5.10897">
        <ele>198.68899536133</ele>
        <time>2009-06-03T11:52:49Z</time>
      </trkpt>
      <trkpt lat="45.08805" lon="5.11064">
        <ele>198.46499633789</ele>
        <time>2009-06-03T11:53:04Z</time>
      </trkpt>
      <trkpt lat="45.08824" lon="5.11198">
        <ele>199.47099304199</ele>
        <time>2009-06-03T11:53:16Z</time>
      </trkpt>
      <trkpt lat="45.08846" lon="5.11422">
        <ele>200.93400573731</ele>
        <time>2009-06-03T11:53:37Z</time>
      </trkpt>
      <trkpt lat="45.08866" lon="5.11642">
        <ele>202.26499938965</ele>
        <time>2009-06-03T11:53:59Z</time>
      </trkpt>
      <trkpt lat="45.08882" lon="5.11875">
        <ele>202.58799743652</ele>
        <time>2009-06-03T11:54:21Z</time>
      </trkpt>
      <trkpt lat="45.08895" lon="5.12069">
        <ele>203.72999572754</ele>
        <time>2009-06-03T11:54:41Z</time>
      </trkpt>
      <trkpt lat="45.08902" lon="5.12189">
        <ele>206.12600708008</ele>
        <time>2009-06-03T11:54:54Z</time>
      </trkpt>
      <trkpt lat="45.0891" lon="5.12355">
        <ele>206.81300354004</ele>
        <time>2009-06-03T11:55:13Z</time>
      </trkpt>
      <trkpt lat="45.08913" lon="5.12412">
        <ele>209.64900207519</ele>
        <time>2009-06-03T11:55:20Z</time>
      </trkpt>
      <trkpt lat="45.08905" lon="5.12538">
        <ele>211.28799438477</ele>
        <time>2009-06-03T11:55:37Z</time>
      </trkpt>
      <trkpt lat="45.08856" lon="5.12683">
        <ele>209.12800598144</ele>
        <time>2009-06-03T11:55:52Z</time>
      </trkpt>
      <trkpt lat="45.08813" lon="5.12845">
        <ele>207.94799804688</ele>
        <time>2009-06-03T11:56:07Z</time>
      </trkpt>
      <trkpt lat="45.08802" lon="5.12928">
        <ele>205.76400756836</ele>
        <time>2009-06-03T11:56:14Z</time>
      </trkpt>
      <trkpt lat="45.08798" lon="5.12951">
        <ele>205.60099792481</ele>
        <time>2009-06-03T11:56:16Z</time>
      </trkpt>
      <trkpt lat="45.08794" lon="5.13011">
        <ele>204.60099792481</ele>
        <time>2009-06-03T11:56:21Z</time>
      </trkpt>
      <trkpt lat="45.08793" lon="5.13053">
        <ele>204.68400573731</ele>
        <time>2009-06-03T11:56:25Z</time>
      </trkpt>
      <trkpt lat="45.0879" lon="5.13074">
        <ele>205.13000488281</ele>
        <time>2009-06-03T11:56:27Z</time>
      </trkpt>
      <trkpt lat="45.08776" lon="5.13133">
        <ele>205.87100219727</ele>
        <time>2009-06-03T11:56:33Z</time>
      </trkpt>
      <trkpt lat="45.08724" lon="5.13248">
        <ele>205.41600036621</ele>
        <time>2009-06-03T11:56:46Z</time>
      </trkpt>
      <trkpt lat="45.08673" lon="5.13367">
        <ele>205.02099609375</ele>
        <time>2009-06-03T11:56:59Z</time>
      </trkpt>
      <trkpt lat="45.08631" lon="5.13464">
        <ele>206.69500732422</ele>
        <time>2009-06-03T11:57:10Z</time>
      </trkpt>
      <trkpt lat="45.0863" lon="5.13465">
        <ele>206.80299377441</ele>
        <time>2009-06-03T11:57:11Z</time>
      </trkpt>
      <trkpt lat="45.0863" lon="5.13465">
        <ele>206.76400756836</ele>
        <time>2009-06-03T11:57:12Z</time>
      </trkpt>
      <trkpt lat="45.0863" lon="5.13465">
        <ele>206.27099609375</ele>
        <time>2009-06-03T11:57:18Z</time>
      </trkpt>
      <trkpt lat="45.0862" lon="5.1349">
        <ele>205.73399353027</ele>
        <time>2009-06-03T11:57:20Z</time>
      </trkpt>
      <trkpt lat="45.0858" lon="5.13579">
        <ele>205.96899414062</ele>
        <time>2009-06-03T11:57:31Z</time>
      </trkpt>
      <trkpt lat="45.0854" lon="5.13636">
        <ele>206.11000061035</ele>
        <time>2009-06-03T11:57:38Z</time>
      </trkpt>
      <trkpt lat="45.08397" lon="5.1383">
        <ele>205.03999328613</ele>
        <time>2009-06-03T11:58:02Z</time>
      </trkpt>
      <trkpt lat="45.08342" lon="5.1394">
        <ele>204.82600402832</ele>
        <time>2009-06-03T11:58:14Z</time>
      </trkpt>
      <trkpt lat="45.08266" lon="5.14164">
        <ele>205.94900512695</ele>
        <time>2009-06-03T11:58:34Z</time>
      </trkpt>
      <trkpt lat="45.08249" lon="5.14235">
        <ele>207.49200439453</ele>
        <time>2009-06-03T11:58:41Z</time>
      </trkpt>
      <trkpt lat="45.0822" lon="5.14336">
        <ele>208.68099975586</ele>
        <time>2009-06-03T11:58:52Z</time>
      </trkpt>
      <trkpt lat="45.08214" lon="5.14355">
        <ele>207.48699951172</ele>
        <time>2009-06-03T11:58:54Z</time>
      </trkpt>
      <trkpt lat="45.08197" lon="5.14412">
        <ele>207.7440032959</ele>
        <time>2009-06-03T11:59:00Z</time>
      </trkpt>
      <trkpt lat="45.08158" lon="5.14537">
        <ele>208.09899902344</ele>
        <time>2009-06-03T11:59:14Z</time>
      </trkpt>
      <trkpt lat="45.08122" lon="5.14647">
        <ele>204.53399658203</ele>
        <time>2009-06-03T11:59:24Z</time>
      </trkpt>
      <trkpt lat="45.08051" lon="5.14851">
        <ele>204.38299560547</ele>
        <time>2009-06-03T11:59:41Z</time>
      </trkpt>
      <trkpt lat="45.08027" lon="5.14966">
        <ele>207.22900390625</ele>
        <time>2009-06-03T11:59:51Z</time>
      </trkpt>
      <trkpt lat="45.0799" lon="5.15115">
        <ele>207.58999633789</ele>
        <time>2009-06-03T12:00:07Z</time>
      </trkpt>
      <trkpt lat="45.07964" lon="5.15292">
        <ele>206.46699523926</ele>
        <time>2009-06-03T12:00:22Z</time>
      </trkpt>
      <trkpt lat="45.07917" lon="5.15463">
        <ele>207.44700622559</ele>
        <time>2009-06-03T12:00:39Z</time>
      </trkpt>
      <trkpt lat="45.07903" lon="5.15533">
        <ele>206.54299926758</ele>
        <time>2009-06-03T12:00:45Z</time>
      </trkpt>
      <trkpt lat="45.07874" lon="5.15676">
        <ele>203.28399658203</ele>
        <time>2009-06-03T12:00:56Z</time>
      </trkpt>
      <trkpt lat="45.07843" lon="5.15815">
        <ele>202.29100036621</ele>
        <time>2009-06-03T12:01:07Z</time>
      </trkpt>
      <trkpt lat="45.07794" lon="5.1601">
        <ele>200.43800354004</ele>
        <time>2009-06-03T12:01:23Z</time>
      </trkpt>
      <trkpt lat="45.07786" lon="5.16047">
        <ele>199.01800537109</ele>
        <time>2009-06-03T12:01:26Z</time>
      </trkpt>
      <trkpt lat="45.07763" lon="5.161">
        <ele>194.28500366211</ele>
        <time>2009-06-03T12:01:32Z</time>
      </trkpt>
      <trkpt lat="45.07721" lon="5.1617">
        <ele>194.23899841309</ele>
        <time>2009-06-03T12:01:37Z</time>
      </trkpt>
      <trkpt lat="45.07717" lon="5.16176">
        <ele>194.03900146484</ele>
        <time>2009-06-03T12:01:38Z</time>
      </trkpt>
      <trkpt lat="45.07698" lon="5.16209">
        <ele>193.72500610352</ele>
        <time>2009-06-03T12:01:43Z</time>
      </trkpt>
      <trkpt lat="45.07673" lon="5.16252">
        <ele>193.34399414062</ele>
        <time>2009-06-03T12:01:50Z</time>
      </trkpt>
      <trkpt lat="45.07671" lon="5.16256">
        <ele>193.26300048828</ele>
        <time>2009-06-03T12:01:51Z</time>
      </trkpt>
      <trkpt lat="45.07668" lon="5.16261">
        <ele>193.06399536133</ele>
        <time>2009-06-03T12:01:53Z</time>
      </trkpt>
      <trkpt lat="45.07672" lon="5.16297">
        <ele>192.68800354004</ele>
        <time>2009-06-03T12:01:59Z</time>
      </trkpt>
      <trkpt lat="45.07678" lon="5.16323">
        <ele>192.71099853516</ele>
        <time>2009-06-03T12:02:02Z</time>
      </trkpt>
      <trkpt lat="45.07682" lon="5.16339">
        <ele>192.42599487305</ele>
        <time>2009-06-03T12:02:04Z</time>
      </trkpt>
      <trkpt lat="45.07698" lon="5.16407">
        <ele>193.44099426269</ele>
        <time>2009-06-03T12:02:12Z</time>
      </trkpt>
      <trkpt lat="45.07729" lon="5.16563">
        <ele>193.61799621582</ele>
        <time>2009-06-03T12:02:29Z</time>
      </trkpt>
      <trkpt lat="45.07759" lon="5.16691">
        <ele>191.73300170898</ele>
        <time>2009-06-03T12:02:42Z</time>
      </trkpt>
      <trkpt lat="45.07801" lon="5.16866">
        <ele>192.05900573731</ele>
        <time>2009-06-03T12:02:59Z</time>
      </trkpt>
      <trkpt lat="45.07866" lon="5.17051">
        <ele>190.03399658203</ele>
        <time>2009-06-03T12:03:17Z</time>
      </trkpt>
      <trkpt lat="45.07932" lon="5.17178">
        <ele>188.00700378418</ele>
        <time>2009-06-03T12:03:31Z</time>
      </trkpt>
      <trkpt lat="45.07969" lon="5.17246">
        <ele>186.02900695801</ele>
        <time>2009-06-03T12:03:40Z</time>
      </trkpt>
      <trkpt lat="45.07983" lon="5.17265">
        <ele>185.22700500488</ele>
        <time>2009-06-03T12:03:41Z</time>
      </trkpt>
      <trkpt lat="45.08052" lon="5.17368">
        <ele>180.19700622559</ele>
        <time>2009-06-03T12:03:52Z</time>
      </trkpt>
      <trkpt lat="45.08176" lon="5.17565">
        <ele>176.24299621582</ele>
        <time>2009-06-03T12:04:09Z</time>
      </trkpt>
      <trkpt lat="45.08258" lon="5.17684">
        <ele>175.0299987793</ele>
        <time>2009-06-03T12:04:20Z</time>
      </trkpt>
      <trkpt lat="45.08295" lon="5.17731">
        <ele>173.57600402832</ele>
        <time>2009-06-03T12:04:25Z</time>
      </trkpt>
      <trkpt lat="45.08386" lon="5.1785">
        <ele>172.42199707031</ele>
        <time>2009-06-03T12:04:39Z</time>
      </trkpt>
      <trkpt lat="45.08479" lon="5.18034">
        <ele>167.54699707031</ele>
        <time>2009-06-03T12:04:55Z</time>
      </trkpt>
      <trkpt lat="45.0854" lon="5.18214">
        <ele>163.91700744629</ele>
        <time>2009-06-03T12:05:09Z</time>
      </trkpt>
      <trkpt lat="45.08547" lon="5.1824">
        <ele>163.09700012207</ele>
        <time>2009-06-03T12:05:11Z</time>
      </trkpt>
      <trkpt lat="45.08556" lon="5.18272">
        <ele>164.87199401856</ele>
        <time>2009-06-03T12:05:14Z</time>
      </trkpt>
      <trkpt lat="45.08558" lon="5.18282">
        <ele>165.0890045166</ele>
        <time>2009-06-03T12:05:16Z</time>
      </trkpt>
      <trkpt lat="45.08553" lon="5.1831">
        <ele>164.96699523926</ele>
        <time>2009-06-03T12:05:18Z</time>
      </trkpt>
      <trkpt lat="45.08563" lon="5.1831">
        <ele>164.92100524902</ele>
        <time>2009-06-03T12:05:38Z</time>
      </trkpt>
      <trkpt lat="45.08561" lon="5.18291">
        <ele>164.60499572754</ele>
        <time>2009-06-03T12:05:42Z</time>
      </trkpt>
      <trkpt lat="45.08563" lon="5.18299">
        <ele>164.33200073242</ele>
        <time>2009-06-03T12:06:17Z</time>
      </trkpt>
      <trkpt lat="45.08568" lon="5.18368">
        <ele>161.05900573731</ele>
        <time>2009-06-03T12:06:26Z</time>
      </trkpt>
      <trkpt lat="45.08569" lon="5.18392">
        <ele>160.26400756836</ele>
        <time>2009-06-03T12:06:28Z</time>
      </trkpt>
      <trkpt lat="45.0857" lon="5.18565">
        <ele>157.31799316406</ele>
        <time>2009-06-03T12:06:42Z</time>
      </trkpt>
      <trkpt lat="45.08569" lon="5.18698">
        <ele>157.66299438477</ele>
        <time>2009-06-03T12:06:55Z</time>
      </trkpt>
      <trkpt lat="45.08567" lon="5.18717">
        <ele>157.58599853516</ele>
        <time>2009-06-03T12:06:57Z</time>
      </trkpt>
      <trkpt lat="45.08564" lon="5.18754">
        <ele>158.01100158691</ele>
        <time>2009-06-03T12:07:01Z</time>
      </trkpt>
      <trkpt lat="45.08549" lon="5.18812">
        <ele>158.83399963379</ele>
        <time>2009-06-03T12:07:09Z</time>
      </trkpt>
      <trkpt lat="45.0856" lon="5.18873">
        <ele>158.54699707031</ele>
        <time>2009-06-03T12:07:15Z</time>
      </trkpt>
      <trkpt lat="45.08553" lon="5.18984">
        <ele>159.80499267578</ele>
        <time>2009-06-03T12:07:29Z</time>
      </trkpt>
      <trkpt lat="45.08536" lon="5.19198">
        <ele>160.74899291992</ele>
        <time>2009-06-03T12:07:49Z</time>
      </trkpt>
      <trkpt lat="45.08521" lon="5.19402">
        <ele>161.62100219727</ele>
        <time>2009-06-03T12:08:11Z</time>
      </trkpt>
      <trkpt lat="45.08513" lon="5.19569">
        <ele>166.04299926758</ele>
        <time>2009-06-03T12:08:31Z</time>
      </trkpt>
      <trkpt lat="45.08512" lon="5.1965">
        <ele>166.99299621582</ele>
        <time>2009-06-03T12:08:41Z</time>
      </trkpt>
      <trkpt lat="45.08508" lon="5.19847">
        <ele>167.56900024414</ele>
        <time>2009-06-03T12:09:02Z</time>
      </trkpt>
      <trkpt lat="45.08507" lon="5.20044">
        <ele>168.25999450684</ele>
        <time>2009-06-03T12:09:23Z</time>
      </trkpt>
      <trkpt lat="45.08511" lon="5.20237">
        <ele>169.15899658203</ele>
        <time>2009-06-03T12:09:42Z</time>
      </trkpt>
      <trkpt lat="45.08515" lon="5.205">
        <ele>168.53199768066</ele>
        <time>2009-06-03T12:10:08Z</time>
      </trkpt>
      <trkpt lat="45.08518" lon="5.20669">
        <ele>169.90199279785</ele>
        <time>2009-06-03T12:10:25Z</time>
      </trkpt>
      <trkpt lat="45.08519" lon="5.20893">
        <ele>169.12600708008</ele>
        <time>2009-06-03T12:10:46Z</time>
      </trkpt>
      <trkpt lat="45.08509" lon="5.21044">
        <ele>172.65199279785</ele>
        <time>2009-06-03T12:11:02Z</time>
      </trkpt>
      <trkpt lat="45.08487" lon="5.21121">
        <ele>175.0950012207</ele>
        <time>2009-06-03T12:11:13Z</time>
      </trkpt>
      <trkpt lat="45.0848" lon="5.21147">
        <ele>176.69500732422</ele>
        <time>2009-06-03T12:11:17Z</time>
      </trkpt>
      <trkpt lat="45.08477" lon="5.21177">
        <ele>177.60600280762</ele>
        <time>2009-06-03T12:11:21Z</time>
      </trkpt>
      <trkpt lat="45.08471" lon="5.21205">
        <ele>177.73500061035</ele>
        <time>2009-06-03T12:11:25Z</time>
      </trkpt>
      <trkpt lat="45.08432" lon="5.21302">
        <ele>181.59899902344</ele>
        <time>2009-06-03T12:11:41Z</time>
      </trkpt>
      <trkpt lat="45.08416" lon="5.21368">
        <ele>184.24600219727</ele>
        <time>2009-06-03T12:11:54Z</time>
      </trkpt>
      <trkpt lat="45.08387" lon="5.21439">
        <ele>184.37199401856</ele>
        <time>2009-06-03T12:12:05Z</time>
      </trkpt>
      <trkpt lat="45.08383" lon="5.21469">
        <ele>184.59599304199</ele>
        <time>2009-06-03T12:12:09Z</time>
      </trkpt>
      <trkpt lat="45.08389" lon="5.21488">
        <ele>184.95300292969</ele>
        <time>2009-06-03T12:12:12Z</time>
      </trkpt>
      <trkpt lat="45.08383" lon="5.21514">
        <ele>185.41499328613</ele>
        <time>2009-06-03T12:12:16Z</time>
      </trkpt>
      <trkpt lat="45.08374" lon="5.21539">
        <ele>185.8390045166</ele>
        <time>2009-06-03T12:12:20Z</time>
      </trkpt>
      <trkpt lat="45.08362" lon="5.21558">
        <ele>185.54100036621</ele>
        <time>2009-06-03T12:12:23Z</time>
      </trkpt>
      <trkpt lat="45.08372" lon="5.21608">
        <ele>185.79299926758</ele>
        <time>2009-06-03T12:12:30Z</time>
      </trkpt>
      <trkpt lat="45.08377" lon="5.21611">
        <ele>185.94000244141</ele>
        <time>2009-06-03T12:12:31Z</time>
      </trkpt>
      <trkpt lat="45.08388" lon="5.21617">
        <ele>186.57800292969</ele>
        <time>2009-06-03T12:12:33Z</time>
      </trkpt>
      <trkpt lat="45.08404" lon="5.21634">
        <ele>187.78700256348</ele>
        <time>2009-06-03T12:12:37Z</time>
      </trkpt>
      <trkpt lat="45.08409" lon="5.21645">
        <ele>188.53799438477</ele>
        <time>2009-06-03T12:12:39Z</time>
      </trkpt>
      <trkpt lat="45.08429" lon="5.21703">
        <ele>192.65699768066</ele>
        <time>2009-06-03T12:12:50Z</time>
      </trkpt>
      <trkpt lat="45.08433" lon="5.21718">
        <ele>193.97300720215</ele>
        <time>2009-06-03T12:12:53Z</time>
      </trkpt>
      <trkpt lat="45.08433" lon="5.21742">
        <ele>196.53500366211</ele>
        <time>2009-06-03T12:12:59Z</time>
      </trkpt>
      <trkpt lat="45.08433" lon="5.21746">
        <ele>196.64700317383</ele>
        <time>2009-06-03T12:13:00Z</time>
      </trkpt>
      <trkpt lat="45.08435" lon="5.21772">
        <ele>197.19400024414</ele>
        <time>2009-06-03T12:13:06Z</time>
      </trkpt>
      <trkpt lat="45.08479" lon="5.21819">
        <ele>196.79600524902</ele>
        <time>2009-06-03T12:13:18Z</time>
      </trkpt>
      <trkpt lat="45.08494" lon="5.21831">
        <ele>196.51600646973</ele>
        <time>2009-06-03T12:13:21Z</time>
      </trkpt>
      <trkpt lat="45.08511" lon="5.21839">
        <ele>196.42599487305</ele>
        <time>2009-06-03T12:13:24Z</time>
      </trkpt>
      <trkpt lat="45.0852" lon="5.21861">
        <ele>197.52200317383</ele>
        <time>2009-06-03T12:13:29Z</time>
      </trkpt>
      <trkpt lat="45.08487" lon="5.21933">
        <ele>198.05499267578</ele>
        <time>2009-06-03T12:13:40Z</time>
      </trkpt>
      <trkpt lat="45.08463" lon="5.21998">
        <ele>198.85099792481</ele>
        <time>2009-06-03T12:13:49Z</time>
      </trkpt>
      <trkpt lat="45.08398" lon="5.22122">
        <ele>198.80999755859</ele>
        <time>2009-06-03T12:14:06Z</time>
      </trkpt>
      <trkpt lat="45.0839" lon="5.22137">
        <ele>198.88400268555</ele>
        <time>2009-06-03T12:14:08Z</time>
      </trkpt>
      <trkpt lat="45.08341" lon="5.22265">
        <ele>198.12699890137</ele>
        <time>2009-06-03T12:14:22Z</time>
      </trkpt>
      <trkpt lat="45.0831" lon="5.2245">
        <ele>197.31900024414</ele>
        <time>2009-06-03T12:14:39Z</time>
      </trkpt>
      <trkpt lat="45.08301" lon="5.22471">
        <ele>197.16900634766</ele>
        <time>2009-06-03T12:14:41Z</time>
      </trkpt>
      <trkpt lat="45.0822" lon="5.22588">
        <ele>198.06500244141</ele>
        <time>2009-06-03T12:14:55Z</time>
      </trkpt>
      <trkpt lat="45.08155" lon="5.22685">
        <ele>201.66900634766</ele>
        <time>2009-06-03T12:15:10Z</time>
      </trkpt>
      <trkpt lat="45.08131" lon="5.22721">
        <ele>203.93200683594</ele>
        <time>2009-06-03T12:15:17Z</time>
      </trkpt>
      <trkpt lat="45.08112" lon="5.22752">
        <ele>204.53500366211</ele>
        <time>2009-06-03T12:15:23Z</time>
      </trkpt>
      <trkpt lat="45.08103" lon="5.22768">
        <ele>204.72700500488</ele>
        <time>2009-06-03T12:15:26Z</time>
      </trkpt>
      <trkpt lat="45.08102" lon="5.22769">
        <ele>205.12100219727</ele>
        <time>2009-06-03T12:15:28Z</time>
      </trkpt>
      <trkpt lat="45.08068" lon="5.22853">
        <ele>206.95799255371</ele>
        <time>2009-06-03T12:15:40Z</time>
      </trkpt>
      <trkpt lat="45.08032" lon="5.22976">
        <ele>207.1190032959</ele>
        <time>2009-06-03T12:15:56Z</time>
      </trkpt>
      <trkpt lat="45.07999" lon="5.23096">
        <ele>208.54899597168</ele>
        <time>2009-06-03T12:16:11Z</time>
      </trkpt>
      <trkpt lat="45.07949" lon="5.23238">
        <ele>209.05499267578</ele>
        <time>2009-06-03T12:16:29Z</time>
      </trkpt>
      <trkpt lat="45.07918" lon="5.23323">
        <ele>209.53999328613</ele>
        <time>2009-06-03T12:16:40Z</time>
      </trkpt>
      <trkpt lat="45.07869" lon="5.23428">
        <ele>209.19900512695</ele>
        <time>2009-06-03T12:16:51Z</time>
      </trkpt>
      <trkpt lat="45.07824" lon="5.23609">
        <ele>209.74499511719</ele>
        <time>2009-06-03T12:17:11Z</time>
      </trkpt>
      <trkpt lat="45.07772" lon="5.23783">
        <ele>209.21499633789</ele>
        <time>2009-06-03T12:17:29Z</time>
      </trkpt>
      <trkpt lat="45.07724" lon="5.23946">
        <ele>208.78399658203</ele>
        <time>2009-06-03T12:17:46Z</time>
      </trkpt>
      <trkpt lat="45.07714" lon="5.23975">
        <ele>208.57699584961</ele>
        <time>2009-06-03T12:17:49Z</time>
      </trkpt>
      <trkpt lat="45.07686" lon="5.24018">
        <ele>207.78100585938</ele>
        <time>2009-06-03T12:17:56Z</time>
      </trkpt>
      <trkpt lat="45.07516" lon="5.24041">
        <ele>206.44200134277</ele>
        <time>2009-06-03T12:18:14Z</time>
      </trkpt>
      <trkpt lat="45.07383" lon="5.24055">
        <ele>206.21200561523</ele>
        <time>2009-06-03T12:18:29Z</time>
      </trkpt>
      <trkpt lat="45.07255" lon="5.24066">
        <ele>202.46499633789</ele>
        <time>2009-06-03T12:18:43Z</time>
      </trkpt>
      <trkpt lat="45.07205" lon="5.24069">
        <ele>198.63299560547</ele>
        <time>2009-06-03T12:18:48Z</time>
      </trkpt>
      <trkpt lat="45.07162" lon="5.24058">
        <ele>197.48699951172</ele>
        <time>2009-06-03T12:18:52Z</time>
      </trkpt>
      <trkpt lat="45.07107" lon="5.2407">
        <ele>197.25799560547</ele>
        <time>2009-06-03T12:18:58Z</time>
      </trkpt>
      <trkpt lat="45.07097" lon="5.24092">
        <ele>197.14399719238</ele>
        <time>2009-06-03T12:19:00Z</time>
      </trkpt>
      <trkpt lat="45.07084" lon="5.24147">
        <ele>198.16999816894</ele>
        <time>2009-06-03T12:19:05Z</time>
      </trkpt>
      <trkpt lat="45.07065" lon="5.2423">
        <ele>198.38400268555</ele>
        <time>2009-06-03T12:19:13Z</time>
      </trkpt>
      <trkpt lat="45.0704" lon="5.2431">
        <ele>197.83599853516</ele>
        <time>2009-06-03T12:19:22Z</time>
      </trkpt>
      <trkpt lat="45.06998" lon="5.24373">
        <ele>197.03300476074</ele>
        <time>2009-06-03T12:19:30Z</time>
      </trkpt>
      <trkpt lat="45.06993" lon="5.2438">
        <ele>197.49000549316</ele>
        <time>2009-06-03T12:19:31Z</time>
      </trkpt>
      <trkpt lat="45.0696" lon="5.24394">
        <ele>196.11700439453</ele>
        <time>2009-06-03T12:19:36Z</time>
      </trkpt>
      <trkpt lat="45.06836" lon="5.24344">
        <ele>188.95599365234</ele>
        <time>2009-06-03T12:19:50Z</time>
      </trkpt>
      <trkpt lat="45.06803" lon="5.24333">
        <ele>187.88900756836</ele>
        <time>2009-06-03T12:19:52Z</time>
      </trkpt>
      <trkpt lat="45.06762" lon="5.24318">
        <ele>187.91299438477</ele>
        <time>2009-06-03T12:19:56Z</time>
      </trkpt>
      <trkpt lat="45.06712" lon="5.24301">
        <ele>185.48899841309</ele>
        <time>2009-06-03T12:20:03Z</time>
      </trkpt>
      <trkpt lat="45.06579" lon="5.24247">
        <ele>185.98199462891</ele>
        <time>2009-06-03T12:20:16Z</time>
      </trkpt>
      <trkpt lat="45.06548" lon="5.24205">
        <ele>188.35699462891</ele>
        <time>2009-06-03T12:20:22Z</time>
      </trkpt>
      <trkpt lat="45.0654" lon="5.24172">
        <ele>189.79899597168</ele>
        <time>2009-06-03T12:20:26Z</time>
      </trkpt>
      <trkpt lat="45.06538" lon="5.24164">
        <ele>190.86399841309</ele>
        <time>2009-06-03T12:20:27Z</time>
      </trkpt>
      <trkpt lat="45.06531" lon="5.24137">
        <ele>191.48100280762</ele>
        <time>2009-06-03T12:20:31Z</time>
      </trkpt>
      <trkpt lat="45.06524" lon="5.24111">
        <ele>192.26899719238</ele>
        <time>2009-06-03T12:20:37Z</time>
      </trkpt>
      <trkpt lat="45.06506" lon="5.24118">
        <ele>192.3809967041</ele>
        <time>2009-06-03T12:20:41Z</time>
      </trkpt>
      <trkpt lat="45.06453" lon="5.24151">
        <ele>193.50399780273</ele>
        <time>2009-06-03T12:20:52Z</time>
      </trkpt>
      <trkpt lat="45.06352" lon="5.24212">
        <ele>194.60699462891</ele>
        <time>2009-06-03T12:21:08Z</time>
      </trkpt>
      <trkpt lat="45.06303" lon="5.2424">
        <ele>195.02099609375</ele>
        <time>2009-06-03T12:21:15Z</time>
      </trkpt>
      <trkpt lat="45.06182" lon="5.24259">
        <ele>192.04100036621</ele>
        <time>2009-06-03T12:21:30Z</time>
      </trkpt>
      <trkpt lat="45.06141" lon="5.24264">
        <ele>190.77000427246</ele>
        <time>2009-06-03T12:21:35Z</time>
      </trkpt>
      <trkpt lat="45.06097" lon="5.2427">
        <ele>189.58299255371</ele>
        <time>2009-06-03T12:21:40Z</time>
      </trkpt>
      <trkpt lat="45.06035" lon="5.2431">
        <ele>187.66200256348</ele>
        <time>2009-06-03T12:21:48Z</time>
      </trkpt>
      <trkpt lat="45.06001" lon="5.24366">
        <ele>186.86999511719</ele>
        <time>2009-06-03T12:21:54Z</time>
      </trkpt>
      <trkpt lat="45.05996" lon="5.24376">
        <ele>186.87100219727</ele>
        <time>2009-06-03T12:21:55Z</time>
      </trkpt>
      <trkpt lat="45.05983" lon="5.24404">
        <ele>185.64999389648</ele>
        <time>2009-06-03T12:21:59Z</time>
      </trkpt>
      <trkpt lat="45.05978" lon="5.24462">
        <ele>185.70700073242</ele>
        <time>2009-06-03T12:22:03Z</time>
      </trkpt>
      <trkpt lat="45.05978" lon="5.24469">
        <ele>185.69700622559</ele>
        <time>2009-06-03T12:22:04Z</time>
      </trkpt>
      <trkpt lat="45.05978" lon="5.24469">
        <ele>185.52900695801</ele>
        <time>2009-06-03T12:22:05Z</time>
      </trkpt>
      <trkpt lat="45.05978" lon="5.24503">
        <ele>183.73599243164</ele>
        <time>2009-06-03T12:22:22Z</time>
      </trkpt>
      <trkpt lat="45.05979" lon="5.24531">
        <ele>183.9940032959</ele>
        <time>2009-06-03T12:22:27Z</time>
      </trkpt>
      <trkpt lat="45.0598" lon="5.24534">
        <ele>183.94000244141</ele>
        <time>2009-06-03T12:22:30Z</time>
      </trkpt>
      <trkpt lat="45.0598" lon="5.2454">
        <ele>183.80900573731</ele>
        <time>2009-06-03T12:22:35Z</time>
      </trkpt>
      <trkpt lat="45.05981" lon="5.24543">
        <ele>184.59599304199</ele>
        <time>2009-06-03T12:24:30Z</time>
      </trkpt>
      <trkpt lat="45.05981" lon="5.24549">
        <ele>184.12399291992</ele>
        <time>2009-06-03T12:24:32Z</time>
      </trkpt>
      <trkpt lat="45.05983" lon="5.2457">
        <ele>184.13000488281</ele>
        <time>2009-06-03T12:24:37Z</time>
      </trkpt>
      <trkpt lat="45.05988" lon="5.24614">
        <ele>182.79899597168</ele>
        <time>2009-06-03T12:24:43Z</time>
      </trkpt>
      <trkpt lat="45.05993" lon="5.24644">
        <ele>181.57299804688</ele>
        <time>2009-06-03T12:24:46Z</time>
      </trkpt>
      <trkpt lat="45.0602" lon="5.24684">
        <ele>180.95899963379</ele>
        <time>2009-06-03T12:24:51Z</time>
      </trkpt>
      <trkpt lat="45.06053" lon="5.24699">
        <ele>180.05000305176</ele>
        <time>2009-06-03T12:24:55Z</time>
      </trkpt>
      <trkpt lat="45.06067" lon="5.24706">
        <ele>178.8630065918</ele>
        <time>2009-06-03T12:24:57Z</time>
      </trkpt>
      <trkpt lat="45.06133" lon="5.2473">
        <ele>177.73100280762</ele>
        <time>2009-06-03T12:25:08Z</time>
      </trkpt>
      <trkpt lat="45.06177" lon="5.24776">
        <ele>178.69700622559</ele>
        <time>2009-06-03T12:25:12Z</time>
      </trkpt>
      <trkpt lat="45.0619" lon="5.24865">
        <ele>179.72500610352</ele>
        <time>2009-06-03T12:25:21Z</time>
      </trkpt>
      <trkpt lat="45.06195" lon="5.24922">
        <ele>181.5119934082</ele>
        <time>2009-06-03T12:25:27Z</time>
      </trkpt>
      <trkpt lat="45.06186" lon="5.25085">
        <ele>182.78999328613</ele>
        <time>2009-06-03T12:25:44Z</time>
      </trkpt>
      <trkpt lat="45.0618" lon="5.25152">
        <ele>183.45599365234</ele>
        <time>2009-06-03T12:25:51Z</time>
      </trkpt>
      <trkpt lat="45.06166" lon="5.25244">
        <ele>185.33099365234</ele>
        <time>2009-06-03T12:26:01Z</time>
      </trkpt>
      <trkpt lat="45.06138" lon="5.25415">
        <ele>186.63499450684</ele>
        <time>2009-06-03T12:26:19Z</time>
      </trkpt>
      <trkpt lat="45.06133" lon="5.2548">
        <ele>187.93800354004</ele>
        <time>2009-06-03T12:26:26Z</time>
      </trkpt>
      <trkpt lat="45.06145" lon="5.25597">
        <ele>189.2380065918</ele>
        <time>2009-06-03T12:26:41Z</time>
      </trkpt>
      <trkpt lat="45.06174" lon="5.2575">
        <ele>190.94799804688</ele>
        <time>2009-06-03T12:26:55Z</time>
      </trkpt>
      <trkpt lat="45.06203" lon="5.25901">
        <ele>193.49899291992</ele>
        <time>2009-06-03T12:27:11Z</time>
      </trkpt>
      <trkpt lat="45.0622" lon="5.26054">
        <ele>195.97099304199</ele>
        <time>2009-06-03T12:27:27Z</time>
      </trkpt>
      <trkpt lat="45.06236" lon="5.26241">
        <ele>197.01300048828</ele>
        <time>2009-06-03T12:27:47Z</time>
      </trkpt>
      <trkpt lat="45.06261" lon="5.2641">
        <ele>199.11799621582</ele>
        <time>2009-06-03T12:28:06Z</time>
      </trkpt>
      <trkpt lat="45.06269" lon="5.26425">
        <ele>198.93699645996</ele>
        <time>2009-06-03T12:28:08Z</time>
      </trkpt>
      <trkpt lat="45.06335" lon="5.26548">
        <ele>200.07800292969</ele>
        <time>2009-06-03T12:28:24Z</time>
      </trkpt>
      <trkpt lat="45.06403" lon="5.26731">
        <ele>202.91600036621</ele>
        <time>2009-06-03T12:28:46Z</time>
      </trkpt>
      <trkpt lat="45.06415" lon="5.26765">
        <ele>202.87800598144</ele>
        <time>2009-06-03T12:28:50Z</time>
      </trkpt>
      <trkpt lat="45.06405" lon="5.26809">
        <ele>203.75500488281</ele>
        <time>2009-06-03T12:28:56Z</time>
      </trkpt>
      <trkpt lat="45.06313" lon="5.26846">
        <ele>205.12899780273</ele>
        <time>2009-06-03T12:29:09Z</time>
      </trkpt>
      <trkpt lat="45.06299" lon="5.2686">
        <ele>204.46600341797</ele>
        <time>2009-06-03T12:29:11Z</time>
      </trkpt>
      <trkpt lat="45.06284" lon="5.269">
        <ele>203.82699584961</ele>
        <time>2009-06-03T12:29:15Z</time>
      </trkpt>
      <trkpt lat="45.06254" lon="5.27015">
        <ele>202.43600463867</ele>
        <time>2009-06-03T12:29:25Z</time>
      </trkpt>
      <trkpt lat="45.06218" lon="5.27075">
        <ele>199.85800170898</ele>
        <time>2009-06-03T12:29:31Z</time>
      </trkpt>
      <trkpt lat="45.06121" lon="5.2725">
        <ele>194.23500061035</ele>
        <time>2009-06-03T12:29:46Z</time>
      </trkpt>
      <trkpt lat="45.06107" lon="5.27296">
        <ele>191.41799926758</ele>
        <time>2009-06-03T12:29:51Z</time>
      </trkpt>
      <trkpt lat="45.0609" lon="5.27372">
        <ele>189.78500366211</ele>
        <time>2009-06-03T12:29:54Z</time>
      </trkpt>
      <trkpt lat="45.06077" lon="5.27454">
        <ele>188.62100219727</ele>
        <time>2009-06-03T12:29:59Z</time>
      </trkpt>
      <trkpt lat="45.06081" lon="5.27535">
        <ele>186.76100158691</ele>
        <time>2009-06-03T12:30:04Z</time>
      </trkpt>
      <trkpt lat="45.06097" lon="5.27598">
        <ele>184.26800537109</ele>
        <time>2009-06-03T12:30:08Z</time>
      </trkpt>
      <trkpt lat="45.06109" lon="5.27746">
        <ele>182.18800354004</ele>
        <time>2009-06-03T12:30:17Z</time>
      </trkpt>
      <trkpt lat="45.06124" lon="5.2782">
        <ele>181.5359954834</ele>
        <time>2009-06-03T12:30:22Z</time>
      </trkpt>
      <trkpt lat="45.06144" lon="5.27875">
        <ele>180.15199279785</ele>
        <time>2009-06-03T12:30:26Z</time>
      </trkpt>
      <trkpt lat="45.06152" lon="5.27962">
        <ele>180.83299255371</ele>
        <time>2009-06-03T12:30:32Z</time>
      </trkpt>
      <trkpt lat="45.06116" lon="5.28165">
        <ele>181.12399291992</ele>
        <time>2009-06-03T12:30:48Z</time>
      </trkpt>
      <trkpt lat="45.0611" lon="5.28197">
        <ele>182.73500061035</ele>
        <time>2009-06-03T12:30:51Z</time>
      </trkpt>
      <trkpt lat="45.06099" lon="5.28257">
        <ele>183.0950012207</ele>
        <time>2009-06-03T12:30:57Z</time>
      </trkpt>
      <trkpt lat="45.06086" lon="5.28328">
        <ele>185.03900146484</ele>
        <time>2009-06-03T12:31:05Z</time>
      </trkpt>
      <trkpt lat="45.06068" lon="5.2846">
        <ele>184.83500671387</ele>
        <time>2009-06-03T12:31:19Z</time>
      </trkpt>
      <trkpt lat="45.06068" lon="5.2847">
        <ele>184.74499511719</ele>
        <time>2009-06-03T12:31:20Z</time>
      </trkpt>
      <trkpt lat="45.06099" lon="5.28603">
        <ele>185.02099609375</ele>
        <time>2009-06-03T12:31:34Z</time>
      </trkpt>
      <trkpt lat="45.06124" lon="5.28699">
        <ele>185.26400756836</ele>
        <time>2009-06-03T12:31:45Z</time>
      </trkpt>
      <trkpt lat="45.06136" lon="5.28743">
        <ele>185.39399719238</ele>
        <time>2009-06-03T12:31:51Z</time>
      </trkpt>
      <trkpt lat="45.06186" lon="5.28853">
        <ele>186.10600280762</ele>
        <time>2009-06-03T12:32:07Z</time>
      </trkpt>
      <trkpt lat="45.0627" lon="5.28966">
        <ele>185.74499511719</ele>
        <time>2009-06-03T12:32:25Z</time>
      </trkpt>
      <trkpt lat="45.06326" lon="5.28999">
        <ele>186.21899414062</ele>
        <time>2009-06-03T12:32:34Z</time>
      </trkpt>
      <trkpt lat="45.06386" lon="5.29088">
        <ele>186.07600402832</ele>
        <time>2009-06-03T12:32:46Z</time>
      </trkpt>
      <trkpt lat="45.06406" lon="5.29225">
        <ele>186.62300109863</ele>
        <time>2009-06-03T12:32:59Z</time>
      </trkpt>
      <trkpt lat="45.06407" lon="5.29255">
        <ele>186.94500732422</ele>
        <time>2009-06-03T12:33:02Z</time>
      </trkpt>
      <trkpt lat="45.06402" lon="5.29381">
        <ele>187.42700195312</ele>
        <time>2009-06-03T12:33:15Z</time>
      </trkpt>
      <trkpt lat="45.06399" lon="5.2945">
        <ele>187.40800476074</ele>
        <time>2009-06-03T12:33:22Z</time>
      </trkpt>
      <trkpt lat="45.06391" lon="5.29638">
        <ele>187.42199707031</ele>
        <time>2009-06-03T12:33:42Z</time>
      </trkpt>
      <trkpt lat="45.06382" lon="5.29834">
        <ele>187.94200134277</ele>
        <time>2009-06-03T12:34:02Z</time>
      </trkpt>
      <trkpt lat="45.0638" lon="5.2987">
        <ele>188.21899414062</ele>
        <time>2009-06-03T12:34:06Z</time>
      </trkpt>
      <trkpt lat="45.06379" lon="5.29887">
        <ele>188.22700500488</ele>
        <time>2009-06-03T12:34:08Z</time>
      </trkpt>
      <trkpt lat="45.06377" lon="5.2994">
        <ele>190.88200378418</ele>
        <time>2009-06-03T12:34:15Z</time>
      </trkpt>
      <trkpt lat="45.06373" lon="5.29972">
        <ele>191.92700195312</ele>
        <time>2009-06-03T12:34:19Z</time>
      </trkpt>
      <trkpt lat="45.0637" lon="5.30003">
        <ele>193.35499572754</ele>
        <time>2009-06-03T12:34:23Z</time>
      </trkpt>
      <trkpt lat="45.06366" lon="5.30036">
        <ele>193.5299987793</ele>
        <time>2009-06-03T12:34:27Z</time>
      </trkpt>
      <trkpt lat="45.06365" lon="5.30044">
        <ele>193.99299621582</ele>
        <time>2009-06-03T12:34:28Z</time>
      </trkpt>
      <trkpt lat="45.06347" lon="5.30091">
        <ele>195.5299987793</ele>
        <time>2009-06-03T12:34:35Z</time>
      </trkpt>
      <trkpt lat="45.06308" lon="5.30184">
        <ele>197.69799804688</ele>
        <time>2009-06-03T12:34:50Z</time>
      </trkpt>
      <trkpt lat="45.06286" lon="5.3024">
        <ele>198.32299804688</ele>
        <time>2009-06-03T12:34:58Z</time>
      </trkpt>
      <trkpt lat="45.06277" lon="5.30271">
        <ele>198.60299682617</ele>
        <time>2009-06-03T12:35:02Z</time>
      </trkpt>
      <trkpt lat="45.06259" lon="5.3033">
        <ele>198.63499450684</ele>
        <time>2009-06-03T12:35:09Z</time>
      </trkpt>
      <trkpt lat="45.06241" lon="5.30369">
        <ele>199.33200073242</ele>
        <time>2009-06-03T12:35:15Z</time>
      </trkpt>
      <trkpt lat="45.06238" lon="5.30376">
        <ele>199.23199462891</ele>
        <time>2009-06-03T12:35:16Z</time>
      </trkpt>
      <trkpt lat="45.06234" lon="5.30383">
        <ele>199.29600524902</ele>
        <time>2009-06-03T12:35:17Z</time>
      </trkpt>
      <trkpt lat="45.06231" lon="5.3039">
        <ele>199.20100402832</ele>
        <time>2009-06-03T12:35:18Z</time>
      </trkpt>
      <trkpt lat="45.06228" lon="5.30397">
        <ele>199.16900634766</ele>
        <time>2009-06-03T12:35:19Z</time>
      </trkpt>
      <trkpt lat="45.06227" lon="5.30399">
        <ele>199.12100219727</ele>
        <time>2009-06-03T12:35:20Z</time>
      </trkpt>
      <trkpt lat="45.06178" lon="5.30483">
        <ele>200.63600158691</ele>
        <time>2009-06-03T12:35:30Z</time>
      </trkpt>
      <trkpt lat="45.06142" lon="5.3059">
        <ele>201.76499938965</ele>
        <time>2009-06-03T12:35:42Z</time>
      </trkpt>
      <trkpt lat="45.0609" lon="5.30694">
        <ele>202.71600341797</ele>
        <time>2009-06-03T12:35:56Z</time>
      </trkpt>
      <trkpt lat="45.06019" lon="5.30782">
        <ele>203.97999572754</ele>
        <time>2009-06-03T12:36:10Z</time>
      </trkpt>
      <trkpt lat="45.05971" lon="5.30808">
        <ele>204.52699279785</ele>
        <time>2009-06-03T12:36:18Z</time>
      </trkpt>
      <trkpt lat="45.05952" lon="5.30817">
        <ele>204.63499450684</ele>
        <time>2009-06-03T12:36:21Z</time>
      </trkpt>
      <trkpt lat="45.05935" lon="5.30825">
        <ele>205.36099243164</ele>
        <time>2009-06-03T12:36:24Z</time>
      </trkpt>
      <trkpt lat="45.05871" lon="5.30863">
        <ele>205.67999267578</ele>
        <time>2009-06-03T12:36:35Z</time>
      </trkpt>
      <trkpt lat="45.0582" lon="5.30866">
        <ele>206.91799926758</ele>
        <time>2009-06-03T12:36:43Z</time>
      </trkpt>
      <trkpt lat="45.05728" lon="5.3083">
        <ele>208.04400634766</ele>
        <time>2009-06-03T12:36:57Z</time>
      </trkpt>
      <trkpt lat="45.05707" lon="5.30821">
        <ele>208.29499816894</ele>
        <time>2009-06-03T12:37:00Z</time>
      </trkpt>
      <trkpt lat="45.05685" lon="5.30821">
        <ele>208.72399902344</ele>
        <time>2009-06-03T12:37:03Z</time>
      </trkpt>
      <trkpt lat="45.05599" lon="5.30852">
        <ele>210.03199768066</ele>
        <time>2009-06-03T12:37:15Z</time>
      </trkpt>
      <trkpt lat="45.05556" lon="5.30894">
        <ele>210.90100097656</ele>
        <time>2009-06-03T12:37:22Z</time>
      </trkpt>
      <trkpt lat="45.05497" lon="5.31032">
        <ele>213.69200134277</ele>
        <time>2009-06-03T12:37:38Z</time>
      </trkpt>
      <trkpt lat="45.05475" lon="5.31122">
        <ele>215.51499938965</ele>
        <time>2009-06-03T12:37:50Z</time>
      </trkpt>
      <trkpt lat="45.05471" lon="5.31149">
        <ele>216.28399658203</ele>
        <time>2009-06-03T12:37:55Z</time>
      </trkpt>
      <trkpt lat="45.05469" lon="5.31159">
        <ele>216.21699523926</ele>
        <time>2009-06-03T12:37:57Z</time>
      </trkpt>
      <trkpt lat="45.05468" lon="5.31164">
        <ele>216.36099243164</ele>
        <time>2009-06-03T12:37:59Z</time>
      </trkpt>
      <trkpt lat="45.05468" lon="5.31167">
        <ele>216.56199645996</ele>
        <time>2009-06-03T12:38:15Z</time>
      </trkpt>
      <trkpt lat="45.05461" lon="5.31209">
        <ele>216.35499572754</ele>
        <time>2009-06-03T12:38:24Z</time>
      </trkpt>
      <trkpt lat="45.0545" lon="5.31319">
        <ele>218.68600463867</ele>
        <time>2009-06-03T12:38:38Z</time>
      </trkpt>
      <trkpt lat="45.05484" lon="5.31424">
        <ele>220.18099975586</ele>
        <time>2009-06-03T12:38:52Z</time>
      </trkpt>
      <trkpt lat="45.05516" lon="5.31516">
        <ele>221.34199523926</ele>
        <time>2009-06-03T12:39:04Z</time>
      </trkpt>
      <trkpt lat="45.05524" lon="5.31664">
        <ele>224.10299682617</ele>
        <time>2009-06-03T12:39:22Z</time>
      </trkpt>
      <trkpt lat="45.05523" lon="5.31781">
        <ele>226.0359954834</ele>
        <time>2009-06-03T12:39:36Z</time>
      </trkpt>
      <trkpt lat="45.05541" lon="5.31842">
        <ele>226.80900573731</ele>
        <time>2009-06-03T12:39:44Z</time>
      </trkpt>
      <trkpt lat="45.05629" lon="5.31876">
        <ele>228.70199584961</ele>
        <time>2009-06-03T12:39:59Z</time>
      </trkpt>
      <trkpt lat="45.05714" lon="5.31912">
        <ele>229.43299865723</ele>
        <time>2009-06-03T12:40:13Z</time>
      </trkpt>
      <trkpt lat="45.05783" lon="5.3201">
        <ele>229.93899536133</ele>
        <time>2009-06-03T12:40:28Z</time>
      </trkpt>
      <trkpt lat="45.05811" lon="5.32058">
        <ele>229.60299682617</ele>
        <time>2009-06-03T12:40:35Z</time>
      </trkpt>
      <trkpt lat="45.05819" lon="5.32092">
        <ele>229.42399597168</ele>
        <time>2009-06-03T12:40:39Z</time>
      </trkpt>
      <trkpt lat="45.05813" lon="5.32153">
        <ele>228.66799926758</ele>
        <time>2009-06-03T12:40:45Z</time>
      </trkpt>
      <trkpt lat="45.05835" lon="5.32235">
        <ele>227.16799926758</ele>
        <time>2009-06-03T12:40:53Z</time>
      </trkpt>
      <trkpt lat="45.05862" lon="5.32266">
        <ele>226.93400573731</ele>
        <time>2009-06-03T12:40:57Z</time>
      </trkpt>
      <trkpt lat="45.05886" lon="5.32305">
        <ele>226.74299621582</ele>
        <time>2009-06-03T12:41:01Z</time>
      </trkpt>
      <trkpt lat="45.05902" lon="5.32405">
        <ele>225.32299804688</ele>
        <time>2009-06-03T12:41:09Z</time>
      </trkpt>
      <trkpt lat="45.05903" lon="5.32512">
        <ele>223.53999328613</ele>
        <time>2009-06-03T12:41:17Z</time>
      </trkpt>
      <trkpt lat="45.05891" lon="5.32576">
        <ele>222.4049987793</ele>
        <time>2009-06-03T12:41:22Z</time>
      </trkpt>
      <trkpt lat="45.05895" lon="5.3265">
        <ele>222.36799621582</ele>
        <time>2009-06-03T12:41:28Z</time>
      </trkpt>
      <trkpt lat="45.05919" lon="5.32661">
        <ele>221.68499755859</ele>
        <time>2009-06-03T12:41:31Z</time>
      </trkpt>
      <trkpt lat="45.05944" lon="5.32671">
        <ele>221.37800598144</ele>
        <time>2009-06-03T12:41:34Z</time>
      </trkpt>
      <trkpt lat="45.06026" lon="5.32754">
        <ele>219.86999511719</ele>
        <time>2009-06-03T12:41:45Z</time>
      </trkpt>
      <trkpt lat="45.06064" lon="5.32827">
        <ele>218.99299621582</ele>
        <time>2009-06-03T12:41:52Z</time>
      </trkpt>
      <trkpt lat="45.06075" lon="5.32873">
        <ele>218.67799377441</ele>
        <time>2009-06-03T12:41:56Z</time>
      </trkpt>
      <trkpt lat="45.06077" lon="5.32893">
        <ele>217.93899536133</ele>
        <time>2009-06-03T12:41:58Z</time>
      </trkpt>
      <trkpt lat="45.06077" lon="5.3293">
        <ele>218.90899658203</ele>
        <time>2009-06-03T12:42:01Z</time>
      </trkpt>
      <trkpt lat="45.06077" lon="5.3294">
        <ele>219.34599304199</ele>
        <time>2009-06-03T12:42:03Z</time>
      </trkpt>
      <trkpt lat="45.06077" lon="5.3294">
        <ele>219.24200439453</ele>
        <time>2009-06-03T12:42:04Z</time>
      </trkpt>
      <trkpt lat="45.06077" lon="5.3294">
        <ele>219.20700073242</ele>
        <time>2009-06-03T12:42:07Z</time>
      </trkpt>
      <trkpt lat="45.06081" lon="5.32987">
        <ele>218.89300537109</ele>
        <time>2009-06-03T12:42:11Z</time>
      </trkpt>
      <trkpt lat="45.06081" lon="5.32987">
        <ele>218.65899658203</ele>
        <time>2009-06-03T12:42:33Z</time>
      </trkpt>
      <trkpt lat="45.06077" lon="5.32958">
        <ele>218.44500732422</ele>
        <time>2009-06-03T12:42:36Z</time>
      </trkpt>
      <trkpt lat="45.0608" lon="5.3298">
        <ele>217.4880065918</ele>
        <time>2009-06-03T12:42:40Z</time>
      </trkpt>
      <trkpt lat="45.06121" lon="5.33095">
        <ele>215.58799743652</ele>
        <time>2009-06-03T12:42:55Z</time>
      </trkpt>
      <trkpt lat="45.06162" lon="5.33248">
        <ele>213.69599914551</ele>
        <time>2009-06-03T12:43:10Z</time>
      </trkpt>
      <trkpt lat="45.06232" lon="5.33401">
        <ele>211.95300292969</ele>
        <time>2009-06-03T12:43:25Z</time>
      </trkpt>
      <trkpt lat="45.06238" lon="5.3341">
        <ele>212.86700439453</ele>
        <time>2009-06-03T12:43:26Z</time>
      </trkpt>
      <trkpt lat="45.06265" lon="5.33429">
        <ele>212.23300170898</ele>
        <time>2009-06-03T12:43:30Z</time>
      </trkpt>
      <trkpt lat="45.0637" lon="5.33459">
        <ele>209.38299560547</ele>
        <time>2009-06-03T12:43:43Z</time>
      </trkpt>
      <trkpt lat="45.0643" lon="5.3352">
        <ele>207.38400268555</ele>
        <time>2009-06-03T12:43:51Z</time>
      </trkpt>
      <trkpt lat="45.06447" lon="5.33586">
        <ele>206.37300109863</ele>
        <time>2009-06-03T12:43:57Z</time>
      </trkpt>
      <trkpt lat="45.06444" lon="5.33598">
        <ele>206.03500366211</ele>
        <time>2009-06-03T12:43:58Z</time>
      </trkpt>
      <trkpt lat="45.06409" lon="5.33688">
        <ele>207.21000671387</ele>
        <time>2009-06-03T12:44:07Z</time>
      </trkpt>
      <trkpt lat="45.06347" lon="5.33807">
        <ele>206.92700195312</ele>
        <time>2009-06-03T12:44:20Z</time>
      </trkpt>
      <trkpt lat="45.06281" lon="5.33951">
        <ele>207.97399902344</ele>
        <time>2009-06-03T12:44:36Z</time>
      </trkpt>
      <trkpt lat="45.06244" lon="5.34063">
        <ele>208.81700134277</ele>
        <time>2009-06-03T12:44:47Z</time>
      </trkpt>
      <trkpt lat="45.06242" lon="5.34073">
        <ele>208.95300292969</ele>
        <time>2009-06-03T12:44:48Z</time>
      </trkpt>
      <trkpt lat="45.06214" lon="5.3418">
        <ele>210.70300292969</ele>
        <time>2009-06-03T12:45:01Z</time>
      </trkpt>
      <trkpt lat="45.06184" lon="5.34277">
        <ele>213.22599792481</ele>
        <time>2009-06-03T12:45:12Z</time>
      </trkpt>
      <trkpt lat="45.06177" lon="5.34298">
        <ele>213.86599731445</ele>
        <time>2009-06-03T12:45:15Z</time>
      </trkpt>
      <trkpt lat="45.06166" lon="5.34328">
        <ele>214.20700073242</ele>
        <time>2009-06-03T12:45:19Z</time>
      </trkpt>
      <trkpt lat="45.06158" lon="5.3434">
        <ele>213.95599365234</ele>
        <time>2009-06-03T12:45:21Z</time>
      </trkpt>
      <trkpt lat="45.0613" lon="5.34389">
        <ele>211.86000061035</ele>
        <time>2009-06-03T12:45:28Z</time>
      </trkpt>
      <trkpt lat="45.0612" lon="5.34416">
        <ele>209.96499633789</ele>
        <time>2009-06-03T12:45:31Z</time>
      </trkpt>
      <trkpt lat="45.0612" lon="5.34416">
        <ele>210.2559967041</ele>
        <time>2009-06-03T12:45:32Z</time>
      </trkpt>
      <trkpt lat="45.06105" lon="5.34482">
        <ele>212.46299743652</ele>
        <time>2009-06-03T12:45:37Z</time>
      </trkpt>
      <trkpt lat="45.06102" lon="5.34511">
        <ele>213.90400695801</ele>
        <time>2009-06-03T12:45:40Z</time>
      </trkpt>
      <trkpt lat="45.06101" lon="5.34521">
        <ele>214.1309967041</ele>
        <time>2009-06-03T12:45:41Z</time>
      </trkpt>
      <trkpt lat="45.06098" lon="5.34541">
        <ele>215.39599609375</ele>
        <time>2009-06-03T12:45:46Z</time>
      </trkpt>
      <trkpt lat="45.06086" lon="5.34604">
        <ele>215.94200134277</ele>
        <time>2009-06-03T12:45:51Z</time>
      </trkpt>
      <trkpt lat="45.06077" lon="5.34621">
        <ele>216.51499938965</ele>
        <time>2009-06-03T12:45:54Z</time>
      </trkpt>
      <trkpt lat="45.06068" lon="5.34636">
        <ele>217.43200683594</ele>
        <time>2009-06-03T12:45:57Z</time>
      </trkpt>
      <trkpt lat="45.06064" lon="5.34644">
        <ele>218.47200012207</ele>
        <time>2009-06-03T12:46:01Z</time>
      </trkpt>
      <trkpt lat="45.06064" lon="5.34644">
        <ele>219.1309967041</ele>
        <time>2009-06-03T12:46:03Z</time>
      </trkpt>
      <trkpt lat="45.06049" lon="5.34678">
        <ele>219.34700012207</ele>
        <time>2009-06-03T12:46:06Z</time>
      </trkpt>
      <trkpt lat="45.06044" lon="5.34706">
        <ele>219.49099731445</ele>
        <time>2009-06-03T12:46:11Z</time>
      </trkpt>
      <trkpt lat="45.06055" lon="5.34729">
        <ele>219.71099853516</ele>
        <time>2009-06-03T12:46:15Z</time>
      </trkpt>
      <trkpt lat="45.0609" lon="5.34785">
        <ele>221.43200683594</ele>
        <time>2009-06-03T12:46:24Z</time>
      </trkpt>
      <trkpt lat="45.06155" lon="5.34861">
        <ele>223.51899719238</ele>
        <time>2009-06-03T12:46:38Z</time>
      </trkpt>
      <trkpt lat="45.06189" lon="5.34892">
        <ele>224.60600280762</ele>
        <time>2009-06-03T12:46:44Z</time>
      </trkpt>
      <trkpt lat="45.06211" lon="5.34904">
        <ele>225.74600219727</ele>
        <time>2009-06-03T12:46:48Z</time>
      </trkpt>
      <trkpt lat="45.06233" lon="5.34915">
        <ele>225.94000244141</ele>
        <time>2009-06-03T12:46:52Z</time>
      </trkpt>
      <trkpt lat="45.06252" lon="5.34925">
        <ele>225.99299621582</ele>
        <time>2009-06-03T12:46:54Z</time>
      </trkpt>
      <trkpt lat="45.06267" lon="5.34932">
        <ele>226.04499816894</ele>
        <time>2009-06-03T12:46:57Z</time>
      </trkpt>
      <trkpt lat="45.06292" lon="5.34944">
        <ele>226.87800598144</ele>
        <time>2009-06-03T12:47:00Z</time>
      </trkpt>
      <trkpt lat="45.06368" lon="5.34843">
        <ele>227.12100219727</ele>
        <time>2009-06-03T12:47:03Z</time>
      </trkpt>
      <trkpt lat="45.06374" lon="5.34846">
        <ele>227.34800720215</ele>
        <time>2009-06-03T12:47:04Z</time>
      </trkpt>
      <trkpt lat="45.06403" lon="5.34851">
        <ele>228.01100158691</ele>
        <time>2009-06-03T12:47:08Z</time>
      </trkpt>
      <trkpt lat="45.06349" lon="5.34994">
        <ele>227.83399963379</ele>
        <time>2009-06-03T12:47:10Z</time>
      </trkpt>
      <trkpt lat="45.06358" lon="5.35002">
        <ele>228.20899963379</ele>
        <time>2009-06-03T12:47:14Z</time>
      </trkpt>
      <trkpt lat="45.06367" lon="5.35011">
        <ele>228.41799926758</ele>
        <time>2009-06-03T12:47:16Z</time>
      </trkpt>
      <trkpt lat="45.06375" lon="5.35019">
        <ele>228.72700500488</ele>
        <time>2009-06-03T12:47:18Z</time>
      </trkpt>
      <trkpt lat="45.0639" lon="5.35047">
        <ele>231.07400512695</ele>
        <time>2009-06-03T12:47:26Z</time>
      </trkpt>
      <trkpt lat="45.06443" lon="5.35177">
        <ele>233.47099304199</ele>
        <time>2009-06-03T12:47:43Z</time>
      </trkpt>
      <trkpt lat="45.06479" lon="5.35314">
        <ele>235.56900024414</ele>
        <time>2009-06-03T12:48:01Z</time>
      </trkpt>
      <trkpt lat="45.06481" lon="5.35321">
        <ele>235.72599792481</ele>
        <time>2009-06-03T12:48:02Z</time>
      </trkpt>
      <trkpt lat="45.06487" lon="5.35356">
        <ele>236.51600646973</ele>
        <time>2009-06-03T12:48:07Z</time>
      </trkpt>
      <trkpt lat="45.06515" lon="5.35406">
        <ele>237.72200012207</ele>
        <time>2009-06-03T12:48:16Z</time>
      </trkpt>
      <trkpt lat="45.06524" lon="5.35412">
        <ele>237.66999816894</ele>
        <time>2009-06-03T12:48:18Z</time>
      </trkpt>
      <trkpt lat="45.06525" lon="5.35413">
        <ele>237.95300292969</ele>
        <time>2009-06-03T12:48:19Z</time>
      </trkpt>
      <trkpt lat="45.06489" lon="5.35369">
        <ele>237.74099731445</ele>
        <time>2009-06-03T12:48:21Z</time>
      </trkpt>
      <trkpt lat="45.06512" lon="5.35404">
        <ele>237.06199645996</ele>
        <time>2009-06-03T12:48:26Z</time>
      </trkpt>
      <trkpt lat="45.06482" lon="5.35395">
        <ele>237.95100402832</ele>
        <time>2009-06-03T12:48:31Z</time>
      </trkpt>
      <trkpt lat="45.06517" lon="5.35408">
        <ele>237.81700134277</ele>
        <time>2009-06-03T12:48:39Z</time>
      </trkpt>
      <trkpt lat="45.06522" lon="5.35411">
        <ele>237.7619934082</ele>
        <time>2009-06-03T12:48:41Z</time>
      </trkpt>
      <trkpt lat="45.0654" lon="5.35438">
        <ele>236.37199401856</ele>
        <time>2009-06-03T12:48:49Z</time>
      </trkpt>
      <trkpt lat="45.06535" lon="5.35473">
        <ele>236.04899597168</ele>
        <time>2009-06-03T12:48:52Z</time>
      </trkpt>
      <trkpt lat="45.06516" lon="5.35597">
        <ele>237.13200378418</ele>
        <time>2009-06-03T12:49:07Z</time>
      </trkpt>
      <trkpt lat="45.06508" lon="5.35658">
        <ele>237.24899291992</ele>
        <time>2009-06-03T12:49:14Z</time>
      </trkpt>
      <trkpt lat="45.06509" lon="5.357">
        <ele>237.21299743652</ele>
        <time>2009-06-03T12:49:19Z</time>
      </trkpt>
      <trkpt lat="45.06514" lon="5.35717">
        <ele>237.31199645996</ele>
        <time>2009-06-03T12:49:21Z</time>
      </trkpt>
      <trkpt lat="45.06542" lon="5.35752">
        <ele>238.01499938965</ele>
        <time>2009-06-03T12:49:27Z</time>
      </trkpt>
      <trkpt lat="45.06602" lon="5.3579">
        <ele>238.19900512695</ele>
        <time>2009-06-03T12:49:37Z</time>
      </trkpt>
      <trkpt lat="45.0663" lon="5.35828">
        <ele>238.16000366211</ele>
        <time>2009-06-03T12:49:43Z</time>
      </trkpt>
      <trkpt lat="45.06652" lon="5.35964">
        <ele>239.24800109863</ele>
        <time>2009-06-03T12:49:57Z</time>
      </trkpt>
      <trkpt lat="45.06653" lon="5.35989">
        <ele>239.57699584961</ele>
        <time>2009-06-03T12:50:00Z</time>
      </trkpt>
      <trkpt lat="45.06654" lon="5.36068">
        <ele>239.6369934082</ele>
        <time>2009-06-03T12:50:09Z</time>
      </trkpt>
      <trkpt lat="45.06633" lon="5.36209">
        <ele>239.8630065918</ele>
        <time>2009-06-03T12:50:24Z</time>
      </trkpt>
      <trkpt lat="45.06613" lon="5.36319">
        <ele>240.75700378418</ele>
        <time>2009-06-03T12:50:35Z</time>
      </trkpt>
      <trkpt lat="45.06622" lon="5.3645">
        <ele>242.0119934082</ele>
        <time>2009-06-03T12:50:48Z</time>
      </trkpt>
      <trkpt lat="45.0663" lon="5.36502">
        <ele>242.20899963379</ele>
        <time>2009-06-03T12:50:52Z</time>
      </trkpt>
      <trkpt lat="45.06651" lon="5.36542">
        <ele>242.39300537109</ele>
        <time>2009-06-03T12:50:57Z</time>
      </trkpt>
      <trkpt lat="45.06664" lon="5.36554">
        <ele>242.57000732422</ele>
        <time>2009-06-03T12:50:59Z</time>
      </trkpt>
      <trkpt lat="45.06692" lon="5.36588">
        <ele>242.8869934082</ele>
        <time>2009-06-03T12:51:04Z</time>
      </trkpt>
      <trkpt lat="45.06708" lon="5.36622">
        <ele>243.05099487305</ele>
        <time>2009-06-03T12:51:08Z</time>
      </trkpt>
      <trkpt lat="45.06716" lon="5.36648">
        <ele>243.20700073242</ele>
        <time>2009-06-03T12:51:12Z</time>
      </trkpt>
      <trkpt lat="45.06718" lon="5.36761">
        <ele>243.32200622559</ele>
        <time>2009-06-03T12:51:22Z</time>
      </trkpt>
      <trkpt lat="45.06716" lon="5.36776">
        <ele>243.2380065918</ele>
        <time>2009-06-03T12:51:26Z</time>
      </trkpt>
      <trkpt lat="45.06633" lon="5.36921">
        <ele>243.66400146484</ele>
        <time>2009-06-03T12:51:43Z</time>
      </trkpt>
      <trkpt lat="45.06567" lon="5.37044">
        <ele>245.11000061035</ele>
        <time>2009-06-03T12:51:59Z</time>
      </trkpt>
      <trkpt lat="45.0649" lon="5.37127">
        <ele>245.73100280762</ele>
        <time>2009-06-03T12:52:14Z</time>
      </trkpt>
      <trkpt lat="45.06478" lon="5.3719">
        <ele>246.09899902344</ele>
        <time>2009-06-03T12:52:22Z</time>
      </trkpt>
      <trkpt lat="45.06479" lon="5.372">
        <ele>246.45599365234</ele>
        <time>2009-06-03T12:52:23Z</time>
      </trkpt>
      <trkpt lat="45.06495" lon="5.37243">
        <ele>246.66999816894</ele>
        <time>2009-06-03T12:52:28Z</time>
      </trkpt>
      <trkpt lat="45.06529" lon="5.37276">
        <ele>247.16499328613</ele>
        <time>2009-06-03T12:52:34Z</time>
      </trkpt>
      <trkpt lat="45.06649" lon="5.37316">
        <ele>248.08399963379</ele>
        <time>2009-06-03T12:52:49Z</time>
      </trkpt>
      <trkpt lat="45.06652" lon="5.37317">
        <ele>248.01100158691</ele>
        <time>2009-06-03T12:52:51Z</time>
      </trkpt>
      <trkpt lat="45.06703" lon="5.37398">
        <ele>248.93800354004</ele>
        <time>2009-06-03T12:52:58Z</time>
      </trkpt>
      <trkpt lat="45.0671" lon="5.37515">
        <ele>249.86500549316</ele>
        <time>2009-06-03T12:53:08Z</time>
      </trkpt>
      <trkpt lat="45.06715" lon="5.37672">
        <ele>251.20799255371</ele>
        <time>2009-06-03T12:53:21Z</time>
      </trkpt>
      <trkpt lat="45.06719" lon="5.37697">
        <ele>251.53500366211</ele>
        <time>2009-06-03T12:53:23Z</time>
      </trkpt>
      <trkpt lat="45.06721" lon="5.37831">
        <ele>254.57099914551</ele>
        <time>2009-06-03T12:53:35Z</time>
      </trkpt>
      <trkpt lat="45.06732" lon="5.38002">
        <ele>257.95098876953</ele>
        <time>2009-06-03T12:53:52Z</time>
      </trkpt>
      <trkpt lat="45.06767" lon="5.38152">
        <ele>261.84201049805</ele>
        <time>2009-06-03T12:54:09Z</time>
      </trkpt>
      <trkpt lat="45.06779" lon="5.38264">
        <ele>264.31399536133</ele>
        <time>2009-06-03T12:54:21Z</time>
      </trkpt>
      <trkpt lat="45.06788" lon="5.3837">
        <ele>266.57400512695</ele>
        <time>2009-06-03T12:54:33Z</time>
      </trkpt>
      <trkpt lat="45.06805" lon="5.38453">
        <ele>268.37100219727</ele>
        <time>2009-06-03T12:54:42Z</time>
      </trkpt>
      <trkpt lat="45.06799" lon="5.38538">
        <ele>268.99301147461</ele>
        <time>2009-06-03T12:54:51Z</time>
      </trkpt>
      <trkpt lat="45.06776" lon="5.38613">
        <ele>271.87100219727</ele>
        <time>2009-06-03T12:55:00Z</time>
      </trkpt>
      <trkpt lat="45.06762" lon="5.38662">
        <ele>273.32901000977</ele>
        <time>2009-06-03T12:55:06Z</time>
      </trkpt>
      <trkpt lat="45.0676" lon="5.3867">
        <ele>273.45901489258</ele>
        <time>2009-06-03T12:55:07Z</time>
      </trkpt>
      <trkpt lat="45.06754" lon="5.38694">
        <ele>274.35501098633</ele>
        <time>2009-06-03T12:55:10Z</time>
      </trkpt>
      <trkpt lat="45.0675" lon="5.3871">
        <ele>274.90100097656</ele>
        <time>2009-06-03T12:55:12Z</time>
      </trkpt>
      <trkpt lat="45.06741" lon="5.38742">
        <ele>275.43499755859</ele>
        <time>2009-06-03T12:55:16Z</time>
      </trkpt>
      <trkpt lat="45.06742" lon="5.3881">
        <ele>276.35198974609</ele>
        <time>2009-06-03T12:55:24Z</time>
      </trkpt>
      <trkpt lat="45.06734" lon="5.3884">
        <ele>276.88598632812</ele>
        <time>2009-06-03T12:55:28Z</time>
      </trkpt>
      <trkpt lat="45.06706" lon="5.38882">
        <ele>278.14300537109</ele>
        <time>2009-06-03T12:55:36Z</time>
      </trkpt>
      <trkpt lat="45.06691" lon="5.38888">
        <ele>277.82400512695</ele>
        <time>2009-06-03T12:55:39Z</time>
      </trkpt>
      <trkpt lat="45.06664" lon="5.38903">
        <ele>278.6130065918</ele>
        <time>2009-06-03T12:55:45Z</time>
      </trkpt>
      <trkpt lat="45.06641" lon="5.38944">
        <ele>279.89599609375</ele>
        <time>2009-06-03T12:55:52Z</time>
      </trkpt>
      <trkpt lat="45.06642" lon="5.38966">
        <ele>280.80599975586</ele>
        <time>2009-06-03T12:55:55Z</time>
      </trkpt>
      <trkpt lat="45.06673" lon="5.39093">
        <ele>283.56500244141</ele>
        <time>2009-06-03T12:56:11Z</time>
      </trkpt>
      <trkpt lat="45.06684" lon="5.39126">
        <ele>283.93499755859</ele>
        <time>2009-06-03T12:56:15Z</time>
      </trkpt>
      <trkpt lat="45.06686" lon="5.39163">
        <ele>282.14599609375</ele>
        <time>2009-06-03T12:56:19Z</time>
      </trkpt>
      <trkpt lat="45.06695" lon="5.39252">
        <ele>280.20300292969</ele>
        <time>2009-06-03T12:56:28Z</time>
      </trkpt>
      <trkpt lat="45.06684" lon="5.3927">
        <ele>281.85501098633</ele>
        <time>2009-06-03T12:56:31Z</time>
      </trkpt>
      <trkpt lat="45.06635" lon="5.39281">
        <ele>284.60900878906</ele>
        <time>2009-06-03T12:56:40Z</time>
      </trkpt>
      <trkpt lat="45.06622" lon="5.39298">
        <ele>284.83700561523</ele>
        <time>2009-06-03T12:56:43Z</time>
      </trkpt>
      <trkpt lat="45.06608" lon="5.39325">
        <ele>285.44000244141</ele>
        <time>2009-06-03T12:56:47Z</time>
      </trkpt>
      <trkpt lat="45.06601" lon="5.39339">
        <ele>286.74600219727</ele>
        <time>2009-06-03T12:56:52Z</time>
      </trkpt>
      <trkpt lat="45.06577" lon="5.39375">
        <ele>288.11499023438</ele>
        <time>2009-06-03T12:56:55Z</time>
      </trkpt>
      <trkpt lat="45.06549" lon="5.39435">
        <ele>291.95401000977</ele>
        <time>2009-06-03T12:57:04Z</time>
      </trkpt>
      <trkpt lat="45.06546" lon="5.39457">
        <ele>292.80700683594</ele>
        <time>2009-06-03T12:57:07Z</time>
      </trkpt>
      <trkpt lat="45.06548" lon="5.39583">
        <ele>297.33200073242</ele>
        <time>2009-06-03T12:57:25Z</time>
      </trkpt>
      <trkpt lat="45.06549" lon="5.39627">
        <ele>299.85699462891</ele>
        <time>2009-06-03T12:57:32Z</time>
      </trkpt>
      <trkpt lat="45.06545" lon="5.39655">
        <ele>301.0299987793</ele>
        <time>2009-06-03T12:57:37Z</time>
      </trkpt>
      <trkpt lat="45.06528" lon="5.3969">
        <ele>303.58401489258</ele>
        <time>2009-06-03T12:57:44Z</time>
      </trkpt>
      <trkpt lat="45.06467" lon="5.39806">
        <ele>308.61801147461</ele>
        <time>2009-06-03T12:58:08Z</time>
      </trkpt>
      <trkpt lat="45.06433" lon="5.3987">
        <ele>312.58700561523</ele>
        <time>2009-06-03T12:58:22Z</time>
      </trkpt>
      <trkpt lat="45.06383" lon="5.39927">
        <ele>316.39199829102</ele>
        <time>2009-06-03T12:58:39Z</time>
      </trkpt>
      <trkpt lat="45.06334" lon="5.39982">
        <ele>320.12399291992</ele>
        <time>2009-06-03T12:58:56Z</time>
      </trkpt>
      <trkpt lat="45.06283" lon="5.40027">
        <ele>324.78201293945</ele>
        <time>2009-06-03T12:59:13Z</time>
      </trkpt>
      <trkpt lat="45.06247" lon="5.40108">
        <ele>328.84698486328</ele>
        <time>2009-06-03T12:59:31Z</time>
      </trkpt>
      <trkpt lat="45.06234" lon="5.40198">
        <ele>333.70700073242</ele>
        <time>2009-06-03T12:59:49Z</time>
      </trkpt>
      <trkpt lat="45.06227" lon="5.40279">
        <ele>337.61898803711</ele>
        <time>2009-06-03T13:00:05Z</time>
      </trkpt>
      <trkpt lat="45.06194" lon="5.40351">
        <ele>341.35998535156</ele>
        <time>2009-06-03T13:00:21Z</time>
      </trkpt>
      <trkpt lat="45.06184" lon="5.40374">
        <ele>342.23498535156</ele>
        <time>2009-06-03T13:00:26Z</time>
      </trkpt>
      <trkpt lat="45.06172" lon="5.40443">
        <ele>345.09298706055</ele>
        <time>2009-06-03T13:00:39Z</time>
      </trkpt>
      <trkpt lat="45.06163" lon="5.40493">
        <ele>347.83099365234</ele>
        <time>2009-06-03T13:00:52Z</time>
      </trkpt>
      <trkpt lat="45.06163" lon="5.40573">
        <ele>349.82901000977</ele>
        <time>2009-06-03T13:01:04Z</time>
      </trkpt>
      <trkpt lat="45.06137" lon="5.40627">
        <ele>352.67498779297</ele>
        <time>2009-06-03T13:01:17Z</time>
      </trkpt>
      <trkpt lat="45.06109" lon="5.40646">
        <ele>354.62600708008</ele>
        <time>2009-06-03T13:01:26Z</time>
      </trkpt>
      <trkpt lat="45.06059" lon="5.40666">
        <ele>357.43099975586</ele>
        <time>2009-06-03T13:01:41Z</time>
      </trkpt>
      <trkpt lat="45.06028" lon="5.40728">
        <ele>361.50698852539</ele>
        <time>2009-06-03T13:01:55Z</time>
      </trkpt>
      <trkpt lat="45.05977" lon="5.40787">
        <ele>364.91400146484</ele>
        <time>2009-06-03T13:02:13Z</time>
      </trkpt>
      <trkpt lat="45.05922" lon="5.40837">
        <ele>369.17599487305</ele>
        <time>2009-06-03T13:02:31Z</time>
      </trkpt>
      <trkpt lat="45.05899" lon="5.40886">
        <ele>371.22399902344</ele>
        <time>2009-06-03T13:02:43Z</time>
      </trkpt>
      <trkpt lat="45.0589" lon="5.40944">
        <ele>374.2919921875</ele>
        <time>2009-06-03T13:02:55Z</time>
      </trkpt>
      <trkpt lat="45.05863" lon="5.41002">
        <ele>377.44500732422</ele>
        <time>2009-06-03T13:03:09Z</time>
      </trkpt>
      <trkpt lat="45.05888" lon="5.41068">
        <ele>379.9049987793</ele>
        <time>2009-06-03T13:03:24Z</time>
      </trkpt>
      <trkpt lat="45.05936" lon="5.41104">
        <ele>382.40600585938</ele>
        <time>2009-06-03T13:03:37Z</time>
      </trkpt>
      <trkpt lat="45.0597" lon="5.41132">
        <ele>384.65798950195</ele>
        <time>2009-06-03T13:03:50Z</time>
      </trkpt>
      <trkpt lat="45.05977" lon="5.41159">
        <ele>385.67599487305</ele>
        <time>2009-06-03T13:03:53Z</time>
      </trkpt>
      <trkpt lat="45.0598" lon="5.41182">
        <ele>385.79699707031</ele>
        <time>2009-06-03T13:03:57Z</time>
      </trkpt>
      <trkpt lat="45.05981" lon="5.41194">
        <ele>386.30099487305</ele>
        <time>2009-06-03T13:03:59Z</time>
      </trkpt>
      <trkpt lat="45.05989" lon="5.41267">
        <ele>388.88900756836</ele>
        <time>2009-06-03T13:04:12Z</time>
      </trkpt>
      <trkpt lat="45.05996" lon="5.41301">
        <ele>390.12200927734</ele>
        <time>2009-06-03T13:04:18Z</time>
      </trkpt>
      <trkpt lat="45.06" lon="5.41312">
        <ele>390.76998901367</ele>
        <time>2009-06-03T13:04:20Z</time>
      </trkpt>
      <trkpt lat="45.06016" lon="5.41355">
        <ele>391.95001220703</ele>
        <time>2009-06-03T13:04:28Z</time>
      </trkpt>
      <trkpt lat="45.06021" lon="5.41371">
        <ele>392.53100585938</ele>
        <time>2009-06-03T13:04:31Z</time>
      </trkpt>
      <trkpt lat="45.06025" lon="5.4143">
        <ele>395.28698730469</ele>
        <time>2009-06-03T13:04:41Z</time>
      </trkpt>
      <trkpt lat="45.06037" lon="5.41467">
        <ele>396.44900512695</ele>
        <time>2009-06-03T13:04:48Z</time>
      </trkpt>
      <trkpt lat="45.06053" lon="5.41486">
        <ele>397.49700927734</ele>
        <time>2009-06-03T13:04:53Z</time>
      </trkpt>
      <trkpt lat="45.06064" lon="5.41497">
        <ele>398.45199584961</ele>
        <time>2009-06-03T13:04:57Z</time>
      </trkpt>
      <trkpt lat="45.06064" lon="5.41497">
        <ele>398.62701416016</ele>
        <time>2009-06-03T13:04:59Z</time>
      </trkpt>
      <trkpt lat="45.06079" lon="5.41526">
        <ele>399.63101196289</ele>
        <time>2009-06-03T13:05:03Z</time>
      </trkpt>
      <trkpt lat="45.06081" lon="5.41583">
        <ele>402.51098632812</ele>
        <time>2009-06-03T13:05:16Z</time>
      </trkpt>
      <trkpt lat="45.06087" lon="5.41675">
        <ele>405.53100585938</ele>
        <time>2009-06-03T13:05:32Z</time>
      </trkpt>
      <trkpt lat="45.06107" lon="5.41761">
        <ele>409.35598754883</ele>
        <time>2009-06-03T13:05:49Z</time>
      </trkpt>
      <trkpt lat="45.06126" lon="5.41845">
        <ele>413.47500610352</ele>
        <time>2009-06-03T13:06:06Z</time>
      </trkpt>
      <trkpt lat="45.06153" lon="5.41914">
        <ele>416.07901000977</ele>
        <time>2009-06-03T13:06:21Z</time>
      </trkpt>
      <trkpt lat="45.06203" lon="5.4198">
        <ele>419.83499145508</ele>
        <time>2009-06-03T13:06:39Z</time>
      </trkpt>
      <trkpt lat="45.06252" lon="5.42041">
        <ele>423.93099975586</ele>
        <time>2009-06-03T13:06:56Z</time>
      </trkpt>
      <trkpt lat="45.06293" lon="5.42095">
        <ele>427.01400756836</ele>
        <time>2009-06-03T13:07:11Z</time>
      </trkpt>
      <trkpt lat="45.0631" lon="5.42185">
        <ele>431.0710144043</ele>
        <time>2009-06-03T13:07:28Z</time>
      </trkpt>
      <trkpt lat="45.06321" lon="5.42277">
        <ele>435.35800170898</ele>
        <time>2009-06-03T13:07:46Z</time>
      </trkpt>
      <trkpt lat="45.06332" lon="5.42385">
        <ele>440.06600952148</ele>
        <time>2009-06-03T13:08:06Z</time>
      </trkpt>
      <trkpt lat="45.06348" lon="5.42516">
        <ele>445.9700012207</ele>
        <time>2009-06-03T13:08:29Z</time>
      </trkpt>
      <trkpt lat="45.06368" lon="5.42629">
        <ele>451.14599609375</ele>
        <time>2009-06-03T13:08:49Z</time>
      </trkpt>
      <trkpt lat="45.06371" lon="5.42646">
        <ele>451.56100463867</ele>
        <time>2009-06-03T13:08:52Z</time>
      </trkpt>
      <trkpt lat="45.06372" lon="5.42657">
        <ele>452.16500854492</ele>
        <time>2009-06-03T13:08:54Z</time>
      </trkpt>
      <trkpt lat="45.06392" lon="5.42691">
        <ele>453.8330078125</ele>
        <time>2009-06-03T13:09:01Z</time>
      </trkpt>
      <trkpt lat="45.06448" lon="5.42728">
        <ele>457.14700317383</ele>
        <time>2009-06-03T13:09:16Z</time>
      </trkpt>
      <trkpt lat="45.06467" lon="5.42737">
        <ele>458.21798706055</ele>
        <time>2009-06-03T13:09:21Z</time>
      </trkpt>
      <trkpt lat="45.06481" lon="5.42747">
        <ele>459.20300292969</ele>
        <time>2009-06-03T13:09:25Z</time>
      </trkpt>
      <trkpt lat="45.06495" lon="5.42761">
        <ele>460.18499755859</ele>
        <time>2009-06-03T13:09:29Z</time>
      </trkpt>
      <trkpt lat="45.0652" lon="5.42819">
        <ele>462.75698852539</ele>
        <time>2009-06-03T13:09:40Z</time>
      </trkpt>
      <trkpt lat="45.06531" lon="5.42845">
        <ele>464.30801391602</ele>
        <time>2009-06-03T13:09:45Z</time>
      </trkpt>
      <trkpt lat="45.06578" lon="5.42915">
        <ele>468.42599487305</ele>
        <time>2009-06-03T13:10:02Z</time>
      </trkpt>
      <trkpt lat="45.06622" lon="5.42962">
        <ele>471.12600708008</ele>
        <time>2009-06-03T13:10:16Z</time>
      </trkpt>
      <trkpt lat="45.06665" lon="5.43009">
        <ele>473.88500976562</ele>
        <time>2009-06-03T13:10:29Z</time>
      </trkpt>
      <trkpt lat="45.06678" lon="5.43038">
        <ele>475.26501464844</ele>
        <time>2009-06-03T13:10:35Z</time>
      </trkpt>
      <trkpt lat="45.06715" lon="5.431">
        <ele>478.45700073242</ele>
        <time>2009-06-03T13:10:50Z</time>
      </trkpt>
      <trkpt lat="45.06749" lon="5.43151">
        <ele>481.23999023438</ele>
        <time>2009-06-03T13:11:03Z</time>
      </trkpt>
      <trkpt lat="45.06784" lon="5.4323">
        <ele>484.36499023438</ele>
        <time>2009-06-03T13:11:20Z</time>
      </trkpt>
      <trkpt lat="45.06812" lon="5.43303">
        <ele>487.04800415039</ele>
        <time>2009-06-03T13:11:35Z</time>
      </trkpt>
      <trkpt lat="45.06824" lon="5.43348">
        <ele>488.87799072266</ele>
        <time>2009-06-03T13:11:43Z</time>
      </trkpt>
      <trkpt lat="45.0683" lon="5.43458">
        <ele>493.28298950195</ele>
        <time>2009-06-03T13:12:01Z</time>
      </trkpt>
      <trkpt lat="45.06832" lon="5.43491">
        <ele>494.24798583984</ele>
        <time>2009-06-03T13:12:06Z</time>
      </trkpt>
      <trkpt lat="45.06855" lon="5.43597">
        <ele>498.67001342773</ele>
        <time>2009-06-03T13:12:23Z</time>
      </trkpt>
      <trkpt lat="45.06891" lon="5.43693">
        <ele>502.77700805664</ele>
        <time>2009-06-03T13:12:41Z</time>
      </trkpt>
      <trkpt lat="45.06926" lon="5.43783">
        <ele>506.71600341797</ele>
        <time>2009-06-03T13:12:59Z</time>
      </trkpt>
      <trkpt lat="45.06951" lon="5.4385">
        <ele>510.36401367188</ele>
        <time>2009-06-03T13:13:14Z</time>
      </trkpt>
      <trkpt lat="45.06973" lon="5.43907">
        <ele>513.28601074219</ele>
        <time>2009-06-03T13:13:29Z</time>
      </trkpt>
      <trkpt lat="45.06993" lon="5.43936">
        <ele>515.08599853516</ele>
        <time>2009-06-03T13:13:37Z</time>
      </trkpt>
      <trkpt lat="45.07006" lon="5.43953">
        <ele>516.35400390625</ele>
        <time>2009-06-03T13:13:42Z</time>
      </trkpt>
      <trkpt lat="45.07034" lon="5.44">
        <ele>518.79602050781</ele>
        <time>2009-06-03T13:13:54Z</time>
      </trkpt>
      <trkpt lat="45.07077" lon="5.44072">
        <ele>522.82598876953</ele>
        <time>2009-06-03T13:14:11Z</time>
      </trkpt>
      <trkpt lat="45.07084" lon="5.44084">
        <ele>524.15802001953</ele>
        <time>2009-06-03T13:14:14Z</time>
      </trkpt>
      <trkpt lat="45.07101" lon="5.44112">
        <ele>525.77398681641</ele>
        <time>2009-06-03T13:14:21Z</time>
      </trkpt>
      <trkpt lat="45.07104" lon="5.44121">
        <ele>525.84997558594</ele>
        <time>2009-06-03T13:14:23Z</time>
      </trkpt>
      <trkpt lat="45.07111" lon="5.44146">
        <ele>527.03698730469</ele>
        <time>2009-06-03T13:14:28Z</time>
      </trkpt>
      <trkpt lat="45.07116" lon="5.44163">
        <ele>527.77600097656</ele>
        <time>2009-06-03T13:14:30Z</time>
      </trkpt>
      <trkpt lat="45.07119" lon="5.44172">
        <ele>528.32098388672</ele>
        <time>2009-06-03T13:14:33Z</time>
      </trkpt>
      <trkpt lat="45.0713" lon="5.4421">
        <ele>529.81597900391</ele>
        <time>2009-06-03T13:14:39Z</time>
      </trkpt>
      <trkpt lat="45.07131" lon="5.44215">
        <ele>530.18103027344</ele>
        <time>2009-06-03T13:14:40Z</time>
      </trkpt>
      <trkpt lat="45.07143" lon="5.44312">
        <ele>534.59802246094</ele>
        <time>2009-06-03T13:14:55Z</time>
      </trkpt>
      <trkpt lat="45.07155" lon="5.44329">
        <ele>537.02197265625</ele>
        <time>2009-06-03T13:15:04Z</time>
      </trkpt>
      <trkpt lat="45.07177" lon="5.44368">
        <ele>539.03601074219</ele>
        <time>2009-06-03T13:15:16Z</time>
      </trkpt>
      <trkpt lat="45.07183" lon="5.44384">
        <ele>540.51599121094</ele>
        <time>2009-06-03T13:15:21Z</time>
      </trkpt>
      <trkpt lat="45.07192" lon="5.44454">
        <ele>543.6240234375</ele>
        <time>2009-06-03T13:15:34Z</time>
      </trkpt>
      <trkpt lat="45.07232" lon="5.44496">
        <ele>546.17297363281</ele>
        <time>2009-06-03T13:15:49Z</time>
      </trkpt>
      <trkpt lat="45.07257" lon="5.44542">
        <ele>548.70001220703</ele>
        <time>2009-06-03T13:16:01Z</time>
      </trkpt>
      <trkpt lat="45.07267" lon="5.44583">
        <ele>550.73699951172</ele>
        <time>2009-06-03T13:16:11Z</time>
      </trkpt>
      <trkpt lat="45.07295" lon="5.44646">
        <ele>555.71502685547</ele>
        <time>2009-06-03T13:16:31Z</time>
      </trkpt>
      <trkpt lat="45.07309" lon="5.44707">
        <ele>558.1669921875</ele>
        <time>2009-06-03T13:16:39Z</time>
      </trkpt>
      <trkpt lat="45.07313" lon="5.44709">
        <ele>558.39202880859</ele>
        <time>2009-06-03T13:16:40Z</time>
      </trkpt>
      <trkpt lat="45.07316" lon="5.44712">
        <ele>558.48901367188</ele>
        <time>2009-06-03T13:16:41Z</time>
      </trkpt>
      <trkpt lat="45.07323" lon="5.44717">
        <ele>558.80902099609</ele>
        <time>2009-06-03T13:16:43Z</time>
      </trkpt>
      <trkpt lat="45.07327" lon="5.4472">
        <ele>559.23400878906</ele>
        <time>2009-06-03T13:16:44Z</time>
      </trkpt>
      <trkpt lat="45.07353" lon="5.4474">
        <ele>561.07299804688</ele>
        <time>2009-06-03T13:16:52Z</time>
      </trkpt>
      <trkpt lat="45.07412" lon="5.4478">
        <ele>564.64099121094</ele>
        <time>2009-06-03T13:17:09Z</time>
      </trkpt>
      <trkpt lat="45.07438" lon="5.44808">
        <ele>566.8759765625</ele>
        <time>2009-06-03T13:17:20Z</time>
      </trkpt>
      <trkpt lat="45.07444" lon="5.44823">
        <ele>567.46301269531</ele>
        <time>2009-06-03T13:17:23Z</time>
      </trkpt>
      <trkpt lat="45.0747" lon="5.4486">
        <ele>569.22497558594</ele>
        <time>2009-06-03T13:17:34Z</time>
      </trkpt>
      <trkpt lat="45.07519" lon="5.449">
        <ele>572.958984375</ele>
        <time>2009-06-03T13:17:50Z</time>
      </trkpt>
      <trkpt lat="45.07557" lon="5.44928">
        <ele>575.51397705078</ele>
        <time>2009-06-03T13:18:02Z</time>
      </trkpt>
      <trkpt lat="45.07593" lon="5.44953">
        <ele>577.87097167969</ele>
        <time>2009-06-03T13:18:15Z</time>
      </trkpt>
      <trkpt lat="45.07639" lon="5.44992">
        <ele>580.85699462891</ele>
        <time>2009-06-03T13:18:31Z</time>
      </trkpt>
      <trkpt lat="45.07684" lon="5.45032">
        <ele>584.10101318359</ele>
        <time>2009-06-03T13:18:46Z</time>
      </trkpt>
      <trkpt lat="45.07717" lon="5.45067">
        <ele>585.97198486328</ele>
        <time>2009-06-03T13:18:59Z</time>
      </trkpt>
      <trkpt lat="45.07748" lon="5.45102">
        <ele>588.38500976562</ele>
        <time>2009-06-03T13:19:11Z</time>
      </trkpt>
      <trkpt lat="45.07763" lon="5.45119">
        <ele>591.50500488281</ele>
        <time>2009-06-03T13:19:22Z</time>
      </trkpt>
      <trkpt lat="45.07763" lon="5.45119">
        <ele>593.19897460938</ele>
        <time>2009-06-03T13:19:31Z</time>
      </trkpt>
      <trkpt lat="45.07785" lon="5.45334">
        <ele>601.43499755859</ele>
        <time>2009-06-03T13:20:05Z</time>
      </trkpt>
      <trkpt lat="45.0785" lon="5.45404">
        <ele>605.44702148438</ele>
        <time>2009-06-03T13:20:24Z</time>
      </trkpt>
      <trkpt lat="45.07886" lon="5.45442">
        <ele>607.88598632812</ele>
        <time>2009-06-03T13:20:35Z</time>
      </trkpt>
      <trkpt lat="45.07943" lon="5.4548">
        <ele>612.02001953125</ele>
        <time>2009-06-03T13:20:52Z</time>
      </trkpt>
      <trkpt lat="45.07969" lon="5.45507">
        <ele>614.01800537109</ele>
        <time>2009-06-03T13:21:02Z</time>
      </trkpt>
      <trkpt lat="45.07995" lon="5.45536">
        <ele>615.96997070312</ele>
        <time>2009-06-03T13:21:12Z</time>
      </trkpt>
      <trkpt lat="45.08039" lon="5.45569">
        <ele>619.68200683594</ele>
        <time>2009-06-03T13:21:27Z</time>
      </trkpt>
      <trkpt lat="45.08064" lon="5.456">
        <ele>621.57702636719</ele>
        <time>2009-06-03T13:21:39Z</time>
      </trkpt>
      <trkpt lat="45.08108" lon="5.45638">
        <ele>624.28802490234</ele>
        <time>2009-06-03T13:21:53Z</time>
      </trkpt>
      <trkpt lat="45.08146" lon="5.4567">
        <ele>627.34600830078</ele>
        <time>2009-06-03T13:22:07Z</time>
      </trkpt>
      <trkpt lat="45.08175" lon="5.45701">
        <ele>629.85797119141</ele>
        <time>2009-06-03T13:22:19Z</time>
      </trkpt>
      <trkpt lat="45.08182" lon="5.45709">
        <ele>630.82299804688</ele>
        <time>2009-06-03T13:22:24Z</time>
      </trkpt>
      <trkpt lat="45.08191" lon="5.45718">
        <ele>630.95098876953</ele>
        <time>2009-06-03T13:22:26Z</time>
      </trkpt>
      <trkpt lat="45.08192" lon="5.4572">
        <ele>633.35400390625</ele>
        <time>2009-06-03T13:22:39Z</time>
      </trkpt>
      <trkpt lat="45.08269" lon="5.45746">
        <ele>635.43402099609</ele>
        <time>2009-06-03T13:22:53Z</time>
      </trkpt>
      <trkpt lat="45.08302" lon="5.45736">
        <ele>636.59301757812</ele>
        <time>2009-06-03T13:23:02Z</time>
      </trkpt>
      <trkpt lat="45.0833" lon="5.4575">
        <ele>638.10198974609</ele>
        <time>2009-06-03T13:23:10Z</time>
      </trkpt>
      <trkpt lat="45.0833" lon="5.4575">
        <ele>638.26202392578</ele>
        <time>2009-06-03T13:23:12Z</time>
      </trkpt>
      <trkpt lat="45.08388" lon="5.45815">
        <ele>639.16400146484</ele>
        <time>2009-06-03T13:23:26Z</time>
      </trkpt>
      <trkpt lat="45.0845" lon="5.45879">
        <ele>639.34002685547</ele>
        <time>2009-06-03T13:23:38Z</time>
      </trkpt>
      <trkpt lat="45.08479" lon="5.45914">
        <ele>639.77899169922</ele>
        <time>2009-06-03T13:23:43Z</time>
      </trkpt>
      <trkpt lat="45.08501" lon="5.45941">
        <ele>639.82800292969</ele>
        <time>2009-06-03T13:23:47Z</time>
      </trkpt>
      <trkpt lat="45.08517" lon="5.45961">
        <ele>640.10498046875</ele>
        <time>2009-06-03T13:23:50Z</time>
      </trkpt>
      <trkpt lat="45.08538" lon="5.4598">
        <ele>640.21301269531</ele>
        <time>2009-06-03T13:23:53Z</time>
      </trkpt>
      <trkpt lat="45.08617" lon="5.46028">
        <ele>640.49499511719</ele>
        <time>2009-06-03T13:24:04Z</time>
      </trkpt>
      <trkpt lat="45.0865" lon="5.46073">
        <ele>640.21197509766</ele>
        <time>2009-06-03T13:24:10Z</time>
      </trkpt>
      <trkpt lat="45.08671" lon="5.46128">
        <ele>640.48101806641</ele>
        <time>2009-06-03T13:24:16Z</time>
      </trkpt>
      <trkpt lat="45.08681" lon="5.46185">
        <ele>641.541015625</ele>
        <time>2009-06-03T13:24:22Z</time>
      </trkpt>
      <trkpt lat="45.08679" lon="5.46215">
        <ele>642.44396972656</ele>
        <time>2009-06-03T13:24:25Z</time>
      </trkpt>
      <trkpt lat="45.08678" lon="5.46233">
        <ele>642.49700927734</ele>
        <time>2009-06-03T13:24:27Z</time>
      </trkpt>
      <trkpt lat="45.08691" lon="5.46295">
        <ele>643.78198242188</ele>
        <time>2009-06-03T13:24:34Z</time>
      </trkpt>
      <trkpt lat="45.08721" lon="5.46394">
        <ele>645.34197998047</ele>
        <time>2009-06-03T13:24:47Z</time>
      </trkpt>
      <trkpt lat="45.08729" lon="5.46456">
        <ele>645.25799560547</ele>
        <time>2009-06-03T13:24:54Z</time>
      </trkpt>
      <trkpt lat="45.08729" lon="5.46527">
        <ele>645.68798828125</ele>
        <time>2009-06-03T13:25:04Z</time>
      </trkpt>
      <trkpt lat="45.08729" lon="5.46555">
        <ele>646.11999511719</ele>
        <time>2009-06-03T13:25:06Z</time>
      </trkpt>
      <trkpt lat="45.0874" lon="5.46597">
        <ele>647.59802246094</ele>
        <time>2009-06-03T13:25:12Z</time>
      </trkpt>
      <trkpt lat="45.0876" lon="5.46646">
        <ele>649.08502197266</ele>
        <time>2009-06-03T13:25:19Z</time>
      </trkpt>
      <trkpt lat="45.08812" lon="5.46769">
        <ele>649.32397460938</ele>
        <time>2009-06-03T13:25:36Z</time>
      </trkpt>
      <trkpt lat="45.08817" lon="5.46786">
        <ele>649.74200439453</ele>
        <time>2009-06-03T13:25:38Z</time>
      </trkpt>
      <trkpt lat="45.08835" lon="5.46825">
        <ele>649.39801025391</ele>
        <time>2009-06-03T13:25:43Z</time>
      </trkpt>
      <trkpt lat="45.0887" lon="5.46859">
        <ele>649.35900878906</ele>
        <time>2009-06-03T13:25:50Z</time>
      </trkpt>
      <trkpt lat="45.08942" lon="5.46911">
        <ele>650.59997558594</ele>
        <time>2009-06-03T13:26:03Z</time>
      </trkpt>
      <trkpt lat="45.08947" lon="5.46917">
        <ele>650.73101806641</ele>
        <time>2009-06-03T13:26:04Z</time>
      </trkpt>
      <trkpt lat="45.08969" lon="5.46955">
        <ele>650.41497802734</ele>
        <time>2009-06-03T13:26:09Z</time>
      </trkpt>
      <trkpt lat="45.08977" lon="5.47012">
        <ele>648.67700195312</ele>
        <time>2009-06-03T13:26:15Z</time>
      </trkpt>
      <trkpt lat="45.08972" lon="5.47039">
        <ele>649.72100830078</ele>
        <time>2009-06-03T13:26:18Z</time>
      </trkpt>
      <trkpt lat="45.08964" lon="5.47065">
        <ele>651.48602294922</ele>
        <time>2009-06-03T13:26:21Z</time>
      </trkpt>
      <trkpt lat="45.08899" lon="5.47183">
        <ele>653.0419921875</ele>
        <time>2009-06-03T13:26:36Z</time>
      </trkpt>
      <trkpt lat="45.08814" lon="5.4732">
        <ele>654.07202148438</ele>
        <time>2009-06-03T13:26:54Z</time>
      </trkpt>
      <trkpt lat="45.08758" lon="5.47435">
        <ele>655.78399658203</ele>
        <time>2009-06-03T13:27:08Z</time>
      </trkpt>
      <trkpt lat="45.08697" lon="5.47569">
        <ele>656.97399902344</ele>
        <time>2009-06-03T13:27:23Z</time>
      </trkpt>
      <trkpt lat="45.08626" lon="5.47696">
        <ele>658.46899414062</ele>
        <time>2009-06-03T13:27:38Z</time>
      </trkpt>
      <trkpt lat="45.08617" lon="5.47714">
        <ele>658.58502197266</ele>
        <time>2009-06-03T13:27:40Z</time>
      </trkpt>
      <trkpt lat="45.08587" lon="5.47775">
        <ele>659.73602294922</ele>
        <time>2009-06-03T13:27:47Z</time>
      </trkpt>
      <trkpt lat="45.08572" lon="5.47843">
        <ele>659.95697021484</ele>
        <time>2009-06-03T13:27:54Z</time>
      </trkpt>
      <trkpt lat="45.08569" lon="5.47865">
        <ele>660.27301025391</ele>
        <time>2009-06-03T13:27:56Z</time>
      </trkpt>
      <trkpt lat="45.08556" lon="5.47914">
        <ele>660.06500244141</ele>
        <time>2009-06-03T13:28:02Z</time>
      </trkpt>
      <trkpt lat="45.08535" lon="5.47953">
        <ele>661.71801757812</ele>
        <time>2009-06-03T13:28:07Z</time>
      </trkpt>
      <trkpt lat="45.08532" lon="5.47961">
        <ele>661.77301025391</ele>
        <time>2009-06-03T13:28:08Z</time>
      </trkpt>
      <trkpt lat="45.08519" lon="5.48023">
        <ele>662.50299072266</ele>
        <time>2009-06-03T13:28:15Z</time>
      </trkpt>
      <trkpt lat="45.0847" lon="5.4812">
        <ele>662.69000244141</ele>
        <time>2009-06-03T13:28:27Z</time>
      </trkpt>
      <trkpt lat="45.08437" lon="5.48175">
        <ele>664.19299316406</ele>
        <time>2009-06-03T13:28:34Z</time>
      </trkpt>
      <trkpt lat="45.0842" lon="5.48242">
        <ele>664.58898925781</ele>
        <time>2009-06-03T13:28:41Z</time>
      </trkpt>
      <trkpt lat="45.08415" lon="5.48281">
        <ele>664.76898193359</ele>
        <time>2009-06-03T13:28:45Z</time>
      </trkpt>
      <trkpt lat="45.08413" lon="5.48304">
        <ele>664.11297607422</ele>
        <time>2009-06-03T13:28:47Z</time>
      </trkpt>
      <trkpt lat="45.08408" lon="5.48349">
        <ele>663.958984375</ele>
        <time>2009-06-03T13:28:51Z</time>
      </trkpt>
      <trkpt lat="45.08403" lon="5.48389">
        <ele>664.89898681641</ele>
        <time>2009-06-03T13:28:56Z</time>
      </trkpt>
      <trkpt lat="45.08374" lon="5.48461">
        <ele>665.78900146484</ele>
        <time>2009-06-03T13:29:04Z</time>
      </trkpt>
      <trkpt lat="45.08369" lon="5.48467">
        <ele>666.15301513672</ele>
        <time>2009-06-03T13:29:05Z</time>
      </trkpt>
      <trkpt lat="45.0828" lon="5.48484">
        <ele>668.20599365234</ele>
        <time>2009-06-03T13:29:18Z</time>
      </trkpt>
      <trkpt lat="45.08247" lon="5.48496">
        <ele>668.55798339844</ele>
        <time>2009-06-03T13:29:23Z</time>
      </trkpt>
      <trkpt lat="45.08224" lon="5.48518">
        <ele>669.06500244141</ele>
        <time>2009-06-03T13:29:27Z</time>
      </trkpt>
      <trkpt lat="45.082" lon="5.48555">
        <ele>670.1240234375</ele>
        <time>2009-06-03T13:29:32Z</time>
      </trkpt>
      <trkpt lat="45.08191" lon="5.48601">
        <ele>671.16400146484</ele>
        <time>2009-06-03T13:29:37Z</time>
      </trkpt>
      <trkpt lat="45.08189" lon="5.48648">
        <ele>671.98699951172</ele>
        <time>2009-06-03T13:29:42Z</time>
      </trkpt>
      <trkpt lat="45.08178" lon="5.4877">
        <ele>675.416015625</ele>
        <time>2009-06-03T13:29:57Z</time>
      </trkpt>
      <trkpt lat="45.08176" lon="5.48784">
        <ele>676.04901123047</ele>
        <time>2009-06-03T13:29:59Z</time>
      </trkpt>
      <trkpt lat="45.08152" lon="5.48824">
        <ele>678.24200439453</ele>
        <time>2009-06-03T13:30:06Z</time>
      </trkpt>
      <trkpt lat="45.08086" lon="5.48872">
        <ele>681.20501708984</ele>
        <time>2009-06-03T13:30:22Z</time>
      </trkpt>
      <trkpt lat="45.0807" lon="5.48883">
        <ele>681.70599365234</ele>
        <time>2009-06-03T13:30:26Z</time>
      </trkpt>
      <trkpt lat="45.07991" lon="5.48916">
        <ele>684.76202392578</ele>
        <time>2009-06-03T13:30:43Z</time>
      </trkpt>
      <trkpt lat="45.07942" lon="5.48947">
        <ele>687.44598388672</ele>
        <time>2009-06-03T13:30:56Z</time>
      </trkpt>
      <trkpt lat="45.07929" lon="5.48956">
        <ele>688.09802246094</ele>
        <time>2009-06-03T13:30:59Z</time>
      </trkpt>
      <trkpt lat="45.07898" lon="5.48975">
        <ele>689.26098632812</ele>
        <time>2009-06-03T13:31:06Z</time>
      </trkpt>
      <trkpt lat="45.0788" lon="5.48987">
        <ele>689.97900390625</ele>
        <time>2009-06-03T13:31:10Z</time>
      </trkpt>
      <trkpt lat="45.07858" lon="5.48998">
        <ele>691.16198730469</ele>
        <time>2009-06-03T13:31:15Z</time>
      </trkpt>
      <trkpt lat="45.07832" lon="5.48997">
        <ele>691.22100830078</ele>
        <time>2009-06-03T13:31:20Z</time>
      </trkpt>
      <trkpt lat="45.07817" lon="5.48996">
        <ele>692.80200195312</ele>
        <time>2009-06-03T13:31:23Z</time>
      </trkpt>
      <trkpt lat="45.07754" lon="5.49005">
        <ele>695.96997070312</ele>
        <time>2009-06-03T13:31:35Z</time>
      </trkpt>
      <trkpt lat="45.07673" lon="5.49033">
        <ele>699.84399414062</ele>
        <time>2009-06-03T13:31:50Z</time>
      </trkpt>
      <trkpt lat="45.07614" lon="5.49084">
        <ele>702.38000488281</ele>
        <time>2009-06-03T13:32:03Z</time>
      </trkpt>
      <trkpt lat="45.07578" lon="5.49115">
        <ele>703.80700683594</ele>
        <time>2009-06-03T13:32:10Z</time>
      </trkpt>
      <trkpt lat="45.07519" lon="5.49145">
        <ele>705.79400634766</ele>
        <time>2009-06-03T13:32:22Z</time>
      </trkpt>
      <trkpt lat="45.07505" lon="5.49152">
        <ele>706.77801513672</ele>
        <time>2009-06-03T13:32:25Z</time>
      </trkpt>
      <trkpt lat="45.07488" lon="5.49169">
        <ele>707.04302978516</ele>
        <time>2009-06-03T13:32:28Z</time>
      </trkpt>
      <trkpt lat="45.07476" lon="5.49183">
        <ele>707.51599121094</ele>
        <time>2009-06-03T13:32:31Z</time>
      </trkpt>
      <trkpt lat="45.07472" lon="5.49187">
        <ele>707.42401123047</ele>
        <time>2009-06-03T13:32:32Z</time>
      </trkpt>
      <trkpt lat="45.07465" lon="5.49195">
        <ele>708.20098876953</ele>
        <time>2009-06-03T13:32:34Z</time>
      </trkpt>
      <trkpt lat="45.07429" lon="5.49228">
        <ele>711.40002441406</ele>
        <time>2009-06-03T13:32:45Z</time>
      </trkpt>
      <trkpt lat="45.07417" lon="5.4923">
        <ele>711.66998291016</ele>
        <time>2009-06-03T13:32:46Z</time>
      </trkpt>
      <trkpt lat="45.07408" lon="5.49228">
        <ele>712.42297363281</ele>
        <time>2009-06-03T13:32:48Z</time>
      </trkpt>
      <trkpt lat="45.07388" lon="5.49215">
        <ele>711.63598632812</ele>
        <time>2009-06-03T13:32:53Z</time>
      </trkpt>
      <trkpt lat="45.07382" lon="5.49211">
        <ele>712.74298095703</ele>
        <time>2009-06-03T13:32:56Z</time>
      </trkpt>
      <trkpt lat="45.07381" lon="5.4921">
        <ele>712.35699462891</ele>
        <time>2009-06-03T13:33:00Z</time>
      </trkpt>
      <trkpt lat="45.07383" lon="5.49212">
        <ele>712.76397705078</ele>
        <time>2009-06-03T13:33:02Z</time>
      </trkpt>
      <trkpt lat="45.07373" lon="5.49205">
        <ele>714.02001953125</ele>
        <time>2009-06-03T13:33:10Z</time>
      </trkpt>
      <trkpt lat="45.07373" lon="5.49205">
        <ele>715.53399658203</ele>
        <time>2009-06-03T13:33:18Z</time>
      </trkpt>
      <trkpt lat="45.07373" lon="5.49205">
        <ele>715.89801025391</ele>
        <time>2009-06-03T13:33:21Z</time>
      </trkpt>
      <trkpt lat="45.07373" lon="5.49205">
        <ele>716.8759765625</ele>
        <time>2009-06-03T13:33:25Z</time>
      </trkpt>
      <trkpt lat="45.07351" lon="5.49345">
        <ele>718.09698486328</ele>
        <time>2009-06-03T13:33:30Z</time>
      </trkpt>
      <trkpt lat="45.07353" lon="5.49349">
        <ele>718.45300292969</ele>
        <time>2009-06-03T13:33:31Z</time>
      </trkpt>
      <trkpt lat="45.07354" lon="5.49354">
        <ele>718.73901367188</ele>
        <time>2009-06-03T13:33:32Z</time>
      </trkpt>
      <trkpt lat="45.07356" lon="5.49357">
        <ele>719.05102539062</ele>
        <time>2009-06-03T13:33:33Z</time>
      </trkpt>
      <trkpt lat="45.07355" lon="5.49364">
        <ele>719.40997314453</ele>
        <time>2009-06-03T13:33:35Z</time>
      </trkpt>
      <trkpt lat="45.07347" lon="5.49374">
        <ele>720.03601074219</ele>
        <time>2009-06-03T13:33:39Z</time>
      </trkpt>
      <trkpt lat="45.07339" lon="5.49397">
        <ele>721.69000244141</ele>
        <time>2009-06-03T13:33:46Z</time>
      </trkpt>
      <trkpt lat="45.0733" lon="5.49405">
        <ele>721.93902587891</ele>
        <time>2009-06-03T13:33:48Z</time>
      </trkpt>
      <trkpt lat="45.0731" lon="5.4942">
        <ele>722.89501953125</ele>
        <time>2009-06-03T13:33:53Z</time>
      </trkpt>
      <trkpt lat="45.0729" lon="5.49433">
        <ele>725.03002929688</ele>
        <time>2009-06-03T13:33:59Z</time>
      </trkpt>
      <trkpt lat="45.07281" lon="5.49441">
        <ele>725.65399169922</ele>
        <time>2009-06-03T13:34:02Z</time>
      </trkpt>
      <trkpt lat="45.07269" lon="5.49456">
        <ele>727.06201171875</ele>
        <time>2009-06-03T13:34:06Z</time>
      </trkpt>
      <trkpt lat="45.07251" lon="5.49473">
        <ele>728.75799560547</ele>
        <time>2009-06-03T13:34:11Z</time>
      </trkpt>
      <trkpt lat="45.07241" lon="5.49487">
        <ele>729.83801269531</ele>
        <time>2009-06-03T13:34:15Z</time>
      </trkpt>
      <trkpt lat="45.07235" lon="5.49495">
        <ele>729.916015625</ele>
        <time>2009-06-03T13:34:17Z</time>
      </trkpt>
      <trkpt lat="45.0723" lon="5.49521">
        <ele>730.55200195312</ele>
        <time>2009-06-03T13:34:22Z</time>
      </trkpt>
      <trkpt lat="45.0723" lon="5.49536">
        <ele>731.69097900391</ele>
        <time>2009-06-03T13:34:25Z</time>
      </trkpt>
      <trkpt lat="45.07228" lon="5.49544">
        <ele>732.72399902344</ele>
        <time>2009-06-03T13:34:27Z</time>
      </trkpt>
      <trkpt lat="45.07221" lon="5.49555">
        <ele>733.78100585938</ele>
        <time>2009-06-03T13:34:30Z</time>
      </trkpt>
      <trkpt lat="45.07154" lon="5.49577">
        <ele>736.15100097656</ele>
        <time>2009-06-03T13:34:37Z</time>
      </trkpt>
      <trkpt lat="45.07154" lon="5.49582">
        <ele>736.12200927734</ele>
        <time>2009-06-03T13:34:38Z</time>
      </trkpt>
      <trkpt lat="45.07154" lon="5.49636">
        <ele>739.10699462891</ele>
        <time>2009-06-03T13:34:49Z</time>
      </trkpt>
      <trkpt lat="45.07154" lon="5.49668">
        <ele>740.69299316406</ele>
        <time>2009-06-03T13:34:55Z</time>
      </trkpt>
      <trkpt lat="45.07154" lon="5.49683">
        <ele>741.50701904297</ele>
        <time>2009-06-03T13:34:58Z</time>
      </trkpt>
      <trkpt lat="45.07154" lon="5.497">
        <ele>742.39202880859</ele>
        <time>2009-06-03T13:35:01Z</time>
      </trkpt>
      <trkpt lat="45.07154" lon="5.4973">
        <ele>743.39300537109</ele>
        <time>2009-06-03T13:35:06Z</time>
      </trkpt>
      <trkpt lat="45.07148" lon="5.49749">
        <ele>744.29400634766</ele>
        <time>2009-06-03T13:35:10Z</time>
      </trkpt>
      <trkpt lat="45.0713" lon="5.49797">
        <ele>746.82598876953</ele>
        <time>2009-06-03T13:35:23Z</time>
      </trkpt>
      <trkpt lat="45.07116" lon="5.49829">
        <ele>749.64501953125</ele>
        <time>2009-06-03T13:35:33Z</time>
      </trkpt>
      <trkpt lat="45.07196" lon="5.49948">
        <ele>751.66101074219</ele>
        <time>2009-06-03T13:35:44Z</time>
      </trkpt>
      <trkpt lat="45.07185" lon="5.49998">
        <ele>753.666015625</ele>
        <time>2009-06-03T13:35:55Z</time>
      </trkpt>
      <trkpt lat="45.07169" lon="5.50044">
        <ele>755.82098388672</ele>
        <time>2009-06-03T13:36:06Z</time>
      </trkpt>
      <trkpt lat="45.07156" lon="5.50079">
        <ele>757.32501220703</ele>
        <time>2009-06-03T13:36:15Z</time>
      </trkpt>
      <trkpt lat="45.07149" lon="5.50085">
        <ele>758.37097167969</ele>
        <time>2009-06-03T13:36:19Z</time>
      </trkpt>
      <trkpt lat="45.07136" lon="5.50087">
        <ele>758.75500488281</ele>
        <time>2009-06-03T13:36:30Z</time>
      </trkpt>
      <trkpt lat="45.07132" lon="5.5009">
        <ele>758.73999023438</ele>
        <time>2009-06-03T13:36:31Z</time>
      </trkpt>
      <trkpt lat="45.07056" lon="5.50105">
        <ele>761.44702148438</ele>
        <time>2009-06-03T13:36:44Z</time>
      </trkpt>
      <trkpt lat="45.0704" lon="5.50163">
        <ele>764.24200439453</ele>
        <time>2009-06-03T13:36:56Z</time>
      </trkpt>
      <trkpt lat="45.07026" lon="5.50251">
        <ele>767.33801269531</ele>
        <time>2009-06-03T13:37:08Z</time>
      </trkpt>
      <trkpt lat="45.07034" lon="5.50299">
        <ele>770.34698486328</ele>
        <time>2009-06-03T13:37:20Z</time>
      </trkpt>
      <trkpt lat="45.07031" lon="5.50359">
        <ele>773.68200683594</ele>
        <time>2009-06-03T13:37:34Z</time>
      </trkpt>
      <trkpt lat="45.0703" lon="5.50395">
        <ele>775.95098876953</ele>
        <time>2009-06-03T13:37:46Z</time>
      </trkpt>
      <trkpt lat="45.07031" lon="5.50398">
        <ele>776.15002441406</ele>
        <time>2009-06-03T13:37:48Z</time>
      </trkpt>
      <trkpt lat="45.07042" lon="5.50404">
        <ele>776.26898193359</ele>
        <time>2009-06-03T13:37:53Z</time>
      </trkpt>
      <trkpt lat="45.07031" lon="5.50359">
        <ele>775.03002929688</ele>
        <time>2009-06-03T13:40:35Z</time>
      </trkpt>
      <trkpt lat="45.07032" lon="5.5034">
        <ele>775.09600830078</ele>
        <time>2009-06-03T13:40:39Z</time>
      </trkpt>
      <trkpt lat="45.07033" lon="5.50293">
        <ele>771.99401855469</ele>
        <time>2009-06-03T13:40:44Z</time>
      </trkpt>
      <trkpt lat="45.07028" lon="5.5021">
        <ele>767.63500976562</ele>
        <time>2009-06-03T13:40:52Z</time>
      </trkpt>
      <trkpt lat="45.07033" lon="5.50198">
        <ele>766.64099121094</ele>
        <time>2009-06-03T13:40:53Z</time>
      </trkpt>
      <trkpt lat="45.07041" lon="5.50159">
        <ele>764.94702148438</ele>
        <time>2009-06-03T13:40:56Z</time>
      </trkpt>
      <trkpt lat="45.07048" lon="5.5013">
        <ele>764.04998779297</ele>
        <time>2009-06-03T13:40:58Z</time>
      </trkpt>
      <trkpt lat="45.07065" lon="5.50067">
        <ele>761.44702148438</ele>
        <time>2009-06-03T13:41:03Z</time>
      </trkpt>
      <trkpt lat="45.07068" lon="5.50012">
        <ele>758.88299560547</ele>
        <time>2009-06-03T13:41:07Z</time>
      </trkpt>
      <trkpt lat="45.07087" lon="5.49895">
        <ele>756.13800048828</ele>
        <time>2009-06-03T13:41:13Z</time>
      </trkpt>
      <trkpt lat="45.0711" lon="5.49841">
        <ele>752.55102539062</ele>
        <time>2009-06-03T13:41:16Z</time>
      </trkpt>
      <trkpt lat="45.07122" lon="5.49816">
        <ele>752.56701660156</ele>
        <time>2009-06-03T13:41:17Z</time>
      </trkpt>
      <trkpt lat="45.07127" lon="5.49802">
        <ele>751.34600830078</ele>
        <time>2009-06-03T13:41:19Z</time>
      </trkpt>
      <trkpt lat="45.07133" lon="5.49789">
        <ele>749.95300292969</ele>
        <time>2009-06-03T13:41:20Z</time>
      </trkpt>
      <trkpt lat="45.07154" lon="5.49715">
        <ele>744.66101074219</ele>
        <time>2009-06-03T13:41:26Z</time>
      </trkpt>
      <trkpt lat="45.07154" lon="5.49648">
        <ele>741.63098144531</ele>
        <time>2009-06-03T13:41:30Z</time>
      </trkpt>
      <trkpt lat="45.07154" lon="5.49563">
        <ele>738.56298828125</ele>
        <time>2009-06-03T13:41:35Z</time>
      </trkpt>
      <trkpt lat="45.07141" lon="5.49514">
        <ele>736.45501708984</ele>
        <time>2009-06-03T13:41:39Z</time>
      </trkpt>
      <trkpt lat="45.0714" lon="5.49502">
        <ele>736.72100830078</ele>
        <time>2009-06-03T13:41:40Z</time>
      </trkpt>
      <trkpt lat="45.07141" lon="5.49441">
        <ele>733.22601318359</ele>
        <time>2009-06-03T13:41:45Z</time>
      </trkpt>
      <trkpt lat="45.07199" lon="5.49298">
        <ele>729.00799560547</ele>
        <time>2009-06-03T13:41:54Z</time>
      </trkpt>
      <trkpt lat="45.0724" lon="5.49283">
        <ele>724.94396972656</ele>
        <time>2009-06-03T13:41:59Z</time>
      </trkpt>
      <trkpt lat="45.07274" lon="5.4926">
        <ele>722.18701171875</ele>
        <time>2009-06-03T13:42:04Z</time>
      </trkpt>
      <trkpt lat="45.07373" lon="5.49205">
        <ele>720.12701416016</ele>
        <time>2009-06-03T13:42:12Z</time>
      </trkpt>
      <trkpt lat="45.0733" lon="5.49228">
        <ele>717.31298828125</ele>
        <time>2009-06-03T13:42:15Z</time>
      </trkpt>
      <trkpt lat="45.07481" lon="5.49176">
        <ele>719.09399414062</ele>
        <time>2009-06-03T13:42:27Z</time>
      </trkpt>
      <trkpt lat="45.07511" lon="5.49149">
        <ele>719.50598144531</ele>
        <time>2009-06-03T13:42:30Z</time>
      </trkpt>
      <trkpt lat="45.07543" lon="5.49133">
        <ele>719.92401123047</ele>
        <time>2009-06-03T13:42:32Z</time>
      </trkpt>
      <trkpt lat="45.07563" lon="5.49123">
        <ele>721.2080078125</ele>
        <time>2009-06-03T13:42:34Z</time>
      </trkpt>
      <trkpt lat="45.07588" lon="5.49107">
        <ele>720.85101318359</ele>
        <time>2009-06-03T13:42:37Z</time>
      </trkpt>
      <trkpt lat="45.07603" lon="5.49093">
        <ele>720.95397949219</ele>
        <time>2009-06-03T13:42:39Z</time>
      </trkpt>
      <trkpt lat="45.07639" lon="5.49061">
        <ele>721.16802978516</ele>
        <time>2009-06-03T13:42:42Z</time>
      </trkpt>
      <trkpt lat="45.07654" lon="5.49048">
        <ele>720.86999511719</ele>
        <time>2009-06-03T13:42:43Z</time>
      </trkpt>
      <trkpt lat="45.077" lon="5.49018">
        <ele>721.37701416016</ele>
        <time>2009-06-03T13:42:46Z</time>
      </trkpt>
      <trkpt lat="45.07733" lon="5.4901">
        <ele>721.51702880859</ele>
        <time>2009-06-03T13:42:50Z</time>
      </trkpt>
      <trkpt lat="45.07751" lon="5.49005">
        <ele>722.09600830078</ele>
        <time>2009-06-03T13:42:52Z</time>
      </trkpt>
      <trkpt lat="45.07765" lon="5.49002">
        <ele>722.3759765625</ele>
        <time>2009-06-03T13:42:54Z</time>
      </trkpt>
      <trkpt lat="45.07934" lon="5.48952">
        <ele>724.92297363281</ele>
        <time>2009-06-03T13:43:16Z</time>
      </trkpt>
      <trkpt lat="45.07956" lon="5.48939">
        <ele>724.92297363281</ele>
        <time>2009-06-03T13:43:19Z</time>
      </trkpt>
      <trkpt lat="45.0767" lon="5.48824">
        <ele>725.88702392578</ele>
        <time>2009-06-03T13:43:23Z</time>
      </trkpt>
      <trkpt lat="45.0768" lon="5.48812">
        <ele>725.84497070312</ele>
        <time>2009-06-03T13:43:27Z</time>
      </trkpt>
      <trkpt lat="45.07692" lon="5.48803">
        <ele>726.11499023438</ele>
        <time>2009-06-03T13:43:30Z</time>
      </trkpt>
      <trkpt lat="45.07729" lon="5.48784">
        <ele>727.63397216797</ele>
        <time>2009-06-03T13:43:38Z</time>
      </trkpt>
      <trkpt lat="45.07767" lon="5.4876">
        <ele>728.54797363281</ele>
        <time>2009-06-03T13:43:48Z</time>
      </trkpt>
      <trkpt lat="45.07753" lon="5.48773">
        <ele>729.70397949219</ele>
        <time>2009-06-03T13:43:52Z</time>
      </trkpt>
      <trkpt lat="45.07792" lon="5.48735">
        <ele>731.69201660156</ele>
        <time>2009-06-03T13:44:02Z</time>
      </trkpt>
      <trkpt lat="45.07813" lon="5.48714">
        <ele>732.05102539062</ele>
        <time>2009-06-03T13:44:07Z</time>
      </trkpt>
      <trkpt lat="45.07831" lon="5.48695">
        <ele>732.73797607422</ele>
        <time>2009-06-03T13:44:11Z</time>
      </trkpt>
      <trkpt lat="45.07889" lon="5.48642">
        <ele>734.32098388672</ele>
        <time>2009-06-03T13:44:23Z</time>
      </trkpt>
      <trkpt lat="45.07904" lon="5.48619">
        <ele>735.12701416016</ele>
        <time>2009-06-03T13:44:28Z</time>
      </trkpt>
      <trkpt lat="45.0792" lon="5.48615">
        <ele>736</ele>
        <time>2009-06-03T13:44:32Z</time>
      </trkpt>
      <trkpt lat="45.07966" lon="5.4859">
        <ele>737.21600341797</ele>
        <time>2009-06-03T13:44:43Z</time>
      </trkpt>
      <trkpt lat="45.07967" lon="5.48577">
        <ele>737.27398681641</ele>
        <time>2009-06-03T13:44:45Z</time>
      </trkpt>
      <trkpt lat="45.07971" lon="5.48525">
        <ele>738.40301513672</ele>
        <time>2009-06-03T13:44:53Z</time>
      </trkpt>
      <trkpt lat="45.07985" lon="5.48441">
        <ele>739.89001464844</ele>
        <time>2009-06-03T13:45:05Z</time>
      </trkpt>
      <trkpt lat="45.07989" lon="5.48427">
        <ele>740.19702148438</ele>
        <time>2009-06-03T13:45:07Z</time>
      </trkpt>
      <trkpt lat="45.07995" lon="5.48386">
        <ele>740.88397216797</ele>
        <time>2009-06-03T13:45:13Z</time>
      </trkpt>
      <trkpt lat="45.07988" lon="5.48339">
        <ele>741.95397949219</ele>
        <time>2009-06-03T13:45:20Z</time>
      </trkpt>
      <trkpt lat="45.07983" lon="5.48321">
        <ele>741.8759765625</ele>
        <time>2009-06-03T13:45:23Z</time>
      </trkpt>
      <trkpt lat="45.0799" lon="5.48288">
        <ele>742.82098388672</ele>
        <time>2009-06-03T13:45:28Z</time>
      </trkpt>
      <trkpt lat="45.07994" lon="5.48285">
        <ele>742.95501708984</ele>
        <time>2009-06-03T13:45:29Z</time>
      </trkpt>
      <trkpt lat="45.08007" lon="5.48273">
        <ele>743.65301513672</ele>
        <time>2009-06-03T13:45:32Z</time>
      </trkpt>
      <trkpt lat="45.08014" lon="5.48269">
        <ele>743.68200683594</ele>
        <time>2009-06-03T13:45:33Z</time>
      </trkpt>
      <trkpt lat="45.08082" lon="5.4826">
        <ele>745.86297607422</ele>
        <time>2009-06-03T13:45:45Z</time>
      </trkpt>
      <trkpt lat="45.08092" lon="5.48259">
        <ele>746.07098388672</ele>
        <time>2009-06-03T13:45:47Z</time>
      </trkpt>
      <trkpt lat="45.08149" lon="5.48251">
        <ele>747.73602294922</ele>
        <time>2009-06-03T13:45:57Z</time>
      </trkpt>
      <trkpt lat="45.08182" lon="5.48247">
        <ele>749.24298095703</ele>
        <time>2009-06-03T13:46:04Z</time>
      </trkpt>
      <trkpt lat="45.08193" lon="5.48245">
        <ele>749.31201171875</ele>
        <time>2009-06-03T13:46:06Z</time>
      </trkpt>
      <trkpt lat="45.08228" lon="5.48232">
        <ele>750.53399658203</ele>
        <time>2009-06-03T13:46:12Z</time>
      </trkpt>
      <trkpt lat="45.08234" lon="5.48206">
        <ele>751.15698242188</ele>
        <time>2009-06-03T13:46:16Z</time>
      </trkpt>
      <trkpt lat="45.08253" lon="5.48171">
        <ele>752.54400634766</ele>
        <time>2009-06-03T13:46:22Z</time>
      </trkpt>
      <trkpt lat="45.08274" lon="5.48128">
        <ele>754.5009765625</ele>
        <time>2009-06-03T13:46:34Z</time>
      </trkpt>
      <trkpt lat="45.08273" lon="5.4811">
        <ele>757.06402587891</ele>
        <time>2009-06-03T13:46:38Z</time>
      </trkpt>
      <trkpt lat="45.08272" lon="5.48105">
        <ele>757.46502685547</ele>
        <time>2009-06-03T13:46:39Z</time>
      </trkpt>
      <trkpt lat="45.08271" lon="5.48082">
        <ele>758.17999267578</ele>
        <time>2009-06-03T13:46:44Z</time>
      </trkpt>
      <trkpt lat="45.08285" lon="5.4804">
        <ele>759.22802734375</ele>
        <time>2009-06-03T13:46:54Z</time>
      </trkpt>
      <trkpt lat="45.08296" lon="5.48022">
        <ele>761.37701416016</ele>
        <time>2009-06-03T13:46:59Z</time>
      </trkpt>
      <trkpt lat="45.08323" lon="5.4798">
        <ele>763.24298095703</ele>
        <time>2009-06-03T13:47:10Z</time>
      </trkpt>
      <trkpt lat="45.08354" lon="5.47931">
        <ele>766.06896972656</ele>
        <time>2009-06-03T13:47:21Z</time>
      </trkpt>
      <trkpt lat="45.08377" lon="5.47894">
        <ele>765.19897460938</ele>
        <time>2009-06-03T13:47:30Z</time>
      </trkpt>
      <trkpt lat="45.08376" lon="5.47857">
        <ele>768.67797851562</ele>
        <time>2009-06-03T13:47:41Z</time>
      </trkpt>
      <trkpt lat="45.0836" lon="5.47813">
        <ele>765.92401123047</ele>
        <time>2009-06-03T13:47:55Z</time>
      </trkpt>
      <trkpt lat="45.08343" lon="5.47771">
        <ele>768.21502685547</ele>
        <time>2009-06-03T13:48:08Z</time>
      </trkpt>
      <trkpt lat="45.0833" lon="5.47738">
        <ele>768.51599121094</ele>
        <time>2009-06-03T13:48:18Z</time>
      </trkpt>
      <trkpt lat="45.08329" lon="5.47736">
        <ele>768.42102050781</ele>
        <time>2009-06-03T13:48:19Z</time>
      </trkpt>
      <trkpt lat="45.08328" lon="5.47737">
        <ele>768.47998046875</ele>
        <time>2009-06-03T13:48:21Z</time>
      </trkpt>
      <trkpt lat="45.08327" lon="5.47732">
        <ele>768.84002685547</ele>
        <time>2009-06-03T13:49:45Z</time>
      </trkpt>
      <trkpt lat="45.08323" lon="5.47722">
        <ele>769.29498291016</ele>
        <time>2009-06-03T13:49:51Z</time>
      </trkpt>
      <trkpt lat="45.08308" lon="5.47684">
        <ele>771.01898193359</ele>
        <time>2009-06-03T13:50:02Z</time>
      </trkpt>
      <trkpt lat="45.08308" lon="5.47669">
        <ele>772.15301513672</ele>
        <time>2009-06-03T13:50:06Z</time>
      </trkpt>
      <trkpt lat="45.08308" lon="5.47651">
        <ele>772.90600585938</ele>
        <time>2009-06-03T13:50:10Z</time>
      </trkpt>
      <trkpt lat="45.08302" lon="5.47612">
        <ele>775.00299072266</ele>
        <time>2009-06-03T13:50:18Z</time>
      </trkpt>
      <trkpt lat="45.08292" lon="5.47576">
        <ele>776.65100097656</ele>
        <time>2009-06-03T13:50:26Z</time>
      </trkpt>
      <trkpt lat="45.08288" lon="5.47562">
        <ele>777.59197998047</ele>
        <time>2009-06-03T13:50:29Z</time>
      </trkpt>
      <trkpt lat="45.08281" lon="5.47517">
        <ele>780.19799804688</ele>
        <time>2009-06-03T13:50:39Z</time>
      </trkpt>
      <trkpt lat="45.08286" lon="5.47455">
        <ele>783.24700927734</ele>
        <time>2009-06-03T13:50:53Z</time>
      </trkpt>
      <trkpt lat="45.08291" lon="5.47396">
        <ele>785.86102294922</ele>
        <time>2009-06-03T13:51:06Z</time>
      </trkpt>
      <trkpt lat="45.08286" lon="5.47366">
        <ele>787.20098876953</ele>
        <time>2009-06-03T13:51:13Z</time>
      </trkpt>
      <trkpt lat="45.08275" lon="5.47326">
        <ele>789.77197265625</ele>
        <time>2009-06-03T13:51:22Z</time>
      </trkpt>
      <trkpt lat="45.0826" lon="5.47294">
        <ele>791.19000244141</ele>
        <time>2009-06-03T13:51:30Z</time>
      </trkpt>
      <trkpt lat="45.08259" lon="5.47259">
        <ele>792.9990234375</ele>
        <time>2009-06-03T13:51:36Z</time>
      </trkpt>
      <trkpt lat="45.08258" lon="5.47191">
        <ele>796.53802490234</ele>
        <time>2009-06-03T13:51:49Z</time>
      </trkpt>
      <trkpt lat="45.08258" lon="5.47186">
        <ele>796.78997802734</ele>
        <time>2009-06-03T13:51:50Z</time>
      </trkpt>
      <trkpt lat="45.08251" lon="5.4716">
        <ele>797.94097900391</ele>
        <time>2009-06-03T13:51:55Z</time>
      </trkpt>
      <trkpt lat="45.08225" lon="5.47095">
        <ele>801.56701660156</ele>
        <time>2009-06-03T13:52:09Z</time>
      </trkpt>
      <trkpt lat="45.0822" lon="5.47083">
        <ele>802.24102783203</ele>
        <time>2009-06-03T13:52:12Z</time>
      </trkpt>
      <trkpt lat="45.08192" lon="5.47044">
        <ele>804.99200439453</ele>
        <time>2009-06-03T13:52:22Z</time>
      </trkpt>
      <trkpt lat="45.0819" lon="5.4704">
        <ele>805.11199951172</ele>
        <time>2009-06-03T13:52:23Z</time>
      </trkpt>
      <trkpt lat="45.08178" lon="5.47027">
        <ele>805.9990234375</ele>
        <time>2009-06-03T13:52:27Z</time>
      </trkpt>
      <trkpt lat="45.08169" lon="5.47018">
        <ele>806.96899414062</ele>
        <time>2009-06-03T13:52:30Z</time>
      </trkpt>
      <trkpt lat="45.08154" lon="5.47006">
        <ele>807.93103027344</ele>
        <time>2009-06-03T13:52:34Z</time>
      </trkpt>
      <trkpt lat="45.08142" lon="5.46998">
        <ele>808.79699707031</ele>
        <time>2009-06-03T13:52:37Z</time>
      </trkpt>
      <trkpt lat="45.08126" lon="5.46986">
        <ele>809.59197998047</ele>
        <time>2009-06-03T13:52:41Z</time>
      </trkpt>
      <trkpt lat="45.08115" lon="5.46978">
        <ele>810.21197509766</ele>
        <time>2009-06-03T13:52:44Z</time>
      </trkpt>
      <trkpt lat="45.08072" lon="5.46936">
        <ele>813.79901123047</ele>
        <time>2009-06-03T13:52:57Z</time>
      </trkpt>
      <trkpt lat="45.08044" lon="5.46894">
        <ele>816.19396972656</ele>
        <time>2009-06-03T13:53:08Z</time>
      </trkpt>
      <trkpt lat="45.08045" lon="5.46836">
        <ele>818.55499267578</ele>
        <time>2009-06-03T13:53:18Z</time>
      </trkpt>
      <trkpt lat="45.08044" lon="5.46788">
        <ele>820.88800048828</ele>
        <time>2009-06-03T13:53:27Z</time>
      </trkpt>
      <trkpt lat="45.08026" lon="5.4675">
        <ele>823.36297607422</ele>
        <time>2009-06-03T13:53:36Z</time>
      </trkpt>
      <trkpt lat="45.07992" lon="5.4673">
        <ele>825.70599365234</ele>
        <time>2009-06-03T13:53:47Z</time>
      </trkpt>
      <trkpt lat="45.07972" lon="5.46698">
        <ele>827.28601074219</ele>
        <time>2009-06-03T13:53:55Z</time>
      </trkpt>
      <trkpt lat="45.07957" lon="5.46644">
        <ele>830.21899414062</ele>
        <time>2009-06-03T13:54:08Z</time>
      </trkpt>
      <trkpt lat="45.07969" lon="5.46596">
        <ele>833.0419921875</ele>
        <time>2009-06-03T13:54:21Z</time>
      </trkpt>
      <trkpt lat="45.07983" lon="5.46568">
        <ele>834.67297363281</ele>
        <time>2009-06-03T13:54:29Z</time>
      </trkpt>
      <trkpt lat="45.07995" lon="5.46536">
        <ele>837.03100585938</ele>
        <time>2009-06-03T13:54:38Z</time>
      </trkpt>
      <trkpt lat="45.07995" lon="5.46488">
        <ele>839.41302490234</ele>
        <time>2009-06-03T13:54:49Z</time>
      </trkpt>
      <trkpt lat="45.07991" lon="5.46453">
        <ele>840.71697998047</ele>
        <time>2009-06-03T13:54:56Z</time>
      </trkpt>
      <trkpt lat="45.07975" lon="5.46401">
        <ele>842.9169921875</ele>
        <time>2009-06-03T13:55:08Z</time>
      </trkpt>
      <trkpt lat="45.07946" lon="5.46332">
        <ele>846.30401611328</ele>
        <time>2009-06-03T13:55:26Z</time>
      </trkpt>
      <trkpt lat="45.07925" lon="5.4626">
        <ele>850.20001220703</ele>
        <time>2009-06-03T13:55:42Z</time>
      </trkpt>
      <trkpt lat="45.07904" lon="5.46197">
        <ele>852.77697753906</ele>
        <time>2009-06-03T13:55:57Z</time>
      </trkpt>
      <trkpt lat="45.07897" lon="5.46177">
        <ele>854.53100585938</ele>
        <time>2009-06-03T13:56:02Z</time>
      </trkpt>
      <trkpt lat="45.07866" lon="5.46126">
        <ele>856.98297119141</ele>
        <time>2009-06-03T13:56:16Z</time>
      </trkpt>
      <trkpt lat="45.07813" lon="5.46067">
        <ele>861.03198242188</ele>
        <time>2009-06-03T13:56:36Z</time>
      </trkpt>
      <trkpt lat="45.07748" lon="5.46011">
        <ele>864.98901367188</ele>
        <time>2009-06-03T13:56:57Z</time>
      </trkpt>
      <trkpt lat="45.07734" lon="5.46002">
        <ele>866.85498046875</ele>
        <time>2009-06-03T13:57:01Z</time>
      </trkpt>
      <trkpt lat="45.07678" lon="5.45963">
        <ele>870.458984375</ele>
        <time>2009-06-03T13:57:17Z</time>
      </trkpt>
      <trkpt lat="45.07619" lon="5.45924">
        <ele>874.51800537109</ele>
        <time>2009-06-03T13:57:34Z</time>
      </trkpt>
      <trkpt lat="45.07561" lon="5.45887">
        <ele>877.78601074219</ele>
        <time>2009-06-03T13:57:51Z</time>
      </trkpt>
      <trkpt lat="45.07503" lon="5.45863">
        <ele>880.40100097656</ele>
        <time>2009-06-03T13:58:06Z</time>
      </trkpt>
      <trkpt lat="45.07471" lon="5.45861">
        <ele>881.95501708984</ele>
        <time>2009-06-03T13:58:14Z</time>
      </trkpt>
      <trkpt lat="45.07384" lon="5.4586">
        <ele>885.61602783203</ele>
        <time>2009-06-03T13:58:35Z</time>
      </trkpt>
      <trkpt lat="45.07352" lon="5.45859">
        <ele>887.46600341797</ele>
        <time>2009-06-03T13:58:43Z</time>
      </trkpt>
      <trkpt lat="45.07283" lon="5.45858">
        <ele>890.4580078125</ele>
        <time>2009-06-03T13:59:00Z</time>
      </trkpt>
      <trkpt lat="45.07227" lon="5.45852">
        <ele>893.05999755859</ele>
        <time>2009-06-03T13:59:13Z</time>
      </trkpt>
      <trkpt lat="45.07167" lon="5.4584">
        <ele>896.2490234375</ele>
        <time>2009-06-03T13:59:29Z</time>
      </trkpt>
      <trkpt lat="45.07081" lon="5.45862">
        <ele>899.58898925781</ele>
        <time>2009-06-03T13:59:45Z</time>
      </trkpt>
      <trkpt lat="45.06999" lon="5.45882">
        <ele>903.54400634766</ele>
        <time>2009-06-03T14:00:03Z</time>
      </trkpt>
      <trkpt lat="45.06944" lon="5.45896">
        <ele>904.52600097656</ele>
        <time>2009-06-03T14:00:16Z</time>
      </trkpt>
      <trkpt lat="45.06841" lon="5.45869">
        <ele>906.96398925781</ele>
        <time>2009-06-03T14:00:33Z</time>
      </trkpt>
      <trkpt lat="45.06745" lon="5.45822">
        <ele>909.55401611328</ele>
        <time>2009-06-03T14:00:51Z</time>
      </trkpt>
      <trkpt lat="45.06654" lon="5.4573">
        <ele>913.01000976562</ele>
        <time>2009-06-03T14:01:10Z</time>
      </trkpt>
      <trkpt lat="45.06557" lon="5.45638">
        <ele>916.48901367188</ele>
        <time>2009-06-03T14:01:29Z</time>
      </trkpt>
      <trkpt lat="45.06468" lon="5.45564">
        <ele>917.34301757812</ele>
        <time>2009-06-03T14:01:45Z</time>
      </trkpt>
      <trkpt lat="45.06354" lon="5.45532">
        <ele>918.57702636719</ele>
        <time>2009-06-03T14:02:02Z</time>
      </trkpt>
      <trkpt lat="45.06241" lon="5.4548">
        <ele>921.43298339844</ele>
        <time>2009-06-03T14:02:19Z</time>
      </trkpt>
      <trkpt lat="45.06146" lon="5.45423">
        <ele>921.85101318359</ele>
        <time>2009-06-03T14:02:33Z</time>
      </trkpt>
      <trkpt lat="45.06048" lon="5.45374">
        <ele>923.39300537109</ele>
        <time>2009-06-03T14:02:47Z</time>
      </trkpt>
      <trkpt lat="45.05943" lon="5.45347">
        <ele>924.35101318359</ele>
        <time>2009-06-03T14:03:01Z</time>
      </trkpt>
      <trkpt lat="45.05872" lon="5.45288">
        <ele>925.07800292969</ele>
        <time>2009-06-03T14:03:12Z</time>
      </trkpt>
      <trkpt lat="45.05772" lon="5.45287">
        <ele>923.93701171875</ele>
        <time>2009-06-03T14:03:25Z</time>
      </trkpt>
      <trkpt lat="45.05662" lon="5.45268">
        <ele>923.02197265625</ele>
        <time>2009-06-03T14:03:38Z</time>
      </trkpt>
      <trkpt lat="45.05512" lon="5.45253">
        <ele>920.54400634766</ele>
        <time>2009-06-03T14:03:54Z</time>
      </trkpt>
      <trkpt lat="45.05502" lon="5.4525">
        <ele>920.1240234375</ele>
        <time>2009-06-03T14:03:55Z</time>
      </trkpt>
      <trkpt lat="45.05457" lon="5.45223">
        <ele>919.13702392578</ele>
        <time>2009-06-03T14:04:00Z</time>
      </trkpt>
      <trkpt lat="45.05361" lon="5.45097">
        <ele>917.70397949219</ele>
        <time>2009-06-03T14:04:13Z</time>
      </trkpt>
      <trkpt lat="45.05334" lon="5.45075">
        <ele>916.29901123047</ele>
        <time>2009-06-03T14:04:16Z</time>
      </trkpt>
      <trkpt lat="45.05239" lon="5.45024">
        <ele>915.27099609375</ele>
        <time>2009-06-03T14:04:26Z</time>
      </trkpt>
      <trkpt lat="45.05183" lon="5.44995">
        <ele>913.73699951172</ele>
        <time>2009-06-03T14:04:32Z</time>
      </trkpt>
      <trkpt lat="45.05148" lon="5.44974">
        <ele>913.66302490234</ele>
        <time>2009-06-03T14:04:36Z</time>
      </trkpt>
      <trkpt lat="45.05119" lon="5.44956">
        <ele>913.01300048828</ele>
        <time>2009-06-03T14:04:40Z</time>
      </trkpt>
      <trkpt lat="45.051" lon="5.44944">
        <ele>913.07202148438</ele>
        <time>2009-06-03T14:04:43Z</time>
      </trkpt>
      <trkpt lat="45.05032" lon="5.44902">
        <ele>912.18402099609</ele>
        <time>2009-06-03T14:04:53Z</time>
      </trkpt>
      <trkpt lat="45.0501" lon="5.44888">
        <ele>911.89202880859</ele>
        <time>2009-06-03T14:04:56Z</time>
      </trkpt>
      <trkpt lat="45.05004" lon="5.44884">
        <ele>911.29302978516</ele>
        <time>2009-06-03T14:04:57Z</time>
      </trkpt>
      <trkpt lat="45.04991" lon="5.44875">
        <ele>910.72900390625</ele>
        <time>2009-06-03T14:04:59Z</time>
      </trkpt>
      <trkpt lat="45.04964" lon="5.44854">
        <ele>909.10400390625</ele>
        <time>2009-06-03T14:05:03Z</time>
      </trkpt>
      <trkpt lat="45.04942" lon="5.44838">
        <ele>907.71002197266</ele>
        <time>2009-06-03T14:05:06Z</time>
      </trkpt>
      <trkpt lat="45.04898" lon="5.44802">
        <ele>906.38500976562</ele>
        <time>2009-06-03T14:05:12Z</time>
      </trkpt>
      <trkpt lat="45.048" lon="5.44752">
        <ele>903.57397460938</ele>
        <time>2009-06-03T14:05:23Z</time>
      </trkpt>
      <trkpt lat="45.04779" lon="5.44756">
        <ele>902.77899169922</ele>
        <time>2009-06-03T14:05:25Z</time>
      </trkpt>
      <trkpt lat="45.04574" lon="5.44784">
        <ele>893.88800048828</ele>
        <time>2009-06-03T14:05:43Z</time>
      </trkpt>
      <trkpt lat="45.04445" lon="5.44779">
        <ele>882.90802001953</ele>
        <time>2009-06-03T14:05:53Z</time>
      </trkpt>
      <trkpt lat="45.04403" lon="5.44773">
        <ele>880.29400634766</ele>
        <time>2009-06-03T14:05:56Z</time>
      </trkpt>
      <trkpt lat="45.04375" lon="5.44769">
        <ele>878.02801513672</ele>
        <time>2009-06-03T14:05:58Z</time>
      </trkpt>
      <trkpt lat="45.0436" lon="5.44765">
        <ele>876.67102050781</ele>
        <time>2009-06-03T14:05:59Z</time>
      </trkpt>
      <trkpt lat="45.04303" lon="5.44737">
        <ele>872.15399169922</ele>
        <time>2009-06-03T14:06:03Z</time>
      </trkpt>
      <trkpt lat="45.04261" lon="5.44711">
        <ele>869.26000976562</ele>
        <time>2009-06-03T14:06:06Z</time>
      </trkpt>
      <trkpt lat="45.04144" lon="5.44638">
        <ele>858.91101074219</ele>
        <time>2009-06-03T14:06:14Z</time>
      </trkpt>
      <trkpt lat="45.04115" lon="5.44619">
        <ele>857.60101318359</ele>
        <time>2009-06-03T14:06:16Z</time>
      </trkpt>
      <trkpt lat="45.04013" lon="5.44553">
        <ele>848.00897216797</ele>
        <time>2009-06-03T14:06:24Z</time>
      </trkpt>
      <trkpt lat="45.0397" lon="5.44531">
        <ele>847.125</ele>
        <time>2009-06-03T14:06:26Z</time>
      </trkpt>
      <trkpt lat="45.0397" lon="5.44531">
        <ele>845.28002929688</ele>
        <time>2009-06-03T14:06:28Z</time>
      </trkpt>
      <trkpt lat="45.03893" lon="5.44477">
        <ele>843.38201904297</ele>
        <time>2009-06-03T14:06:31Z</time>
      </trkpt>
      <trkpt lat="45.03804" lon="5.44462">
        <ele>839.72698974609</ele>
        <time>2009-06-03T14:06:37Z</time>
      </trkpt>
      <trkpt lat="45.03672" lon="5.44445">
        <ele>832.23400878906</ele>
        <time>2009-06-03T14:06:46Z</time>
      </trkpt>
      <trkpt lat="45.03657" lon="5.44444">
        <ele>831.09399414062</ele>
        <time>2009-06-03T14:06:48Z</time>
      </trkpt>
      <trkpt lat="45.03611" lon="5.4444">
        <ele>827.72998046875</ele>
        <time>2009-06-03T14:06:50Z</time>
      </trkpt>
      <trkpt lat="45.03519" lon="5.44424">
        <ele>820.80102539062</ele>
        <time>2009-06-03T14:06:57Z</time>
      </trkpt>
      <trkpt lat="45.03438" lon="5.44407">
        <ele>816.01397705078</ele>
        <time>2009-06-03T14:07:01Z</time>
      </trkpt>
      <trkpt lat="45.03294" lon="5.44387">
        <ele>805.59997558594</ele>
        <time>2009-06-03T14:07:10Z</time>
      </trkpt>
      <trkpt lat="45.03147" lon="5.44396">
        <ele>795.11199951172</ele>
        <time>2009-06-03T14:07:19Z</time>
      </trkpt>
      <trkpt lat="45.0313" lon="5.44395">
        <ele>794.66400146484</ele>
        <time>2009-06-03T14:07:20Z</time>
      </trkpt>
      <trkpt lat="45.0303" lon="5.4441">
        <ele>787.73797607422</ele>
        <time>2009-06-03T14:07:26Z</time>
      </trkpt>
      <trkpt lat="45.029" lon="5.44389">
        <ele>778.90399169922</ele>
        <time>2009-06-03T14:07:34Z</time>
      </trkpt>
      <trkpt lat="45.0287" lon="5.44371">
        <ele>777.10198974609</ele>
        <time>2009-06-03T14:07:36Z</time>
      </trkpt>
      <trkpt lat="45.02824" lon="5.44355">
        <ele>772.50897216797</ele>
        <time>2009-06-03T14:07:41Z</time>
      </trkpt>
      <trkpt lat="45.02766" lon="5.44377">
        <ele>771.86602783203</ele>
        <time>2009-06-03T14:07:43Z</time>
      </trkpt>
      <trkpt lat="45.02752" lon="5.44383">
        <ele>769.86199951172</ele>
        <time>2009-06-03T14:07:44Z</time>
      </trkpt>
      <trkpt lat="45.02649" lon="5.44395">
        <ele>763.21600341797</ele>
        <time>2009-06-03T14:07:51Z</time>
      </trkpt>
      <trkpt lat="45.02634" lon="5.44394">
        <ele>762.98101806641</ele>
        <time>2009-06-03T14:07:52Z</time>
      </trkpt>
      <trkpt lat="45.02589" lon="5.44392">
        <ele>759.95202636719</ele>
        <time>2009-06-03T14:07:55Z</time>
      </trkpt>
      <trkpt lat="45.02544" lon="5.44387">
        <ele>757.46997070312</ele>
        <time>2009-06-03T14:07:58Z</time>
      </trkpt>
      <trkpt lat="45.02442" lon="5.44368">
        <ele>757.58502197266</ele>
        <time>2009-06-03T14:08:06Z</time>
      </trkpt>
      <trkpt lat="45.02337" lon="5.44337">
        <ele>758.42102050781</ele>
        <time>2009-06-03T14:08:15Z</time>
      </trkpt>
      <trkpt lat="45.02299" lon="5.44325">
        <ele>758.72698974609</ele>
        <time>2009-06-03T14:08:19Z</time>
      </trkpt>
      <trkpt lat="45.02229" lon="5.44304">
        <ele>760.06298828125</ele>
        <time>2009-06-03T14:08:27Z</time>
      </trkpt>
      <trkpt lat="45.02213" lon="5.44299">
        <ele>760.02801513672</ele>
        <time>2009-06-03T14:08:29Z</time>
      </trkpt>
      <trkpt lat="45.02184" lon="5.4429">
        <ele>760.92901611328</ele>
        <time>2009-06-03T14:08:33Z</time>
      </trkpt>
      <trkpt lat="45.02172" lon="5.44287">
        <ele>759.35699462891</ele>
        <time>2009-06-03T14:08:38Z</time>
      </trkpt>
      <trkpt lat="45.02096" lon="5.44245">
        <ele>755.80603027344</ele>
        <time>2009-06-03T14:08:45Z</time>
      </trkpt>
      <trkpt lat="45.02077" lon="5.4424">
        <ele>754.22198486328</ele>
        <time>2009-06-03T14:08:49Z</time>
      </trkpt>
      <trkpt lat="45.02034" lon="5.44243">
        <ele>752.93597412109</ele>
        <time>2009-06-03T14:08:52Z</time>
      </trkpt>
      <trkpt lat="45.02026" lon="5.44246">
        <ele>752.63800048828</ele>
        <time>2009-06-03T14:08:53Z</time>
      </trkpt>
      <trkpt lat="45.0198" lon="5.44271">
        <ele>750.91198730469</ele>
        <time>2009-06-03T14:08:58Z</time>
      </trkpt>
      <trkpt lat="45.01932" lon="5.44282">
        <ele>749.28601074219</ele>
        <time>2009-06-03T14:09:03Z</time>
      </trkpt>
      <trkpt lat="45.01902" lon="5.44281">
        <ele>747.76098632812</ele>
        <time>2009-06-03T14:09:06Z</time>
      </trkpt>
      <trkpt lat="45.01882" lon="5.4428">
        <ele>746.80902099609</ele>
        <time>2009-06-03T14:09:08Z</time>
      </trkpt>
      <trkpt lat="45.0181" lon="5.44278">
        <ele>744.708984375</ele>
        <time>2009-06-03T14:09:15Z</time>
      </trkpt>
      <trkpt lat="45.01711" lon="5.44278">
        <ele>739.99700927734</ele>
        <time>2009-06-03T14:09:24Z</time>
      </trkpt>
      <trkpt lat="45.01597" lon="5.44246">
        <ele>737.30200195312</ele>
        <time>2009-06-03T14:09:34Z</time>
      </trkpt>
      <trkpt lat="45.01562" lon="5.44237">
        <ele>735.583984375</ele>
        <time>2009-06-03T14:09:37Z</time>
      </trkpt>
      <trkpt lat="45.01465" lon="5.44242">
        <ele>731.60198974609</ele>
        <time>2009-06-03T14:09:45Z</time>
      </trkpt>
      <trkpt lat="45.0129" lon="5.44275">
        <ele>727.40100097656</ele>
        <time>2009-06-03T14:10:00Z</time>
      </trkpt>
      <trkpt lat="45.01179" lon="5.44275">
        <ele>725.78399658203</ele>
        <time>2009-06-03T14:10:10Z</time>
      </trkpt>
      <trkpt lat="45.01041" lon="5.44272">
        <ele>721.80603027344</ele>
        <time>2009-06-03T14:10:22Z</time>
      </trkpt>
      <trkpt lat="45.00982" lon="5.44272">
        <ele>720.38500976562</ele>
        <time>2009-06-03T14:10:27Z</time>
      </trkpt>
      <trkpt lat="45.0094" lon="5.44248">
        <ele>719.13000488281</ele>
        <time>2009-06-03T14:10:31Z</time>
      </trkpt>
      <trkpt lat="45.00922" lon="5.4423">
        <ele>718.89697265625</ele>
        <time>2009-06-03T14:10:33Z</time>
      </trkpt>
      <trkpt lat="45.00879" lon="5.44208">
        <ele>716.45397949219</ele>
        <time>2009-06-03T14:10:38Z</time>
      </trkpt>
      <trkpt lat="45.00871" lon="5.44213">
        <ele>716.09197998047</ele>
        <time>2009-06-03T14:10:39Z</time>
      </trkpt>
      <trkpt lat="45.00837" lon="5.44237">
        <ele>714.77099609375</ele>
        <time>2009-06-03T14:10:42Z</time>
      </trkpt>
      <trkpt lat="45.00813" lon="5.44253">
        <ele>714.38000488281</ele>
        <time>2009-06-03T14:10:44Z</time>
      </trkpt>
      <trkpt lat="45.00766" lon="5.44252">
        <ele>711.96197509766</ele>
        <time>2009-06-03T14:10:48Z</time>
      </trkpt>
      <trkpt lat="45.00747" lon="5.44195">
        <ele>710.21398925781</ele>
        <time>2009-06-03T14:10:52Z</time>
      </trkpt>
      <trkpt lat="45.00744" lon="5.44171">
        <ele>709.60400390625</ele>
        <time>2009-06-03T14:10:53Z</time>
      </trkpt>
      <trkpt lat="45.00737" lon="5.44111">
        <ele>709.24200439453</ele>
        <time>2009-06-03T14:10:57Z</time>
      </trkpt>
      <trkpt lat="45.00706" lon="5.44085">
        <ele>708.57098388672</ele>
        <time>2009-06-03T14:11:02Z</time>
      </trkpt>
      <trkpt lat="45.007" lon="5.44086">
        <ele>708.44799804688</ele>
        <time>2009-06-03T14:11:03Z</time>
      </trkpt>
      <trkpt lat="45.00666" lon="5.4409">
        <ele>706.75799560547</ele>
        <time>2009-06-03T14:11:09Z</time>
      </trkpt>
      <trkpt lat="45.00658" lon="5.4409">
        <ele>706.53302001953</ele>
        <time>2009-06-03T14:11:10Z</time>
      </trkpt>
      <trkpt lat="45.00626" lon="5.44094">
        <ele>705.84399414062</ele>
        <time>2009-06-03T14:11:13Z</time>
      </trkpt>
      <trkpt lat="45.00559" lon="5.44102">
        <ele>704.64099121094</ele>
        <time>2009-06-03T14:11:17Z</time>
      </trkpt>
      <trkpt lat="45.00527" lon="5.44106">
        <ele>703.99499511719</ele>
        <time>2009-06-03T14:11:19Z</time>
      </trkpt>
      <trkpt lat="45.00466" lon="5.44131">
        <ele>702.84399414062</ele>
        <time>2009-06-03T14:11:24Z</time>
      </trkpt>
      <trkpt lat="45.00441" lon="5.44142">
        <ele>701.56298828125</ele>
        <time>2009-06-03T14:11:26Z</time>
      </trkpt>
      <trkpt lat="45.00402" lon="5.44142">
        <ele>700.78601074219</ele>
        <time>2009-06-03T14:11:30Z</time>
      </trkpt>
      <trkpt lat="45.00385" lon="5.44137">
        <ele>700.29400634766</ele>
        <time>2009-06-03T14:11:32Z</time>
      </trkpt>
      <trkpt lat="45.00361" lon="5.44123">
        <ele>699.32000732422</ele>
        <time>2009-06-03T14:11:35Z</time>
      </trkpt>
      <trkpt lat="45.00335" lon="5.44084">
        <ele>698.67901611328</ele>
        <time>2009-06-03T14:11:39Z</time>
      </trkpt>
      <trkpt lat="45.00309" lon="5.44046">
        <ele>699.03399658203</ele>
        <time>2009-06-03T14:11:43Z</time>
      </trkpt>
      <trkpt lat="45.00308" lon="5.43989">
        <ele>698.06701660156</ele>
        <time>2009-06-03T14:11:47Z</time>
      </trkpt>
      <trkpt lat="45.0033" lon="5.43757">
        <ele>697.35601806641</ele>
        <time>2009-06-03T14:12:05Z</time>
      </trkpt>
      <trkpt lat="45.00306" lon="5.43691">
        <ele>697.19702148438</ele>
        <time>2009-06-03T14:12:12Z</time>
      </trkpt>
      <trkpt lat="45.00293" lon="5.43684">
        <ele>697.01898193359</ele>
        <time>2009-06-03T14:12:14Z</time>
      </trkpt>
      <trkpt lat="45.00186" lon="5.43624">
        <ele>696.76501464844</ele>
        <time>2009-06-03T14:12:28Z</time>
      </trkpt>
      <trkpt lat="45.00161" lon="5.43579">
        <ele>696.86102294922</ele>
        <time>2009-06-03T14:12:33Z</time>
      </trkpt>
      <trkpt lat="45.00163" lon="5.4348">
        <ele>699.45202636719</ele>
        <time>2009-06-03T14:12:45Z</time>
      </trkpt>
      <trkpt lat="45.00171" lon="5.43424">
        <ele>700.14300537109</ele>
        <time>2009-06-03T14:12:48Z</time>
      </trkpt>
      <trkpt lat="45.00158" lon="5.43344">
        <ele>700.89398193359</ele>
        <time>2009-06-03T14:12:56Z</time>
      </trkpt>
      <trkpt lat="45.00138" lon="5.43268">
        <ele>702.72900390625</ele>
        <time>2009-06-03T14:13:06Z</time>
      </trkpt>
      <trkpt lat="45.00134" lon="5.43237">
        <ele>702.90399169922</ele>
        <time>2009-06-03T14:13:10Z</time>
      </trkpt>
      <trkpt lat="45.00112" lon="5.43164">
        <ele>704.09197998047</ele>
        <time>2009-06-03T14:13:19Z</time>
      </trkpt>
      <trkpt lat="45.00106" lon="5.43144">
        <ele>704.64300537109</ele>
        <time>2009-06-03T14:13:22Z</time>
      </trkpt>
      <trkpt lat="45.00103" lon="5.43136">
        <ele>704.90197753906</ele>
        <time>2009-06-03T14:13:23Z</time>
      </trkpt>
      <trkpt lat="45.0008" lon="5.43063">
        <ele>705.72399902344</ele>
        <time>2009-06-03T14:13:32Z</time>
      </trkpt>
      <trkpt lat="45.00077" lon="5.43048">
        <ele>706.50299072266</ele>
        <time>2009-06-03T14:13:34Z</time>
      </trkpt>
      <trkpt lat="45.0007" lon="5.43016">
        <ele>707.35998535156</ele>
        <time>2009-06-03T14:13:38Z</time>
      </trkpt>
      <trkpt lat="45.00063" lon="5.42984">
        <ele>707.75299072266</ele>
        <time>2009-06-03T14:13:42Z</time>
      </trkpt>
      <trkpt lat="45.00047" lon="5.42908">
        <ele>708.58898925781</ele>
        <time>2009-06-03T14:13:51Z</time>
      </trkpt>
      <trkpt lat="45.00043" lon="5.42886">
        <ele>709.03497314453</ele>
        <time>2009-06-03T14:13:54Z</time>
      </trkpt>
      <trkpt lat="45.00035" lon="5.42841">
        <ele>709.35302734375</ele>
        <time>2009-06-03T14:14:00Z</time>
      </trkpt>
      <trkpt lat="45.00032" lon="5.42819">
        <ele>708.9990234375</ele>
        <time>2009-06-03T14:14:03Z</time>
      </trkpt>
      <trkpt lat="45.00025" lon="5.42798">
        <ele>709.56597900391</ele>
        <time>2009-06-03T14:14:06Z</time>
      </trkpt>
      <trkpt lat="45.00007" lon="5.42777">
        <ele>708.99798583984</ele>
        <time>2009-06-03T14:14:10Z</time>
      </trkpt>
      <trkpt lat="44.99995" lon="5.42769">
        <ele>709.39099121094</ele>
        <time>2009-06-03T14:14:12Z</time>
      </trkpt>
      <trkpt lat="44.99979" lon="5.4272">
        <ele>707.90698242188</ele>
        <time>2009-06-03T14:14:19Z</time>
      </trkpt>
      <trkpt lat="45.00009" lon="5.42699">
        <ele>705.08001708984</ele>
        <time>2009-06-03T14:14:26Z</time>
      </trkpt>
      <trkpt lat="45.00037" lon="5.42695">
        <ele>704.94299316406</ele>
        <time>2009-06-03T14:14:27Z</time>
      </trkpt>
      <trkpt lat="45.0007" lon="5.42673">
        <ele>704.26800537109</ele>
        <time>2009-06-03T14:14:31Z</time>
      </trkpt>
      <trkpt lat="45.00106" lon="5.42627">
        <ele>701.25799560547</ele>
        <time>2009-06-03T14:14:36Z</time>
      </trkpt>
      <trkpt lat="45.00121" lon="5.42609">
        <ele>700.78399658203</ele>
        <time>2009-06-03T14:14:38Z</time>
      </trkpt>
      <trkpt lat="45.00141" lon="5.42527">
        <ele>694.82000732422</ele>
        <time>2009-06-03T14:14:44Z</time>
      </trkpt>
      <trkpt lat="45.00145" lon="5.4248">
        <ele>692.37902832031</ele>
        <time>2009-06-03T14:14:47Z</time>
      </trkpt>
      <trkpt lat="45.00146" lon="5.42466">
        <ele>693.04699707031</ele>
        <time>2009-06-03T14:14:48Z</time>
      </trkpt>
      <trkpt lat="45.00147" lon="5.42455">
        <ele>693.32000732422</ele>
        <time>2009-06-03T14:14:49Z</time>
      </trkpt>
      <trkpt lat="45.00148" lon="5.42447">
        <ele>693.34802246094</ele>
        <time>2009-06-03T14:14:50Z</time>
      </trkpt>
      <trkpt lat="45.0015" lon="5.42427">
        <ele>693.42498779297</ele>
        <time>2009-06-03T14:14:54Z</time>
      </trkpt>
      <trkpt lat="45.0015" lon="5.42424">
        <ele>692.93298339844</ele>
        <time>2009-06-03T14:14:57Z</time>
      </trkpt>
      <trkpt lat="45.00161" lon="5.42358">
        <ele>692.5</ele>
        <time>2009-06-03T14:15:02Z</time>
      </trkpt>
      <trkpt lat="45.00172" lon="5.4231">
        <ele>691.94396972656</ele>
        <time>2009-06-03T14:15:07Z</time>
      </trkpt>
      <trkpt lat="45.0018" lon="5.42262">
        <ele>689.56597900391</ele>
        <time>2009-06-03T14:15:12Z</time>
      </trkpt>
      <trkpt lat="45.00185" lon="5.42214">
        <ele>686.34399414062</ele>
        <time>2009-06-03T14:15:16Z</time>
      </trkpt>
      <trkpt lat="45.00188" lon="5.42189">
        <ele>686.25598144531</ele>
        <time>2009-06-03T14:15:18Z</time>
      </trkpt>
      <trkpt lat="45.00184" lon="5.42148">
        <ele>685.71002197266</ele>
        <time>2009-06-03T14:15:23Z</time>
      </trkpt>
      <trkpt lat="45.00163" lon="5.42158">
        <ele>687.07702636719</ele>
        <time>2009-06-03T14:15:26Z</time>
      </trkpt>
      <trkpt lat="45.00157" lon="5.42166">
        <ele>688.22601318359</ele>
        <time>2009-06-03T14:15:28Z</time>
      </trkpt>
      <trkpt lat="45.00142" lon="5.42187">
        <ele>688.55902099609</ele>
        <time>2009-06-03T14:15:32Z</time>
      </trkpt>
      <trkpt lat="45.00124" lon="5.42216">
        <ele>690.76898193359</ele>
        <time>2009-06-03T14:15:37Z</time>
      </trkpt>
      <trkpt lat="45.00118" lon="5.42227">
        <ele>691.83697509766</ele>
        <time>2009-06-03T14:15:39Z</time>
      </trkpt>
      <trkpt lat="45.00111" lon="5.42238">
        <ele>692.06298828125</ele>
        <time>2009-06-03T14:15:41Z</time>
      </trkpt>
      <trkpt lat="45.00107" lon="5.42244">
        <ele>693.35699462891</ele>
        <time>2009-06-03T14:15:46Z</time>
      </trkpt>
      <trkpt lat="45.00067" lon="5.42295">
        <ele>696.08197021484</ele>
        <time>2009-06-03T14:15:54Z</time>
      </trkpt>
      <trkpt lat="45.00048" lon="5.42291">
        <ele>697.48101806641</ele>
        <time>2009-06-03T14:15:59Z</time>
      </trkpt>
      <trkpt lat="45.00015" lon="5.42282">
        <ele>699.41998291016</ele>
        <time>2009-06-03T14:16:09Z</time>
      </trkpt>
      <trkpt lat="44.99958" lon="5.42267">
        <ele>703.25500488281</ele>
        <time>2009-06-03T14:16:25Z</time>
      </trkpt>
      <trkpt lat="44.99895" lon="5.42275">
        <ele>707.32000732422</ele>
        <time>2009-06-03T14:16:42Z</time>
      </trkpt>
      <trkpt lat="44.99869" lon="5.42278">
        <ele>708.87902832031</ele>
        <time>2009-06-03T14:16:49Z</time>
      </trkpt>
      <trkpt lat="44.99839" lon="5.42274">
        <ele>710.68200683594</ele>
        <time>2009-06-03T14:16:57Z</time>
      </trkpt>
      <trkpt lat="44.998" lon="5.4225">
        <ele>713.85302734375</ele>
        <time>2009-06-03T14:17:09Z</time>
      </trkpt>
      <trkpt lat="44.99768" lon="5.42214">
        <ele>715.75201416016</ele>
        <time>2009-06-03T14:17:20Z</time>
      </trkpt>
      <trkpt lat="44.9974" lon="5.42167">
        <ele>719.39801025391</ele>
        <time>2009-06-03T14:17:34Z</time>
      </trkpt>
      <trkpt lat="44.99698" lon="5.42116">
        <ele>723.70501708984</ele>
        <time>2009-06-03T14:17:52Z</time>
      </trkpt>
      <trkpt lat="44.99637" lon="5.42076">
        <ele>728.13299560547</ele>
        <time>2009-06-03T14:18:14Z</time>
      </trkpt>
      <trkpt lat="44.99587" lon="5.42024">
        <ele>732.35400390625</ele>
        <time>2009-06-03T14:18:34Z</time>
      </trkpt>
      <trkpt lat="44.99549" lon="5.41974">
        <ele>736.64398193359</ele>
        <time>2009-06-03T14:18:55Z</time>
      </trkpt>
      <trkpt lat="44.99484" lon="5.41885">
        <ele>741.34899902344</ele>
        <time>2009-06-03T14:19:17Z</time>
      </trkpt>
      <trkpt lat="44.99438" lon="5.41822">
        <ele>744.88702392578</ele>
        <time>2009-06-03T14:19:36Z</time>
      </trkpt>
      <trkpt lat="44.99385" lon="5.4175">
        <ele>749.19396972656</ele>
        <time>2009-06-03T14:19:56Z</time>
      </trkpt>
      <trkpt lat="44.99334" lon="5.41674">
        <ele>752.12298583984</ele>
        <time>2009-06-03T14:20:16Z</time>
      </trkpt>
      <trkpt lat="44.99298" lon="5.41587">
        <ele>752.25299072266</ele>
        <time>2009-06-03T14:20:33Z</time>
      </trkpt>
      <trkpt lat="44.99283" lon="5.4154">
        <ele>752.24700927734</ele>
        <time>2009-06-03T14:20:41Z</time>
      </trkpt>
      <trkpt lat="44.99253" lon="5.41449">
        <ele>752.24798583984</ele>
        <time>2009-06-03T14:20:57Z</time>
      </trkpt>
      <trkpt lat="44.99224" lon="5.41363">
        <ele>757.33898925781</ele>
        <time>2009-06-03T14:21:12Z</time>
      </trkpt>
      <trkpt lat="44.99201" lon="5.41294">
        <ele>760.88897705078</ele>
        <time>2009-06-03T14:21:26Z</time>
      </trkpt>
      <trkpt lat="44.99179" lon="5.41251">
        <ele>763.33197021484</ele>
        <time>2009-06-03T14:21:36Z</time>
      </trkpt>
      <trkpt lat="44.99151" lon="5.41226">
        <ele>765.99499511719</ele>
        <time>2009-06-03T14:21:47Z</time>
      </trkpt>
      <trkpt lat="44.99103" lon="5.41212">
        <ele>768.96301269531</ele>
        <time>2009-06-03T14:22:03Z</time>
      </trkpt>
      <trkpt lat="44.99068" lon="5.41182">
        <ele>771.02001953125</ele>
        <time>2009-06-03T14:22:16Z</time>
      </trkpt>
      <trkpt lat="44.99021" lon="5.41108">
        <ele>775.96600341797</ele>
        <time>2009-06-03T14:22:38Z</time>
      </trkpt>
      <trkpt lat="44.98981" lon="5.41045">
        <ele>779.64501953125</ele>
        <time>2009-06-03T14:22:56Z</time>
      </trkpt>
      <trkpt lat="44.98943" lon="5.40984">
        <ele>783.28302001953</ele>
        <time>2009-06-03T14:23:14Z</time>
      </trkpt>
      <trkpt lat="44.98897" lon="5.4092">
        <ele>786.73199462891</ele>
        <time>2009-06-03T14:23:32Z</time>
      </trkpt>
      <trkpt lat="44.98847" lon="5.40881">
        <ele>789.65997314453</ele>
        <time>2009-06-03T14:23:48Z</time>
      </trkpt>
      <trkpt lat="44.98784" lon="5.40832">
        <ele>792.98999023438</ele>
        <time>2009-06-03T14:24:08Z</time>
      </trkpt>
      <trkpt lat="44.98716" lon="5.40769">
        <ele>796.67199707031</ele>
        <time>2009-06-03T14:24:30Z</time>
      </trkpt>
      <trkpt lat="44.98669" lon="5.40709">
        <ele>798.22698974609</ele>
        <time>2009-06-03T14:24:45Z</time>
      </trkpt>
      <trkpt lat="44.98607" lon="5.4063">
        <ele>799.84802246094</ele>
        <time>2009-06-03T14:25:05Z</time>
      </trkpt>
      <trkpt lat="44.9859" lon="5.40596">
        <ele>798.73199462891</ele>
        <time>2009-06-03T14:25:11Z</time>
      </trkpt>
      <trkpt lat="44.9858" lon="5.40565">
        <ele>797.43298339844</ele>
        <time>2009-06-03T14:25:15Z</time>
      </trkpt>
      <trkpt lat="44.98576" lon="5.40546">
        <ele>796.70397949219</ele>
        <time>2009-06-03T14:25:17Z</time>
      </trkpt>
      <trkpt lat="44.98576" lon="5.40475">
        <ele>795.91302490234</ele>
        <time>2009-06-03T14:25:24Z</time>
      </trkpt>
      <trkpt lat="44.98577" lon="5.40426">
        <ele>796.23699951172</ele>
        <time>2009-06-03T14:25:29Z</time>
      </trkpt>
      <trkpt lat="44.98579" lon="5.40282">
        <ele>798.89099121094</ele>
        <time>2009-06-03T14:25:46Z</time>
      </trkpt>
      <trkpt lat="44.98573" lon="5.40258">
        <ele>798.67297363281</ele>
        <time>2009-06-03T14:25:49Z</time>
      </trkpt>
      <trkpt lat="44.9856" lon="5.40227">
        <ele>799.47900390625</ele>
        <time>2009-06-03T14:25:53Z</time>
      </trkpt>
      <trkpt lat="44.98536" lon="5.40201">
        <ele>800.25897216797</ele>
        <time>2009-06-03T14:25:58Z</time>
      </trkpt>
      <trkpt lat="44.9851" lon="5.4019">
        <ele>800.50402832031</ele>
        <time>2009-06-03T14:26:02Z</time>
      </trkpt>
      <trkpt lat="44.9841" lon="5.40138">
        <ele>802.88897705078</ele>
        <time>2009-06-03T14:26:18Z</time>
      </trkpt>
      <trkpt lat="44.98294" lon="5.40034">
        <ele>805.85198974609</ele>
        <time>2009-06-03T14:26:39Z</time>
      </trkpt>
      <trkpt lat="44.98216" lon="5.39988">
        <ele>808.53698730469</ele>
        <time>2009-06-03T14:26:54Z</time>
      </trkpt>
      <trkpt lat="44.98161" lon="5.39965">
        <ele>810.05798339844</ele>
        <time>2009-06-03T14:27:05Z</time>
      </trkpt>
      <trkpt lat="44.98094" lon="5.39969">
        <ele>812.64300537109</ele>
        <time>2009-06-03T14:27:18Z</time>
      </trkpt>
      <trkpt lat="44.98013" lon="5.39949">
        <ele>815.83099365234</ele>
        <time>2009-06-03T14:27:33Z</time>
      </trkpt>
      <trkpt lat="44.97914" lon="5.39894">
        <ele>818.14697265625</ele>
        <time>2009-06-03T14:27:52Z</time>
      </trkpt>
      <trkpt lat="44.97825" lon="5.39906">
        <ele>821.42102050781</ele>
        <time>2009-06-03T14:28:08Z</time>
      </trkpt>
      <trkpt lat="44.97729" lon="5.39918">
        <ele>823.93701171875</ele>
        <time>2009-06-03T14:28:25Z</time>
      </trkpt>
      <trkpt lat="44.97658" lon="5.39982">
        <ele>826.05700683594</ele>
        <time>2009-06-03T14:28:39Z</time>
      </trkpt>
      <trkpt lat="44.97563" lon="5.40079">
        <ele>828.61401367188</ele>
        <time>2009-06-03T14:28:58Z</time>
      </trkpt>
      <trkpt lat="44.97548" lon="5.40094">
        <ele>828.55603027344</ele>
        <time>2009-06-03T14:29:01Z</time>
      </trkpt>
      <trkpt lat="44.97497" lon="5.40146">
        <ele>829.33099365234</ele>
        <time>2009-06-03T14:29:11Z</time>
      </trkpt>
      <trkpt lat="44.97386" lon="5.40258">
        <ele>832.35998535156</ele>
        <time>2009-06-03T14:29:33Z</time>
      </trkpt>
      <trkpt lat="44.973" lon="5.4035">
        <ele>836.16900634766</ele>
        <time>2009-06-03T14:29:52Z</time>
      </trkpt>
      <trkpt lat="44.97256" lon="5.40399">
        <ele>839.92102050781</ele>
        <time>2009-06-03T14:30:03Z</time>
      </trkpt>
      <trkpt lat="44.97227" lon="5.4043">
        <ele>841.30200195312</ele>
        <time>2009-06-03T14:30:10Z</time>
      </trkpt>
      <trkpt lat="44.9719" lon="5.40487">
        <ele>845.11199951172</ele>
        <time>2009-06-03T14:30:21Z</time>
      </trkpt>
      <trkpt lat="44.97179" lon="5.40509">
        <ele>846.24499511719</ele>
        <time>2009-06-03T14:30:25Z</time>
      </trkpt>
      <trkpt lat="44.97158" lon="5.40589">
        <ele>848.99798583984</ele>
        <time>2009-06-03T14:30:40Z</time>
      </trkpt>
      <trkpt lat="44.97152" lon="5.40617">
        <ele>850.28497314453</ele>
        <time>2009-06-03T14:30:45Z</time>
      </trkpt>
      <trkpt lat="44.97146" lon="5.40639">
        <ele>850.86602783203</ele>
        <time>2009-06-03T14:30:49Z</time>
      </trkpt>
      <trkpt lat="44.97131" lon="5.40668">
        <ele>852.50701904297</ele>
        <time>2009-06-03T14:30:55Z</time>
      </trkpt>
      <trkpt lat="44.97118" lon="5.40683">
        <ele>853.57702636719</ele>
        <time>2009-06-03T14:30:59Z</time>
      </trkpt>
      <trkpt lat="44.97048" lon="5.40742">
        <ele>858.0009765625</ele>
        <time>2009-06-03T14:31:17Z</time>
      </trkpt>
      <trkpt lat="44.96984" lon="5.40802">
        <ele>862.07800292969</ele>
        <time>2009-06-03T14:31:34Z</time>
      </trkpt>
      <trkpt lat="44.96979" lon="5.40811">
        <ele>862.41900634766</ele>
        <time>2009-06-03T14:31:36Z</time>
      </trkpt>
      <trkpt lat="44.96961" lon="5.40841">
        <ele>863.96600341797</ele>
        <time>2009-06-03T14:31:42Z</time>
      </trkpt>
      <trkpt lat="44.9696" lon="5.40854">
        <ele>864.86102294922</ele>
        <time>2009-06-03T14:31:45Z</time>
      </trkpt>
      <trkpt lat="44.96959" lon="5.40905">
        <ele>866.62799072266</ele>
        <time>2009-06-03T14:31:52Z</time>
      </trkpt>
      <trkpt lat="44.96975" lon="5.40977">
        <ele>869.01397705078</ele>
        <time>2009-06-03T14:32:03Z</time>
      </trkpt>
      <trkpt lat="44.96995" lon="5.41072">
        <ele>872.02502441406</ele>
        <time>2009-06-03T14:32:18Z</time>
      </trkpt>
      <trkpt lat="44.97" lon="5.41099">
        <ele>873.27801513672</ele>
        <time>2009-06-03T14:32:22Z</time>
      </trkpt>
      <trkpt lat="44.96978" lon="5.41125">
        <ele>874.95397949219</ele>
        <time>2009-06-03T14:32:28Z</time>
      </trkpt>
      <trkpt lat="44.96962" lon="5.41121">
        <ele>876.65002441406</ele>
        <time>2009-06-03T14:32:31Z</time>
      </trkpt>
      <trkpt lat="44.96939" lon="5.41125">
        <ele>877.75299072266</ele>
        <time>2009-06-03T14:32:35Z</time>
      </trkpt>
      <trkpt lat="44.96867" lon="5.41184">
        <ele>882.61901855469</ele>
        <time>2009-06-03T14:32:52Z</time>
      </trkpt>
      <trkpt lat="44.96838" lon="5.41227">
        <ele>883.73400878906</ele>
        <time>2009-06-03T14:32:58Z</time>
      </trkpt>
      <trkpt lat="44.96825" lon="5.41265">
        <ele>885.33099365234</ele>
        <time>2009-06-03T14:33:04Z</time>
      </trkpt>
      <trkpt lat="44.9682" lon="5.41285">
        <ele>887.14801025391</ele>
        <time>2009-06-03T14:33:07Z</time>
      </trkpt>
      <trkpt lat="44.96812" lon="5.41312">
        <ele>887.45397949219</ele>
        <time>2009-06-03T14:33:11Z</time>
      </trkpt>
      <trkpt lat="44.96799" lon="5.41383">
        <ele>889.5419921875</ele>
        <time>2009-06-03T14:33:21Z</time>
      </trkpt>
      <trkpt lat="44.96777" lon="5.41489">
        <ele>890.92901611328</ele>
        <time>2009-06-03T14:33:36Z</time>
      </trkpt>
      <trkpt lat="44.96756" lon="5.41547">
        <ele>890.34399414062</ele>
        <time>2009-06-03T14:33:42Z</time>
      </trkpt>
      <trkpt lat="44.96745" lon="5.41583">
        <ele>890.53002929688</ele>
        <time>2009-06-03T14:33:46Z</time>
      </trkpt>
      <trkpt lat="44.9674" lon="5.41601">
        <ele>890.88598632812</ele>
        <time>2009-06-03T14:33:48Z</time>
      </trkpt>
      <trkpt lat="44.9673" lon="5.41639">
        <ele>891.48199462891</ele>
        <time>2009-06-03T14:33:53Z</time>
      </trkpt>
      <trkpt lat="44.96737" lon="5.41612">
        <ele>891.59802246094</ele>
        <time>2009-06-03T14:33:57Z</time>
      </trkpt>
      <trkpt lat="44.96729" lon="5.41552">
        <ele>891.65899658203</ele>
        <time>2009-06-03T14:35:18Z</time>
      </trkpt>
      <trkpt lat="44.96729" lon="5.41552">
        <ele>891.51898193359</ele>
        <time>2009-06-03T14:35:39Z</time>
      </trkpt>
      <trkpt lat="44.96735" lon="5.41621">
        <ele>891.73297119141</ele>
        <time>2009-06-03T14:35:46Z</time>
      </trkpt>
      <trkpt lat="44.96735" lon="5.41622">
        <ele>891.30401611328</ele>
        <time>2009-06-03T14:35:49Z</time>
      </trkpt>
      <trkpt lat="44.96737" lon="5.41612">
        <ele>890.27301025391</ele>
        <time>2009-06-03T14:35:58Z</time>
      </trkpt>
      <trkpt lat="44.96736" lon="5.41555">
        <ele>890.49597167969</ele>
        <time>2009-06-03T14:36:10Z</time>
      </trkpt>
      <trkpt lat="44.96719" lon="5.41547">
        <ele>889.28802490234</ele>
        <time>2009-06-03T14:36:14Z</time>
      </trkpt>
      <trkpt lat="44.96673" lon="5.4152">
        <ele>883.70300292969</ele>
        <time>2009-06-03T14:36:21Z</time>
      </trkpt>
      <trkpt lat="44.96577" lon="5.41463">
        <ele>882.56500244141</ele>
        <time>2009-06-03T14:36:33Z</time>
      </trkpt>
      <trkpt lat="44.9654" lon="5.41436">
        <ele>882.16900634766</ele>
        <time>2009-06-03T14:36:38Z</time>
      </trkpt>
      <trkpt lat="44.96525" lon="5.41411">
        <ele>881.74200439453</ele>
        <time>2009-06-03T14:36:41Z</time>
      </trkpt>
      <trkpt lat="44.96505" lon="5.41335">
        <ele>876.96801757812</ele>
        <time>2009-06-03T14:36:48Z</time>
      </trkpt>
      <trkpt lat="44.96503" lon="5.41288">
        <ele>877.21002197266</ele>
        <time>2009-06-03T14:36:52Z</time>
      </trkpt>
      <trkpt lat="44.96478" lon="5.41219">
        <ele>875.06799316406</ele>
        <time>2009-06-03T14:36:59Z</time>
      </trkpt>
      <trkpt lat="44.96445" lon="5.41195">
        <ele>873.86999511719</ele>
        <time>2009-06-03T14:37:03Z</time>
      </trkpt>
      <trkpt lat="44.96357" lon="5.41124">
        <ele>869.02197265625</ele>
        <time>2009-06-03T14:37:15Z</time>
      </trkpt>
      <trkpt lat="44.96286" lon="5.4105">
        <ele>866.38500976562</ele>
        <time>2009-06-03T14:37:22Z</time>
      </trkpt>
      <trkpt lat="44.9617" lon="5.40963">
        <ele>861.87701416016</ele>
        <time>2009-06-03T14:37:34Z</time>
      </trkpt>
      <trkpt lat="44.96109" lon="5.40931">
        <ele>859.66198730469</ele>
        <time>2009-06-03T14:37:40Z</time>
      </trkpt>
      <trkpt lat="44.96098" lon="5.40926">
        <ele>858.93597412109</ele>
        <time>2009-06-03T14:37:41Z</time>
      </trkpt>
      <trkpt lat="44.96078" lon="5.40917">
        <ele>858.03497314453</ele>
        <time>2009-06-03T14:37:43Z</time>
      </trkpt>
      <trkpt lat="44.95996" lon="5.40895">
        <ele>858.46502685547</ele>
        <time>2009-06-03T14:37:51Z</time>
      </trkpt>
      <trkpt lat="44.95965" lon="5.40882">
        <ele>859.43701171875</ele>
        <time>2009-06-03T14:37:55Z</time>
      </trkpt>
      <trkpt lat="44.95921" lon="5.40834">
        <ele>860.90502929688</ele>
        <time>2009-06-03T14:38:03Z</time>
      </trkpt>
      <trkpt lat="44.95883" lon="5.40791">
        <ele>863.03698730469</ele>
        <time>2009-06-03T14:38:14Z</time>
      </trkpt>
      <trkpt lat="44.95866" lon="5.40772">
        <ele>864.03900146484</ele>
        <time>2009-06-03T14:38:23Z</time>
      </trkpt>
      <trkpt lat="44.95857" lon="5.40763">
        <ele>864.64501953125</ele>
        <time>2009-06-03T14:38:26Z</time>
      </trkpt>
      <trkpt lat="44.95831" lon="5.40727">
        <ele>866.79901123047</ele>
        <time>2009-06-03T14:38:35Z</time>
      </trkpt>
      <trkpt lat="44.95828" lon="5.40723">
        <ele>867.09301757812</ele>
        <time>2009-06-03T14:38:36Z</time>
      </trkpt>
      <trkpt lat="44.95819" lon="5.4071">
        <ele>867.71502685547</ele>
        <time>2009-06-03T14:38:39Z</time>
      </trkpt>
      <trkpt lat="44.95794" lon="5.40679">
        <ele>868.07202148438</ele>
        <time>2009-06-03T14:38:47Z</time>
      </trkpt>
      <trkpt lat="44.95748" lon="5.40639">
        <ele>869.17700195312</ele>
        <time>2009-06-03T14:38:58Z</time>
      </trkpt>
      <trkpt lat="44.95738" lon="5.40635">
        <ele>869.90600585938</ele>
        <time>2009-06-03T14:39:00Z</time>
      </trkpt>
      <trkpt lat="44.95637" lon="5.40589">
        <ele>872.12799072266</ele>
        <time>2009-06-03T14:39:20Z</time>
      </trkpt>
      <trkpt lat="44.95568" lon="5.40522">
        <ele>874.41998291016</ele>
        <time>2009-06-03T14:39:34Z</time>
      </trkpt>
      <trkpt lat="44.95475" lon="5.40427">
        <ele>875.68200683594</ele>
        <time>2009-06-03T14:39:52Z</time>
      </trkpt>
      <trkpt lat="44.95399" lon="5.40358">
        <ele>877.84399414062</ele>
        <time>2009-06-03T14:40:05Z</time>
      </trkpt>
      <trkpt lat="44.95342" lon="5.40273">
        <ele>882.80700683594</ele>
        <time>2009-06-03T14:40:22Z</time>
      </trkpt>
      <trkpt lat="44.9532" lon="5.40251">
        <ele>883.10400390625</ele>
        <time>2009-06-03T14:40:27Z</time>
      </trkpt>
      <trkpt lat="44.95263" lon="5.40171">
        <ele>886.91101074219</ele>
        <time>2009-06-03T14:40:42Z</time>
      </trkpt>
      <trkpt lat="44.95211" lon="5.40136">
        <ele>887.92401123047</ele>
        <time>2009-06-03T14:40:52Z</time>
      </trkpt>
      <trkpt lat="44.9519" lon="5.40126">
        <ele>888.87799072266</ele>
        <time>2009-06-03T14:40:56Z</time>
      </trkpt>
      <trkpt lat="44.95132" lon="5.40055">
        <ele>892.24798583984</ele>
        <time>2009-06-03T14:41:10Z</time>
      </trkpt>
      <trkpt lat="44.95073" lon="5.40013">
        <ele>895.33801269531</ele>
        <time>2009-06-03T14:41:22Z</time>
      </trkpt>
      <trkpt lat="44.95063" lon="5.40008">
        <ele>895.47100830078</ele>
        <time>2009-06-03T14:41:24Z</time>
      </trkpt>
      <trkpt lat="44.95047" lon="5.39997">
        <ele>895.49102783203</ele>
        <time>2009-06-03T14:41:28Z</time>
      </trkpt>
      <trkpt lat="44.95012" lon="5.3995">
        <ele>900.78399658203</ele>
        <time>2009-06-03T14:41:39Z</time>
      </trkpt>
      <trkpt lat="44.95003" lon="5.39914">
        <ele>902.18902587891</ele>
        <time>2009-06-03T14:41:45Z</time>
      </trkpt>
      <trkpt lat="44.95036" lon="5.39864">
        <ele>905.75799560547</ele>
        <time>2009-06-03T14:41:59Z</time>
      </trkpt>
      <trkpt lat="44.95055" lon="5.39827">
        <ele>909.23602294922</ele>
        <time>2009-06-03T14:42:10Z</time>
      </trkpt>
      <trkpt lat="44.95042" lon="5.39797">
        <ele>912.12298583984</ele>
        <time>2009-06-03T14:42:21Z</time>
      </trkpt>
      <trkpt lat="44.95001" lon="5.398">
        <ele>915.93701171875</ele>
        <time>2009-06-03T14:42:36Z</time>
      </trkpt>
      <trkpt lat="44.94955" lon="5.39795">
        <ele>919.54498291016</ele>
        <time>2009-06-03T14:42:52Z</time>
      </trkpt>
      <trkpt lat="44.94908" lon="5.39748">
        <ele>922.98498535156</ele>
        <time>2009-06-03T14:43:08Z</time>
      </trkpt>
      <trkpt lat="44.94903" lon="5.39692">
        <ele>925.52697753906</ele>
        <time>2009-06-03T14:43:18Z</time>
      </trkpt>
      <trkpt lat="44.94927" lon="5.39623">
        <ele>929.40100097656</ele>
        <time>2009-06-03T14:43:34Z</time>
      </trkpt>
      <trkpt lat="44.94902" lon="5.39611">
        <ele>931.67901611328</ele>
        <time>2009-06-03T14:43:42Z</time>
      </trkpt>
      <trkpt lat="44.94856" lon="5.39596">
        <ele>934.84100341797</ele>
        <time>2009-06-03T14:43:55Z</time>
      </trkpt>
      <trkpt lat="44.94786" lon="5.39563">
        <ele>937.89398193359</ele>
        <time>2009-06-03T14:44:12Z</time>
      </trkpt>
      <trkpt lat="44.94767" lon="5.39556">
        <ele>939.24597167969</ele>
        <time>2009-06-03T14:44:16Z</time>
      </trkpt>
      <trkpt lat="44.94741" lon="5.39547">
        <ele>940.83197021484</ele>
        <time>2009-06-03T14:44:22Z</time>
      </trkpt>
      <trkpt lat="44.94721" lon="5.39514">
        <ele>943.35601806641</ele>
        <time>2009-06-03T14:44:31Z</time>
      </trkpt>
      <trkpt lat="44.94712" lon="5.3943">
        <ele>946.08599853516</ele>
        <time>2009-06-03T14:44:47Z</time>
      </trkpt>
      <trkpt lat="44.94689" lon="5.39345">
        <ele>949.64398193359</ele>
        <time>2009-06-03T14:45:03Z</time>
      </trkpt>
      <trkpt lat="44.94683" lon="5.39329">
        <ele>950.44500732422</ele>
        <time>2009-06-03T14:45:06Z</time>
      </trkpt>
      <trkpt lat="44.94674" lon="5.39308">
        <ele>951.4169921875</ele>
        <time>2009-06-03T14:45:10Z</time>
      </trkpt>
      <trkpt lat="44.94641" lon="5.39245">
        <ele>953.85302734375</ele>
        <time>2009-06-03T14:45:23Z</time>
      </trkpt>
      <trkpt lat="44.94628" lon="5.39234">
        <ele>955.58801269531</ele>
        <time>2009-06-03T14:45:27Z</time>
      </trkpt>
      <trkpt lat="44.94617" lon="5.39227">
        <ele>956.43103027344</ele>
        <time>2009-06-03T14:45:30Z</time>
      </trkpt>
      <trkpt lat="44.9457" lon="5.39213">
        <ele>960.38897705078</ele>
        <time>2009-06-03T14:45:45Z</time>
      </trkpt>
      <trkpt lat="44.94548" lon="5.39162">
        <ele>964.11297607422</ele>
        <time>2009-06-03T14:46:00Z</time>
      </trkpt>
      <trkpt lat="44.94553" lon="5.39093">
        <ele>967.9169921875</ele>
        <time>2009-06-03T14:46:17Z</time>
      </trkpt>
      <trkpt lat="44.94576" lon="5.39042">
        <ele>971.73602294922</ele>
        <time>2009-06-03T14:46:33Z</time>
      </trkpt>
      <trkpt lat="44.94561" lon="5.39017">
        <ele>973.69000244141</ele>
        <time>2009-06-03T14:46:43Z</time>
      </trkpt>
      <trkpt lat="44.94527" lon="5.39003">
        <ele>976.06799316406</ele>
        <time>2009-06-03T14:46:54Z</time>
      </trkpt>
      <trkpt lat="44.9447" lon="5.3898">
        <ele>980.39898681641</ele>
        <time>2009-06-03T14:47:13Z</time>
      </trkpt>
      <trkpt lat="44.94422" lon="5.38965">
        <ele>984.78497314453</ele>
        <time>2009-06-03T14:47:30Z</time>
      </trkpt>
      <trkpt lat="44.94376" lon="5.38974">
        <ele>988.61199951172</ele>
        <time>2009-06-03T14:47:46Z</time>
      </trkpt>
      <trkpt lat="44.94328" lon="5.38984">
        <ele>992.68798828125</ele>
        <time>2009-06-03T14:48:02Z</time>
      </trkpt>
      <trkpt lat="44.9429" lon="5.38975">
        <ele>996.11602783203</ele>
        <time>2009-06-03T14:48:14Z</time>
      </trkpt>
      <trkpt lat="44.94244" lon="5.38953">
        <ele>1000.4140014648</ele>
        <time>2009-06-03T14:48:29Z</time>
      </trkpt>
      <trkpt lat="44.94215" lon="5.38965">
        <ele>1001.8029785156</ele>
        <time>2009-06-03T14:48:41Z</time>
      </trkpt>
      <trkpt lat="44.94209" lon="5.39016">
        <ele>1004.8540039062</ele>
        <time>2009-06-03T14:48:53Z</time>
      </trkpt>
      <trkpt lat="44.942" lon="5.39085">
        <ele>1008.1680297852</ele>
        <time>2009-06-03T14:49:08Z</time>
      </trkpt>
      <trkpt lat="44.94156" lon="5.39118">
        <ele>1010.9559936523</ele>
        <time>2009-06-03T14:49:22Z</time>
      </trkpt>
      <trkpt lat="44.94115" lon="5.39089">
        <ele>1013.8489990234</ele>
        <time>2009-06-03T14:49:35Z</time>
      </trkpt>
      <trkpt lat="44.94061" lon="5.39055">
        <ele>1016.1489868164</ele>
        <time>2009-06-03T14:49:51Z</time>
      </trkpt>
      <trkpt lat="44.94035" lon="5.39039">
        <ele>1017.9140014648</ele>
        <time>2009-06-03T14:49:58Z</time>
      </trkpt>
      <trkpt lat="44.94023" lon="5.39031">
        <ele>1018.5549926758</ele>
        <time>2009-06-03T14:50:04Z</time>
      </trkpt>
      <trkpt lat="44.94007" lon="5.38996">
        <ele>1020.4840087891</ele>
        <time>2009-06-03T14:50:13Z</time>
      </trkpt>
      <trkpt lat="44.94005" lon="5.38975">
        <ele>1021.1950073242</ele>
        <time>2009-06-03T14:50:17Z</time>
      </trkpt>
      <trkpt lat="44.94005" lon="5.38961">
        <ele>1021.2719726562</ele>
        <time>2009-06-03T14:50:20Z</time>
      </trkpt>
      <trkpt lat="44.9401" lon="5.38935">
        <ele>1022.4359741211</ele>
        <time>2009-06-03T14:50:24Z</time>
      </trkpt>
      <trkpt lat="44.94013" lon="5.38918">
        <ele>1023.2210083008</ele>
        <time>2009-06-03T14:50:27Z</time>
      </trkpt>
      <trkpt lat="44.94026" lon="5.38827">
        <ele>1027.6330566406</ele>
        <time>2009-06-03T14:50:45Z</time>
      </trkpt>
      <trkpt lat="44.94017" lon="5.38738">
        <ele>1030.9069824219</ele>
        <time>2009-06-03T14:51:03Z</time>
      </trkpt>
      <trkpt lat="44.94001" lon="5.38637">
        <ele>1034.9260253906</ele>
        <time>2009-06-03T14:51:23Z</time>
      </trkpt>
      <trkpt lat="44.94001" lon="5.38632">
        <ele>1035.0720214844</ele>
        <time>2009-06-03T14:51:24Z</time>
      </trkpt>
      <trkpt lat="44.93969" lon="5.38579">
        <ele>1037.4040527344</ele>
        <time>2009-06-03T14:51:37Z</time>
      </trkpt>
      <trkpt lat="44.93917" lon="5.38523">
        <ele>1040.5209960938</ele>
        <time>2009-06-03T14:51:54Z</time>
      </trkpt>
      <trkpt lat="44.93862" lon="5.38469">
        <ele>1043.8499755859</ele>
        <time>2009-06-03T14:52:11Z</time>
      </trkpt>
      <trkpt lat="44.93826" lon="5.38427">
        <ele>1046.0520019531</ele>
        <time>2009-06-03T14:52:23Z</time>
      </trkpt>
      <trkpt lat="44.93823" lon="5.38423">
        <ele>1046.1839599609</ele>
        <time>2009-06-03T14:52:24Z</time>
      </trkpt>
      <trkpt lat="44.93792" lon="5.38415">
        <ele>1048.2330322266</ele>
        <time>2009-06-03T14:52:32Z</time>
      </trkpt>
      <trkpt lat="44.93723" lon="5.38394">
        <ele>1051.5040283203</ele>
        <time>2009-06-03T14:52:49Z</time>
      </trkpt>
      <trkpt lat="44.93712" lon="5.38389">
        <ele>1052.1760253906</ele>
        <time>2009-06-03T14:52:52Z</time>
      </trkpt>
      <trkpt lat="44.93702" lon="5.38379">
        <ele>1052.6009521484</ele>
        <time>2009-06-03T14:52:55Z</time>
      </trkpt>
      <trkpt lat="44.93665" lon="5.38333">
        <ele>1055.3050537109</ele>
        <time>2009-06-03T14:53:08Z</time>
      </trkpt>
      <trkpt lat="44.93636" lon="5.38307">
        <ele>1056.9110107422</ele>
        <time>2009-06-03T14:53:17Z</time>
      </trkpt>
      <trkpt lat="44.93628" lon="5.38305">
        <ele>1057.0780029297</ele>
        <time>2009-06-03T14:53:19Z</time>
      </trkpt>
      <trkpt lat="44.93593" lon="5.38341">
        <ele>1060.1500244141</ele>
        <time>2009-06-03T14:53:30Z</time>
      </trkpt>
      <trkpt lat="44.93591" lon="5.38345">
        <ele>1060.5949707031</ele>
        <time>2009-06-03T14:53:31Z</time>
      </trkpt>
      <trkpt lat="44.93556" lon="5.38408">
        <ele>1062.6240234375</ele>
        <time>2009-06-03T14:53:46Z</time>
      </trkpt>
      <trkpt lat="44.93549" lon="5.38414">
        <ele>1063.1500244141</ele>
        <time>2009-06-03T14:53:48Z</time>
      </trkpt>
      <trkpt lat="44.93489" lon="5.3842">
        <ele>1065.2449951172</ele>
        <time>2009-06-03T14:54:03Z</time>
      </trkpt>
      <trkpt lat="44.93414" lon="5.38417">
        <ele>1069.1350097656</ele>
        <time>2009-06-03T14:54:20Z</time>
      </trkpt>
      <trkpt lat="44.93339" lon="5.38411">
        <ele>1072.8179931641</ele>
        <time>2009-06-03T14:54:36Z</time>
      </trkpt>
      <trkpt lat="44.93265" lon="5.38394">
        <ele>1077.5529785156</ele>
        <time>2009-06-03T14:54:54Z</time>
      </trkpt>
      <trkpt lat="44.9325" lon="5.38391">
        <ele>1078.125</ele>
        <time>2009-06-03T14:54:58Z</time>
      </trkpt>
      <trkpt lat="44.93238" lon="5.3839">
        <ele>1079.1999511719</ele>
        <time>2009-06-03T14:55:01Z</time>
      </trkpt>
      <trkpt lat="44.93171" lon="5.38395">
        <ele>1083.2330322266</ele>
        <time>2009-06-03T14:55:19Z</time>
      </trkpt>
      <trkpt lat="44.93114" lon="5.38426">
        <ele>1086.4739990234</ele>
        <time>2009-06-03T14:55:34Z</time>
      </trkpt>
      <trkpt lat="44.93097" lon="5.3843">
        <ele>1087.7679443359</ele>
        <time>2009-06-03T14:55:38Z</time>
      </trkpt>
      <trkpt lat="44.9304" lon="5.3842">
        <ele>1091.5629882812</ele>
        <time>2009-06-03T14:55:54Z</time>
      </trkpt>
      <trkpt lat="44.92982" lon="5.38402">
        <ele>1094.7380371094</ele>
        <time>2009-06-03T14:56:09Z</time>
      </trkpt>
      <trkpt lat="44.92942" lon="5.38383">
        <ele>1095.751953125</ele>
        <time>2009-06-03T14:56:18Z</time>
      </trkpt>
      <trkpt lat="44.92869" lon="5.38328">
        <ele>1097.2010498047</ele>
        <time>2009-06-03T14:56:33Z</time>
      </trkpt>
      <trkpt lat="44.92817" lon="5.3829">
        <ele>1099.0629882812</ele>
        <time>2009-06-03T14:56:44Z</time>
      </trkpt>
      <trkpt lat="44.92801" lon="5.38272">
        <ele>1100.4620361328</ele>
        <time>2009-06-03T14:56:48Z</time>
      </trkpt>
      <trkpt lat="44.92782" lon="5.38176">
        <ele>1103.0159912109</ele>
        <time>2009-06-03T14:57:03Z</time>
      </trkpt>
      <trkpt lat="44.92785" lon="5.3809">
        <ele>1099.6409912109</ele>
        <time>2009-06-03T14:57:12Z</time>
      </trkpt>
      <trkpt lat="44.92781" lon="5.38032">
        <ele>1098.3060302734</ele>
        <time>2009-06-03T14:57:17Z</time>
      </trkpt>
      <trkpt lat="44.92761" lon="5.38005">
        <ele>1097.5129394531</ele>
        <time>2009-06-03T14:57:20Z</time>
      </trkpt>
      <trkpt lat="44.92716" lon="5.37977">
        <ele>1096.8590087891</ele>
        <time>2009-06-03T14:57:25Z</time>
      </trkpt>
      <trkpt lat="44.92698" lon="5.37966">
        <ele>1097.1219482422</ele>
        <time>2009-06-03T14:57:27Z</time>
      </trkpt>
      <trkpt lat="44.9268" lon="5.37954">
        <ele>1097.5610351562</ele>
        <time>2009-06-03T14:57:29Z</time>
      </trkpt>
      <trkpt lat="44.92651" lon="5.37919">
        <ele>1097.2719726562</ele>
        <time>2009-06-03T14:57:33Z</time>
      </trkpt>
      <trkpt lat="44.9258" lon="5.37854">
        <ele>1096.9060058594</ele>
        <time>2009-06-03T14:57:42Z</time>
      </trkpt>
      <trkpt lat="44.92527" lon="5.37854">
        <ele>1094.7280273438</ele>
        <time>2009-06-03T14:57:48Z</time>
      </trkpt>
      <trkpt lat="44.92457" lon="5.37892">
        <ele>1093.6719970703</ele>
        <time>2009-06-03T14:57:56Z</time>
      </trkpt>
      <trkpt lat="44.92379" lon="5.37971">
        <ele>1091.9470214844</ele>
        <time>2009-06-03T14:58:06Z</time>
      </trkpt>
      <trkpt lat="44.92322" lon="5.37995">
        <ele>1092.2919921875</ele>
        <time>2009-06-03T14:58:13Z</time>
      </trkpt>
      <trkpt lat="44.92274" lon="5.37954">
        <ele>1090.5009765625</ele>
        <time>2009-06-03T14:58:19Z</time>
      </trkpt>
      <trkpt lat="44.92256" lon="5.3794">
        <ele>1089.3649902344</ele>
        <time>2009-06-03T14:58:21Z</time>
      </trkpt>
      <trkpt lat="44.92192" lon="5.37873">
        <ele>1090.0240478516</ele>
        <time>2009-06-03T14:58:29Z</time>
      </trkpt>
      <trkpt lat="44.92146" lon="5.37805">
        <ele>1089.2020263672</ele>
        <time>2009-06-03T14:58:36Z</time>
      </trkpt>
      <trkpt lat="44.92121" lon="5.3777">
        <ele>1090.8149414062</ele>
        <time>2009-06-03T14:58:40Z</time>
      </trkpt>
      <trkpt lat="44.92072" lon="5.37726">
        <ele>1091.5190429688</ele>
        <time>2009-06-03T14:58:47Z</time>
      </trkpt>
      <trkpt lat="44.92041" lon="5.37717">
        <ele>1091.5389404297</ele>
        <time>2009-06-03T14:58:51Z</time>
      </trkpt>
      <trkpt lat="44.91978" lon="5.37726">
        <ele>1087.1810302734</ele>
        <time>2009-06-03T14:58:58Z</time>
      </trkpt>
      <trkpt lat="44.91928" lon="5.37734">
        <ele>1084.5379638672</ele>
        <time>2009-06-03T14:59:03Z</time>
      </trkpt>
      <trkpt lat="44.91806" lon="5.37752">
        <ele>1079.7320556641</ele>
        <time>2009-06-03T14:59:14Z</time>
      </trkpt>
      <trkpt lat="44.91744" lon="5.37748">
        <ele>1077.2629394531</ele>
        <time>2009-06-03T14:59:19Z</time>
      </trkpt>
      <trkpt lat="44.91706" lon="5.37738">
        <ele>1074.4549560547</ele>
        <time>2009-06-03T14:59:22Z</time>
      </trkpt>
      <trkpt lat="44.91653" lon="5.37724">
        <ele>1072.7600097656</ele>
        <time>2009-06-03T14:59:26Z</time>
      </trkpt>
      <trkpt lat="44.91559" lon="5.37698">
        <ele>1069.0579833984</ele>
        <time>2009-06-03T14:59:33Z</time>
      </trkpt>
      <trkpt lat="44.91405" lon="5.37629">
        <ele>1058.9620361328</ele>
        <time>2009-06-03T14:59:44Z</time>
      </trkpt>
      <trkpt lat="44.91243" lon="5.37589">
        <ele>1056.5989990234</ele>
        <time>2009-06-03T14:59:55Z</time>
      </trkpt>
      <trkpt lat="44.9123" lon="5.37583">
        <ele>1056.7390136719</ele>
        <time>2009-06-03T14:59:56Z</time>
      </trkpt>
      <trkpt lat="44.91107" lon="5.37511">
        <ele>1054.4580078125</ele>
        <time>2009-06-03T15:00:07Z</time>
      </trkpt>
      <trkpt lat="44.90992" lon="5.37429">
        <ele>1053.2430419922</ele>
        <time>2009-06-03T15:00:18Z</time>
      </trkpt>
      <trkpt lat="44.90973" lon="5.37414">
        <ele>1053.3120117188</ele>
        <time>2009-06-03T15:00:20Z</time>
      </trkpt>
      <trkpt lat="44.90931" lon="5.37374">
        <ele>1053.5119628906</ele>
        <time>2009-06-03T15:00:25Z</time>
      </trkpt>
      <trkpt lat="44.90858" lon="5.37335">
        <ele>1052.4759521484</ele>
        <time>2009-06-03T15:00:33Z</time>
      </trkpt>
      <trkpt lat="44.90808" lon="5.37363">
        <ele>1052.6879882812</ele>
        <time>2009-06-03T15:00:39Z</time>
      </trkpt>
      <trkpt lat="44.90743" lon="5.3739">
        <ele>1053.6579589844</ele>
        <time>2009-06-03T15:00:47Z</time>
      </trkpt>
      <trkpt lat="44.90735" lon="5.37385">
        <ele>1053.3919677734</ele>
        <time>2009-06-03T15:00:48Z</time>
      </trkpt>
      <trkpt lat="44.90628" lon="5.37316">
        <ele>1056.0699462891</ele>
        <time>2009-06-03T15:01:03Z</time>
      </trkpt>
      <trkpt lat="44.90551" lon="5.37266">
        <ele>1060.9339599609</ele>
        <time>2009-06-03T15:01:18Z</time>
      </trkpt>
      <trkpt lat="44.90508" lon="5.37239">
        <ele>1063.6729736328</ele>
        <time>2009-06-03T15:01:28Z</time>
      </trkpt>
      <trkpt lat="44.9047" lon="5.37215">
        <ele>1065.4169921875</ele>
        <time>2009-06-03T15:01:37Z</time>
      </trkpt>
      <trkpt lat="44.90423" lon="5.37186">
        <ele>1067.9229736328</ele>
        <time>2009-06-03T15:01:48Z</time>
      </trkpt>
      <trkpt lat="44.9038" lon="5.37169">
        <ele>1069.8260498047</ele>
        <time>2009-06-03T15:01:59Z</time>
      </trkpt>
      <trkpt lat="44.90377" lon="5.37137">
        <ele>1070.4680175781</ele>
        <time>2009-06-03T15:02:07Z</time>
      </trkpt>
      <trkpt lat="44.90409" lon="5.37084">
        <ele>1073.5920410156</ele>
        <time>2009-06-03T15:02:23Z</time>
      </trkpt>
      <trkpt lat="44.9042" lon="5.3707">
        <ele>1076.5200195312</ele>
        <time>2009-06-03T15:02:28Z</time>
      </trkpt>
      <trkpt lat="44.90464" lon="5.37012">
        <ele>1082.0300292969</ele>
        <time>2009-06-03T15:02:48Z</time>
      </trkpt>
      <trkpt lat="44.90508" lon="5.36954">
        <ele>1086.1379394531</ele>
        <time>2009-06-03T15:03:08Z</time>
      </trkpt>
      <trkpt lat="44.90555" lon="5.3689">
        <ele>1091.3060302734</ele>
        <time>2009-06-03T15:03:30Z</time>
      </trkpt>
      <trkpt lat="44.90585" lon="5.3685">
        <ele>1094.9580078125</ele>
        <time>2009-06-03T15:03:45Z</time>
      </trkpt>
      <trkpt lat="44.90614" lon="5.36809">
        <ele>1099.3139648438</ele>
        <time>2009-06-03T15:04:01Z</time>
      </trkpt>
      <trkpt lat="44.90648" lon="5.36762">
        <ele>1103.5279541016</ele>
        <time>2009-06-03T15:04:19Z</time>
      </trkpt>
      <trkpt lat="44.90676" lon="5.36722">
        <ele>1106.8869628906</ele>
        <time>2009-06-03T15:04:34Z</time>
      </trkpt>
      <trkpt lat="44.90713" lon="5.3669">
        <ele>1108.9820556641</ele>
        <time>2009-06-03T15:04:49Z</time>
      </trkpt>
      <trkpt lat="44.90748" lon="5.36696">
        <ele>1111.3139648438</ele>
        <time>2009-06-03T15:05:00Z</time>
      </trkpt>
      <trkpt lat="44.90791" lon="5.36746">
        <ele>1115.0119628906</ele>
        <time>2009-06-03T15:05:18Z</time>
      </trkpt>
      <trkpt lat="44.90832" lon="5.36794">
        <ele>1118.5959472656</ele>
        <time>2009-06-03T15:05:35Z</time>
      </trkpt>
      <trkpt lat="44.90882" lon="5.36828">
        <ele>1123.7020263672</ele>
        <time>2009-06-03T15:05:52Z</time>
      </trkpt>
      <trkpt lat="44.90949" lon="5.36828">
        <ele>1127.5059814453</ele>
        <time>2009-06-03T15:06:12Z</time>
      </trkpt>
      <trkpt lat="44.90997" lon="5.36842">
        <ele>1131.0159912109</ele>
        <time>2009-06-03T15:06:26Z</time>
      </trkpt>
      <trkpt lat="44.91053" lon="5.36868">
        <ele>1135.7530517578</ele>
        <time>2009-06-03T15:06:45Z</time>
      </trkpt>
      <trkpt lat="44.91092" lon="5.36881">
        <ele>1140.126953125</ele>
        <time>2009-06-03T15:07:00Z</time>
      </trkpt>
      <trkpt lat="44.91147" lon="5.36891">
        <ele>1145.1729736328</ele>
        <time>2009-06-03T15:07:20Z</time>
      </trkpt>
      <trkpt lat="44.91159" lon="5.36897">
        <ele>1147.1149902344</ele>
        <time>2009-06-03T15:07:24Z</time>
      </trkpt>
      <trkpt lat="44.91205" lon="5.3694">
        <ele>1149.8659667969</ele>
        <time>2009-06-03T15:07:41Z</time>
      </trkpt>
      <trkpt lat="44.91234" lon="5.36987">
        <ele>1153.2469482422</ele>
        <time>2009-06-03T15:07:57Z</time>
      </trkpt>
      <trkpt lat="44.9128" lon="5.37009">
        <ele>1157.1519775391</ele>
        <time>2009-06-03T15:08:15Z</time>
      </trkpt>
      <trkpt lat="44.91289" lon="5.37012">
        <ele>1158.3890380859</ele>
        <time>2009-06-03T15:08:18Z</time>
      </trkpt>
      <trkpt lat="44.91335" lon="5.36994">
        <ele>1162.0909423828</ele>
        <time>2009-06-03T15:08:35Z</time>
      </trkpt>
      <trkpt lat="44.91373" lon="5.36982">
        <ele>1165.8969726562</ele>
        <time>2009-06-03T15:08:50Z</time>
      </trkpt>
      <trkpt lat="44.91407" lon="5.36988">
        <ele>1168.5539550781</ele>
        <time>2009-06-03T15:09:03Z</time>
      </trkpt>
      <trkpt lat="44.91446" lon="5.3701">
        <ele>1171.7900390625</ele>
        <time>2009-06-03T15:09:18Z</time>
      </trkpt>
      <trkpt lat="44.91487" lon="5.37044">
        <ele>1174.9029541016</ele>
        <time>2009-06-03T15:09:35Z</time>
      </trkpt>
      <trkpt lat="44.91524" lon="5.37075">
        <ele>1178.6140136719</ele>
        <time>2009-06-03T15:09:50Z</time>
      </trkpt>
      <trkpt lat="44.91562" lon="5.37099">
        <ele>1182.916015625</ele>
        <time>2009-06-03T15:10:06Z</time>
      </trkpt>
      <trkpt lat="44.91597" lon="5.37108">
        <ele>1185.8079833984</ele>
        <time>2009-06-03T15:10:20Z</time>
      </trkpt>
      <trkpt lat="44.9165" lon="5.37122">
        <ele>1189.7110595703</ele>
        <time>2009-06-03T15:10:37Z</time>
      </trkpt>
      <trkpt lat="44.91661" lon="5.37125">
        <ele>1191.3759765625</ele>
        <time>2009-06-03T15:10:41Z</time>
      </trkpt>
      <trkpt lat="44.917" lon="5.37135">
        <ele>1194.9720458984</ele>
        <time>2009-06-03T15:10:55Z</time>
      </trkpt>
      <trkpt lat="44.91735" lon="5.37144">
        <ele>1197.4699707031</ele>
        <time>2009-06-03T15:11:08Z</time>
      </trkpt>
      <trkpt lat="44.91774" lon="5.37154">
        <ele>1200.4060058594</ele>
        <time>2009-06-03T15:11:22Z</time>
      </trkpt>
      <trkpt lat="44.91777" lon="5.37155">
        <ele>1200.6899414062</ele>
        <time>2009-06-03T15:11:23Z</time>
      </trkpt>
      <trkpt lat="44.91808" lon="5.37163">
        <ele>1201.958984375</ele>
        <time>2009-06-03T15:11:34Z</time>
      </trkpt>
      <trkpt lat="44.91797" lon="5.37137">
        <ele>1203.2969970703</ele>
        <time>2009-06-03T15:11:42Z</time>
      </trkpt>
      <trkpt lat="44.91743" lon="5.37129">
        <ele>1207.3349609375</ele>
        <time>2009-06-03T15:11:59Z</time>
      </trkpt>
      <trkpt lat="44.91694" lon="5.37092">
        <ele>1211.8570556641</ele>
        <time>2009-06-03T15:12:17Z</time>
      </trkpt>
      <trkpt lat="44.91649" lon="5.37057">
        <ele>1216.875</ele>
        <time>2009-06-03T15:12:36Z</time>
      </trkpt>
      <trkpt lat="44.91607" lon="5.37025">
        <ele>1220.4689941406</ele>
        <time>2009-06-03T15:12:50Z</time>
      </trkpt>
      <trkpt lat="44.91559" lon="5.36985">
        <ele>1225.1429443359</ele>
        <time>2009-06-03T15:13:08Z</time>
      </trkpt>
      <trkpt lat="44.91548" lon="5.36969">
        <ele>1226.8759765625</ele>
        <time>2009-06-03T15:13:14Z</time>
      </trkpt>
      <trkpt lat="44.91516" lon="5.36919">
        <ele>1230.6689453125</ele>
        <time>2009-06-03T15:13:31Z</time>
      </trkpt>
      <trkpt lat="44.91479" lon="5.3688">
        <ele>1234.2399902344</ele>
        <time>2009-06-03T15:13:47Z</time>
      </trkpt>
      <trkpt lat="44.91438" lon="5.36837">
        <ele>1237.7309570312</ele>
        <time>2009-06-03T15:14:04Z</time>
      </trkpt>
      <trkpt lat="44.91404" lon="5.36795">
        <ele>1240.95703125</ele>
        <time>2009-06-03T15:14:19Z</time>
      </trkpt>
      <trkpt lat="44.91373" lon="5.36745">
        <ele>1246.0729980469</ele>
        <time>2009-06-03T15:14:36Z</time>
      </trkpt>
      <trkpt lat="44.91339" lon="5.36713">
        <ele>1248.9770507812</ele>
        <time>2009-06-03T15:14:50Z</time>
      </trkpt>
      <trkpt lat="44.91295" lon="5.36675">
        <ele>1254.2559814453</ele>
        <time>2009-06-03T15:15:09Z</time>
      </trkpt>
      <trkpt lat="44.91259" lon="5.36645">
        <ele>1257.5340576172</ele>
        <time>2009-06-03T15:15:24Z</time>
      </trkpt>
      <trkpt lat="44.91227" lon="5.36613">
        <ele>1262.16796875</ele>
        <time>2009-06-03T15:15:36Z</time>
      </trkpt>
      <trkpt lat="44.91179" lon="5.36563">
        <ele>1266.1219482422</ele>
        <time>2009-06-03T15:15:55Z</time>
      </trkpt>
      <trkpt lat="44.91138" lon="5.36521">
        <ele>1271.4919433594</ele>
        <time>2009-06-03T15:16:13Z</time>
      </trkpt>
      <trkpt lat="44.91104" lon="5.36481">
        <ele>1275.5119628906</ele>
        <time>2009-06-03T15:16:30Z</time>
      </trkpt>
      <trkpt lat="44.91059" lon="5.36441">
        <ele>1279.4830322266</ele>
        <time>2009-06-03T15:16:49Z</time>
      </trkpt>
      <trkpt lat="44.91016" lon="5.36404">
        <ele>1283.5489501953</ele>
        <time>2009-06-03T15:17:07Z</time>
      </trkpt>
      <trkpt lat="44.90985" lon="5.3638">
        <ele>1286.1979980469</ele>
        <time>2009-06-03T15:17:19Z</time>
      </trkpt>
      <trkpt lat="44.90943" lon="5.36351">
        <ele>1290.5610351562</ele>
        <time>2009-06-03T15:17:35Z</time>
      </trkpt>
      <trkpt lat="44.90886" lon="5.36312">
        <ele>1295.3270263672</ele>
        <time>2009-06-03T15:17:54Z</time>
      </trkpt>
      <trkpt lat="44.90833" lon="5.36249">
        <ele>1300.7969970703</ele>
        <time>2009-06-03T15:18:13Z</time>
      </trkpt>
      <trkpt lat="44.90816" lon="5.36224">
        <ele>1302.7139892578</ele>
        <time>2009-06-03T15:18:21Z</time>
      </trkpt>
      <trkpt lat="44.90781" lon="5.36167">
        <ele>1306.208984375</ele>
        <time>2009-06-03T15:18:38Z</time>
      </trkpt>
      <trkpt lat="44.90754" lon="5.36107">
        <ele>1309.9990234375</ele>
        <time>2009-06-03T15:18:54Z</time>
      </trkpt>
      <trkpt lat="44.90722" lon="5.36045">
        <ele>1315.0560302734</ele>
        <time>2009-06-03T15:19:11Z</time>
      </trkpt>
      <trkpt lat="44.90729" lon="5.35978">
        <ele>1318.9549560547</ele>
        <time>2009-06-03T15:19:26Z</time>
      </trkpt>
      <trkpt lat="44.90734" lon="5.35912">
        <ele>1322.7030029297</ele>
        <time>2009-06-03T15:19:42Z</time>
      </trkpt>
      <trkpt lat="44.90742" lon="5.35849">
        <ele>1326.6579589844</ele>
        <time>2009-06-03T15:19:57Z</time>
      </trkpt>
      <trkpt lat="44.90744" lon="5.35793">
        <ele>1329.0219726562</ele>
        <time>2009-06-03T15:20:10Z</time>
      </trkpt>
      <trkpt lat="44.90733" lon="5.35746">
        <ele>1331.5689697266</ele>
        <time>2009-06-03T15:20:22Z</time>
      </trkpt>
      <trkpt lat="44.90727" lon="5.35688">
        <ele>1335.3310546875</ele>
        <time>2009-06-03T15:20:37Z</time>
      </trkpt>
      <trkpt lat="44.90751" lon="5.35639">
        <ele>1338.8509521484</ele>
        <time>2009-06-03T15:20:53Z</time>
      </trkpt>
      <trkpt lat="44.9076" lon="5.35627">
        <ele>1339.9630126953</ele>
        <time>2009-06-03T15:20:58Z</time>
      </trkpt>
      <trkpt lat="44.90783" lon="5.35604">
        <ele>1342.7960205078</ele>
        <time>2009-06-03T15:21:08Z</time>
      </trkpt>
      <trkpt lat="44.90808" lon="5.35578">
        <ele>1345.0250244141</ele>
        <time>2009-06-03T15:21:21Z</time>
      </trkpt>
      <trkpt lat="44.90821" lon="5.35575">
        <ele>1346.7259521484</ele>
        <time>2009-06-03T15:21:26Z</time>
      </trkpt>
      <trkpt lat="44.90851" lon="5.35578">
        <ele>1349.498046875</ele>
        <time>2009-06-03T15:21:38Z</time>
      </trkpt>
      <trkpt lat="44.9088" lon="5.35571">
        <ele>1352.3270263672</ele>
        <time>2009-06-03T15:21:50Z</time>
      </trkpt>
      <trkpt lat="44.90901" lon="5.35563">
        <ele>1354.7879638672</ele>
        <time>2009-06-03T15:21:58Z</time>
      </trkpt>
      <trkpt lat="44.90928" lon="5.35552">
        <ele>1356.9410400391</ele>
        <time>2009-06-03T15:22:07Z</time>
      </trkpt>
      <trkpt lat="44.90972" lon="5.35534">
        <ele>1356.9050292969</ele>
        <time>2009-06-03T15:22:20Z</time>
      </trkpt>
      <trkpt lat="44.90977" lon="5.35532">
        <ele>1356.7239990234</ele>
        <time>2009-06-03T15:22:21Z</time>
      </trkpt>
      <trkpt lat="44.91015" lon="5.35502">
        <ele>1355.9399414062</ele>
        <time>2009-06-03T15:22:29Z</time>
      </trkpt>
      <trkpt lat="44.91022" lon="5.3548">
        <ele>1356.3480224609</ele>
        <time>2009-06-03T15:22:32Z</time>
      </trkpt>
      <trkpt lat="44.91022" lon="5.35468">
        <ele>1356.291015625</ele>
        <time>2009-06-03T15:22:34Z</time>
      </trkpt>
      <trkpt lat="44.91022" lon="5.35453">
        <ele>1356.3649902344</ele>
        <time>2009-06-03T15:22:36Z</time>
      </trkpt>
      <trkpt lat="44.91022" lon="5.35445">
        <ele>1356.5799560547</ele>
        <time>2009-06-03T15:22:37Z</time>
      </trkpt>
      <trkpt lat="44.91015" lon="5.3539">
        <ele>1357.5200195312</ele>
        <time>2009-06-03T15:22:42Z</time>
      </trkpt>
      <trkpt lat="44.91001" lon="5.35337">
        <ele>1358.3520507812</ele>
        <time>2009-06-03T15:22:49Z</time>
      </trkpt>
      <trkpt lat="44.90997" lon="5.35305">
        <ele>1358.873046875</ele>
        <time>2009-06-03T15:22:54Z</time>
      </trkpt>
      <trkpt lat="44.90998" lon="5.3529">
        <ele>1359.4379882812</ele>
        <time>2009-06-03T15:22:56Z</time>
      </trkpt>
      <trkpt lat="44.91001" lon="5.35262">
        <ele>1360.2440185547</ele>
        <time>2009-06-03T15:23:00Z</time>
      </trkpt>
      <trkpt lat="44.91004" lon="5.35232">
        <ele>1360.9150390625</ele>
        <time>2009-06-03T15:23:04Z</time>
      </trkpt>
      <trkpt lat="44.91009" lon="5.35189">
        <ele>1363.4139404297</ele>
        <time>2009-06-03T15:23:10Z</time>
      </trkpt>
      <trkpt lat="44.91008" lon="5.35127">
        <ele>1364.8439941406</ele>
        <time>2009-06-03T15:23:19Z</time>
      </trkpt>
      <trkpt lat="44.90993" lon="5.35009">
        <ele>1368.5080566406</ele>
        <time>2009-06-03T15:23:36Z</time>
      </trkpt>
      <trkpt lat="44.90993" lon="5.34987">
        <ele>1369.4470214844</ele>
        <time>2009-06-03T15:23:40Z</time>
      </trkpt>
      <trkpt lat="44.90997" lon="5.34926">
        <ele>1371.1999511719</ele>
        <time>2009-06-03T15:23:51Z</time>
      </trkpt>
      <trkpt lat="44.90997" lon="5.34867">
        <ele>1373.1639404297</ele>
        <time>2009-06-03T15:24:03Z</time>
      </trkpt>
      <trkpt lat="44.90979" lon="5.34786">
        <ele>1376.2869873047</ele>
        <time>2009-06-03T15:24:19Z</time>
      </trkpt>
      <trkpt lat="44.90972" lon="5.3469">
        <ele>1379.0030517578</ele>
        <time>2009-06-03T15:24:35Z</time>
      </trkpt>
      <trkpt lat="44.90969" lon="5.34671">
        <ele>1379.6899414062</ele>
        <time>2009-06-03T15:24:38Z</time>
      </trkpt>
      <trkpt lat="44.9096" lon="5.3465">
        <ele>1379.7320556641</ele>
        <time>2009-06-03T15:24:42Z</time>
      </trkpt>
      <trkpt lat="44.90939" lon="5.3463">
        <ele>1381.1479492188</ele>
        <time>2009-06-03T15:24:48Z</time>
      </trkpt>
      <trkpt lat="44.90931" lon="5.34627">
        <ele>1381.6080322266</ele>
        <time>2009-06-03T15:24:50Z</time>
      </trkpt>
      <trkpt lat="44.90915" lon="5.34631">
        <ele>1381.7819824219</ele>
        <time>2009-06-03T15:24:54Z</time>
      </trkpt>
      <trkpt lat="44.90886" lon="5.34639">
        <ele>1383.9310302734</ele>
        <time>2009-06-03T15:25:01Z</time>
      </trkpt>
      <trkpt lat="44.90857" lon="5.34626">
        <ele>1386.5689697266</ele>
        <time>2009-06-03T15:25:10Z</time>
      </trkpt>
      <trkpt lat="44.90828" lon="5.34569">
        <ele>1389.6350097656</ele>
        <time>2009-06-03T15:25:24Z</time>
      </trkpt>
      <trkpt lat="44.90789" lon="5.34526">
        <ele>1393.0789794922</ele>
        <time>2009-06-03T15:25:38Z</time>
      </trkpt>
      <trkpt lat="44.90783" lon="5.3452">
        <ele>1393.8449707031</ele>
        <time>2009-06-03T15:25:40Z</time>
      </trkpt>
      <trkpt lat="44.9078" lon="5.34511">
        <ele>1394.5949707031</ele>
        <time>2009-06-03T15:25:42Z</time>
      </trkpt>
      <trkpt lat="44.90766" lon="5.34437">
        <ele>1396.8360595703</ele>
        <time>2009-06-03T15:25:54Z</time>
      </trkpt>
      <trkpt lat="44.90748" lon="5.34392">
        <ele>1397.8599853516</ele>
        <time>2009-06-03T15:26:02Z</time>
      </trkpt>
      <trkpt lat="44.90693" lon="5.34323">
        <ele>1402.1770019531</ele>
        <time>2009-06-03T15:26:19Z</time>
      </trkpt>
      <trkpt lat="44.90656" lon="5.34292">
        <ele>1403.4379882812</ele>
        <time>2009-06-03T15:26:29Z</time>
      </trkpt>
      <trkpt lat="44.90597" lon="5.34248">
        <ele>1407.1920166016</ele>
        <time>2009-06-03T15:26:45Z</time>
      </trkpt>
      <trkpt lat="44.9058" lon="5.34235">
        <ele>1408.0560302734</ele>
        <time>2009-06-03T15:26:50Z</time>
      </trkpt>
      <trkpt lat="44.90541" lon="5.34204">
        <ele>1409.6120605469</ele>
        <time>2009-06-03T15:27:00Z</time>
      </trkpt>
      <trkpt lat="44.90539" lon="5.34149">
        <ele>1411.5770263672</ele>
        <time>2009-06-03T15:27:11Z</time>
      </trkpt>
      <trkpt lat="44.90545" lon="5.34127">
        <ele>1412.5830078125</ele>
        <time>2009-06-03T15:27:15Z</time>
      </trkpt>
      <trkpt lat="44.90556" lon="5.34089">
        <ele>1412.8719482422</ele>
        <time>2009-06-03T15:27:21Z</time>
      </trkpt>
      <trkpt lat="44.90598" lon="5.3406">
        <ele>1416.5560302734</ele>
        <time>2009-06-03T15:27:31Z</time>
      </trkpt>
      <trkpt lat="44.90607" lon="5.34054">
        <ele>1417.3850097656</ele>
        <time>2009-06-03T15:27:33Z</time>
      </trkpt>
      <trkpt lat="44.90615" lon="5.34048">
        <ele>1417.4610595703</ele>
        <time>2009-06-03T15:27:35Z</time>
      </trkpt>
      <trkpt lat="44.90629" lon="5.34035">
        <ele>1417.6560058594</ele>
        <time>2009-06-03T15:27:39Z</time>
      </trkpt>
      <trkpt lat="44.90634" lon="5.33975">
        <ele>1419.4830322266</ele>
        <time>2009-06-03T15:27:49Z</time>
      </trkpt>
      <trkpt lat="44.90624" lon="5.33963">
        <ele>1419.6340332031</ele>
        <time>2009-06-03T15:27:52Z</time>
      </trkpt>
      <trkpt lat="44.90615" lon="5.33957">
        <ele>1419.7430419922</ele>
        <time>2009-06-03T15:27:54Z</time>
      </trkpt>
      <trkpt lat="44.90607" lon="5.33951">
        <ele>1420.0460205078</ele>
        <time>2009-06-03T15:27:56Z</time>
      </trkpt>
      <trkpt lat="44.90598" lon="5.33945">
        <ele>1420.3659667969</ele>
        <time>2009-06-03T15:27:58Z</time>
      </trkpt>
      <trkpt lat="44.90581" lon="5.33927">
        <ele>1421.2220458984</ele>
        <time>2009-06-03T15:28:03Z</time>
      </trkpt>
      <trkpt lat="44.90574" lon="5.33879">
        <ele>1422.4499511719</ele>
        <time>2009-06-03T15:28:11Z</time>
      </trkpt>
      <trkpt lat="44.90567" lon="5.33773">
        <ele>1425.2669677734</ele>
        <time>2009-06-03T15:28:28Z</time>
      </trkpt>
      <trkpt lat="44.90568" lon="5.3376">
        <ele>1425.8179931641</ele>
        <time>2009-06-03T15:28:30Z</time>
      </trkpt>
      <trkpt lat="44.90578" lon="5.33648">
        <ele>1428.6889648438</ele>
        <time>2009-06-03T15:28:48Z</time>
      </trkpt>
      <trkpt lat="44.90584" lon="5.33591">
        <ele>1430.1590576172</ele>
        <time>2009-06-03T15:28:58Z</time>
      </trkpt>
      <trkpt lat="44.90589" lon="5.33555">
        <ele>1429.5369873047</ele>
        <time>2009-06-03T15:29:05Z</time>
      </trkpt>
      <trkpt lat="44.906" lon="5.33517">
        <ele>1429.6820068359</ele>
        <time>2009-06-03T15:29:12Z</time>
      </trkpt>
      <trkpt lat="44.90613" lon="5.33501">
        <ele>1426.3800048828</ele>
        <time>2009-06-03T15:29:15Z</time>
      </trkpt>
      <trkpt lat="44.90637" lon="5.33494">
        <ele>1425.5500488281</ele>
        <time>2009-06-03T15:29:19Z</time>
      </trkpt>
      <trkpt lat="44.9068" lon="5.33494">
        <ele>1420.3380126953</ele>
        <time>2009-06-03T15:29:25Z</time>
      </trkpt>
      <trkpt lat="44.90714" lon="5.33494">
        <ele>1419</ele>
        <time>2009-06-03T15:29:29Z</time>
      </trkpt>
      <trkpt lat="44.90747" lon="5.33485">
        <ele>1416.4449462891</ele>
        <time>2009-06-03T15:29:33Z</time>
      </trkpt>
      <trkpt lat="44.90754" lon="5.33478">
        <ele>1415.3179931641</ele>
        <time>2009-06-03T15:29:34Z</time>
      </trkpt>
      <trkpt lat="44.90791" lon="5.33442">
        <ele>1411.7330322266</ele>
        <time>2009-06-03T15:29:41Z</time>
      </trkpt>
      <trkpt lat="44.90837" lon="5.33395">
        <ele>1412.1259765625</ele>
        <time>2009-06-03T15:29:45Z</time>
      </trkpt>
      <trkpt lat="44.9087" lon="5.33347">
        <ele>1410.7449951172</ele>
        <time>2009-06-03T15:29:50Z</time>
      </trkpt>
      <trkpt lat="44.90878" lon="5.33312">
        <ele>1408.2740478516</ele>
        <time>2009-06-03T15:29:53Z</time>
      </trkpt>
      <trkpt lat="44.90886" lon="5.33284">
        <ele>1406.9599609375</ele>
        <time>2009-06-03T15:29:55Z</time>
      </trkpt>
      <trkpt lat="44.9091" lon="5.3326">
        <ele>1405.1810302734</ele>
        <time>2009-06-03T15:29:58Z</time>
      </trkpt>
      <trkpt lat="44.90928" lon="5.33258">
        <ele>1404.0729980469</ele>
        <time>2009-06-03T15:30:00Z</time>
      </trkpt>
      <trkpt lat="44.90945" lon="5.3326">
        <ele>1404.9530029297</ele>
        <time>2009-06-03T15:30:02Z</time>
      </trkpt>
      <trkpt lat="44.90978" lon="5.3325">
        <ele>1403.5140380859</ele>
        <time>2009-06-03T15:30:06Z</time>
      </trkpt>
      <trkpt lat="44.9099" lon="5.33233">
        <ele>1402.2359619141</ele>
        <time>2009-06-03T15:30:08Z</time>
      </trkpt>
      <trkpt lat="44.91001" lon="5.33213">
        <ele>1400.2130126953</ele>
        <time>2009-06-03T15:30:10Z</time>
      </trkpt>
      <trkpt lat="44.91029" lon="5.33179">
        <ele>1399.6829833984</ele>
        <time>2009-06-03T15:30:14Z</time>
      </trkpt>
      <trkpt lat="44.91083" lon="5.33137">
        <ele>1399.5279541016</ele>
        <time>2009-06-03T15:30:22Z</time>
      </trkpt>
      <trkpt lat="44.91089" lon="5.33113">
        <ele>1398.833984375</ele>
        <time>2009-06-03T15:30:24Z</time>
      </trkpt>
      <trkpt lat="44.91093" lon="5.33088">
        <ele>1398.7409667969</ele>
        <time>2009-06-03T15:30:26Z</time>
      </trkpt>
      <trkpt lat="44.91093" lon="5.33024">
        <ele>1397.3289794922</ele>
        <time>2009-06-03T15:30:31Z</time>
      </trkpt>
      <trkpt lat="44.91053" lon="5.32894">
        <ele>1391.7139892578</ele>
        <time>2009-06-03T15:30:41Z</time>
      </trkpt>
      <trkpt lat="44.9104" lon="5.32854">
        <ele>1390.4360351562</ele>
        <time>2009-06-03T15:30:44Z</time>
      </trkpt>
      <trkpt lat="44.91035" lon="5.3284">
        <ele>1390.1459960938</ele>
        <time>2009-06-03T15:30:45Z</time>
      </trkpt>
      <trkpt lat="44.90999" lon="5.32767">
        <ele>1387.5240478516</ele>
        <time>2009-06-03T15:30:51Z</time>
      </trkpt>
      <trkpt lat="44.90968" lon="5.32668">
        <ele>1379.2619628906</ele>
        <time>2009-06-03T15:30:58Z</time>
      </trkpt>
      <trkpt lat="44.90974" lon="5.32632">
        <ele>1377.7139892578</ele>
        <time>2009-06-03T15:31:00Z</time>
      </trkpt>
      <trkpt lat="44.90988" lon="5.32605">
        <ele>1375.4670410156</ele>
        <time>2009-06-03T15:31:02Z</time>
      </trkpt>
      <trkpt lat="44.91014" lon="5.32543">
        <ele>1371.3630371094</ele>
        <time>2009-06-03T15:31:06Z</time>
      </trkpt>
      <trkpt lat="44.91068" lon="5.3252">
        <ele>1367.791015625</ele>
        <time>2009-06-03T15:31:10Z</time>
      </trkpt>
      <trkpt lat="44.91117" lon="5.32521">
        <ele>1365.2399902344</ele>
        <time>2009-06-03T15:31:14Z</time>
      </trkpt>
      <trkpt lat="44.91242" lon="5.32523">
        <ele>1354.29296875</ele>
        <time>2009-06-03T15:31:24Z</time>
      </trkpt>
      <trkpt lat="44.91279" lon="5.3252">
        <ele>1352.3669433594</ele>
        <time>2009-06-03T15:31:27Z</time>
      </trkpt>
      <trkpt lat="44.91381" lon="5.32535">
        <ele>1344.1629638672</ele>
        <time>2009-06-03T15:31:35Z</time>
      </trkpt>
      <trkpt lat="44.91394" lon="5.32539">
        <ele>1344.1140136719</ele>
        <time>2009-06-03T15:31:36Z</time>
      </trkpt>
      <trkpt lat="44.91502" lon="5.32526">
        <ele>1336.3979492188</ele>
        <time>2009-06-03T15:31:44Z</time>
      </trkpt>
      <trkpt lat="44.91596" lon="5.3249">
        <ele>1329.0340576172</ele>
        <time>2009-06-03T15:31:51Z</time>
      </trkpt>
      <trkpt lat="44.91679" lon="5.32505">
        <ele>1320.2309570312</ele>
        <time>2009-06-03T15:31:57Z</time>
      </trkpt>
      <trkpt lat="44.91692" lon="5.32514">
        <ele>1320.4560546875</ele>
        <time>2009-06-03T15:31:58Z</time>
      </trkpt>
      <trkpt lat="44.9175" lon="5.32525">
        <ele>1316.7370605469</ele>
        <time>2009-06-03T15:32:02Z</time>
      </trkpt>
      <trkpt lat="44.91806" lon="5.32511">
        <ele>1312.8659667969</ele>
        <time>2009-06-03T15:32:06Z</time>
      </trkpt>
      <trkpt lat="44.91892" lon="5.32524">
        <ele>1307.4739990234</ele>
        <time>2009-06-03T15:32:12Z</time>
      </trkpt>
      <trkpt lat="44.91962" lon="5.32507">
        <ele>1301.6979980469</ele>
        <time>2009-06-03T15:32:17Z</time>
      </trkpt>
      <trkpt lat="44.92021" lon="5.32452">
        <ele>1297.375</ele>
        <time>2009-06-03T15:32:22Z</time>
      </trkpt>
      <trkpt lat="44.92032" lon="5.32419">
        <ele>1295.95703125</ele>
        <time>2009-06-03T15:32:24Z</time>
      </trkpt>
      <trkpt lat="44.92074" lon="5.32379">
        <ele>1294.6800537109</ele>
        <time>2009-06-03T15:32:28Z</time>
      </trkpt>
      <trkpt lat="44.92156" lon="5.32398">
        <ele>1292.9150390625</ele>
        <time>2009-06-03T15:32:35Z</time>
      </trkpt>
      <trkpt lat="44.92216" lon="5.32426">
        <ele>1288.333984375</ele>
        <time>2009-06-03T15:32:40Z</time>
      </trkpt>
      <trkpt lat="44.92264" lon="5.32437">
        <ele>1284.7679443359</ele>
        <time>2009-06-03T15:32:44Z</time>
      </trkpt>
      <trkpt lat="44.92393" lon="5.32435">
        <ele>1276.5949707031</ele>
        <time>2009-06-03T15:32:54Z</time>
      </trkpt>
      <trkpt lat="44.92419" lon="5.32434">
        <ele>1274.3100585938</ele>
        <time>2009-06-03T15:32:56Z</time>
      </trkpt>
      <trkpt lat="44.92482" lon="5.3247">
        <ele>1270.0999755859</ele>
        <time>2009-06-03T15:33:01Z</time>
      </trkpt>
      <trkpt lat="44.92553" lon="5.32492">
        <ele>1264.6429443359</ele>
        <time>2009-06-03T15:33:06Z</time>
      </trkpt>
      <trkpt lat="44.92596" lon="5.32482">
        <ele>1261.0930175781</ele>
        <time>2009-06-03T15:33:09Z</time>
      </trkpt>
      <trkpt lat="44.92682" lon="5.32482">
        <ele>1255.6479492188</ele>
        <time>2009-06-03T15:33:15Z</time>
      </trkpt>
      <trkpt lat="44.92694" lon="5.32472">
        <ele>1255.0830078125</ele>
        <time>2009-06-03T15:33:16Z</time>
      </trkpt>
      <trkpt lat="44.92794" lon="5.32341">
        <ele>1245.8199462891</ele>
        <time>2009-06-03T15:33:26Z</time>
      </trkpt>
      <trkpt lat="44.92817" lon="5.32319">
        <ele>1243.7419433594</ele>
        <time>2009-06-03T15:33:28Z</time>
      </trkpt>
      <trkpt lat="44.92841" lon="5.32297">
        <ele>1240.6359863281</ele>
        <time>2009-06-03T15:33:30Z</time>
      </trkpt>
      <trkpt lat="44.9291" lon="5.3227">
        <ele>1237.4620361328</ele>
        <time>2009-06-03T15:33:35Z</time>
      </trkpt>
      <trkpt lat="44.93019" lon="5.32236">
        <ele>1228.6479492188</ele>
        <time>2009-06-03T15:33:43Z</time>
      </trkpt>
      <trkpt lat="44.93057" lon="5.32237">
        <ele>1226.8530273438</ele>
        <time>2009-06-03T15:33:46Z</time>
      </trkpt>
      <trkpt lat="44.93093" lon="5.32264">
        <ele>1224.4549560547</ele>
        <time>2009-06-03T15:33:49Z</time>
      </trkpt>
      <trkpt lat="44.9311" lon="5.32295">
        <ele>1223.7979736328</ele>
        <time>2009-06-03T15:33:51Z</time>
      </trkpt>
      <trkpt lat="44.93187" lon="5.32344">
        <ele>1216.8120117188</ele>
        <time>2009-06-03T15:33:57Z</time>
      </trkpt>
      <trkpt lat="44.93244" lon="5.32345">
        <ele>1211.8649902344</ele>
        <time>2009-06-03T15:34:01Z</time>
      </trkpt>
      <trkpt lat="44.9332" lon="5.32338">
        <ele>1212.6540527344</ele>
        <time>2009-06-03T15:34:07Z</time>
      </trkpt>
      <trkpt lat="44.93322" lon="5.32332">
        <ele>1212.0949707031</ele>
        <time>2009-06-03T15:34:11Z</time>
      </trkpt>
      <trkpt lat="44.93316" lon="5.32325">
        <ele>1211.8869628906</ele>
        <time>2009-06-03T15:34:12Z</time>
      </trkpt>
      <trkpt lat="44.93275" lon="5.32314">
        <ele>1209.8449707031</ele>
        <time>2009-06-03T15:34:17Z</time>
      </trkpt>
      <trkpt lat="44.93229" lon="5.3232">
        <ele>1207.4599609375</ele>
        <time>2009-06-03T15:34:22Z</time>
      </trkpt>
      <trkpt lat="44.93185" lon="5.32308">
        <ele>1205.2590332031</ele>
        <time>2009-06-03T15:34:27Z</time>
      </trkpt>
      <trkpt lat="44.93166" lon="5.32248">
        <ele>1202.8680419922</ele>
        <time>2009-06-03T15:34:31Z</time>
      </trkpt>
      <trkpt lat="44.93158" lon="5.32206">
        <ele>1201.9470214844</ele>
        <time>2009-06-03T15:34:34Z</time>
      </trkpt>
      <trkpt lat="44.93122" lon="5.32131">
        <ele>1199.3270263672</ele>
        <time>2009-06-03T15:34:40Z</time>
      </trkpt>
      <trkpt lat="44.93112" lon="5.32126">
        <ele>1199.2120361328</ele>
        <time>2009-06-03T15:34:41Z</time>
      </trkpt>
      <trkpt lat="44.93059" lon="5.32096">
        <ele>1197.2889404297</ele>
        <time>2009-06-03T15:34:46Z</time>
      </trkpt>
      <trkpt lat="44.93026" lon="5.32085">
        <ele>1195.8580322266</ele>
        <time>2009-06-03T15:34:49Z</time>
      </trkpt>
      <trkpt lat="44.92952" lon="5.32075">
        <ele>1192.9320068359</ele>
        <time>2009-06-03T15:34:55Z</time>
      </trkpt>
      <trkpt lat="44.92929" lon="5.32074">
        <ele>1192.4470214844</ele>
        <time>2009-06-03T15:34:57Z</time>
      </trkpt>
      <trkpt lat="44.9287" lon="5.32083">
        <ele>1190.1190185547</ele>
        <time>2009-06-03T15:35:02Z</time>
      </trkpt>
      <trkpt lat="44.92816" lon="5.3211">
        <ele>1187.3740234375</ele>
        <time>2009-06-03T15:35:07Z</time>
      </trkpt>
      <trkpt lat="44.92796" lon="5.32122">
        <ele>1186.4239501953</ele>
        <time>2009-06-03T15:35:09Z</time>
      </trkpt>
      <trkpt lat="44.92775" lon="5.32112">
        <ele>1185.2810058594</ele>
        <time>2009-06-03T15:35:12Z</time>
      </trkpt>
      <trkpt lat="44.92769" lon="5.32089">
        <ele>1185.4410400391</ele>
        <time>2009-06-03T15:35:14Z</time>
      </trkpt>
      <trkpt lat="44.92805" lon="5.3203">
        <ele>1185.0810546875</ele>
        <time>2009-06-03T15:35:20Z</time>
      </trkpt>
      <trkpt lat="44.92835" lon="5.32001">
        <ele>1185.0389404297</ele>
        <time>2009-06-03T15:35:24Z</time>
      </trkpt>
      <trkpt lat="44.92852" lon="5.31976">
        <ele>1184.8669433594</ele>
        <time>2009-06-03T15:35:27Z</time>
      </trkpt>
      <trkpt lat="44.92875" lon="5.31943">
        <ele>1184.9040527344</ele>
        <time>2009-06-03T15:35:31Z</time>
      </trkpt>
      <trkpt lat="44.9292" lon="5.31919">
        <ele>1183.6760253906</ele>
        <time>2009-06-03T15:35:37Z</time>
      </trkpt>
      <trkpt lat="44.92946" lon="5.31905">
        <ele>1182.5570068359</ele>
        <time>2009-06-03T15:35:40Z</time>
      </trkpt>
      <trkpt lat="44.92976" lon="5.31899">
        <ele>1180.8840332031</ele>
        <time>2009-06-03T15:35:43Z</time>
      </trkpt>
      <trkpt lat="44.93056" lon="5.31888">
        <ele>1176.7020263672</ele>
        <time>2009-06-03T15:35:50Z</time>
      </trkpt>
      <trkpt lat="44.93092" lon="5.31888">
        <ele>1175.0100097656</ele>
        <time>2009-06-03T15:35:53Z</time>
      </trkpt>
      <trkpt lat="44.9314" lon="5.31893">
        <ele>1171.5229492188</ele>
        <time>2009-06-03T15:35:57Z</time>
      </trkpt>
      <trkpt lat="44.93212" lon="5.31872">
        <ele>1169.8530273438</ele>
        <time>2009-06-03T15:36:04Z</time>
      </trkpt>
      <trkpt lat="44.93225" lon="5.31851">
        <ele>1169.1729736328</ele>
        <time>2009-06-03T15:36:06Z</time>
      </trkpt>
      <trkpt lat="44.93271" lon="5.31767">
        <ele>1166.5</ele>
        <time>2009-06-03T15:36:13Z</time>
      </trkpt>
      <trkpt lat="44.933" lon="5.31722">
        <ele>1164.6240234375</ele>
        <time>2009-06-03T15:36:17Z</time>
      </trkpt>
      <trkpt lat="44.9333" lon="5.31702">
        <ele>1163.2740478516</ele>
        <time>2009-06-03T15:36:20Z</time>
      </trkpt>
      <trkpt lat="44.93387" lon="5.31648">
        <ele>1163.8830566406</ele>
        <time>2009-06-03T15:36:27Z</time>
      </trkpt>
      <trkpt lat="44.93367" lon="5.31588">
        <ele>1163.5649414062</ele>
        <time>2009-06-03T15:36:32Z</time>
      </trkpt>
      <trkpt lat="44.93351" lon="5.31534">
        <ele>1164.2320556641</ele>
        <time>2009-06-03T15:36:37Z</time>
      </trkpt>
      <trkpt lat="44.93353" lon="5.31522">
        <ele>1164.2559814453</ele>
        <time>2009-06-03T15:36:38Z</time>
      </trkpt>
      <trkpt lat="44.93369" lon="5.31453">
        <ele>1164.4329833984</ele>
        <time>2009-06-03T15:36:44Z</time>
      </trkpt>
      <trkpt lat="44.93398" lon="5.31403">
        <ele>1164.5520019531</ele>
        <time>2009-06-03T15:36:50Z</time>
      </trkpt>
      <trkpt lat="44.9343" lon="5.31398">
        <ele>1164.9659423828</ele>
        <time>2009-06-03T15:36:54Z</time>
      </trkpt>
      <trkpt lat="44.93446" lon="5.31396">
        <ele>1165.166015625</ele>
        <time>2009-06-03T15:36:56Z</time>
      </trkpt>
      <trkpt lat="44.93493" lon="5.31347">
        <ele>1165.4790039062</ele>
        <time>2009-06-03T15:37:04Z</time>
      </trkpt>
      <trkpt lat="44.93508" lon="5.31233">
        <ele>1165.6970214844</ele>
        <time>2009-06-03T15:37:14Z</time>
      </trkpt>
      <trkpt lat="44.93513" lon="5.31197">
        <ele>1165.54296875</ele>
        <time>2009-06-03T15:37:17Z</time>
      </trkpt>
      <trkpt lat="44.9351" lon="5.3115">
        <ele>1164.4310302734</ele>
        <time>2009-06-03T15:37:21Z</time>
      </trkpt>
      <trkpt lat="44.93488" lon="5.31057">
        <ele>1161.2049560547</ele>
        <time>2009-06-03T15:37:29Z</time>
      </trkpt>
      <trkpt lat="44.93467" lon="5.31005">
        <ele>1159.0340576172</ele>
        <time>2009-06-03T15:37:33Z</time>
      </trkpt>
      <trkpt lat="44.93457" lon="5.30981">
        <ele>1157.83203125</ele>
        <time>2009-06-03T15:37:35Z</time>
      </trkpt>
      <trkpt lat="44.93446" lon="5.30921">
        <ele>1155.6290283203</ele>
        <time>2009-06-03T15:37:40Z</time>
      </trkpt>
      <trkpt lat="44.93481" lon="5.30824">
        <ele>1152.2270507812</ele>
        <time>2009-06-03T15:37:47Z</time>
      </trkpt>
      <trkpt lat="44.93518" lon="5.30774">
        <ele>1149.0159912109</ele>
        <time>2009-06-03T15:37:52Z</time>
      </trkpt>
      <trkpt lat="44.9363" lon="5.30699">
        <ele>1143.5579833984</ele>
        <time>2009-06-03T15:38:02Z</time>
      </trkpt>
      <trkpt lat="44.93641" lon="5.30692">
        <ele>1142.6750488281</ele>
        <time>2009-06-03T15:38:03Z</time>
      </trkpt>
      <trkpt lat="44.93712" lon="5.30693">
        <ele>1140.5500488281</ele>
        <time>2009-06-03T15:38:09Z</time>
      </trkpt>
      <trkpt lat="44.9375" lon="5.30729">
        <ele>1139.1719970703</ele>
        <time>2009-06-03T15:38:13Z</time>
      </trkpt>
      <trkpt lat="44.93788" lon="5.30763">
        <ele>1138.6910400391</ele>
        <time>2009-06-03T15:38:17Z</time>
      </trkpt>
      <trkpt lat="44.93816" lon="5.30792">
        <ele>1137.4630126953</ele>
        <time>2009-06-03T15:38:20Z</time>
      </trkpt>
      <trkpt lat="44.93839" lon="5.3083">
        <ele>1135.5780029297</ele>
        <time>2009-06-03T15:38:23Z</time>
      </trkpt>
      <trkpt lat="44.93862" lon="5.30868">
        <ele>1133.7199707031</ele>
        <time>2009-06-03T15:38:26Z</time>
      </trkpt>
      <trkpt lat="44.93918" lon="5.30906">
        <ele>1128.1929931641</ele>
        <time>2009-06-03T15:38:32Z</time>
      </trkpt>
      <trkpt lat="44.93985" lon="5.30866">
        <ele>1122.8170166016</ele>
        <time>2009-06-03T15:38:38Z</time>
      </trkpt>
      <trkpt lat="44.94035" lon="5.30863">
        <ele>1117.7120361328</ele>
        <time>2009-06-03T15:38:42Z</time>
      </trkpt>
      <trkpt lat="44.94073" lon="5.3087">
        <ele>1115.4439697266</ele>
        <time>2009-06-03T15:38:45Z</time>
      </trkpt>
      <trkpt lat="44.94163" lon="5.309">
        <ele>1114.8869628906</ele>
        <time>2009-06-03T15:38:52Z</time>
      </trkpt>
      <trkpt lat="44.94241" lon="5.3091">
        <ele>1118.583984375</ele>
        <time>2009-06-03T15:38:59Z</time>
      </trkpt>
      <trkpt lat="44.94282" lon="5.30879">
        <ele>1120.0629882812</ele>
        <time>2009-06-03T15:39:03Z</time>
      </trkpt>
      <trkpt lat="44.94342" lon="5.3088">
        <ele>1122.4289550781</ele>
        <time>2009-06-03T15:39:10Z</time>
      </trkpt>
      <trkpt lat="44.94407" lon="5.30917">
        <ele>1124.6610107422</ele>
        <time>2009-06-03T15:39:19Z</time>
      </trkpt>
      <trkpt lat="44.94469" lon="5.30957">
        <ele>1126.4610595703</ele>
        <time>2009-06-03T15:39:29Z</time>
      </trkpt>
      <trkpt lat="44.94524" lon="5.3099">
        <ele>1129.2110595703</ele>
        <time>2009-06-03T15:39:40Z</time>
      </trkpt>
      <trkpt lat="44.94545" lon="5.31">
        <ele>1130.2299804688</ele>
        <time>2009-06-03T15:39:45Z</time>
      </trkpt>
      <trkpt lat="44.94562" lon="5.31008">
        <ele>1131.6130371094</ele>
        <time>2009-06-03T15:39:49Z</time>
      </trkpt>
      <trkpt lat="44.94571" lon="5.3101">
        <ele>1132.1519775391</ele>
        <time>2009-06-03T15:39:51Z</time>
      </trkpt>
      <trkpt lat="44.94577" lon="5.31011">
        <ele>1132.2550048828</ele>
        <time>2009-06-03T15:39:53Z</time>
      </trkpt>
      <trkpt lat="44.94596" lon="5.31015">
        <ele>1132.9820556641</ele>
        <time>2009-06-03T15:39:58Z</time>
      </trkpt>
      <trkpt lat="44.9464" lon="5.31015">
        <ele>1133.9699707031</ele>
        <time>2009-06-03T15:40:08Z</time>
      </trkpt>
      <trkpt lat="44.94689" lon="5.31012">
        <ele>1138.2299804688</ele>
        <time>2009-06-03T15:40:20Z</time>
      </trkpt>
      <trkpt lat="44.94698" lon="5.31011">
        <ele>1138.8540039062</ele>
        <time>2009-06-03T15:40:22Z</time>
      </trkpt>
      <trkpt lat="44.94745" lon="5.31005">
        <ele>1141.0849609375</ele>
        <time>2009-06-03T15:40:33Z</time>
      </trkpt>
      <trkpt lat="44.94756" lon="5.31004">
        <ele>1141.2650146484</ele>
        <time>2009-06-03T15:40:36Z</time>
      </trkpt>
      <trkpt lat="44.94801" lon="5.30998">
        <ele>1144.8570556641</ele>
        <time>2009-06-03T15:40:48Z</time>
      </trkpt>
      <trkpt lat="44.94841" lon="5.30989">
        <ele>1146.5290527344</ele>
        <time>2009-06-03T15:40:59Z</time>
      </trkpt>
      <trkpt lat="44.94848" lon="5.30986">
        <ele>1146.8160400391</ele>
        <time>2009-06-03T15:41:01Z</time>
      </trkpt>
      <trkpt lat="44.94923" lon="5.30939">
        <ele>1149.91796875</ele>
        <time>2009-06-03T15:41:21Z</time>
      </trkpt>
      <trkpt lat="44.94951" lon="5.30918">
        <ele>1150.876953125</ele>
        <time>2009-06-03T15:41:29Z</time>
      </trkpt>
      <trkpt lat="44.95" lon="5.30906">
        <ele>1151.791015625</ele>
        <time>2009-06-03T15:41:40Z</time>
      </trkpt>
      <trkpt lat="44.95083" lon="5.30877">
        <ele>1154.6450195312</ele>
        <time>2009-06-03T15:41:59Z</time>
      </trkpt>
      <trkpt lat="44.95095" lon="5.30873">
        <ele>1155.8709716797</ele>
        <time>2009-06-03T15:42:02Z</time>
      </trkpt>
      <trkpt lat="44.95103" lon="5.30867">
        <ele>1156.6429443359</ele>
        <time>2009-06-03T15:42:04Z</time>
      </trkpt>
      <trkpt lat="44.95116" lon="5.30854">
        <ele>1157.7590332031</ele>
        <time>2009-06-03T15:42:08Z</time>
      </trkpt>
      <trkpt lat="44.95123" lon="5.30848">
        <ele>1157.9239501953</ele>
        <time>2009-06-03T15:42:10Z</time>
      </trkpt>
      <trkpt lat="44.9514" lon="5.30831">
        <ele>1158.8399658203</ele>
        <time>2009-06-03T15:42:15Z</time>
      </trkpt>
      <trkpt lat="44.95162" lon="5.30817">
        <ele>1160.7769775391</ele>
        <time>2009-06-03T15:42:21Z</time>
      </trkpt>
      <trkpt lat="44.95189" lon="5.30805">
        <ele>1161.7249755859</ele>
        <time>2009-06-03T15:42:28Z</time>
      </trkpt>
      <trkpt lat="44.9524" lon="5.30762">
        <ele>1165.0529785156</ele>
        <time>2009-06-03T15:42:44Z</time>
      </trkpt>
      <trkpt lat="44.95257" lon="5.30742">
        <ele>1166.2020263672</ele>
        <time>2009-06-03T15:42:50Z</time>
      </trkpt>
      <trkpt lat="44.95263" lon="5.30734">
        <ele>1166.498046875</ele>
        <time>2009-06-03T15:42:52Z</time>
      </trkpt>
      <trkpt lat="44.95269" lon="5.30726">
        <ele>1166.5989990234</ele>
        <time>2009-06-03T15:42:54Z</time>
      </trkpt>
      <trkpt lat="44.95275" lon="5.30719">
        <ele>1166.5529785156</ele>
        <time>2009-06-03T15:42:56Z</time>
      </trkpt>
      <trkpt lat="44.95291" lon="5.30705">
        <ele>1167.2769775391</ele>
        <time>2009-06-03T15:43:01Z</time>
      </trkpt>
      <trkpt lat="44.95308" lon="5.30698">
        <ele>1167.7700195312</ele>
        <time>2009-06-03T15:43:05Z</time>
      </trkpt>
      <trkpt lat="44.95329" lon="5.3069">
        <ele>1168.6510009766</ele>
        <time>2009-06-03T15:43:10Z</time>
      </trkpt>
      <trkpt lat="44.95348" lon="5.30666">
        <ele>1169.3830566406</ele>
        <time>2009-06-03T15:43:15Z</time>
      </trkpt>
      <trkpt lat="44.95359" lon="5.30643">
        <ele>1169.5260009766</ele>
        <time>2009-06-03T15:43:19Z</time>
      </trkpt>
      <trkpt lat="44.95367" lon="5.30624">
        <ele>1169.0939941406</ele>
        <time>2009-06-03T15:43:22Z</time>
      </trkpt>
      <trkpt lat="44.95422" lon="5.30521">
        <ele>1169.7679443359</ele>
        <time>2009-06-03T15:43:38Z</time>
      </trkpt>
      <trkpt lat="44.95435" lon="5.30507">
        <ele>1171.1669921875</ele>
        <time>2009-06-03T15:43:41Z</time>
      </trkpt>
      <trkpt lat="44.95478" lon="5.3046">
        <ele>1172.3189697266</ele>
        <time>2009-06-03T15:43:51Z</time>
      </trkpt>
      <trkpt lat="44.95512" lon="5.3041">
        <ele>1173.9189453125</ele>
        <time>2009-06-03T15:43:59Z</time>
      </trkpt>
      <trkpt lat="44.95557" lon="5.30299">
        <ele>1173.5119628906</ele>
        <time>2009-06-03T15:44:12Z</time>
      </trkpt>
      <trkpt lat="44.95595" lon="5.30202">
        <ele>1174.3640136719</ele>
        <time>2009-06-03T15:44:23Z</time>
      </trkpt>
      <trkpt lat="44.95625" lon="5.30125">
        <ele>1174.1240234375</ele>
        <time>2009-06-03T15:44:32Z</time>
      </trkpt>
      <trkpt lat="44.95632" lon="5.30109">
        <ele>1173.9479980469</ele>
        <time>2009-06-03T15:44:34Z</time>
      </trkpt>
      <trkpt lat="44.95638" lon="5.30093">
        <ele>1173.708984375</ele>
        <time>2009-06-03T15:44:36Z</time>
      </trkpt>
      <trkpt lat="44.9567" lon="5.29974">
        <ele>1176.2359619141</ele>
        <time>2009-06-03T15:44:50Z</time>
      </trkpt>
      <trkpt lat="44.95682" lon="5.29924">
        <ele>1177.7869873047</ele>
        <time>2009-06-03T15:44:56Z</time>
      </trkpt>
      <trkpt lat="44.95693" lon="5.29879">
        <ele>1178.3129882812</ele>
        <time>2009-06-03T15:45:01Z</time>
      </trkpt>
      <trkpt lat="44.957" lon="5.29852">
        <ele>1178.0830078125</ele>
        <time>2009-06-03T15:45:04Z</time>
      </trkpt>
      <trkpt lat="44.95721" lon="5.29757">
        <ele>1177.7209472656</ele>
        <time>2009-06-03T15:45:15Z</time>
      </trkpt>
      <trkpt lat="44.95703" lon="5.29644">
        <ele>1177.7640380859</ele>
        <time>2009-06-03T15:45:29Z</time>
      </trkpt>
      <trkpt lat="44.95671" lon="5.29532">
        <ele>1177.8360595703</ele>
        <time>2009-06-03T15:45:43Z</time>
      </trkpt>
      <trkpt lat="44.9567" lon="5.29504">
        <ele>1177.6180419922</ele>
        <time>2009-06-03T15:45:46Z</time>
      </trkpt>
      <trkpt lat="44.95657" lon="5.29459">
        <ele>1175.5290527344</ele>
        <time>2009-06-03T15:45:51Z</time>
      </trkpt>
      <trkpt lat="44.95653" lon="5.29455">
        <ele>1174.5600585938</ele>
        <time>2009-06-03T15:45:53Z</time>
      </trkpt>
      <trkpt lat="44.95562" lon="5.29408">
        <ele>1166.3409423828</ele>
        <time>2009-06-03T15:46:02Z</time>
      </trkpt>
      <trkpt lat="44.95541" lon="5.29396">
        <ele>1164.0749511719</ele>
        <time>2009-06-03T15:46:04Z</time>
      </trkpt>
      <trkpt lat="44.95458" lon="5.29335">
        <ele>1156.5109863281</ele>
        <time>2009-06-03T15:46:12Z</time>
      </trkpt>
      <trkpt lat="44.95436" lon="5.29319">
        <ele>1153.6989746094</ele>
        <time>2009-06-03T15:46:14Z</time>
      </trkpt>
      <trkpt lat="44.95425" lon="5.29311">
        <ele>1152.9610595703</ele>
        <time>2009-06-03T15:46:15Z</time>
      </trkpt>
      <trkpt lat="44.95321" lon="5.29253">
        <ele>1142.7989501953</ele>
        <time>2009-06-03T15:46:23Z</time>
      </trkpt>
      <trkpt lat="44.95206" lon="5.29201">
        <ele>1133.2120361328</ele>
        <time>2009-06-03T15:46:31Z</time>
      </trkpt>
      <trkpt lat="44.95166" lon="5.29177">
        <ele>1130.4680175781</ele>
        <time>2009-06-03T15:46:34Z</time>
      </trkpt>
      <trkpt lat="44.95153" lon="5.29166">
        <ele>1129.8830566406</ele>
        <time>2009-06-03T15:46:35Z</time>
      </trkpt>
      <trkpt lat="44.95043" lon="5.29049">
        <ele>1119.4620361328</ele>
        <time>2009-06-03T15:46:44Z</time>
      </trkpt>
      <trkpt lat="44.94934" lon="5.28995">
        <ele>1106.6049804688</ele>
        <time>2009-06-03T15:46:51Z</time>
      </trkpt>
      <trkpt lat="44.94902" lon="5.28979">
        <ele>1104.0159912109</ele>
        <time>2009-06-03T15:46:53Z</time>
      </trkpt>
      <trkpt lat="44.9487" lon="5.28963">
        <ele>1103.1560058594</ele>
        <time>2009-06-03T15:46:55Z</time>
      </trkpt>
      <trkpt lat="44.94839" lon="5.28902">
        <ele>1097.9849853516</ele>
        <time>2009-06-03T15:46:59Z</time>
      </trkpt>
      <trkpt lat="44.94814" lon="5.28803">
        <ele>1091.5989990234</ele>
        <time>2009-06-03T15:47:04Z</time>
      </trkpt>
      <trkpt lat="44.94792" lon="5.28774">
        <ele>1090.0539550781</ele>
        <time>2009-06-03T15:47:06Z</time>
      </trkpt>
      <trkpt lat="44.94754" lon="5.28744">
        <ele>1088.6390380859</ele>
        <time>2009-06-03T15:47:09Z</time>
      </trkpt>
      <trkpt lat="44.94687" lon="5.28723">
        <ele>1086.9949951172</ele>
        <time>2009-06-03T15:47:14Z</time>
      </trkpt>
      <trkpt lat="44.94655" lon="5.28698">
        <ele>1088.3800048828</ele>
        <time>2009-06-03T15:47:17Z</time>
      </trkpt>
      <trkpt lat="44.9456" lon="5.28635">
        <ele>1091.8540039062</ele>
        <time>2009-06-03T15:47:27Z</time>
      </trkpt>
      <trkpt lat="44.94472" lon="5.2863">
        <ele>1093.70703125</ele>
        <time>2009-06-03T15:47:38Z</time>
      </trkpt>
      <trkpt lat="44.94399" lon="5.28638">
        <ele>1095.0909423828</ele>
        <time>2009-06-03T15:47:49Z</time>
      </trkpt>
      <trkpt lat="44.94386" lon="5.28639">
        <ele>1096.623046875</ele>
        <time>2009-06-03T15:47:51Z</time>
      </trkpt>
      <trkpt lat="44.9437" lon="5.2863">
        <ele>1096.8940429688</ele>
        <time>2009-06-03T15:47:54Z</time>
      </trkpt>
      <trkpt lat="44.94333" lon="5.28585">
        <ele>1097.4610595703</ele>
        <time>2009-06-03T15:48:02Z</time>
      </trkpt>
      <trkpt lat="44.9431" lon="5.2856">
        <ele>1098.4029541016</ele>
        <time>2009-06-03T15:48:07Z</time>
      </trkpt>
      <trkpt lat="44.94264" lon="5.28542">
        <ele>1098.9360351562</ele>
        <time>2009-06-03T15:48:16Z</time>
      </trkpt>
      <trkpt lat="44.94237" lon="5.28535">
        <ele>1100.4210205078</ele>
        <time>2009-06-03T15:48:21Z</time>
      </trkpt>
      <trkpt lat="44.94207" lon="5.28527">
        <ele>1101.6450195312</ele>
        <time>2009-06-03T15:48:27Z</time>
      </trkpt>
      <trkpt lat="44.94142" lon="5.28518">
        <ele>1105.2039794922</ele>
        <time>2009-06-03T15:48:41Z</time>
      </trkpt>
      <trkpt lat="44.94102" lon="5.28516">
        <ele>1107.8149414062</ele>
        <time>2009-06-03T15:48:50Z</time>
      </trkpt>
      <trkpt lat="44.94081" lon="5.28518">
        <ele>1108.791015625</ele>
        <time>2009-06-03T15:48:55Z</time>
      </trkpt>
      <trkpt lat="44.94015" lon="5.28534">
        <ele>1112.5439453125</ele>
        <time>2009-06-03T15:49:10Z</time>
      </trkpt>
      <trkpt lat="44.93988" lon="5.28547">
        <ele>1114.0240478516</ele>
        <time>2009-06-03T15:49:16Z</time>
      </trkpt>
      <trkpt lat="44.93975" lon="5.28555">
        <ele>1115.0830078125</ele>
        <time>2009-06-03T15:49:19Z</time>
      </trkpt>
      <trkpt lat="44.93962" lon="5.28563">
        <ele>1115.7829589844</ele>
        <time>2009-06-03T15:49:22Z</time>
      </trkpt>
      <trkpt lat="44.93947" lon="5.28574">
        <ele>1117.1120605469</ele>
        <time>2009-06-03T15:49:26Z</time>
      </trkpt>
      <trkpt lat="44.93932" lon="5.28595">
        <ele>1118.2060546875</ele>
        <time>2009-06-03T15:49:31Z</time>
      </trkpt>
      <trkpt lat="44.93883" lon="5.2865">
        <ele>1120.7550048828</ele>
        <time>2009-06-03T15:49:46Z</time>
      </trkpt>
      <trkpt lat="44.93869" lon="5.28664">
        <ele>1121.7969970703</ele>
        <time>2009-06-03T15:49:50Z</time>
      </trkpt>
      <trkpt lat="44.93859" lon="5.28674">
        <ele>1122.5710449219</ele>
        <time>2009-06-03T15:49:53Z</time>
      </trkpt>
      <trkpt lat="44.93825" lon="5.28727">
        <ele>1125.4840087891</ele>
        <time>2009-06-03T15:50:07Z</time>
      </trkpt>
      <trkpt lat="44.938" lon="5.28759">
        <ele>1127.6040039062</ele>
        <time>2009-06-03T15:50:18Z</time>
      </trkpt>
      <trkpt lat="44.93755" lon="5.28748">
        <ele>1130.58203125</ele>
        <time>2009-06-03T15:50:32Z</time>
      </trkpt>
      <trkpt lat="44.93702" lon="5.28716">
        <ele>1134.1159667969</ele>
        <time>2009-06-03T15:50:50Z</time>
      </trkpt>
      <trkpt lat="44.9366" lon="5.28689">
        <ele>1136.6910400391</ele>
        <time>2009-06-03T15:51:02Z</time>
      </trkpt>
      <trkpt lat="44.93605" lon="5.28675">
        <ele>1139.9399414062</ele>
        <time>2009-06-03T15:51:16Z</time>
      </trkpt>
      <trkpt lat="44.93586" lon="5.28674">
        <ele>1140.6639404297</ele>
        <time>2009-06-03T15:51:21Z</time>
      </trkpt>
      <trkpt lat="44.93512" lon="5.28675">
        <ele>1144.2819824219</ele>
        <time>2009-06-03T15:51:40Z</time>
      </trkpt>
      <trkpt lat="44.93447" lon="5.28678">
        <ele>1147.458984375</ele>
        <time>2009-06-03T15:51:57Z</time>
      </trkpt>
      <trkpt lat="44.93369" lon="5.28707">
        <ele>1151.8480224609</ele>
        <time>2009-06-03T15:52:17Z</time>
      </trkpt>
      <trkpt lat="44.93349" lon="5.28718">
        <ele>1153.6340332031</ele>
        <time>2009-06-03T15:52:22Z</time>
      </trkpt>
      <trkpt lat="44.93321" lon="5.28735">
        <ele>1154.8289794922</ele>
        <time>2009-06-03T15:52:29Z</time>
      </trkpt>
      <trkpt lat="44.93304" lon="5.28744">
        <ele>1155.5069580078</ele>
        <time>2009-06-03T15:52:33Z</time>
      </trkpt>
      <trkpt lat="44.93288" lon="5.28754">
        <ele>1156.7180175781</ele>
        <time>2009-06-03T15:52:37Z</time>
      </trkpt>
      <trkpt lat="44.93245" lon="5.2878">
        <ele>1159.3459472656</ele>
        <time>2009-06-03T15:52:48Z</time>
      </trkpt>
      <trkpt lat="44.93217" lon="5.28796">
        <ele>1160.4990234375</ele>
        <time>2009-06-03T15:52:55Z</time>
      </trkpt>
      <trkpt lat="44.93164" lon="5.28834">
        <ele>1163.916015625</ele>
        <time>2009-06-03T15:53:11Z</time>
      </trkpt>
      <trkpt lat="44.9314" lon="5.28868">
        <ele>1166.4549560547</ele>
        <time>2009-06-03T15:53:21Z</time>
      </trkpt>
      <trkpt lat="44.93111" lon="5.28907">
        <ele>1168.3399658203</ele>
        <time>2009-06-03T15:53:34Z</time>
      </trkpt>
      <trkpt lat="44.93053" lon="5.28965">
        <ele>1171.4250488281</ele>
        <time>2009-06-03T15:53:54Z</time>
      </trkpt>
      <trkpt lat="44.93013" lon="5.29004">
        <ele>1173.7559814453</ele>
        <time>2009-06-03T15:54:08Z</time>
      </trkpt>
      <trkpt lat="44.92968" lon="5.29002">
        <ele>1176.3249511719</ele>
        <time>2009-06-03T15:54:21Z</time>
      </trkpt>
      <trkpt lat="44.92922" lon="5.28981">
        <ele>1178.4150390625</ele>
        <time>2009-06-03T15:54:34Z</time>
      </trkpt>
      <trkpt lat="44.92849" lon="5.28987">
        <ele>1181.8430175781</ele>
        <time>2009-06-03T15:54:52Z</time>
      </trkpt>
      <trkpt lat="44.92789" lon="5.28997">
        <ele>1186.3900146484</ele>
        <time>2009-06-03T15:55:09Z</time>
      </trkpt>
      <trkpt lat="44.92736" lon="5.29008">
        <ele>1190.6070556641</ele>
        <time>2009-06-03T15:55:25Z</time>
      </trkpt>
      <trkpt lat="44.9268" lon="5.29019">
        <ele>1195.2640380859</ele>
        <time>2009-06-03T15:55:41Z</time>
      </trkpt>
      <trkpt lat="44.92625" lon="5.2903">
        <ele>1199.4270019531</ele>
        <time>2009-06-03T15:55:57Z</time>
      </trkpt>
      <trkpt lat="44.9258" lon="5.29034">
        <ele>1203.0460205078</ele>
        <time>2009-06-03T15:56:12Z</time>
      </trkpt>
      <trkpt lat="44.92541" lon="5.29037">
        <ele>1206.0209960938</ele>
        <time>2009-06-03T15:56:25Z</time>
      </trkpt>
      <trkpt lat="44.92503" lon="5.29042">
        <ele>1209.6770019531</ele>
        <time>2009-06-03T15:56:40Z</time>
      </trkpt>
      <trkpt lat="44.92474" lon="5.29073">
        <ele>1212.7320556641</ele>
        <time>2009-06-03T15:56:53Z</time>
      </trkpt>
      <trkpt lat="44.92445" lon="5.29104">
        <ele>1215.16796875</ele>
        <time>2009-06-03T15:57:07Z</time>
      </trkpt>
      <trkpt lat="44.92409" lon="5.29106">
        <ele>1218.5930175781</ele>
        <time>2009-06-03T15:57:21Z</time>
      </trkpt>
      <trkpt lat="44.92369" lon="5.29096">
        <ele>1221.626953125</ele>
        <time>2009-06-03T15:57:35Z</time>
      </trkpt>
      <trkpt lat="44.92329" lon="5.29094">
        <ele>1225.1569824219</ele>
        <time>2009-06-03T15:57:49Z</time>
      </trkpt>
      <trkpt lat="44.92285" lon="5.29103">
        <ele>1228.7399902344</ele>
        <time>2009-06-03T15:58:04Z</time>
      </trkpt>
      <trkpt lat="44.92244" lon="5.29119">
        <ele>1232.4689941406</ele>
        <time>2009-06-03T15:58:18Z</time>
      </trkpt>
      <trkpt lat="44.92203" lon="5.29137">
        <ele>1235.6879882812</ele>
        <time>2009-06-03T15:58:32Z</time>
      </trkpt>
      <trkpt lat="44.92174" lon="5.29151">
        <ele>1237.9350585938</ele>
        <time>2009-06-03T15:58:43Z</time>
      </trkpt>
      <trkpt lat="44.92133" lon="5.2917">
        <ele>1241.5460205078</ele>
        <time>2009-06-03T15:58:59Z</time>
      </trkpt>
      <trkpt lat="44.92097" lon="5.29184">
        <ele>1244.6199951172</ele>
        <time>2009-06-03T15:59:13Z</time>
      </trkpt>
      <trkpt lat="44.9206" lon="5.29201">
        <ele>1247.8840332031</ele>
        <time>2009-06-03T15:59:27Z</time>
      </trkpt>
      <trkpt lat="44.9203" lon="5.29217">
        <ele>1250.4510498047</ele>
        <time>2009-06-03T15:59:38Z</time>
      </trkpt>
      <trkpt lat="44.91996" lon="5.29235">
        <ele>1252.9699707031</ele>
        <time>2009-06-03T15:59:49Z</time>
      </trkpt>
      <trkpt lat="44.91937" lon="5.2925">
        <ele>1257.8659667969</ele>
        <time>2009-06-03T16:00:07Z</time>
      </trkpt>
      <trkpt lat="44.91901" lon="5.29252">
        <ele>1261.1529541016</ele>
        <time>2009-06-03T16:00:18Z</time>
      </trkpt>
      <trkpt lat="44.91852" lon="5.29255">
        <ele>1265.2679443359</ele>
        <time>2009-06-03T16:00:33Z</time>
      </trkpt>
      <trkpt lat="44.91814" lon="5.29257">
        <ele>1268.1710205078</ele>
        <time>2009-06-03T16:00:44Z</time>
      </trkpt>
      <trkpt lat="44.91765" lon="5.29233">
        <ele>1272.0570068359</ele>
        <time>2009-06-03T16:00:59Z</time>
      </trkpt>
      <trkpt lat="44.91732" lon="5.29194">
        <ele>1275.0629882812</ele>
        <time>2009-06-03T16:01:14Z</time>
      </trkpt>
      <trkpt lat="44.917" lon="5.29156">
        <ele>1277.8449707031</ele>
        <time>2009-06-03T16:01:28Z</time>
      </trkpt>
      <trkpt lat="44.91681" lon="5.29115">
        <ele>1281.2199707031</ele>
        <time>2009-06-03T16:01:40Z</time>
      </trkpt>
      <trkpt lat="44.91689" lon="5.29075">
        <ele>1282.4899902344</ele>
        <time>2009-06-03T16:01:51Z</time>
      </trkpt>
      <trkpt lat="44.91723" lon="5.29036">
        <ele>1285.9040527344</ele>
        <time>2009-06-03T16:02:06Z</time>
      </trkpt>
      <trkpt lat="44.91762" lon="5.28989">
        <ele>1288.1020507812</ele>
        <time>2009-06-03T16:02:21Z</time>
      </trkpt>
      <trkpt lat="44.91781" lon="5.28967">
        <ele>1288.9339599609</ele>
        <time>2009-06-03T16:02:27Z</time>
      </trkpt>
      <trkpt lat="44.91793" lon="5.28958">
        <ele>1289.6739501953</ele>
        <time>2009-06-03T16:02:30Z</time>
      </trkpt>
      <trkpt lat="44.91806" lon="5.28949">
        <ele>1289.7020263672</ele>
        <time>2009-06-03T16:02:33Z</time>
      </trkpt>
      <trkpt lat="44.91821" lon="5.28939">
        <ele>1290.2380371094</ele>
        <time>2009-06-03T16:02:36Z</time>
      </trkpt>
      <trkpt lat="44.9184" lon="5.28921">
        <ele>1289.9959716797</ele>
        <time>2009-06-03T16:02:40Z</time>
      </trkpt>
      <trkpt lat="44.91844" lon="5.28899">
        <ele>1289.7619628906</ele>
        <time>2009-06-03T16:02:43Z</time>
      </trkpt>
      <trkpt lat="44.91845" lon="5.28884">
        <ele>1289.8149414062</ele>
        <time>2009-06-03T16:02:45Z</time>
      </trkpt>
      <trkpt lat="44.9182" lon="5.28825">
        <ele>1288.54296875</ele>
        <time>2009-06-03T16:02:54Z</time>
      </trkpt>
      <trkpt lat="44.91801" lon="5.28813">
        <ele>1287.1450195312</ele>
        <time>2009-06-03T16:02:57Z</time>
      </trkpt>
      <trkpt lat="44.91787" lon="5.28807">
        <ele>1286.3499755859</ele>
        <time>2009-06-03T16:02:59Z</time>
      </trkpt>
      <trkpt lat="44.91721" lon="5.28787">
        <ele>1284.0200195312</ele>
        <time>2009-06-03T16:03:07Z</time>
      </trkpt>
      <trkpt lat="44.91713" lon="5.28784">
        <ele>1283.8210449219</ele>
        <time>2009-06-03T16:03:08Z</time>
      </trkpt>
      <trkpt lat="44.91642" lon="5.28761">
        <ele>1279.6899414062</ele>
        <time>2009-06-03T16:03:16Z</time>
      </trkpt>
      <trkpt lat="44.91608" lon="5.2874">
        <ele>1276.3540039062</ele>
        <time>2009-06-03T16:03:20Z</time>
      </trkpt>
      <trkpt lat="44.91568" lon="5.28709">
        <ele>1276.3620605469</ele>
        <time>2009-06-03T16:03:25Z</time>
      </trkpt>
      <trkpt lat="44.91523" lon="5.28691">
        <ele>1273.6369628906</ele>
        <time>2009-06-03T16:03:30Z</time>
      </trkpt>
      <trkpt lat="44.91504" lon="5.28691">
        <ele>1272.5489501953</ele>
        <time>2009-06-03T16:03:32Z</time>
      </trkpt>
      <trkpt lat="44.91475" lon="5.28698">
        <ele>1270.1330566406</ele>
        <time>2009-06-03T16:03:35Z</time>
      </trkpt>
      <trkpt lat="44.91455" lon="5.28703">
        <ele>1269.1149902344</ele>
        <time>2009-06-03T16:03:37Z</time>
      </trkpt>
      <trkpt lat="44.91432" lon="5.28683">
        <ele>1270.2790527344</ele>
        <time>2009-06-03T16:03:40Z</time>
      </trkpt>
      <trkpt lat="44.91391" lon="5.28622">
        <ele>1266.2869873047</ele>
        <time>2009-06-03T16:03:46Z</time>
      </trkpt>
      <trkpt lat="44.91377" lon="5.28601">
        <ele>1265.4730224609</ele>
        <time>2009-06-03T16:03:48Z</time>
      </trkpt>
      <trkpt lat="44.9137" lon="5.2859">
        <ele>1265.1870117188</ele>
        <time>2009-06-03T16:03:49Z</time>
      </trkpt>
      <trkpt lat="44.91356" lon="5.2857">
        <ele>1265.1440429688</ele>
        <time>2009-06-03T16:03:51Z</time>
      </trkpt>
      <trkpt lat="44.91317" lon="5.28535">
        <ele>1266.75</ele>
        <time>2009-06-03T16:03:56Z</time>
      </trkpt>
      <trkpt lat="44.91283" lon="5.28524">
        <ele>1268.0720214844</ele>
        <time>2009-06-03T16:04:00Z</time>
      </trkpt>
      <trkpt lat="44.91177" lon="5.28544">
        <ele>1264.8260498047</ele>
        <time>2009-06-03T16:04:12Z</time>
      </trkpt>
      <trkpt lat="44.9106" lon="5.2857">
        <ele>1266.7939453125</ele>
        <time>2009-06-03T16:04:26Z</time>
      </trkpt>
      <trkpt lat="44.91023" lon="5.28577">
        <ele>1267.5689697266</ele>
        <time>2009-06-03T16:04:31Z</time>
      </trkpt>
      <trkpt lat="44.90996" lon="5.28589">
        <ele>1268.6650390625</ele>
        <time>2009-06-03T16:04:35Z</time>
      </trkpt>
      <trkpt lat="44.9095" lon="5.28624">
        <ele>1268.4050292969</ele>
        <time>2009-06-03T16:04:42Z</time>
      </trkpt>
      <trkpt lat="44.90913" lon="5.28621">
        <ele>1267.5860595703</ele>
        <time>2009-06-03T16:04:47Z</time>
      </trkpt>
      <trkpt lat="44.90854" lon="5.28589">
        <ele>1265.0780029297</ele>
        <time>2009-06-03T16:04:55Z</time>
      </trkpt>
      <trkpt lat="44.90812" lon="5.28568">
        <ele>1263.2590332031</ele>
        <time>2009-06-03T16:05:00Z</time>
      </trkpt>
      <trkpt lat="44.90795" lon="5.28558">
        <ele>1263.5489501953</ele>
        <time>2009-06-03T16:05:02Z</time>
      </trkpt>
      <trkpt lat="44.90755" lon="5.28502">
        <ele>1265.3549804688</ele>
        <time>2009-06-03T16:05:09Z</time>
      </trkpt>
      <trkpt lat="44.90752" lon="5.28449">
        <ele>1266.0059814453</ele>
        <time>2009-06-03T16:05:15Z</time>
      </trkpt>
      <trkpt lat="44.90763" lon="5.28405">
        <ele>1268</ele>
        <time>2009-06-03T16:05:21Z</time>
      </trkpt>
      <trkpt lat="44.90769" lon="5.28393">
        <ele>1268.8850097656</ele>
        <time>2009-06-03T16:05:23Z</time>
      </trkpt>
      <trkpt lat="44.908" lon="5.28346">
        <ele>1273.6169433594</ele>
        <time>2009-06-03T16:05:34Z</time>
      </trkpt>
      <trkpt lat="44.90818" lon="5.28297">
        <ele>1275.2149658203</ele>
        <time>2009-06-03T16:05:47Z</time>
      </trkpt>
      <trkpt lat="44.90836" lon="5.28247">
        <ele>1277.2800292969</ele>
        <time>2009-06-03T16:06:01Z</time>
      </trkpt>
      <trkpt lat="44.90856" lon="5.28227">
        <ele>1280.873046875</ele>
        <time>2009-06-03T16:06:10Z</time>
      </trkpt>
      <trkpt lat="44.90886" lon="5.28193">
        <ele>1283.8609619141</ele>
        <time>2009-06-03T16:06:24Z</time>
      </trkpt>
      <trkpt lat="44.90894" lon="5.28145">
        <ele>1288.1810302734</ele>
        <time>2009-06-03T16:06:36Z</time>
      </trkpt>
      <trkpt lat="44.90882" lon="5.2807">
        <ele>1289.8649902344</ele>
        <time>2009-06-03T16:06:54Z</time>
      </trkpt>
      <trkpt lat="44.90878" lon="5.28014">
        <ele>1292.6550292969</ele>
        <time>2009-06-03T16:07:08Z</time>
      </trkpt>
      <trkpt lat="44.9089" lon="5.27955">
        <ele>1297.2280273438</ele>
        <time>2009-06-03T16:07:22Z</time>
      </trkpt>
      <trkpt lat="44.90895" lon="5.27945">
        <ele>1298.7130126953</ele>
        <time>2009-06-03T16:07:25Z</time>
      </trkpt>
      <trkpt lat="44.90924" lon="5.27908">
        <ele>1299.8919677734</ele>
        <time>2009-06-03T16:07:38Z</time>
      </trkpt>
      <trkpt lat="44.90963" lon="5.27866">
        <ele>1303.3149414062</ele>
        <time>2009-06-03T16:07:54Z</time>
      </trkpt>
      <trkpt lat="44.90989" lon="5.27812">
        <ele>1307.08203125</ele>
        <time>2009-06-03T16:08:09Z</time>
      </trkpt>
      <trkpt lat="44.9098" lon="5.2774">
        <ele>1310.416015625</ele>
        <time>2009-06-03T16:08:25Z</time>
      </trkpt>
      <trkpt lat="44.90953" lon="5.27699">
        <ele>1312.0660400391</ele>
        <time>2009-06-03T16:08:36Z</time>
      </trkpt>
      <trkpt lat="44.90945" lon="5.27692">
        <ele>1312.1169433594</ele>
        <time>2009-06-03T16:08:38Z</time>
      </trkpt>
      <trkpt lat="44.9093" lon="5.27677">
        <ele>1311.6929931641</ele>
        <time>2009-06-03T16:08:42Z</time>
      </trkpt>
      <trkpt lat="44.90911" lon="5.2766">
        <ele>1310.3969726562</ele>
        <time>2009-06-03T16:08:46Z</time>
      </trkpt>
      <trkpt lat="44.90896" lon="5.27647">
        <ele>1309.41796875</ele>
        <time>2009-06-03T16:08:49Z</time>
      </trkpt>
      <trkpt lat="44.90872" lon="5.2763">
        <ele>1308.7399902344</ele>
        <time>2009-06-03T16:08:53Z</time>
      </trkpt>
      <trkpt lat="44.90809" lon="5.27625">
        <ele>1305.3000488281</ele>
        <time>2009-06-03T16:09:01Z</time>
      </trkpt>
      <trkpt lat="44.90783" lon="5.27627">
        <ele>1303.3389892578</ele>
        <time>2009-06-03T16:09:04Z</time>
      </trkpt>
      <trkpt lat="44.90756" lon="5.27627">
        <ele>1301.4150390625</ele>
        <time>2009-06-03T16:09:07Z</time>
      </trkpt>
      <trkpt lat="44.90736" lon="5.27624">
        <ele>1299.7629394531</ele>
        <time>2009-06-03T16:09:09Z</time>
      </trkpt>
      <trkpt lat="44.90706" lon="5.27611">
        <ele>1298.2600097656</ele>
        <time>2009-06-03T16:09:12Z</time>
      </trkpt>
      <trkpt lat="44.90688" lon="5.27598">
        <ele>1297.6519775391</ele>
        <time>2009-06-03T16:09:14Z</time>
      </trkpt>
      <trkpt lat="44.90661" lon="5.27574">
        <ele>1297.5889892578</ele>
        <time>2009-06-03T16:09:17Z</time>
      </trkpt>
      <trkpt lat="44.90594" lon="5.27498">
        <ele>1297.9339599609</ele>
        <time>2009-06-03T16:09:26Z</time>
      </trkpt>
      <trkpt lat="44.90551" lon="5.27448">
        <ele>1295.7800292969</ele>
        <time>2009-06-03T16:09:32Z</time>
      </trkpt>
      <trkpt lat="44.90498" lon="5.27401">
        <ele>1291.3330078125</ele>
        <time>2009-06-03T16:09:38Z</time>
      </trkpt>
      <trkpt lat="44.90466" lon="5.27357">
        <ele>1289.9040527344</ele>
        <time>2009-06-03T16:09:42Z</time>
      </trkpt>
      <trkpt lat="44.90438" lon="5.27308">
        <ele>1288.2249755859</ele>
        <time>2009-06-03T16:09:46Z</time>
      </trkpt>
      <trkpt lat="44.90416" lon="5.27271">
        <ele>1287.5980224609</ele>
        <time>2009-06-03T16:09:49Z</time>
      </trkpt>
      <trkpt lat="44.90353" lon="5.27217">
        <ele>1285.8280029297</ele>
        <time>2009-06-03T16:09:56Z</time>
      </trkpt>
      <trkpt lat="44.90342" lon="5.27215">
        <ele>1284.9489746094</ele>
        <time>2009-06-03T16:09:57Z</time>
      </trkpt>
      <trkpt lat="44.9021" lon="5.27203">
        <ele>1276.8070068359</ele>
        <time>2009-06-03T16:10:08Z</time>
      </trkpt>
      <trkpt lat="44.90115" lon="5.27206">
        <ele>1268.5860595703</ele>
        <time>2009-06-03T16:10:15Z</time>
      </trkpt>
      <trkpt lat="44.89976" lon="5.27188">
        <ele>1256.458984375</ele>
        <time>2009-06-03T16:10:25Z</time>
      </trkpt>
      <trkpt lat="44.89904" lon="5.27194">
        <ele>1253.5460205078</ele>
        <time>2009-06-03T16:10:30Z</time>
      </trkpt>
      <trkpt lat="44.8989" lon="5.27197">
        <ele>1252.1159667969</ele>
        <time>2009-06-03T16:10:31Z</time>
      </trkpt>
      <trkpt lat="44.89833" lon="5.27193">
        <ele>1248.3070068359</ele>
        <time>2009-06-03T16:10:35Z</time>
      </trkpt>
      <trkpt lat="44.89763" lon="5.27208">
        <ele>1242.6540527344</ele>
        <time>2009-06-03T16:10:40Z</time>
      </trkpt>
      <trkpt lat="44.89679" lon="5.27216">
        <ele>1240.6999511719</ele>
        <time>2009-06-03T16:10:46Z</time>
      </trkpt>
      <trkpt lat="44.89649" lon="5.2718">
        <ele>1240.0200195312</ele>
        <time>2009-06-03T16:10:50Z</time>
      </trkpt>
      <trkpt lat="44.89679" lon="5.27149">
        <ele>1240.3050537109</ele>
        <time>2009-06-03T16:10:54Z</time>
      </trkpt>
      <trkpt lat="44.89728" lon="5.27136">
        <ele>1239.8620605469</ele>
        <time>2009-06-03T16:11:00Z</time>
      </trkpt>
      <trkpt lat="44.898" lon="5.27037">
        <ele>1238.7619628906</ele>
        <time>2009-06-03T16:11:11Z</time>
      </trkpt>
      <trkpt lat="44.89886" lon="5.26957">
        <ele>1234.375</ele>
        <time>2009-06-03T16:11:22Z</time>
      </trkpt>
      <trkpt lat="44.89927" lon="5.26923">
        <ele>1230.6800537109</ele>
        <time>2009-06-03T16:11:26Z</time>
      </trkpt>
      <trkpt lat="44.89959" lon="5.26895">
        <ele>1225.0369873047</ele>
        <time>2009-06-03T16:11:29Z</time>
      </trkpt>
      <trkpt lat="44.89993" lon="5.26852">
        <ele>1228.8840332031</ele>
        <time>2009-06-03T16:11:33Z</time>
      </trkpt>
      <trkpt lat="44.90046" lon="5.26785">
        <ele>1229.4949951172</ele>
        <time>2009-06-03T16:11:40Z</time>
      </trkpt>
      <trkpt lat="44.90062" lon="5.26752">
        <ele>1230.8480224609</ele>
        <time>2009-06-03T16:11:43Z</time>
      </trkpt>
      <trkpt lat="44.90086" lon="5.26671">
        <ele>1232.1479492188</ele>
        <time>2009-06-03T16:11:51Z</time>
      </trkpt>
      <trkpt lat="44.90101" lon="5.26623">
        <ele>1233.1059570312</ele>
        <time>2009-06-03T16:11:57Z</time>
      </trkpt>
      <trkpt lat="44.90117" lon="5.26584">
        <ele>1232.8520507812</ele>
        <time>2009-06-03T16:12:02Z</time>
      </trkpt>
      <trkpt lat="44.90169" lon="5.26455">
        <ele>1234.3509521484</ele>
        <time>2009-06-03T16:12:17Z</time>
      </trkpt>
      <trkpt lat="44.90192" lon="5.26407">
        <ele>1232.3229980469</ele>
        <time>2009-06-03T16:12:23Z</time>
      </trkpt>
      <trkpt lat="44.90215" lon="5.26366">
        <ele>1230.4790039062</ele>
        <time>2009-06-03T16:12:29Z</time>
      </trkpt>
      <trkpt lat="44.90223" lon="5.26332">
        <ele>1228.6650390625</ele>
        <time>2009-06-03T16:12:33Z</time>
      </trkpt>
      <trkpt lat="44.9022" lon="5.26297">
        <ele>1226.0260009766</ele>
        <time>2009-06-03T16:12:36Z</time>
      </trkpt>
      <trkpt lat="44.90194" lon="5.26243">
        <ele>1222.6120605469</ele>
        <time>2009-06-03T16:12:41Z</time>
      </trkpt>
      <trkpt lat="44.9017" lon="5.26198">
        <ele>1220.8060302734</ele>
        <time>2009-06-03T16:12:45Z</time>
      </trkpt>
      <trkpt lat="44.90162" lon="5.26129">
        <ele>1219.9489746094</ele>
        <time>2009-06-03T16:12:50Z</time>
      </trkpt>
      <trkpt lat="44.90168" lon="5.26118">
        <ele>1220.5539550781</ele>
        <time>2009-06-03T16:12:51Z</time>
      </trkpt>
      <trkpt lat="44.90179" lon="5.26096">
        <ele>1223.0610351562</ele>
        <time>2009-06-03T16:12:53Z</time>
      </trkpt>
      <trkpt lat="44.90194" lon="5.26055">
        <ele>1226.4840087891</ele>
        <time>2009-06-03T16:12:58Z</time>
      </trkpt>
      <trkpt lat="44.9018" lon="5.25994">
        <ele>1226.6939697266</ele>
        <time>2009-06-03T16:13:07Z</time>
      </trkpt>
      <trkpt lat="44.90174" lon="5.25992">
        <ele>1226.6130371094</ele>
        <time>2009-06-03T16:13:08Z</time>
      </trkpt>
      <trkpt lat="44.90157" lon="5.25985">
        <ele>1224.8599853516</ele>
        <time>2009-06-03T16:13:11Z</time>
      </trkpt>
      <trkpt lat="44.90063" lon="5.25955">
        <ele>1215.9000244141</ele>
        <time>2009-06-03T16:13:23Z</time>
      </trkpt>
      <trkpt lat="44.90003" lon="5.25941">
        <ele>1209.9449462891</ele>
        <time>2009-06-03T16:13:29Z</time>
      </trkpt>
      <trkpt lat="44.8997" lon="5.25933">
        <ele>1206.7490234375</ele>
        <time>2009-06-03T16:13:32Z</time>
      </trkpt>
      <trkpt lat="44.89959" lon="5.25931">
        <ele>1205.5980224609</ele>
        <time>2009-06-03T16:13:33Z</time>
      </trkpt>
      <trkpt lat="44.89847" lon="5.25887">
        <ele>1194.1070556641</ele>
        <time>2009-06-03T16:13:42Z</time>
      </trkpt>
      <trkpt lat="44.89765" lon="5.25846">
        <ele>1186.5500488281</ele>
        <time>2009-06-03T16:13:48Z</time>
      </trkpt>
      <trkpt lat="44.89736" lon="5.25832">
        <ele>1184.3680419922</ele>
        <time>2009-06-03T16:13:50Z</time>
      </trkpt>
      <trkpt lat="44.89707" lon="5.25817">
        <ele>1183.1149902344</ele>
        <time>2009-06-03T16:13:52Z</time>
      </trkpt>
      <trkpt lat="44.89628" lon="5.25795">
        <ele>1175.6739501953</ele>
        <time>2009-06-03T16:13:57Z</time>
      </trkpt>
      <trkpt lat="44.89562" lon="5.25769">
        <ele>1168.6960449219</ele>
        <time>2009-06-03T16:14:01Z</time>
      </trkpt>
      <trkpt lat="44.89441" lon="5.25667">
        <ele>1157.1469726562</ele>
        <time>2009-06-03T16:14:09Z</time>
      </trkpt>
      <trkpt lat="44.8937" lon="5.2556">
        <ele>1148.0689697266</ele>
        <time>2009-06-03T16:14:15Z</time>
      </trkpt>
      <trkpt lat="44.89315" lon="5.25504">
        <ele>1143.4689941406</ele>
        <time>2009-06-03T16:14:19Z</time>
      </trkpt>
      <trkpt lat="44.89293" lon="5.2549">
        <ele>1140.5460205078</ele>
        <time>2009-06-03T16:14:22Z</time>
      </trkpt>
      <trkpt lat="44.89293" lon="5.2549">
        <ele>1139.2270507812</ele>
        <time>2009-06-03T16:14:23Z</time>
      </trkpt>
      <trkpt lat="44.89211" lon="5.25415">
        <ele>1135.8509521484</ele>
        <time>2009-06-03T16:14:28Z</time>
      </trkpt>
      <trkpt lat="44.89228" lon="5.25361">
        <ele>1133.8830566406</ele>
        <time>2009-06-03T16:14:32Z</time>
      </trkpt>
      <trkpt lat="44.89271" lon="5.25329">
        <ele>1131.0100097656</ele>
        <time>2009-06-03T16:14:36Z</time>
      </trkpt>
      <trkpt lat="44.89296" lon="5.25327">
        <ele>1131.5729980469</ele>
        <time>2009-06-03T16:14:38Z</time>
      </trkpt>
      <trkpt lat="44.89338" lon="5.2533">
        <ele>1135.3199462891</ele>
        <time>2009-06-03T16:14:42Z</time>
      </trkpt>
      <trkpt lat="44.89397" lon="5.25327">
        <ele>1137.4680175781</ele>
        <time>2009-06-03T16:14:50Z</time>
      </trkpt>
      <trkpt lat="44.89414" lon="5.25322">
        <ele>1138.6590576172</ele>
        <time>2009-06-03T16:14:53Z</time>
      </trkpt>
      <trkpt lat="44.89439" lon="5.25315">
        <ele>1140.6319580078</ele>
        <time>2009-06-03T16:14:58Z</time>
      </trkpt>
      <trkpt lat="44.89456" lon="5.2531">
        <ele>1141.6149902344</ele>
        <time>2009-06-03T16:15:02Z</time>
      </trkpt>
      <trkpt lat="44.89487" lon="5.25293">
        <ele>1143.5849609375</ele>
        <time>2009-06-03T16:15:10Z</time>
      </trkpt>
      <trkpt lat="44.89505" lon="5.25283">
        <ele>1145.4439697266</ele>
        <time>2009-06-03T16:15:15Z</time>
      </trkpt>
      <trkpt lat="44.89523" lon="5.25274">
        <ele>1146.9689941406</ele>
        <time>2009-06-03T16:15:20Z</time>
      </trkpt>
      <trkpt lat="44.89557" lon="5.25265">
        <ele>1149.1149902344</ele>
        <time>2009-06-03T16:15:29Z</time>
      </trkpt>
      <trkpt lat="44.89593" lon="5.25254">
        <ele>1152.1099853516</ele>
        <time>2009-06-03T16:15:39Z</time>
      </trkpt>
      <trkpt lat="44.89645" lon="5.25248">
        <ele>1156.5670166016</ele>
        <time>2009-06-03T16:15:55Z</time>
      </trkpt>
      <trkpt lat="44.89688" lon="5.25245">
        <ele>1160.1669921875</ele>
        <time>2009-06-03T16:16:10Z</time>
      </trkpt>
      <trkpt lat="44.89725" lon="5.2524">
        <ele>1162.8840332031</ele>
        <time>2009-06-03T16:16:24Z</time>
      </trkpt>
      <trkpt lat="44.89756" lon="5.25235">
        <ele>1166.123046875</ele>
        <time>2009-06-03T16:16:36Z</time>
      </trkpt>
      <trkpt lat="44.89768" lon="5.25234">
        <ele>1167.8719482422</ele>
        <time>2009-06-03T16:16:40Z</time>
      </trkpt>
      <trkpt lat="44.89795" lon="5.2523">
        <ele>1170.1340332031</ele>
        <time>2009-06-03T16:16:50Z</time>
      </trkpt>
      <trkpt lat="44.89829" lon="5.25223">
        <ele>1172.5360107422</ele>
        <time>2009-06-03T16:17:01Z</time>
      </trkpt>
      <trkpt lat="44.89873" lon="5.25214">
        <ele>1175.4790039062</ele>
        <time>2009-06-03T16:17:15Z</time>
      </trkpt>
      <trkpt lat="44.89927" lon="5.25202">
        <ele>1179.2149658203</ele>
        <time>2009-06-03T16:17:33Z</time>
      </trkpt>
      <trkpt lat="44.89939" lon="5.25196">
        <ele>1181.0140380859</ele>
        <time>2009-06-03T16:17:37Z</time>
      </trkpt>
      <trkpt lat="44.89975" lon="5.25174">
        <ele>1183.0439453125</ele>
        <time>2009-06-03T16:17:51Z</time>
      </trkpt>
      <trkpt lat="44.90016" lon="5.25148">
        <ele>1185.583984375</ele>
        <time>2009-06-03T16:18:08Z</time>
      </trkpt>
      <trkpt lat="44.90044" lon="5.25112">
        <ele>1188.2270507812</ele>
        <time>2009-06-03T16:18:23Z</time>
      </trkpt>
      <trkpt lat="44.9007" lon="5.25079">
        <ele>1191.1579589844</ele>
        <time>2009-06-03T16:18:37Z</time>
      </trkpt>
      <trkpt lat="44.90105" lon="5.2505">
        <ele>1194.7860107422</ele>
        <time>2009-06-03T16:18:52Z</time>
      </trkpt>
      <trkpt lat="44.90136" lon="5.25026">
        <ele>1198.123046875</ele>
        <time>2009-06-03T16:19:04Z</time>
      </trkpt>
      <trkpt lat="44.90182" lon="5.2499">
        <ele>1200.4289550781</ele>
        <time>2009-06-03T16:19:21Z</time>
      </trkpt>
      <trkpt lat="44.90216" lon="5.24952">
        <ele>1201.7149658203</ele>
        <time>2009-06-03T16:19:35Z</time>
      </trkpt>
      <trkpt lat="44.90224" lon="5.24927">
        <ele>1203.0570068359</ele>
        <time>2009-06-03T16:19:41Z</time>
      </trkpt>
      <trkpt lat="44.90208" lon="5.24892">
        <ele>1204.3029785156</ele>
        <time>2009-06-03T16:19:51Z</time>
      </trkpt>
      <trkpt lat="44.90173" lon="5.24903">
        <ele>1206.5679931641</ele>
        <time>2009-06-03T16:20:02Z</time>
      </trkpt>
      <trkpt lat="44.90127" lon="5.2491">
        <ele>1208.6149902344</ele>
        <time>2009-06-03T16:20:16Z</time>
      </trkpt>
      <trkpt lat="44.90112" lon="5.24907">
        <ele>1210.6650390625</ele>
        <time>2009-06-03T16:20:21Z</time>
      </trkpt>
      <trkpt lat="44.90076" lon="5.24878">
        <ele>1213.6899414062</ele>
        <time>2009-06-03T16:20:36Z</time>
      </trkpt>
      <trkpt lat="44.90035" lon="5.24822">
        <ele>1217.4549560547</ele>
        <time>2009-06-03T16:20:54Z</time>
      </trkpt>
      <trkpt lat="44.89994" lon="5.24776">
        <ele>1221.4709472656</ele>
        <time>2009-06-03T16:21:11Z</time>
      </trkpt>
      <trkpt lat="44.8996" lon="5.2471">
        <ele>1226.0529785156</ele>
        <time>2009-06-03T16:21:29Z</time>
      </trkpt>
      <trkpt lat="44.89917" lon="5.24655">
        <ele>1230.3530273438</ele>
        <time>2009-06-03T16:21:46Z</time>
      </trkpt>
      <trkpt lat="44.89877" lon="5.24605">
        <ele>1234.5799560547</ele>
        <time>2009-06-03T16:22:02Z</time>
      </trkpt>
      <trkpt lat="44.89851" lon="5.24541">
        <ele>1236.8509521484</ele>
        <time>2009-06-03T16:22:18Z</time>
      </trkpt>
      <trkpt lat="44.89848" lon="5.2448">
        <ele>1240.1149902344</ele>
        <time>2009-06-03T16:22:31Z</time>
      </trkpt>
      <trkpt lat="44.89848" lon="5.2446">
        <ele>1241.3189697266</ele>
        <time>2009-06-03T16:22:36Z</time>
      </trkpt>
      <trkpt lat="44.89849" lon="5.24403">
        <ele>1244.0250244141</ele>
        <time>2009-06-03T16:22:51Z</time>
      </trkpt>
      <trkpt lat="44.89849" lon="5.24387">
        <ele>1245.4809570312</ele>
        <time>2009-06-03T16:22:55Z</time>
      </trkpt>
      <trkpt lat="44.89848" lon="5.24329">
        <ele>1249.8819580078</ele>
        <time>2009-06-03T16:23:09Z</time>
      </trkpt>
      <trkpt lat="44.89832" lon="5.24283">
        <ele>1253.8459472656</ele>
        <time>2009-06-03T16:23:22Z</time>
      </trkpt>
      <trkpt lat="44.89809" lon="5.24233">
        <ele>1258.0450439453</ele>
        <time>2009-06-03T16:23:38Z</time>
      </trkpt>
      <trkpt lat="44.89793" lon="5.24189">
        <ele>1261.0140380859</ele>
        <time>2009-06-03T16:23:50Z</time>
      </trkpt>
      <trkpt lat="44.89787" lon="5.24141">
        <ele>1264.3530273438</ele>
        <time>2009-06-03T16:24:02Z</time>
      </trkpt>
      <trkpt lat="44.89782" lon="5.24095">
        <ele>1267.8520507812</ele>
        <time>2009-06-03T16:24:13Z</time>
      </trkpt>
      <trkpt lat="44.89774" lon="5.24027">
        <ele>1271.8699951172</ele>
        <time>2009-06-03T16:24:28Z</time>
      </trkpt>
      <trkpt lat="44.89762" lon="5.23975">
        <ele>1275.7879638672</ele>
        <time>2009-06-03T16:24:41Z</time>
      </trkpt>
      <trkpt lat="44.89743" lon="5.23935">
        <ele>1276.5479736328</ele>
        <time>2009-06-03T16:24:55Z</time>
      </trkpt>
      <trkpt lat="44.89746" lon="5.23884">
        <ele>1280.7919921875</ele>
        <time>2009-06-03T16:25:08Z</time>
      </trkpt>
      <trkpt lat="44.89753" lon="5.23851">
        <ele>1285.2220458984</ele>
        <time>2009-06-03T16:25:19Z</time>
      </trkpt>
      <trkpt lat="44.89754" lon="5.23844">
        <ele>1286.5550537109</ele>
        <time>2009-06-03T16:25:21Z</time>
      </trkpt>
      <trkpt lat="44.89764" lon="5.2379">
        <ele>1289.3289794922</ele>
        <time>2009-06-03T16:25:36Z</time>
      </trkpt>
      <trkpt lat="44.89765" lon="5.23745">
        <ele>1292.2559814453</ele>
        <time>2009-06-03T16:25:49Z</time>
      </trkpt>
      <trkpt lat="44.89765" lon="5.23701">
        <ele>1296.3079833984</ele>
        <time>2009-06-03T16:26:02Z</time>
      </trkpt>
      <trkpt lat="44.89774" lon="5.23647">
        <ele>1300.8079833984</ele>
        <time>2009-06-03T16:26:17Z</time>
      </trkpt>
      <trkpt lat="44.89776" lon="5.23623">
        <ele>1303.5450439453</ele>
        <time>2009-06-03T16:26:27Z</time>
      </trkpt>
      <trkpt lat="44.89777" lon="5.23612">
        <ele>1303.6490478516</ele>
        <time>2009-06-03T16:26:30Z</time>
      </trkpt>
      <trkpt lat="44.89782" lon="5.23564">
        <ele>1307.5520019531</ele>
        <time>2009-06-03T16:26:42Z</time>
      </trkpt>
      <trkpt lat="44.89782" lon="5.23513">
        <ele>1310.5300292969</ele>
        <time>2009-06-03T16:26:54Z</time>
      </trkpt>
      <trkpt lat="44.89782" lon="5.23509">
        <ele>1310.7800292969</ele>
        <time>2009-06-03T16:26:55Z</time>
      </trkpt>
      <trkpt lat="44.89779" lon="5.23433">
        <ele>1317.5870361328</ele>
        <time>2009-06-03T16:27:11Z</time>
      </trkpt>
      <trkpt lat="44.89778" lon="5.23387">
        <ele>1319.5059814453</ele>
        <time>2009-06-03T16:27:21Z</time>
      </trkpt>
      <trkpt lat="44.89806" lon="5.23347">
        <ele>1321.4909667969</ele>
        <time>2009-06-03T16:27:32Z</time>
      </trkpt>
      <trkpt lat="44.89828" lon="5.23292">
        <ele>1324.9859619141</ele>
        <time>2009-06-03T16:27:45Z</time>
      </trkpt>
      <trkpt lat="44.89832" lon="5.2328">
        <ele>1326.8160400391</ele>
        <time>2009-06-03T16:27:48Z</time>
      </trkpt>
      <trkpt lat="44.89845" lon="5.2324">
        <ele>1328.4659423828</ele>
        <time>2009-06-03T16:27:59Z</time>
      </trkpt>
      <trkpt lat="44.89859" lon="5.23198">
        <ele>1331.3079833984</ele>
        <time>2009-06-03T16:28:12Z</time>
      </trkpt>
      <trkpt lat="44.89872" lon="5.23141">
        <ele>1334.4830322266</ele>
        <time>2009-06-03T16:28:27Z</time>
      </trkpt>
      <trkpt lat="44.89885" lon="5.23089">
        <ele>1335.6280517578</ele>
        <time>2009-06-03T16:28:42Z</time>
      </trkpt>
      <trkpt lat="44.899" lon="5.23025">
        <ele>1338.001953125</ele>
        <time>2009-06-03T16:28:59Z</time>
      </trkpt>
      <trkpt lat="44.89919" lon="5.22952">
        <ele>1336.6319580078</ele>
        <time>2009-06-03T16:29:15Z</time>
      </trkpt>
      <trkpt lat="44.89924" lon="5.22931">
        <ele>1337.0770263672</ele>
        <time>2009-06-03T16:29:19Z</time>
      </trkpt>
      <trkpt lat="44.89933" lon="5.22896">
        <ele>1335.9990234375</ele>
        <time>2009-06-03T16:29:26Z</time>
      </trkpt>
      <trkpt lat="44.89938" lon="5.22874">
        <ele>1335.4460449219</ele>
        <time>2009-06-03T16:29:30Z</time>
      </trkpt>
      <trkpt lat="44.89939" lon="5.22851">
        <ele>1335.501953125</ele>
        <time>2009-06-03T16:29:34Z</time>
      </trkpt>
      <trkpt lat="44.89937" lon="5.22822">
        <ele>1334.8310546875</ele>
        <time>2009-06-03T16:29:39Z</time>
      </trkpt>
      <trkpt lat="44.89928" lon="5.22789">
        <ele>1333.6450195312</ele>
        <time>2009-06-03T16:29:45Z</time>
      </trkpt>
      <trkpt lat="44.89909" lon="5.22734">
        <ele>1332.2449951172</ele>
        <time>2009-06-03T16:29:54Z</time>
      </trkpt>
      <trkpt lat="44.89899" lon="5.22704">
        <ele>1332.2540283203</ele>
        <time>2009-06-03T16:29:59Z</time>
      </trkpt>
      <trkpt lat="44.89902" lon="5.22575">
        <ele>1328.3499755859</ele>
        <time>2009-06-03T16:30:18Z</time>
      </trkpt>
      <trkpt lat="44.89903" lon="5.22561">
        <ele>1328.0379638672</ele>
        <time>2009-06-03T16:30:20Z</time>
      </trkpt>
      <trkpt lat="44.89911" lon="5.2251">
        <ele>1327.3270263672</ele>
        <time>2009-06-03T16:30:27Z</time>
      </trkpt>
      <trkpt lat="44.89939" lon="5.22424">
        <ele>1326.1650390625</ele>
        <time>2009-06-03T16:30:40Z</time>
      </trkpt>
      <trkpt lat="44.89963" lon="5.22365">
        <ele>1326.3029785156</ele>
        <time>2009-06-03T16:30:50Z</time>
      </trkpt>
      <trkpt lat="44.8998" lon="5.22345">
        <ele>1326.3260498047</ele>
        <time>2009-06-03T16:30:55Z</time>
      </trkpt>
      <trkpt lat="44.90005" lon="5.22331">
        <ele>1325.3540039062</ele>
        <time>2009-06-03T16:31:02Z</time>
      </trkpt>
      <trkpt lat="44.90031" lon="5.22329">
        <ele>1325.1689453125</ele>
        <time>2009-06-03T16:31:08Z</time>
      </trkpt>
      <trkpt lat="44.90045" lon="5.22331">
        <ele>1325.3570556641</ele>
        <time>2009-06-03T16:31:11Z</time>
      </trkpt>
      <trkpt lat="44.90069" lon="5.22335">
        <ele>1325.001953125</ele>
        <time>2009-06-03T16:31:16Z</time>
      </trkpt>
      <trkpt lat="44.90086" lon="5.22347">
        <ele>1325.1949462891</ele>
        <time>2009-06-03T16:31:20Z</time>
      </trkpt>
      <trkpt lat="44.90149" lon="5.2239">
        <ele>1323.251953125</ele>
        <time>2009-06-03T16:31:32Z</time>
      </trkpt>
      <trkpt lat="44.9016" lon="5.22401">
        <ele>1322.4219970703</ele>
        <time>2009-06-03T16:31:34Z</time>
      </trkpt>
      <trkpt lat="44.90178" lon="5.22418">
        <ele>1321.5649414062</ele>
        <time>2009-06-03T16:31:37Z</time>
      </trkpt>
      <trkpt lat="44.90202" lon="5.22443">
        <ele>1320.5949707031</ele>
        <time>2009-06-03T16:31:41Z</time>
      </trkpt>
      <trkpt lat="44.90274" lon="5.22477">
        <ele>1316.6850585938</ele>
        <time>2009-06-03T16:31:50Z</time>
      </trkpt>
      <trkpt lat="44.90282" lon="5.22486">
        <ele>1315.8210449219</ele>
        <time>2009-06-03T16:31:51Z</time>
      </trkpt>
      <trkpt lat="44.90296" lon="5.22507">
        <ele>1314.2869873047</ele>
        <time>2009-06-03T16:31:53Z</time>
      </trkpt>
      <trkpt lat="44.90348" lon="5.22555">
        <ele>1310.7060546875</ele>
        <time>2009-06-03T16:31:59Z</time>
      </trkpt>
      <trkpt lat="44.90391" lon="5.22557">
        <ele>1310.6850585938</ele>
        <time>2009-06-03T16:32:03Z</time>
      </trkpt>
      <trkpt lat="44.90462" lon="5.22592">
        <ele>1303.6689453125</ele>
        <time>2009-06-03T16:32:10Z</time>
      </trkpt>
      <trkpt lat="44.90515" lon="5.22612">
        <ele>1302.5159912109</ele>
        <time>2009-06-03T16:32:15Z</time>
      </trkpt>
      <trkpt lat="44.90544" lon="5.22657">
        <ele>1300.1829833984</ele>
        <time>2009-06-03T16:32:19Z</time>
      </trkpt>
      <trkpt lat="44.90554" lon="5.22663">
        <ele>1300.0109863281</ele>
        <time>2009-06-03T16:32:20Z</time>
      </trkpt>
      <trkpt lat="44.90593" lon="5.22686">
        <ele>1297.3370361328</ele>
        <time>2009-06-03T16:32:24Z</time>
      </trkpt>
      <trkpt lat="44.90612" lon="5.22696">
        <ele>1295.9599609375</ele>
        <time>2009-06-03T16:32:26Z</time>
      </trkpt>
      <trkpt lat="44.90663" lon="5.22694">
        <ele>1293.7039794922</ele>
        <time>2009-06-03T16:32:31Z</time>
      </trkpt>
      <trkpt lat="44.90674" lon="5.22693">
        <ele>1293.6839599609</ele>
        <time>2009-06-03T16:32:32Z</time>
      </trkpt>
      <trkpt lat="44.90757" lon="5.22693">
        <ele>1290.5679931641</ele>
        <time>2009-06-03T16:32:40Z</time>
      </trkpt>
      <trkpt lat="44.9081" lon="5.22686">
        <ele>1289.1169433594</ele>
        <time>2009-06-03T16:32:45Z</time>
      </trkpt>
      <trkpt lat="44.9085" lon="5.2269">
        <ele>1286.6550292969</ele>
        <time>2009-06-03T16:32:49Z</time>
      </trkpt>
      <trkpt lat="44.90881" lon="5.22703">
        <ele>1287.5460205078</ele>
        <time>2009-06-03T16:32:52Z</time>
      </trkpt>
      <trkpt lat="44.90939" lon="5.22697">
        <ele>1283.9949951172</ele>
        <time>2009-06-03T16:32:58Z</time>
      </trkpt>
      <trkpt lat="44.90954" lon="5.22681">
        <ele>1283.1459960938</ele>
        <time>2009-06-03T16:33:00Z</time>
      </trkpt>
      <trkpt lat="44.90997" lon="5.22648">
        <ele>1283.6829833984</ele>
        <time>2009-06-03T16:33:05Z</time>
      </trkpt>
      <trkpt lat="44.91077" lon="5.22646">
        <ele>1282.6899414062</ele>
        <time>2009-06-03T16:33:13Z</time>
      </trkpt>
      <trkpt lat="44.91116" lon="5.22659">
        <ele>1282.7860107422</ele>
        <time>2009-06-03T16:33:17Z</time>
      </trkpt>
      <trkpt lat="44.91237" lon="5.22722">
        <ele>1281.3459472656</ele>
        <time>2009-06-03T16:33:31Z</time>
      </trkpt>
      <trkpt lat="44.9128" lon="5.2274">
        <ele>1281.1619873047</ele>
        <time>2009-06-03T16:33:36Z</time>
      </trkpt>
      <trkpt lat="44.91331" lon="5.22726">
        <ele>1280.3599853516</ele>
        <time>2009-06-03T16:33:43Z</time>
      </trkpt>
      <trkpt lat="44.91373" lon="5.22666">
        <ele>1278.8780517578</ele>
        <time>2009-06-03T16:33:50Z</time>
      </trkpt>
      <trkpt lat="44.91391" lon="5.22601">
        <ele>1274.7270507812</ele>
        <time>2009-06-03T16:33:56Z</time>
      </trkpt>
      <trkpt lat="44.91369" lon="5.22479">
        <ele>1267.6109619141</ele>
        <time>2009-06-03T16:34:04Z</time>
      </trkpt>
      <trkpt lat="44.91349" lon="5.22418">
        <ele>1264.6130371094</ele>
        <time>2009-06-03T16:34:08Z</time>
      </trkpt>
      <trkpt lat="44.91333" lon="5.22371">
        <ele>1263.7030029297</ele>
        <time>2009-06-03T16:34:11Z</time>
      </trkpt>
      <trkpt lat="44.91302" lon="5.22299">
        <ele>1262.3649902344</ele>
        <time>2009-06-03T16:34:16Z</time>
      </trkpt>
      <trkpt lat="44.91241" lon="5.22217">
        <ele>1257.1099853516</ele>
        <time>2009-06-03T16:34:23Z</time>
      </trkpt>
      <trkpt lat="44.91221" lon="5.22164">
        <ele>1252.9069824219</ele>
        <time>2009-06-03T16:34:27Z</time>
      </trkpt>
      <trkpt lat="44.9122" lon="5.22041">
        <ele>1244.3070068359</ele>
        <time>2009-06-03T16:34:34Z</time>
      </trkpt>
      <trkpt lat="44.91207" lon="5.21967">
        <ele>1238.9270019531</ele>
        <time>2009-06-03T16:34:38Z</time>
      </trkpt>
      <trkpt lat="44.91166" lon="5.21885">
        <ele>1232.4890136719</ele>
        <time>2009-06-03T16:34:43Z</time>
      </trkpt>
      <trkpt lat="44.91121" lon="5.21807">
        <ele>1224.8389892578</ele>
        <time>2009-06-03T16:34:48Z</time>
      </trkpt>
      <trkpt lat="44.91064" lon="5.21764">
        <ele>1220.0949707031</ele>
        <time>2009-06-03T16:34:52Z</time>
      </trkpt>
      <trkpt lat="44.90987" lon="5.21727">
        <ele>1215.6800537109</ele>
        <time>2009-06-03T16:34:58Z</time>
      </trkpt>
      <trkpt lat="44.90982" lon="5.2169">
        <ele>1212.3509521484</ele>
        <time>2009-06-03T16:35:02Z</time>
      </trkpt>
      <trkpt lat="44.90991" lon="5.21613">
        <ele>1207.8120117188</ele>
        <time>2009-06-03T16:35:07Z</time>
      </trkpt>
      <trkpt lat="44.90959" lon="5.21587">
        <ele>1204.4360351562</ele>
        <time>2009-06-03T16:35:10Z</time>
      </trkpt>
      <trkpt lat="44.90897" lon="5.21546">
        <ele>1198.0760498047</ele>
        <time>2009-06-03T16:35:15Z</time>
      </trkpt>
      <trkpt lat="44.90878" lon="5.2152">
        <ele>1196.3439941406</ele>
        <time>2009-06-03T16:35:17Z</time>
      </trkpt>
      <trkpt lat="44.90867" lon="5.21435">
        <ele>1191.4759521484</ele>
        <time>2009-06-03T16:35:23Z</time>
      </trkpt>
      <trkpt lat="44.90896" lon="5.21394">
        <ele>1188.5460205078</ele>
        <time>2009-06-03T16:35:27Z</time>
      </trkpt>
      <trkpt lat="44.90928" lon="5.21373">
        <ele>1186.8640136719</ele>
        <time>2009-06-03T16:35:30Z</time>
      </trkpt>
      <trkpt lat="44.90949" lon="5.21367">
        <ele>1185.7309570312</ele>
        <time>2009-06-03T16:35:32Z</time>
      </trkpt>
      <trkpt lat="44.90985" lon="5.21326">
        <ele>1183.6319580078</ele>
        <time>2009-06-03T16:35:36Z</time>
      </trkpt>
      <trkpt lat="44.91032" lon="5.21255">
        <ele>1180.6729736328</ele>
        <time>2009-06-03T16:35:42Z</time>
      </trkpt>
      <trkpt lat="44.9104" lon="5.21243">
        <ele>1180.8549804688</ele>
        <time>2009-06-03T16:35:43Z</time>
      </trkpt>
      <trkpt lat="44.91052" lon="5.21207">
        <ele>1179.5589599609</ele>
        <time>2009-06-03T16:35:46Z</time>
      </trkpt>
      <trkpt lat="44.91062" lon="5.21117">
        <ele>1179.5100097656</ele>
        <time>2009-06-03T16:35:52Z</time>
      </trkpt>
      <trkpt lat="44.91069" lon="5.21025">
        <ele>1178.5649414062</ele>
        <time>2009-06-03T16:35:59Z</time>
      </trkpt>
      <trkpt lat="44.91079" lon="5.20955">
        <ele>1177.83203125</ele>
        <time>2009-06-03T16:36:04Z</time>
      </trkpt>
      <trkpt lat="44.91083" lon="5.20941">
        <ele>1177.9029541016</ele>
        <time>2009-06-03T16:36:05Z</time>
      </trkpt>
      <trkpt lat="44.91106" lon="5.20881">
        <ele>1176.58203125</ele>
        <time>2009-06-03T16:36:10Z</time>
      </trkpt>
      <trkpt lat="44.9112" lon="5.20861">
        <ele>1176.5269775391</ele>
        <time>2009-06-03T16:36:12Z</time>
      </trkpt>
      <trkpt lat="44.91156" lon="5.20826">
        <ele>1174.3070068359</ele>
        <time>2009-06-03T16:36:16Z</time>
      </trkpt>
      <trkpt lat="44.91178" lon="5.20819">
        <ele>1172.7679443359</ele>
        <time>2009-06-03T16:36:18Z</time>
      </trkpt>
      <trkpt lat="44.91221" lon="5.20813">
        <ele>1169.8780517578</ele>
        <time>2009-06-03T16:36:22Z</time>
      </trkpt>
      <trkpt lat="44.91326" lon="5.20866">
        <ele>1160.1350097656</ele>
        <time>2009-06-03T16:36:32Z</time>
      </trkpt>
      <trkpt lat="44.91338" lon="5.20874">
        <ele>1159.8659667969</ele>
        <time>2009-06-03T16:36:33Z</time>
      </trkpt>
      <trkpt lat="44.91434" lon="5.20936">
        <ele>1149.5999755859</ele>
        <time>2009-06-03T16:36:41Z</time>
      </trkpt>
      <trkpt lat="44.91459" lon="5.20948">
        <ele>1148.6169433594</ele>
        <time>2009-06-03T16:36:43Z</time>
      </trkpt>
      <trkpt lat="44.91567" lon="5.20954">
        <ele>1138.1450195312</ele>
        <time>2009-06-03T16:36:51Z</time>
      </trkpt>
      <trkpt lat="44.91581" lon="5.20955">
        <ele>1137.5080566406</ele>
        <time>2009-06-03T16:36:52Z</time>
      </trkpt>
      <trkpt lat="44.9161" lon="5.20957">
        <ele>1136.6839599609</ele>
        <time>2009-06-03T16:36:54Z</time>
      </trkpt>
      <trkpt lat="44.91676" lon="5.20938">
        <ele>1129.7020263672</ele>
        <time>2009-06-03T16:36:59Z</time>
      </trkpt>
      <trkpt lat="44.91808" lon="5.20839">
        <ele>1118.0679931641</ele>
        <time>2009-06-03T16:37:09Z</time>
      </trkpt>
      <trkpt lat="44.91876" lon="5.20794">
        <ele>1112.4959716797</ele>
        <time>2009-06-03T16:37:14Z</time>
      </trkpt>
      <trkpt lat="44.91939" lon="5.20712">
        <ele>1105.1939697266</ele>
        <time>2009-06-03T16:37:20Z</time>
      </trkpt>
      <trkpt lat="44.91982" lon="5.20646">
        <ele>1098.8480224609</ele>
        <time>2009-06-03T16:37:24Z</time>
      </trkpt>
      <trkpt lat="44.92031" lon="5.20539">
        <ele>1090.7629394531</ele>
        <time>2009-06-03T16:37:30Z</time>
      </trkpt>
      <trkpt lat="44.92043" lon="5.20478">
        <ele>1087.5069580078</ele>
        <time>2009-06-03T16:37:33Z</time>
      </trkpt>
      <trkpt lat="44.9208" lon="5.20382">
        <ele>1083.3520507812</ele>
        <time>2009-06-03T16:37:38Z</time>
      </trkpt>
      <trkpt lat="44.92124" lon="5.20277">
        <ele>1077.9270019531</ele>
        <time>2009-06-03T16:37:44Z</time>
      </trkpt>
      <trkpt lat="44.9216" lon="5.20263">
        <ele>1075.9449462891</ele>
        <time>2009-06-03T16:37:48Z</time>
      </trkpt>
      <trkpt lat="44.92153" lon="5.20219">
        <ele>1070.6750488281</ele>
        <time>2009-06-03T16:37:52Z</time>
      </trkpt>
      <trkpt lat="44.92144" lon="5.20212">
        <ele>1070.0050048828</ele>
        <time>2009-06-03T16:37:53Z</time>
      </trkpt>
      <trkpt lat="44.9206" lon="5.20162">
        <ele>1058.6999511719</ele>
        <time>2009-06-03T16:38:00Z</time>
      </trkpt>
      <trkpt lat="44.92046" lon="5.20154">
        <ele>1057.0570068359</ele>
        <time>2009-06-03T16:38:01Z</time>
      </trkpt>
      <trkpt lat="44.91978" lon="5.20099">
        <ele>1050.2409667969</ele>
        <time>2009-06-03T16:38:06Z</time>
      </trkpt>
      <trkpt lat="44.9195" lon="5.20074">
        <ele>1046.0830078125</ele>
        <time>2009-06-03T16:38:08Z</time>
      </trkpt>
      <trkpt lat="44.91844" lon="5.19994">
        <ele>1035.0050048828</ele>
        <time>2009-06-03T16:38:15Z</time>
      </trkpt>
      <trkpt lat="44.91828" lon="5.19986">
        <ele>1034.9379882812</ele>
        <time>2009-06-03T16:38:16Z</time>
      </trkpt>
      <trkpt lat="44.91711" lon="5.19934">
        <ele>1023.1939697266</ele>
        <time>2009-06-03T16:38:23Z</time>
      </trkpt>
      <trkpt lat="44.91559" lon="5.19885">
        <ele>1011.8870239258</ele>
        <time>2009-06-03T16:38:32Z</time>
      </trkpt>
      <trkpt lat="44.91436" lon="5.19873">
        <ele>1002.4470214844</ele>
        <time>2009-06-03T16:38:39Z</time>
      </trkpt>
      <trkpt lat="44.91388" lon="5.19872">
        <ele>1001.0949707031</ele>
        <time>2009-06-03T16:38:42Z</time>
      </trkpt>
      <trkpt lat="44.9134" lon="5.19881">
        <ele>1000.1430053711</ele>
        <time>2009-06-03T16:38:48Z</time>
      </trkpt>
      <trkpt lat="44.91354" lon="5.19857">
        <ele>997.49798583984</ele>
        <time>2009-06-03T16:38:52Z</time>
      </trkpt>
      <trkpt lat="44.91362" lon="5.19854">
        <ele>997.36199951172</ele>
        <time>2009-06-03T16:38:53Z</time>
      </trkpt>
      <trkpt lat="44.91371" lon="5.19852">
        <ele>996.55499267578</ele>
        <time>2009-06-03T16:38:54Z</time>
      </trkpt>
      <trkpt lat="44.91432" lon="5.19834">
        <ele>989.81799316406</ele>
        <time>2009-06-03T16:39:00Z</time>
      </trkpt>
      <trkpt lat="44.91479" lon="5.19821">
        <ele>986.07397460938</ele>
        <time>2009-06-03T16:39:04Z</time>
      </trkpt>
      <trkpt lat="44.91529" lon="5.19816">
        <ele>981.94799804688</ele>
        <time>2009-06-03T16:39:08Z</time>
      </trkpt>
      <trkpt lat="44.91674" lon="5.19798">
        <ele>971.53100585938</ele>
        <time>2009-06-03T16:39:19Z</time>
      </trkpt>
      <trkpt lat="44.91783" lon="5.19799">
        <ele>961.34197998047</ele>
        <time>2009-06-03T16:39:27Z</time>
      </trkpt>
      <trkpt lat="44.9181" lon="5.19803">
        <ele>961.47900390625</ele>
        <time>2009-06-03T16:39:29Z</time>
      </trkpt>
      <trkpt lat="44.91854" lon="5.19805">
        <ele>962.22399902344</ele>
        <time>2009-06-03T16:39:34Z</time>
      </trkpt>
      <trkpt lat="44.91839" lon="5.19783">
        <ele>960.32897949219</ele>
        <time>2009-06-03T16:39:38Z</time>
      </trkpt>
      <trkpt lat="44.91796" lon="5.1976">
        <ele>957.37799072266</ele>
        <time>2009-06-03T16:39:43Z</time>
      </trkpt>
      <trkpt lat="44.91753" lon="5.19737">
        <ele>953.32098388672</ele>
        <time>2009-06-03T16:39:47Z</time>
      </trkpt>
      <trkpt lat="44.91625" lon="5.19661">
        <ele>941.73297119141</ele>
        <time>2009-06-03T16:39:57Z</time>
      </trkpt>
      <trkpt lat="44.91528" lon="5.19627">
        <ele>933.74200439453</ele>
        <time>2009-06-03T16:40:04Z</time>
      </trkpt>
      <trkpt lat="44.91513" lon="5.19624">
        <ele>933.66802978516</ele>
        <time>2009-06-03T16:40:05Z</time>
      </trkpt>
      <trkpt lat="44.91452" lon="5.19613">
        <ele>928.85900878906</ele>
        <time>2009-06-03T16:40:09Z</time>
      </trkpt>
      <trkpt lat="44.91422" lon="5.19614">
        <ele>926.55603027344</ele>
        <time>2009-06-03T16:40:11Z</time>
      </trkpt>
      <trkpt lat="44.91407" lon="5.19617">
        <ele>926.50201416016</ele>
        <time>2009-06-03T16:40:12Z</time>
      </trkpt>
      <trkpt lat="44.9135" lon="5.19612">
        <ele>922.26397705078</ele>
        <time>2009-06-03T16:40:16Z</time>
      </trkpt>
      <trkpt lat="44.91278" lon="5.1958">
        <ele>913.69097900391</ele>
        <time>2009-06-03T16:40:21Z</time>
      </trkpt>
      <trkpt lat="44.91254" lon="5.19576">
        <ele>912.49298095703</ele>
        <time>2009-06-03T16:40:23Z</time>
      </trkpt>
      <trkpt lat="44.91254" lon="5.19576">
        <ele>912.71502685547</ele>
        <time>2009-06-03T16:40:24Z</time>
      </trkpt>
      <trkpt lat="44.91186" lon="5.19514">
        <ele>912.96899414062</ele>
        <time>2009-06-03T16:40:29Z</time>
      </trkpt>
      <trkpt lat="44.91192" lon="5.19453">
        <ele>915.50402832031</ele>
        <time>2009-06-03T16:40:33Z</time>
      </trkpt>
      <trkpt lat="44.91201" lon="5.19397">
        <ele>919.18597412109</ele>
        <time>2009-06-03T16:40:38Z</time>
      </trkpt>
      <trkpt lat="44.91205" lon="5.1938">
        <ele>920.16802978516</ele>
        <time>2009-06-03T16:40:40Z</time>
      </trkpt>
      <trkpt lat="44.91211" lon="5.19311">
        <ele>922.89300537109</ele>
        <time>2009-06-03T16:40:49Z</time>
      </trkpt>
      <trkpt lat="44.91211" lon="5.19304">
        <ele>923.21197509766</ele>
        <time>2009-06-03T16:40:50Z</time>
      </trkpt>
      <trkpt lat="44.91211" lon="5.19282">
        <ele>924.45001220703</ele>
        <time>2009-06-03T16:40:53Z</time>
      </trkpt>
      <trkpt lat="44.91211" lon="5.19272">
        <ele>924.98199462891</ele>
        <time>2009-06-03T16:40:55Z</time>
      </trkpt>
      <trkpt lat="44.91216" lon="5.19235">
        <ele>927.24200439453</ele>
        <time>2009-06-03T16:41:03Z</time>
      </trkpt>
      <trkpt lat="44.91209" lon="5.19225">
        <ele>928.53900146484</ele>
        <time>2009-06-03T16:41:05Z</time>
      </trkpt>
      <trkpt lat="44.912" lon="5.19211">
        <ele>929.67102050781</ele>
        <time>2009-06-03T16:41:08Z</time>
      </trkpt>
      <trkpt lat="44.91197" lon="5.19207">
        <ele>930.07897949219</ele>
        <time>2009-06-03T16:41:09Z</time>
      </trkpt>
      <trkpt lat="44.91183" lon="5.19186">
        <ele>931.35699462891</ele>
        <time>2009-06-03T16:41:14Z</time>
      </trkpt>
      <trkpt lat="44.91171" lon="5.19168">
        <ele>933.19396972656</ele>
        <time>2009-06-03T16:41:19Z</time>
      </trkpt>
      <trkpt lat="44.91141" lon="5.19113">
        <ele>936.57897949219</ele>
        <time>2009-06-03T16:41:35Z</time>
      </trkpt>
      <trkpt lat="44.91097" lon="5.19071">
        <ele>940.73999023438</ele>
        <time>2009-06-03T16:41:52Z</time>
      </trkpt>
      <trkpt lat="44.91058" lon="5.19058">
        <ele>943.49597167969</ele>
        <time>2009-06-03T16:42:05Z</time>
      </trkpt>
      <trkpt lat="44.91003" lon="5.19044">
        <ele>947.21099853516</ele>
        <time>2009-06-03T16:42:22Z</time>
      </trkpt>
      <trkpt lat="44.90964" lon="5.1904">
        <ele>950.25799560547</ele>
        <time>2009-06-03T16:42:34Z</time>
      </trkpt>
      <trkpt lat="44.90906" lon="5.19042">
        <ele>954.69000244141</ele>
        <time>2009-06-03T16:42:52Z</time>
      </trkpt>
      <trkpt lat="44.90866" lon="5.19043">
        <ele>957.69598388672</ele>
        <time>2009-06-03T16:43:04Z</time>
      </trkpt>
      <trkpt lat="44.90813" lon="5.19044">
        <ele>962.14898681641</ele>
        <time>2009-06-03T16:43:21Z</time>
      </trkpt>
      <trkpt lat="44.90767" lon="5.19047">
        <ele>965.27801513672</ele>
        <time>2009-06-03T16:43:36Z</time>
      </trkpt>
      <trkpt lat="44.90726" lon="5.19049">
        <ele>968.61798095703</ele>
        <time>2009-06-03T16:43:49Z</time>
      </trkpt>
      <trkpt lat="44.90676" lon="5.19051">
        <ele>972.86602783203</ele>
        <time>2009-06-03T16:44:05Z</time>
      </trkpt>
      <trkpt lat="44.90633" lon="5.19051">
        <ele>975.58099365234</ele>
        <time>2009-06-03T16:44:18Z</time>
      </trkpt>
      <trkpt lat="44.90617" lon="5.19049">
        <ele>976.94201660156</ele>
        <time>2009-06-03T16:44:23Z</time>
      </trkpt>
      <trkpt lat="44.90621" lon="5.19037">
        <ele>978.74597167969</ele>
        <time>2009-06-03T16:44:29Z</time>
      </trkpt>
      <trkpt lat="44.90652" lon="5.19026">
        <ele>980.833984375</ele>
        <time>2009-06-03T16:44:40Z</time>
      </trkpt>
      <trkpt lat="44.90691" lon="5.19011">
        <ele>983.00701904297</ele>
        <time>2009-06-03T16:44:53Z</time>
      </trkpt>
      <trkpt lat="44.90734" lon="5.1898">
        <ele>986.28302001953</ele>
        <time>2009-06-03T16:45:08Z</time>
      </trkpt>
      <trkpt lat="44.90777" lon="5.1896">
        <ele>990.06701660156</ele>
        <time>2009-06-03T16:45:23Z</time>
      </trkpt>
      <trkpt lat="44.90831" lon="5.18942">
        <ele>994.75402832031</ele>
        <time>2009-06-03T16:45:41Z</time>
      </trkpt>
      <trkpt lat="44.90882" lon="5.18918">
        <ele>998.34600830078</ele>
        <time>2009-06-03T16:45:58Z</time>
      </trkpt>
      <trkpt lat="44.90924" lon="5.18901">
        <ele>1000.6129760742</ele>
        <time>2009-06-03T16:46:13Z</time>
      </trkpt>
      <trkpt lat="44.90962" lon="5.18889">
        <ele>1003.9799804688</ele>
        <time>2009-06-03T16:46:26Z</time>
      </trkpt>
      <trkpt lat="44.90989" lon="5.1888">
        <ele>1005.2890014648</ele>
        <time>2009-06-03T16:46:35Z</time>
      </trkpt>
      <trkpt lat="44.91" lon="5.18874">
        <ele>1006.0390014648</ele>
        <time>2009-06-03T16:46:39Z</time>
      </trkpt>
      <trkpt lat="44.91026" lon="5.18859">
        <ele>1008.1309814453</ele>
        <time>2009-06-03T16:46:48Z</time>
      </trkpt>
      <trkpt lat="44.91061" lon="5.1884">
        <ele>1010.6979980469</ele>
        <time>2009-06-03T16:46:58Z</time>
      </trkpt>
      <trkpt lat="44.91097" lon="5.18819">
        <ele>1013.8720092773</ele>
        <time>2009-06-03T16:47:10Z</time>
      </trkpt>
      <trkpt lat="44.91114" lon="5.18809">
        <ele>1015.3809814453</ele>
        <time>2009-06-03T16:47:16Z</time>
      </trkpt>
      <trkpt lat="44.91117" lon="5.18808">
        <ele>1016.4119873047</ele>
        <time>2009-06-03T16:47:20Z</time>
      </trkpt>
      <trkpt lat="44.91111" lon="5.18786">
        <ele>1017.6409912109</ele>
        <time>2009-06-03T16:47:26Z</time>
      </trkpt>
      <trkpt lat="44.91079" lon="5.18747">
        <ele>1020.5460205078</ele>
        <time>2009-06-03T16:47:40Z</time>
      </trkpt>
      <trkpt lat="44.91053" lon="5.18682">
        <ele>1023.5260009766</ele>
        <time>2009-06-03T16:47:58Z</time>
      </trkpt>
      <trkpt lat="44.91027" lon="5.18616">
        <ele>1027.4499511719</ele>
        <time>2009-06-03T16:48:16Z</time>
      </trkpt>
      <trkpt lat="44.91008" lon="5.18553">
        <ele>1031.3969726562</ele>
        <time>2009-06-03T16:48:33Z</time>
      </trkpt>
      <trkpt lat="44.90994" lon="5.1851">
        <ele>1035.5760498047</ele>
        <time>2009-06-03T16:48:45Z</time>
      </trkpt>
      <trkpt lat="44.90963" lon="5.18456">
        <ele>1038.4859619141</ele>
        <time>2009-06-03T16:49:01Z</time>
      </trkpt>
      <trkpt lat="44.90944" lon="5.18403">
        <ele>1041.4930419922</ele>
        <time>2009-06-03T16:49:16Z</time>
      </trkpt>
      <trkpt lat="44.90976" lon="5.18383">
        <ele>1045.0200195312</ele>
        <time>2009-06-03T16:49:27Z</time>
      </trkpt>
      <trkpt lat="44.91009" lon="5.18383">
        <ele>1048.9110107422</ele>
        <time>2009-06-03T16:49:38Z</time>
      </trkpt>
      <trkpt lat="44.91063" lon="5.18424">
        <ele>1053.1860351562</ele>
        <time>2009-06-03T16:49:57Z</time>
      </trkpt>
      <trkpt lat="44.91092" lon="5.18465">
        <ele>1056.4489746094</ele>
        <time>2009-06-03T16:50:11Z</time>
      </trkpt>
      <trkpt lat="44.91131" lon="5.18513">
        <ele>1060.4620361328</ele>
        <time>2009-06-03T16:50:29Z</time>
      </trkpt>
      <trkpt lat="44.91167" lon="5.18549">
        <ele>1063.1020507812</ele>
        <time>2009-06-03T16:50:44Z</time>
      </trkpt>
      <trkpt lat="44.9121" lon="5.18572">
        <ele>1066.7860107422</ele>
        <time>2009-06-03T16:51:01Z</time>
      </trkpt>
      <trkpt lat="44.91228" lon="5.18572">
        <ele>1068.9079589844</ele>
        <time>2009-06-03T16:51:08Z</time>
      </trkpt>
      <trkpt lat="44.91255" lon="5.18548">
        <ele>1069.0789794922</ele>
        <time>2009-06-03T16:51:20Z</time>
      </trkpt>
      <trkpt lat="44.91287" lon="5.18498">
        <ele>1072.3420410156</ele>
        <time>2009-06-03T16:51:34Z</time>
      </trkpt>
      <trkpt lat="44.91301" lon="5.18475">
        <ele>1075.1409912109</ele>
        <time>2009-06-03T16:51:40Z</time>
      </trkpt>
      <trkpt lat="44.91343" lon="5.1841">
        <ele>1080.3740234375</ele>
        <time>2009-06-03T16:51:58Z</time>
      </trkpt>
      <trkpt lat="44.91375" lon="5.18349">
        <ele>1083.7659912109</ele>
        <time>2009-06-03T16:52:15Z</time>
      </trkpt>
      <trkpt lat="44.91386" lon="5.18302">
        <ele>1090.0109863281</ele>
        <time>2009-06-03T16:52:26Z</time>
      </trkpt>
      <trkpt lat="44.91392" lon="5.18272">
        <ele>1091.6949462891</ele>
        <time>2009-06-03T16:52:33Z</time>
      </trkpt>
      <trkpt lat="44.91404" lon="5.18222">
        <ele>1095.4079589844</ele>
        <time>2009-06-03T16:52:45Z</time>
      </trkpt>
      <trkpt lat="44.91407" lon="5.1822">
        <ele>1094.9649658203</ele>
        <time>2009-06-03T16:52:46Z</time>
      </trkpt>
      <trkpt lat="44.91418" lon="5.18222">
        <ele>1095.5989990234</ele>
        <time>2009-06-03T16:52:50Z</time>
      </trkpt>
      <trkpt lat="44.91464" lon="5.18263">
        <ele>1099.8709716797</ele>
        <time>2009-06-03T16:53:07Z</time>
      </trkpt>
      <trkpt lat="44.91507" lon="5.18232">
        <ele>1103.041015625</ele>
        <time>2009-06-03T16:53:22Z</time>
      </trkpt>
      <trkpt lat="44.91562" lon="5.18193">
        <ele>1107.5729980469</ele>
        <time>2009-06-03T16:53:41Z</time>
      </trkpt>
      <trkpt lat="44.91586" lon="5.18203">
        <ele>1110.7850341797</ele>
        <time>2009-06-03T16:53:51Z</time>
      </trkpt>
      <trkpt lat="44.91596" lon="5.1827">
        <ele>1114.2650146484</ele>
        <time>2009-06-03T16:54:05Z</time>
      </trkpt>
      <trkpt lat="44.91607" lon="5.18326">
        <ele>1117.4270019531</ele>
        <time>2009-06-03T16:54:18Z</time>
      </trkpt>
      <trkpt lat="44.9163" lon="5.18381">
        <ele>1119.6390380859</ele>
        <time>2009-06-03T16:54:32Z</time>
      </trkpt>
      <trkpt lat="44.91666" lon="5.18404">
        <ele>1122.9510498047</ele>
        <time>2009-06-03T16:54:46Z</time>
      </trkpt>
      <trkpt lat="44.91705" lon="5.18414">
        <ele>1127.0789794922</ele>
        <time>2009-06-03T16:55:01Z</time>
      </trkpt>
      <trkpt lat="44.9174" lon="5.18426">
        <ele>1132.1419677734</ele>
        <time>2009-06-03T16:55:16Z</time>
      </trkpt>
      <trkpt lat="44.91756" lon="5.1844">
        <ele>1134.0310058594</ele>
        <time>2009-06-03T16:55:24Z</time>
      </trkpt>
      <trkpt lat="44.91754" lon="5.18438">
        <ele>1133.7569580078</ele>
        <time>2009-06-03T16:55:32Z</time>
      </trkpt>
      <trkpt lat="44.91751" lon="5.18435">
        <ele>1134.5319824219</ele>
        <time>2009-06-03T16:57:51Z</time>
      </trkpt>
      <trkpt lat="44.91756" lon="5.18439">
        <ele>1135.0369873047</ele>
        <time>2009-06-03T16:57:55Z</time>
      </trkpt>
      <trkpt lat="44.91761" lon="5.18436">
        <ele>1134.9189453125</ele>
        <time>2009-06-03T16:57:57Z</time>
      </trkpt>
      <trkpt lat="44.91758" lon="5.18423">
        <ele>1134.4930419922</ele>
        <time>2009-06-03T16:58:02Z</time>
      </trkpt>
      <trkpt lat="44.91736" lon="5.18406">
        <ele>1136.0360107422</ele>
        <time>2009-06-03T16:58:08Z</time>
      </trkpt>
      <trkpt lat="44.91713" lon="5.18392">
        <ele>1136.6080322266</ele>
        <time>2009-06-03T16:58:14Z</time>
      </trkpt>
      <trkpt lat="44.91697" lon="5.18383">
        <ele>1137.0190429688</ele>
        <time>2009-06-03T16:58:18Z</time>
      </trkpt>
      <trkpt lat="44.91689" lon="5.18378">
        <ele>1137.1610107422</ele>
        <time>2009-06-03T16:58:20Z</time>
      </trkpt>
      <trkpt lat="44.91687" lon="5.18366">
        <ele>1138.5689697266</ele>
        <time>2009-06-03T16:58:25Z</time>
      </trkpt>
      <trkpt lat="44.91745" lon="5.18395">
        <ele>1143.7320556641</ele>
        <time>2009-06-03T16:58:39Z</time>
      </trkpt>
      <trkpt lat="44.9177" lon="5.18407">
        <ele>1144.2829589844</ele>
        <time>2009-06-03T16:58:45Z</time>
      </trkpt>
      <trkpt lat="44.9182" lon="5.18432">
        <ele>1149.0379638672</ele>
        <time>2009-06-03T16:59:00Z</time>
      </trkpt>
      <trkpt lat="44.91859" lon="5.18452">
        <ele>1148.7239990234</ele>
        <time>2009-06-03T16:59:14Z</time>
      </trkpt>
      <trkpt lat="44.91876" lon="5.1846">
        <ele>1147.1240234375</ele>
        <time>2009-06-03T16:59:17Z</time>
      </trkpt>
      <trkpt lat="44.91896" lon="5.18468">
        <ele>1144.8110351562</ele>
        <time>2009-06-03T16:59:23Z</time>
      </trkpt>
      <trkpt lat="44.91899" lon="5.1846">
        <ele>1145.2209472656</ele>
        <time>2009-06-03T16:59:25Z</time>
      </trkpt>
      <trkpt lat="44.91901" lon="5.18471">
        <ele>1145.2130126953</ele>
        <time>2009-06-03T17:00:52Z</time>
      </trkpt>
      <trkpt lat="44.91903" lon="5.18461">
        <ele>1145.4219970703</ele>
        <time>2009-06-03T17:00:54Z</time>
      </trkpt>
      <trkpt lat="44.919" lon="5.1847">
        <ele>1142.9399414062</ele>
        <time>2009-06-03T17:01:51Z</time>
      </trkpt>
      <trkpt lat="44.91907" lon="5.18474">
        <ele>1141.5770263672</ele>
        <time>2009-06-03T17:01:54Z</time>
      </trkpt>
      <trkpt lat="44.91916" lon="5.18485">
        <ele>1139.5090332031</ele>
        <time>2009-06-03T17:01:57Z</time>
      </trkpt>
      <trkpt lat="44.9192" lon="5.1849">
        <ele>1139.1169433594</ele>
        <time>2009-06-03T17:01:58Z</time>
      </trkpt>
      <trkpt lat="44.91924" lon="5.18495">
        <ele>1138.1739501953</ele>
        <time>2009-06-03T17:01:59Z</time>
      </trkpt>
      <trkpt lat="44.91936" lon="5.18501">
        <ele>1136.7869873047</ele>
        <time>2009-06-03T17:02:01Z</time>
      </trkpt>
      <trkpt lat="44.91949" lon="5.18505">
        <ele>1134.4610595703</ele>
        <time>2009-06-03T17:02:03Z</time>
      </trkpt>
      <trkpt lat="44.9205" lon="5.18527">
        <ele>1125.2239990234</ele>
        <time>2009-06-03T17:02:14Z</time>
      </trkpt>
      <trkpt lat="44.92118" lon="5.18535">
        <ele>1118.6610107422</ele>
        <time>2009-06-03T17:02:20Z</time>
      </trkpt>
      <trkpt lat="44.92249" lon="5.18557">
        <ele>1106.7900390625</ele>
        <time>2009-06-03T17:02:30Z</time>
      </trkpt>
      <trkpt lat="44.92336" lon="5.18559">
        <ele>1101.3280029297</ele>
        <time>2009-06-03T17:02:36Z</time>
      </trkpt>
      <trkpt lat="44.92366" lon="5.18559">
        <ele>1098.2290039062</ele>
        <time>2009-06-03T17:02:38Z</time>
      </trkpt>
      <trkpt lat="44.9241" lon="5.18567">
        <ele>1093.9079589844</ele>
        <time>2009-06-03T17:02:41Z</time>
      </trkpt>
      <trkpt lat="44.92485" lon="5.18576">
        <ele>1087.1960449219</ele>
        <time>2009-06-03T17:02:46Z</time>
      </trkpt>
      <trkpt lat="44.92529" lon="5.18584">
        <ele>1084.6350097656</ele>
        <time>2009-06-03T17:02:49Z</time>
      </trkpt>
      <trkpt lat="44.92557" lon="5.18593">
        <ele>1086.0439453125</ele>
        <time>2009-06-03T17:02:51Z</time>
      </trkpt>
      <trkpt lat="44.92578" lon="5.18599">
        <ele>1086.7430419922</ele>
        <time>2009-06-03T17:02:53Z</time>
      </trkpt>
      <trkpt lat="44.92589" lon="5.18602">
        <ele>1086.5570068359</ele>
        <time>2009-06-03T17:02:55Z</time>
      </trkpt>
      <trkpt lat="44.92585" lon="5.18593">
        <ele>1085.4210205078</ele>
        <time>2009-06-03T17:02:57Z</time>
      </trkpt>
      <trkpt lat="44.92572" lon="5.18586">
        <ele>1083.8089599609</ele>
        <time>2009-06-03T17:02:59Z</time>
      </trkpt>
      <trkpt lat="44.92516" lon="5.18554">
        <ele>1076.8160400391</ele>
        <time>2009-06-03T17:03:05Z</time>
      </trkpt>
      <trkpt lat="44.92483" lon="5.18537">
        <ele>1073.3630371094</ele>
        <time>2009-06-03T17:03:08Z</time>
      </trkpt>
      <trkpt lat="44.92384" lon="5.18493">
        <ele>1065.1689453125</ele>
        <time>2009-06-03T17:03:16Z</time>
      </trkpt>
      <trkpt lat="44.92358" lon="5.18484">
        <ele>1063.2559814453</ele>
        <time>2009-06-03T17:03:18Z</time>
      </trkpt>
      <trkpt lat="44.92289" lon="5.18461">
        <ele>1057.9439697266</ele>
        <time>2009-06-03T17:03:23Z</time>
      </trkpt>
      <trkpt lat="44.92274" lon="5.18457">
        <ele>1057.5050048828</ele>
        <time>2009-06-03T17:03:24Z</time>
      </trkpt>
      <trkpt lat="44.92232" lon="5.18442">
        <ele>1058.2130126953</ele>
        <time>2009-06-03T17:03:28Z</time>
      </trkpt>
      <trkpt lat="44.92229" lon="5.18432">
        <ele>1057.3129882812</ele>
        <time>2009-06-03T17:03:30Z</time>
      </trkpt>
      <trkpt lat="44.92234" lon="5.18431">
        <ele>1056.2530517578</ele>
        <time>2009-06-03T17:03:31Z</time>
      </trkpt>
      <trkpt lat="44.92234" lon="5.18431">
        <ele>1055.626953125</ele>
        <time>2009-06-03T17:03:32Z</time>
      </trkpt>
      <trkpt lat="44.9225" lon="5.18432">
        <ele>1053.3609619141</ele>
        <time>2009-06-03T17:03:34Z</time>
      </trkpt>
      <trkpt lat="44.92313" lon="5.18435">
        <ele>1046.5190429688</ele>
        <time>2009-06-03T17:03:40Z</time>
      </trkpt>
      <trkpt lat="44.92375" lon="5.18439">
        <ele>1041.8979492188</ele>
        <time>2009-06-03T17:03:45Z</time>
      </trkpt>
      <trkpt lat="44.92529" lon="5.18466">
        <ele>1032.2829589844</ele>
        <time>2009-06-03T17:03:57Z</time>
      </trkpt>
      <trkpt lat="44.92605" lon="5.18495">
        <ele>1026.873046875</ele>
        <time>2009-06-03T17:04:03Z</time>
      </trkpt>
      <trkpt lat="44.92627" lon="5.18503">
        <ele>1028.001953125</ele>
        <time>2009-06-03T17:04:05Z</time>
      </trkpt>
      <trkpt lat="44.92636" lon="5.18506">
        <ele>1028.3850097656</ele>
        <time>2009-06-03T17:04:06Z</time>
      </trkpt>
      <trkpt lat="44.92646" lon="5.18505">
        <ele>1028.0570068359</ele>
        <time>2009-06-03T17:04:08Z</time>
      </trkpt>
      <trkpt lat="44.92635" lon="5.18489">
        <ele>1026.1390380859</ele>
        <time>2009-06-03T17:04:11Z</time>
      </trkpt>
      <trkpt lat="44.92621" lon="5.18481">
        <ele>1024.3120117188</ele>
        <time>2009-06-03T17:04:13Z</time>
      </trkpt>
      <trkpt lat="44.92523" lon="5.18425">
        <ele>1014.4520263672</ele>
        <time>2009-06-03T17:04:23Z</time>
      </trkpt>
      <trkpt lat="44.92401" lon="5.18359">
        <ele>1003.4349975586</ele>
        <time>2009-06-03T17:04:33Z</time>
      </trkpt>
      <trkpt lat="44.92264" lon="5.18308">
        <ele>992.78997802734</ele>
        <time>2009-06-03T17:04:43Z</time>
      </trkpt>
      <trkpt lat="44.92194" lon="5.18282">
        <ele>988.93402099609</ele>
        <time>2009-06-03T17:04:48Z</time>
      </trkpt>
      <trkpt lat="44.92159" lon="5.18255">
        <ele>988.98699951172</ele>
        <time>2009-06-03T17:04:54Z</time>
      </trkpt>
      <trkpt lat="44.92159" lon="5.18267">
        <ele>988.14099121094</ele>
        <time>2009-06-03T17:04:55Z</time>
      </trkpt>
      <trkpt lat="44.92171" lon="5.18265">
        <ele>986.26501464844</ele>
        <time>2009-06-03T17:04:57Z</time>
      </trkpt>
      <trkpt lat="44.92196" lon="5.18263">
        <ele>983.34600830078</ele>
        <time>2009-06-03T17:05:00Z</time>
      </trkpt>
      <trkpt lat="44.92236" lon="5.18267">
        <ele>979.00598144531</ele>
        <time>2009-06-03T17:05:04Z</time>
      </trkpt>
      <trkpt lat="44.9227" lon="5.1827">
        <ele>976.90802001953</ele>
        <time>2009-06-03T17:05:07Z</time>
      </trkpt>
      <trkpt lat="44.92344" lon="5.18275">
        <ele>971.9169921875</ele>
        <time>2009-06-03T17:05:13Z</time>
      </trkpt>
      <trkpt lat="44.92448" lon="5.18272">
        <ele>963.71899414062</ele>
        <time>2009-06-03T17:05:21Z</time>
      </trkpt>
      <trkpt lat="44.925" lon="5.18279">
        <ele>960.35601806641</ele>
        <time>2009-06-03T17:05:25Z</time>
      </trkpt>
      <trkpt lat="44.92657" lon="5.18328">
        <ele>949.60699462891</ele>
        <time>2009-06-03T17:05:37Z</time>
      </trkpt>
      <trkpt lat="44.92736" lon="5.18331">
        <ele>947.97497558594</ele>
        <time>2009-06-03T17:05:43Z</time>
      </trkpt>
      <trkpt lat="44.92745" lon="5.18331">
        <ele>948.16198730469</ele>
        <time>2009-06-03T17:05:44Z</time>
      </trkpt>
      <trkpt lat="44.92752" lon="5.18319">
        <ele>946.22497558594</ele>
        <time>2009-06-03T17:05:48Z</time>
      </trkpt>
      <trkpt lat="44.92746" lon="5.18318">
        <ele>945.26599121094</ele>
        <time>2009-06-03T17:05:49Z</time>
      </trkpt>
      <trkpt lat="44.92739" lon="5.18316">
        <ele>944.09197998047</ele>
        <time>2009-06-03T17:05:50Z</time>
      </trkpt>
      <trkpt lat="44.92731" lon="5.18315">
        <ele>943.78198242188</ele>
        <time>2009-06-03T17:05:51Z</time>
      </trkpt>
      <trkpt lat="44.92671" lon="5.18299">
        <ele>937.66101074219</ele>
        <time>2009-06-03T17:05:57Z</time>
      </trkpt>
      <trkpt lat="44.92605" lon="5.18261">
        <ele>932.04400634766</ele>
        <time>2009-06-03T17:06:03Z</time>
      </trkpt>
      <trkpt lat="44.92517" lon="5.18178">
        <ele>924.26000976562</ele>
        <time>2009-06-03T17:06:11Z</time>
      </trkpt>
      <trkpt lat="44.92466" lon="5.18149">
        <ele>919.97998046875</ele>
        <time>2009-06-03T17:06:15Z</time>
      </trkpt>
      <trkpt lat="44.9238" lon="5.18136">
        <ele>913.01599121094</ele>
        <time>2009-06-03T17:06:21Z</time>
      </trkpt>
      <trkpt lat="44.92299" lon="5.18097">
        <ele>907.32702636719</ele>
        <time>2009-06-03T17:06:27Z</time>
      </trkpt>
      <trkpt lat="44.92256" lon="5.18075">
        <ele>907.94201660156</ele>
        <time>2009-06-03T17:06:31Z</time>
      </trkpt>
      <trkpt lat="44.92251" lon="5.18068">
        <ele>907.24700927734</ele>
        <time>2009-06-03T17:06:33Z</time>
      </trkpt>
      <trkpt lat="44.92253" lon="5.18066">
        <ele>905.57702636719</ele>
        <time>2009-06-03T17:06:35Z</time>
      </trkpt>
      <trkpt lat="44.92258" lon="5.18067">
        <ele>904.62701416016</ele>
        <time>2009-06-03T17:06:36Z</time>
      </trkpt>
      <trkpt lat="44.92282" lon="5.18071">
        <ele>902.375</ele>
        <time>2009-06-03T17:06:39Z</time>
      </trkpt>
      <trkpt lat="44.92347" lon="5.18082">
        <ele>897.43902587891</ele>
        <time>2009-06-03T17:06:45Z</time>
      </trkpt>
      <trkpt lat="44.92418" lon="5.18077">
        <ele>891.37298583984</ele>
        <time>2009-06-03T17:06:51Z</time>
      </trkpt>
      <trkpt lat="44.9243" lon="5.18074">
        <ele>890.77301025391</ele>
        <time>2009-06-03T17:06:52Z</time>
      </trkpt>
      <trkpt lat="44.92491" lon="5.18048">
        <ele>885.97698974609</ele>
        <time>2009-06-03T17:06:57Z</time>
      </trkpt>
      <trkpt lat="44.92516" lon="5.18033">
        <ele>884.98400878906</ele>
        <time>2009-06-03T17:06:59Z</time>
      </trkpt>
      <trkpt lat="44.92562" lon="5.18056">
        <ele>880.91400146484</ele>
        <time>2009-06-03T17:07:03Z</time>
      </trkpt>
      <trkpt lat="44.92597" lon="5.18084">
        <ele>877.76501464844</ele>
        <time>2009-06-03T17:07:07Z</time>
      </trkpt>
      <trkpt lat="44.92622" lon="5.18085">
        <ele>877.71997070312</ele>
        <time>2009-06-03T17:07:09Z</time>
      </trkpt>
      <trkpt lat="44.92694" lon="5.1809">
        <ele>872.61602783203</ele>
        <time>2009-06-03T17:07:15Z</time>
      </trkpt>
      <trkpt lat="44.92701" lon="5.18076">
        <ele>871.61199951172</ele>
        <time>2009-06-03T17:07:16Z</time>
      </trkpt>
      <trkpt lat="44.92741" lon="5.17986">
        <ele>866.77502441406</ele>
        <time>2009-06-03T17:07:22Z</time>
      </trkpt>
      <trkpt lat="44.92769" lon="5.17884">
        <ele>860.87701416016</ele>
        <time>2009-06-03T17:07:28Z</time>
      </trkpt>
      <trkpt lat="44.92786" lon="5.17799">
        <ele>857.81896972656</ele>
        <time>2009-06-03T17:07:34Z</time>
      </trkpt>
      <trkpt lat="44.92793" lon="5.17759">
        <ele>855.96197509766</ele>
        <time>2009-06-03T17:07:37Z</time>
      </trkpt>
      <trkpt lat="44.92808" lon="5.17677">
        <ele>849.65002441406</ele>
        <time>2009-06-03T17:07:43Z</time>
      </trkpt>
      <trkpt lat="44.92818" lon="5.1767">
        <ele>848.82800292969</ele>
        <time>2009-06-03T17:07:44Z</time>
      </trkpt>
      <trkpt lat="44.92931" lon="5.17619">
        <ele>838.62097167969</ele>
        <time>2009-06-03T17:07:54Z</time>
      </trkpt>
      <trkpt lat="44.92943" lon="5.17613">
        <ele>837.23400878906</ele>
        <time>2009-06-03T17:07:55Z</time>
      </trkpt>
      <trkpt lat="44.93015" lon="5.17572">
        <ele>832.40002441406</ele>
        <time>2009-06-03T17:08:01Z</time>
      </trkpt>
      <trkpt lat="44.93077" lon="5.17501">
        <ele>825.64697265625</ele>
        <time>2009-06-03T17:08:07Z</time>
      </trkpt>
      <trkpt lat="44.93094" lon="5.17473">
        <ele>824.91198730469</ele>
        <time>2009-06-03T17:08:09Z</time>
      </trkpt>
      <trkpt lat="44.9311" lon="5.17441">
        <ele>821.70098876953</ele>
        <time>2009-06-03T17:08:11Z</time>
      </trkpt>
      <trkpt lat="44.93152" lon="5.17381">
        <ele>818.78900146484</ele>
        <time>2009-06-03T17:08:16Z</time>
      </trkpt>
      <trkpt lat="44.93216" lon="5.17339">
        <ele>813.12097167969</ele>
        <time>2009-06-03T17:08:22Z</time>
      </trkpt>
      <trkpt lat="44.93219" lon="5.17321">
        <ele>811.67199707031</ele>
        <time>2009-06-03T17:08:23Z</time>
      </trkpt>
      <trkpt lat="44.93241" lon="5.17214">
        <ele>804.90698242188</ele>
        <time>2009-06-03T17:08:29Z</time>
      </trkpt>
      <trkpt lat="44.93279" lon="5.17111">
        <ele>800.90301513672</ele>
        <time>2009-06-03T17:08:35Z</time>
      </trkpt>
      <trkpt lat="44.93311" lon="5.1709">
        <ele>798.76300048828</ele>
        <time>2009-06-03T17:08:39Z</time>
      </trkpt>
      <trkpt lat="44.93348" lon="5.171">
        <ele>796.23199462891</ele>
        <time>2009-06-03T17:08:43Z</time>
      </trkpt>
      <trkpt lat="44.93379" lon="5.17068">
        <ele>793.80902099609</ele>
        <time>2009-06-03T17:08:47Z</time>
      </trkpt>
      <trkpt lat="44.93401" lon="5.16971">
        <ele>787.34100341797</ele>
        <time>2009-06-03T17:08:53Z</time>
      </trkpt>
      <trkpt lat="44.93414" lon="5.1692">
        <ele>783.708984375</ele>
        <time>2009-06-03T17:08:56Z</time>
      </trkpt>
      <trkpt lat="44.93418" lon="5.16902">
        <ele>783.42602539062</ele>
        <time>2009-06-03T17:08:57Z</time>
      </trkpt>
      <trkpt lat="44.93426" lon="5.16867">
        <ele>780.93701171875</ele>
        <time>2009-06-03T17:08:59Z</time>
      </trkpt>
      <trkpt lat="44.93434" lon="5.16832">
        <ele>779.88800048828</ele>
        <time>2009-06-03T17:09:01Z</time>
      </trkpt>
      <trkpt lat="44.93422" lon="5.1676">
        <ele>777.4990234375</ele>
        <time>2009-06-03T17:09:05Z</time>
      </trkpt>
      <trkpt lat="44.93425" lon="5.16726">
        <ele>776.41101074219</ele>
        <time>2009-06-03T17:09:07Z</time>
      </trkpt>
      <trkpt lat="44.93432" lon="5.16641">
        <ele>772.75201416016</ele>
        <time>2009-06-03T17:09:12Z</time>
      </trkpt>
      <trkpt lat="44.93444" lon="5.16557">
        <ele>769.29901123047</ele>
        <time>2009-06-03T17:09:18Z</time>
      </trkpt>
      <trkpt lat="44.9349" lon="5.16489">
        <ele>765.30102539062</ele>
        <time>2009-06-03T17:09:24Z</time>
      </trkpt>
      <trkpt lat="44.93499" lon="5.16459">
        <ele>763.97698974609</ele>
        <time>2009-06-03T17:09:26Z</time>
      </trkpt>
      <trkpt lat="44.93499" lon="5.16343">
        <ele>759.16101074219</ele>
        <time>2009-06-03T17:09:33Z</time>
      </trkpt>
      <trkpt lat="44.93486" lon="5.16293">
        <ele>757.32702636719</ele>
        <time>2009-06-03T17:09:36Z</time>
      </trkpt>
      <trkpt lat="44.93498" lon="5.1624">
        <ele>754.79400634766</ele>
        <time>2009-06-03T17:09:41Z</time>
      </trkpt>
      <trkpt lat="44.93563" lon="5.16188">
        <ele>750.05499267578</ele>
        <time>2009-06-03T17:09:49Z</time>
      </trkpt>
      <trkpt lat="44.93578" lon="5.16166">
        <ele>747.52001953125</ele>
        <time>2009-06-03T17:09:51Z</time>
      </trkpt>
      <trkpt lat="44.93586" lon="5.16155">
        <ele>747.69000244141</ele>
        <time>2009-06-03T17:09:52Z</time>
      </trkpt>
      <trkpt lat="44.93621" lon="5.16129">
        <ele>745.98297119141</ele>
        <time>2009-06-03T17:09:56Z</time>
      </trkpt>
      <trkpt lat="44.93663" lon="5.16125">
        <ele>744.57501220703</ele>
        <time>2009-06-03T17:10:00Z</time>
      </trkpt>
      <trkpt lat="44.93694" lon="5.16111">
        <ele>742.17700195312</ele>
        <time>2009-06-03T17:10:03Z</time>
      </trkpt>
      <trkpt lat="44.93712" lon="5.16094">
        <ele>741.31500244141</ele>
        <time>2009-06-03T17:10:05Z</time>
      </trkpt>
      <trkpt lat="44.93769" lon="5.16039">
        <ele>737.27197265625</ele>
        <time>2009-06-03T17:10:11Z</time>
      </trkpt>
      <trkpt lat="44.93808" lon="5.16028">
        <ele>734.06201171875</ele>
        <time>2009-06-03T17:10:15Z</time>
      </trkpt>
      <trkpt lat="44.93823" lon="5.16056">
        <ele>733.40100097656</ele>
        <time>2009-06-03T17:10:18Z</time>
      </trkpt>
      <trkpt lat="44.93836" lon="5.16122">
        <ele>729.55902099609</ele>
        <time>2009-06-03T17:10:23Z</time>
      </trkpt>
      <trkpt lat="44.9384" lon="5.16163">
        <ele>727.82202148438</ele>
        <time>2009-06-03T17:10:26Z</time>
      </trkpt>
      <trkpt lat="44.93837" lon="5.1622">
        <ele>726.36700439453</ele>
        <time>2009-06-03T17:10:30Z</time>
      </trkpt>
      <trkpt lat="44.93835" lon="5.16235">
        <ele>726.58599853516</ele>
        <time>2009-06-03T17:10:31Z</time>
      </trkpt>
      <trkpt lat="44.9382" lon="5.16272">
        <ele>725.17602539062</ele>
        <time>2009-06-03T17:10:34Z</time>
      </trkpt>
      <trkpt lat="44.93792" lon="5.16278">
        <ele>723.21600341797</ele>
        <time>2009-06-03T17:10:37Z</time>
      </trkpt>
      <trkpt lat="44.93772" lon="5.16276">
        <ele>723.38800048828</ele>
        <time>2009-06-03T17:10:39Z</time>
      </trkpt>
      <trkpt lat="44.93763" lon="5.16284">
        <ele>723.26599121094</ele>
        <time>2009-06-03T17:10:41Z</time>
      </trkpt>
      <trkpt lat="44.93773" lon="5.16298">
        <ele>721.65502929688</ele>
        <time>2009-06-03T17:10:45Z</time>
      </trkpt>
      <trkpt lat="44.93779" lon="5.16298">
        <ele>721.04302978516</ele>
        <time>2009-06-03T17:10:46Z</time>
      </trkpt>
      <trkpt lat="44.93786" lon="5.16299">
        <ele>720.19897460938</ele>
        <time>2009-06-03T17:10:47Z</time>
      </trkpt>
      <trkpt lat="44.93813" lon="5.163">
        <ele>719.17498779297</ele>
        <time>2009-06-03T17:10:51Z</time>
      </trkpt>
      <trkpt lat="44.9385" lon="5.16265">
        <ele>716.94201660156</ele>
        <time>2009-06-03T17:10:57Z</time>
      </trkpt>
      <trkpt lat="44.93876" lon="5.16216">
        <ele>714.42700195312</ele>
        <time>2009-06-03T17:11:02Z</time>
      </trkpt>
      <trkpt lat="44.93888" lon="5.16181">
        <ele>713.06500244141</ele>
        <time>2009-06-03T17:11:05Z</time>
      </trkpt>
      <trkpt lat="44.93893" lon="5.16154">
        <ele>711.53601074219</ele>
        <time>2009-06-03T17:11:07Z</time>
      </trkpt>
      <trkpt lat="44.93888" lon="5.16097">
        <ele>707.79797363281</ele>
        <time>2009-06-03T17:11:11Z</time>
      </trkpt>
      <trkpt lat="44.93882" lon="5.16023">
        <ele>706.10797119141</ele>
        <time>2009-06-03T17:11:16Z</time>
      </trkpt>
      <trkpt lat="44.93886" lon="5.15959">
        <ele>703.70397949219</ele>
        <time>2009-06-03T17:11:20Z</time>
      </trkpt>
      <trkpt lat="44.93874" lon="5.15871">
        <ele>701.13500976562</ele>
        <time>2009-06-03T17:11:26Z</time>
      </trkpt>
      <trkpt lat="44.93837" lon="5.15883">
        <ele>700.43298339844</ele>
        <time>2009-06-03T17:11:30Z</time>
      </trkpt>
      <trkpt lat="44.9383" lon="5.15887">
        <ele>700.31500244141</ele>
        <time>2009-06-03T17:11:31Z</time>
      </trkpt>
      <trkpt lat="44.93824" lon="5.1589">
        <ele>699.96997070312</ele>
        <time>2009-06-03T17:11:32Z</time>
      </trkpt>
      <trkpt lat="44.9382" lon="5.15869">
        <ele>697.15899658203</ele>
        <time>2009-06-03T17:11:36Z</time>
      </trkpt>
      <trkpt lat="44.93825" lon="5.15867">
        <ele>696.7080078125</ele>
        <time>2009-06-03T17:11:37Z</time>
      </trkpt>
      <trkpt lat="44.93876" lon="5.1585">
        <ele>693.40399169922</ele>
        <time>2009-06-03T17:11:44Z</time>
      </trkpt>
      <trkpt lat="44.93904" lon="5.15865">
        <ele>689.31298828125</ele>
        <time>2009-06-03T17:11:48Z</time>
      </trkpt>
      <trkpt lat="44.93907" lon="5.15889">
        <ele>688.00201416016</ele>
        <time>2009-06-03T17:11:50Z</time>
      </trkpt>
      <trkpt lat="44.93908" lon="5.15928">
        <ele>685.64202880859</ele>
        <time>2009-06-03T17:11:53Z</time>
      </trkpt>
      <trkpt lat="44.9391" lon="5.15988">
        <ele>683.43902587891</ele>
        <time>2009-06-03T17:11:58Z</time>
      </trkpt>
      <trkpt lat="44.93914" lon="5.1601">
        <ele>682.41302490234</ele>
        <time>2009-06-03T17:12:00Z</time>
      </trkpt>
      <trkpt lat="44.9392" lon="5.16037">
        <ele>681.75500488281</ele>
        <time>2009-06-03T17:12:02Z</time>
      </trkpt>
      <trkpt lat="44.93945" lon="5.16152">
        <ele>679.64001464844</ele>
        <time>2009-06-03T17:12:10Z</time>
      </trkpt>
      <trkpt lat="44.93955" lon="5.16193">
        <ele>680.05902099609</ele>
        <time>2009-06-03T17:12:13Z</time>
      </trkpt>
      <trkpt lat="44.93959" lon="5.16198">
        <ele>680.01098632812</ele>
        <time>2009-06-03T17:12:14Z</time>
      </trkpt>
      <trkpt lat="44.9397" lon="5.16193">
        <ele>678.08197021484</ele>
        <time>2009-06-03T17:12:18Z</time>
      </trkpt>
      <trkpt lat="44.9397" lon="5.16185">
        <ele>678.10400390625</ele>
        <time>2009-06-03T17:12:19Z</time>
      </trkpt>
      <trkpt lat="44.93963" lon="5.16143">
        <ele>674.90997314453</ele>
        <time>2009-06-03T17:12:24Z</time>
      </trkpt>
      <trkpt lat="44.93951" lon="5.16083">
        <ele>671.13500976562</ele>
        <time>2009-06-03T17:12:30Z</time>
      </trkpt>
      <trkpt lat="44.93937" lon="5.15998">
        <ele>667.36297607422</ele>
        <time>2009-06-03T17:12:37Z</time>
      </trkpt>
      <trkpt lat="44.9394" lon="5.15957">
        <ele>664.69500732422</ele>
        <time>2009-06-03T17:12:40Z</time>
      </trkpt>
      <trkpt lat="44.93945" lon="5.15885">
        <ele>662.11999511719</ele>
        <time>2009-06-03T17:12:45Z</time>
      </trkpt>
      <trkpt lat="44.93947" lon="5.15855">
        <ele>660.61297607422</ele>
        <time>2009-06-03T17:12:47Z</time>
      </trkpt>
      <trkpt lat="44.93926" lon="5.15788">
        <ele>656.84399414062</ele>
        <time>2009-06-03T17:12:52Z</time>
      </trkpt>
      <trkpt lat="44.93882" lon="5.15759">
        <ele>653.97601318359</ele>
        <time>2009-06-03T17:12:56Z</time>
      </trkpt>
      <trkpt lat="44.93794" lon="5.15727">
        <ele>646.89697265625</ele>
        <time>2009-06-03T17:13:03Z</time>
      </trkpt>
      <trkpt lat="44.93735" lon="5.15738">
        <ele>643.30297851562</ele>
        <time>2009-06-03T17:13:08Z</time>
      </trkpt>
      <trkpt lat="44.93721" lon="5.15762">
        <ele>644.13000488281</ele>
        <time>2009-06-03T17:13:10Z</time>
      </trkpt>
      <trkpt lat="44.93713" lon="5.15768">
        <ele>644.57702636719</ele>
        <time>2009-06-03T17:13:12Z</time>
      </trkpt>
      <trkpt lat="44.9371" lon="5.1575">
        <ele>643.20697021484</ele>
        <time>2009-06-03T17:13:15Z</time>
      </trkpt>
      <trkpt lat="44.93718" lon="5.15734">
        <ele>642.17797851562</ele>
        <time>2009-06-03T17:13:17Z</time>
      </trkpt>
      <trkpt lat="44.93722" lon="5.15726">
        <ele>641.37200927734</ele>
        <time>2009-06-03T17:13:18Z</time>
      </trkpt>
      <trkpt lat="44.93731" lon="5.15707">
        <ele>640.24401855469</ele>
        <time>2009-06-03T17:13:20Z</time>
      </trkpt>
      <trkpt lat="44.93761" lon="5.15685">
        <ele>635.09497070312</ele>
        <time>2009-06-03T17:13:24Z</time>
      </trkpt>
      <trkpt lat="44.93883" lon="5.15686">
        <ele>623.58599853516</ele>
        <time>2009-06-03T17:13:35Z</time>
      </trkpt>
      <trkpt lat="44.93968" lon="5.15715">
        <ele>613.75701904297</ele>
        <time>2009-06-03T17:13:42Z</time>
      </trkpt>
      <trkpt lat="44.94027" lon="5.15804">
        <ele>608.14300537109</ele>
        <time>2009-06-03T17:13:49Z</time>
      </trkpt>
      <trkpt lat="44.9403" lon="5.15821">
        <ele>607.61700439453</ele>
        <time>2009-06-03T17:13:50Z</time>
      </trkpt>
      <trkpt lat="44.94035" lon="5.15855">
        <ele>607.63201904297</ele>
        <time>2009-06-03T17:13:52Z</time>
      </trkpt>
      <trkpt lat="44.94052" lon="5.1589">
        <ele>607.25299072266</ele>
        <time>2009-06-03T17:13:57Z</time>
      </trkpt>
      <trkpt lat="44.94056" lon="5.15879">
        <ele>606.77502441406</ele>
        <time>2009-06-03T17:13:59Z</time>
      </trkpt>
      <trkpt lat="44.94051" lon="5.15843">
        <ele>604.583984375</ele>
        <time>2009-06-03T17:14:03Z</time>
      </trkpt>
      <trkpt lat="44.94041" lon="5.15793">
        <ele>601.72698974609</ele>
        <time>2009-06-03T17:14:08Z</time>
      </trkpt>
      <trkpt lat="44.94024" lon="5.15742">
        <ele>600.09497070312</ele>
        <time>2009-06-03T17:14:13Z</time>
      </trkpt>
      <trkpt lat="44.94004" lon="5.157">
        <ele>598.18200683594</ele>
        <time>2009-06-03T17:14:17Z</time>
      </trkpt>
      <trkpt lat="44.93951" lon="5.15636">
        <ele>594.13201904297</ele>
        <time>2009-06-03T17:14:24Z</time>
      </trkpt>
      <trkpt lat="44.93922" lon="5.15593">
        <ele>591.78302001953</ele>
        <time>2009-06-03T17:14:30Z</time>
      </trkpt>
      <trkpt lat="44.9393" lon="5.15593">
        <ele>592.22198486328</ele>
        <time>2009-06-03T17:14:33Z</time>
      </trkpt>
      <trkpt lat="44.9395" lon="5.1561">
        <ele>590.67901611328</ele>
        <time>2009-06-03T17:14:38Z</time>
      </trkpt>
      <trkpt lat="44.93981" lon="5.15639">
        <ele>590.76202392578</ele>
        <time>2009-06-03T17:14:48Z</time>
      </trkpt>
      <trkpt lat="44.93992" lon="5.15649">
        <ele>588.833984375</ele>
        <time>2009-06-03T17:14:51Z</time>
      </trkpt>
      <trkpt lat="44.94023" lon="5.15677">
        <ele>586.45397949219</ele>
        <time>2009-06-03T17:14:58Z</time>
      </trkpt>
      <trkpt lat="44.94039" lon="5.15692">
        <ele>585.46197509766</ele>
        <time>2009-06-03T17:15:01Z</time>
      </trkpt>
      <trkpt lat="44.94133" lon="5.15778">
        <ele>575.00299072266</ele>
        <time>2009-06-03T17:15:14Z</time>
      </trkpt>
      <trkpt lat="44.94155" lon="5.15857">
        <ele>569.61297607422</ele>
        <time>2009-06-03T17:15:20Z</time>
      </trkpt>
      <trkpt lat="44.94155" lon="5.15873">
        <ele>568.67797851562</ele>
        <time>2009-06-03T17:15:21Z</time>
      </trkpt>
      <trkpt lat="44.94179" lon="5.15987">
        <ele>561.93200683594</ele>
        <time>2009-06-03T17:15:28Z</time>
      </trkpt>
      <trkpt lat="44.94185" lon="5.16103">
        <ele>556.85699462891</ele>
        <time>2009-06-03T17:15:34Z</time>
      </trkpt>
      <trkpt lat="44.94185" lon="5.16179">
        <ele>554.93499755859</ele>
        <time>2009-06-03T17:15:38Z</time>
      </trkpt>
      <trkpt lat="44.94199" lon="5.16222">
        <ele>553.68798828125</ele>
        <time>2009-06-03T17:15:42Z</time>
      </trkpt>
      <trkpt lat="44.94206" lon="5.16224">
        <ele>553.73901367188</ele>
        <time>2009-06-03T17:15:43Z</time>
      </trkpt>
      <trkpt lat="44.94228" lon="5.1621">
        <ele>553.29901123047</ele>
        <time>2009-06-03T17:15:46Z</time>
      </trkpt>
      <trkpt lat="44.94246" lon="5.16166">
        <ele>550.7080078125</ele>
        <time>2009-06-03T17:15:50Z</time>
      </trkpt>
      <trkpt lat="44.94259" lon="5.16134">
        <ele>549.10797119141</ele>
        <time>2009-06-03T17:15:53Z</time>
      </trkpt>
      <trkpt lat="44.94282" lon="5.16078">
        <ele>547.85198974609</ele>
        <time>2009-06-03T17:15:58Z</time>
      </trkpt>
      <trkpt lat="44.94315" lon="5.1593">
        <ele>541.11999511719</ele>
        <time>2009-06-03T17:16:09Z</time>
      </trkpt>
      <trkpt lat="44.94347" lon="5.15775">
        <ele>530.95697021484</ele>
        <time>2009-06-03T17:16:19Z</time>
      </trkpt>
      <trkpt lat="44.94378" lon="5.15622">
        <ele>520.86901855469</ele>
        <time>2009-06-03T17:16:28Z</time>
      </trkpt>
      <trkpt lat="44.94402" lon="5.15502">
        <ele>515.00402832031</ele>
        <time>2009-06-03T17:16:35Z</time>
      </trkpt>
      <trkpt lat="44.94425" lon="5.15421">
        <ele>510.81201171875</ele>
        <time>2009-06-03T17:16:40Z</time>
      </trkpt>
      <trkpt lat="44.94458" lon="5.15254">
        <ele>502.73400878906</ele>
        <time>2009-06-03T17:16:51Z</time>
      </trkpt>
      <trkpt lat="44.94465" lon="5.15197">
        <ele>500.17401123047</ele>
        <time>2009-06-03T17:16:55Z</time>
      </trkpt>
      <trkpt lat="44.94476" lon="5.15113">
        <ele>498.4169921875</ele>
        <time>2009-06-03T17:17:01Z</time>
      </trkpt>
      <trkpt lat="44.94483" lon="5.15086">
        <ele>496.77301025391</ele>
        <time>2009-06-03T17:17:03Z</time>
      </trkpt>
      <trkpt lat="44.94492" lon="5.15059">
        <ele>496.06799316406</ele>
        <time>2009-06-03T17:17:05Z</time>
      </trkpt>
      <trkpt lat="44.9453" lon="5.14999">
        <ele>492.90899658203</ele>
        <time>2009-06-03T17:17:10Z</time>
      </trkpt>
      <trkpt lat="44.94547" lon="5.14975">
        <ele>492.06201171875</ele>
        <time>2009-06-03T17:17:12Z</time>
      </trkpt>
      <trkpt lat="44.94571" lon="5.14938">
        <ele>489.45401000977</ele>
        <time>2009-06-03T17:17:15Z</time>
      </trkpt>
      <trkpt lat="44.94595" lon="5.14901">
        <ele>487.96099853516</ele>
        <time>2009-06-03T17:17:18Z</time>
      </trkpt>
      <trkpt lat="44.94627" lon="5.14851">
        <ele>483.83999633789</ele>
        <time>2009-06-03T17:17:22Z</time>
      </trkpt>
      <trkpt lat="44.94722" lon="5.14818">
        <ele>477.79800415039</ele>
        <time>2009-06-03T17:17:30Z</time>
      </trkpt>
      <trkpt lat="44.94783" lon="5.14788">
        <ele>472.32800292969</ele>
        <time>2009-06-03T17:17:35Z</time>
      </trkpt>
      <trkpt lat="44.94814" lon="5.14753">
        <ele>468.41101074219</ele>
        <time>2009-06-03T17:17:38Z</time>
      </trkpt>
      <trkpt lat="44.94862" lon="5.14725">
        <ele>465.42999267578</ele>
        <time>2009-06-03T17:17:42Z</time>
      </trkpt>
      <trkpt lat="44.94899" lon="5.14711">
        <ele>464.58999633789</ele>
        <time>2009-06-03T17:17:45Z</time>
      </trkpt>
      <trkpt lat="44.94989" lon="5.14651">
        <ele>460.76501464844</ele>
        <time>2009-06-03T17:17:53Z</time>
      </trkpt>
      <trkpt lat="44.95035" lon="5.14619">
        <ele>452.95300292969</ele>
        <time>2009-06-03T17:17:59Z</time>
      </trkpt>
      <trkpt lat="44.95095" lon="5.14582">
        <ele>448.87600708008</ele>
        <time>2009-06-03T17:18:02Z</time>
      </trkpt>
      <trkpt lat="44.95135" lon="5.14538">
        <ele>448.94198608398</ele>
        <time>2009-06-03T17:18:06Z</time>
      </trkpt>
      <trkpt lat="44.95146" lon="5.14516">
        <ele>447.89401245117</ele>
        <time>2009-06-03T17:18:08Z</time>
      </trkpt>
      <trkpt lat="44.95192" lon="5.14443">
        <ele>448.47500610352</ele>
        <time>2009-06-03T17:18:13Z</time>
      </trkpt>
      <trkpt lat="44.95229" lon="5.14414">
        <ele>446.02301025391</ele>
        <time>2009-06-03T17:18:17Z</time>
      </trkpt>
      <trkpt lat="44.95251" lon="5.14404">
        <ele>445.3210144043</ele>
        <time>2009-06-03T17:18:19Z</time>
      </trkpt>
      <trkpt lat="44.95264" lon="5.14395">
        <ele>447.40200805664</ele>
        <time>2009-06-03T17:18:21Z</time>
      </trkpt>
      <trkpt lat="44.9528" lon="5.14378">
        <ele>447.74499511719</ele>
        <time>2009-06-03T17:18:24Z</time>
      </trkpt>
      <trkpt lat="44.95305" lon="5.14353">
        <ele>449.97198486328</ele>
        <time>2009-06-03T17:18:30Z</time>
      </trkpt>
      <trkpt lat="44.95305" lon="5.14353">
        <ele>450.3219909668</ele>
        <time>2009-06-03T17:18:31Z</time>
      </trkpt>
      <trkpt lat="44.95337" lon="5.14334">
        <ele>450.00601196289</ele>
        <time>2009-06-03T17:18:36Z</time>
      </trkpt>
      <trkpt lat="44.95366" lon="5.14317">
        <ele>449.2919921875</ele>
        <time>2009-06-03T17:18:42Z</time>
      </trkpt>
      <trkpt lat="44.95378" lon="5.1431">
        <ele>448.74099731445</ele>
        <time>2009-06-03T17:18:44Z</time>
      </trkpt>
      <trkpt lat="44.95411" lon="5.14292">
        <ele>449.0830078125</ele>
        <time>2009-06-03T17:18:49Z</time>
      </trkpt>
      <trkpt lat="44.95461" lon="5.14262">
        <ele>447.30200195312</ele>
        <time>2009-06-03T17:18:56Z</time>
      </trkpt>
      <trkpt lat="44.95521" lon="5.14227">
        <ele>446.35299682617</ele>
        <time>2009-06-03T17:19:04Z</time>
      </trkpt>
      <trkpt lat="44.95533" lon="5.14221">
        <ele>447.01000976562</ele>
        <time>2009-06-03T17:19:06Z</time>
      </trkpt>
      <trkpt lat="44.95585" lon="5.14163">
        <ele>445.11199951172</ele>
        <time>2009-06-03T17:19:16Z</time>
      </trkpt>
      <trkpt lat="44.95597" lon="5.14137">
        <ele>445.72299194336</ele>
        <time>2009-06-03T17:19:19Z</time>
      </trkpt>
      <trkpt lat="44.9562" lon="5.14058">
        <ele>442.75900268555</ele>
        <time>2009-06-03T17:19:26Z</time>
      </trkpt>
      <trkpt lat="44.9565" lon="5.13881">
        <ele>439.29501342773</ele>
        <time>2009-06-03T17:19:40Z</time>
      </trkpt>
      <trkpt lat="44.95652" lon="5.13789">
        <ele>437.34399414062</ele>
        <time>2009-06-03T17:19:47Z</time>
      </trkpt>
      <trkpt lat="44.95647" lon="5.13737">
        <ele>435.16101074219</ele>
        <time>2009-06-03T17:19:51Z</time>
      </trkpt>
      <trkpt lat="44.95732" lon="5.13591">
        <ele>431.32901000977</ele>
        <time>2009-06-03T17:20:03Z</time>
      </trkpt>
      <trkpt lat="44.95836" lon="5.13409">
        <ele>424.06698608398</ele>
        <time>2009-06-03T17:20:18Z</time>
      </trkpt>
      <trkpt lat="44.95843" lon="5.13395">
        <ele>423.8210144043</ele>
        <time>2009-06-03T17:20:19Z</time>
      </trkpt>
      <trkpt lat="44.95863" lon="5.13355">
        <ele>422.17700195312</ele>
        <time>2009-06-03T17:20:22Z</time>
      </trkpt>
      <trkpt lat="44.95905" lon="5.13279">
        <ele>418.81600952148</ele>
        <time>2009-06-03T17:20:28Z</time>
      </trkpt>
      <trkpt lat="44.95926" lon="5.13243">
        <ele>416.88198852539</ele>
        <time>2009-06-03T17:20:31Z</time>
      </trkpt>
      <trkpt lat="44.95936" lon="5.13225">
        <ele>415.74398803711</ele>
        <time>2009-06-03T17:20:34Z</time>
      </trkpt>
      <trkpt lat="44.96006" lon="5.13083">
        <ele>409.71099853516</ele>
        <time>2009-06-03T17:20:44Z</time>
      </trkpt>
      <trkpt lat="44.96014" lon="5.13071">
        <ele>409.46099853516</ele>
        <time>2009-06-03T17:20:45Z</time>
      </trkpt>
      <trkpt lat="44.96084" lon="5.12968">
        <ele>405.45098876953</ele>
        <time>2009-06-03T17:20:54Z</time>
      </trkpt>
      <trkpt lat="44.96144" lon="5.12898">
        <ele>402.09698486328</ele>
        <time>2009-06-03T17:21:01Z</time>
      </trkpt>
      <trkpt lat="44.96214" lon="5.12824">
        <ele>398.44799804688</ele>
        <time>2009-06-03T17:21:09Z</time>
      </trkpt>
      <trkpt lat="44.96258" lon="5.12779">
        <ele>394.91299438477</ele>
        <time>2009-06-03T17:21:14Z</time>
      </trkpt>
      <trkpt lat="44.96357" lon="5.12719">
        <ele>390.18399047852</ele>
        <time>2009-06-03T17:21:24Z</time>
      </trkpt>
      <trkpt lat="44.96387" lon="5.12703">
        <ele>388.46600341797</ele>
        <time>2009-06-03T17:21:27Z</time>
      </trkpt>
      <trkpt lat="44.96479" lon="5.12632">
        <ele>384.83898925781</ele>
        <time>2009-06-03T17:21:37Z</time>
      </trkpt>
      <trkpt lat="44.96612" lon="5.12479">
        <ele>376.71499633789</ele>
        <time>2009-06-03T17:21:53Z</time>
      </trkpt>
      <trkpt lat="44.9665" lon="5.1245">
        <ele>374.37799072266</ele>
        <time>2009-06-03T17:21:57Z</time>
      </trkpt>
      <trkpt lat="44.96711" lon="5.12386">
        <ele>370.91198730469</ele>
        <time>2009-06-03T17:22:04Z</time>
      </trkpt>
      <trkpt lat="44.96812" lon="5.12257">
        <ele>365.33801269531</ele>
        <time>2009-06-03T17:22:17Z</time>
      </trkpt>
      <trkpt lat="44.96917" lon="5.12105">
        <ele>358.88800048828</ele>
        <time>2009-06-03T17:22:31Z</time>
      </trkpt>
      <trkpt lat="44.96948" lon="5.1206">
        <ele>355.78601074219</ele>
        <time>2009-06-03T17:22:35Z</time>
      </trkpt>
      <trkpt lat="44.97038" lon="5.11983">
        <ele>351.68200683594</ele>
        <time>2009-06-03T17:22:45Z</time>
      </trkpt>
      <trkpt lat="44.97202" lon="5.11895">
        <ele>346.80499267578</ele>
        <time>2009-06-03T17:23:02Z</time>
      </trkpt>
      <trkpt lat="44.97231" lon="5.11877">
        <ele>344.79901123047</ele>
        <time>2009-06-03T17:23:05Z</time>
      </trkpt>
      <trkpt lat="44.97387" lon="5.11808">
        <ele>336.66299438477</ele>
        <time>2009-06-03T17:23:20Z</time>
      </trkpt>
      <trkpt lat="44.97444" lon="5.11791">
        <ele>333.42098999023</ele>
        <time>2009-06-03T17:23:25Z</time>
      </trkpt>
      <trkpt lat="44.97454" lon="5.11788">
        <ele>332.89498901367</ele>
        <time>2009-06-03T17:23:26Z</time>
      </trkpt>
      <trkpt lat="44.97511" lon="5.11746">
        <ele>330.12298583984</ele>
        <time>2009-06-03T17:23:32Z</time>
      </trkpt>
      <trkpt lat="44.97644" lon="5.11535">
        <ele>325.98098754883</ele>
        <time>2009-06-03T17:23:52Z</time>
      </trkpt>
      <trkpt lat="44.97702" lon="5.1145">
        <ele>322.07000732422</ele>
        <time>2009-06-03T17:24:00Z</time>
      </trkpt>
      <trkpt lat="44.97732" lon="5.11408">
        <ele>321.2919921875</ele>
        <time>2009-06-03T17:24:04Z</time>
      </trkpt>
      <trkpt lat="44.97797" lon="5.11356">
        <ele>317.50399780273</ele>
        <time>2009-06-03T17:24:11Z</time>
      </trkpt>
      <trkpt lat="44.97911" lon="5.1128">
        <ele>312.18899536133</ele>
        <time>2009-06-03T17:24:23Z</time>
      </trkpt>
      <trkpt lat="44.97965" lon="5.11242">
        <ele>309.98001098633</ele>
        <time>2009-06-03T17:24:29Z</time>
      </trkpt>
      <trkpt lat="44.98052" lon="5.11122">
        <ele>307.15899658203</ele>
        <time>2009-06-03T17:24:41Z</time>
      </trkpt>
      <trkpt lat="44.98164" lon="5.11005">
        <ele>300.30499267578</ele>
        <time>2009-06-03T17:24:54Z</time>
      </trkpt>
      <trkpt lat="44.98191" lon="5.10978">
        <ele>298.57998657227</ele>
        <time>2009-06-03T17:24:57Z</time>
      </trkpt>
      <trkpt lat="44.9826" lon="5.10893">
        <ele>298.27600097656</ele>
        <time>2009-06-03T17:25:06Z</time>
      </trkpt>
      <trkpt lat="44.98376" lon="5.10817">
        <ele>294.44000244141</ele>
        <time>2009-06-03T17:25:19Z</time>
      </trkpt>
      <trkpt lat="44.98556" lon="5.10703">
        <ele>288.97399902344</ele>
        <time>2009-06-03T17:25:39Z</time>
      </trkpt>
      <trkpt lat="44.98714" lon="5.10576">
        <ele>284.83898925781</ele>
        <time>2009-06-03T17:26:00Z</time>
      </trkpt>
      <trkpt lat="44.98745" lon="5.10552">
        <ele>283.7619934082</ele>
        <time>2009-06-03T17:26:04Z</time>
      </trkpt>
      <trkpt lat="44.98819" lon="5.10441">
        <ele>280.02499389648</ele>
        <time>2009-06-03T17:26:16Z</time>
      </trkpt>
      <trkpt lat="44.98852" lon="5.10374">
        <ele>276.93701171875</ele>
        <time>2009-06-03T17:26:22Z</time>
      </trkpt>
      <trkpt lat="44.98893" lon="5.10293">
        <ele>274.93399047852</ele>
        <time>2009-06-03T17:26:30Z</time>
      </trkpt>
      <trkpt lat="44.98903" lon="5.10273">
        <ele>274.06698608398</ele>
        <time>2009-06-03T17:26:32Z</time>
      </trkpt>
      <trkpt lat="44.9894" lon="5.10242">
        <ele>273.80700683594</ele>
        <time>2009-06-03T17:26:37Z</time>
      </trkpt>
      <trkpt lat="44.99049" lon="5.10218">
        <ele>270.46701049805</ele>
        <time>2009-06-03T17:26:50Z</time>
      </trkpt>
      <trkpt lat="44.99196" lon="5.1016">
        <ele>267.05899047852</ele>
        <time>2009-06-03T17:27:08Z</time>
      </trkpt>
      <trkpt lat="44.99348" lon="5.10038">
        <ele>263.45901489258</ele>
        <time>2009-06-03T17:27:28Z</time>
      </trkpt>
      <trkpt lat="44.99364" lon="5.10026">
        <ele>262.73699951172</ele>
        <time>2009-06-03T17:27:30Z</time>
      </trkpt>
      <trkpt lat="44.99549" lon="5.09867">
        <ele>258.32000732422</ele>
        <time>2009-06-03T17:27:54Z</time>
      </trkpt>
      <trkpt lat="44.99645" lon="5.09783">
        <ele>254.14900207519</ele>
        <time>2009-06-03T17:28:07Z</time>
      </trkpt>
      <trkpt lat="44.99683" lon="5.09754">
        <ele>252.97799682617</ele>
        <time>2009-06-03T17:28:12Z</time>
      </trkpt>
      <trkpt lat="44.99821" lon="5.09662">
        <ele>251.81399536133</ele>
        <time>2009-06-03T17:28:30Z</time>
      </trkpt>
      <trkpt lat="44.9989" lon="5.0963">
        <ele>247.72799682617</ele>
        <time>2009-06-03T17:28:38Z</time>
      </trkpt>
      <trkpt lat="44.99963" lon="5.09584">
        <ele>247.68200683594</ele>
        <time>2009-06-03T17:28:47Z</time>
      </trkpt>
      <trkpt lat="45.00135" lon="5.09433">
        <ele>243.84100341797</ele>
        <time>2009-06-03T17:29:09Z</time>
      </trkpt>
      <trkpt lat="45.00265" lon="5.09325">
        <ele>241.78199768066</ele>
        <time>2009-06-03T17:29:27Z</time>
      </trkpt>
      <trkpt lat="45.00292" lon="5.09302">
        <ele>239.94700622559</ele>
        <time>2009-06-03T17:29:31Z</time>
      </trkpt>
      <trkpt lat="45.00388" lon="5.09247">
        <ele>239.1609954834</ele>
        <time>2009-06-03T17:29:45Z</time>
      </trkpt>
      <trkpt lat="45.00495" lon="5.09175">
        <ele>235.38200378418</ele>
        <time>2009-06-03T17:29:59Z</time>
      </trkpt>
      <trkpt lat="45.00507" lon="5.09169">
        <ele>234.63999938965</ele>
        <time>2009-06-03T17:30:01Z</time>
      </trkpt>
      <trkpt lat="45.00552" lon="5.09136">
        <ele>232.2380065918</ele>
        <time>2009-06-03T17:30:06Z</time>
      </trkpt>
      <trkpt lat="45.00573" lon="5.09123">
        <ele>233.93099975586</ele>
        <time>2009-06-03T17:30:09Z</time>
      </trkpt>
      <trkpt lat="45.00644" lon="5.09079">
        <ele>232.47900390625</ele>
        <time>2009-06-03T17:30:21Z</time>
      </trkpt>
      <trkpt lat="45.00644" lon="5.09079">
        <ele>232.88900756836</ele>
        <time>2009-06-03T17:30:23Z</time>
      </trkpt>
      <trkpt lat="45.00729" lon="5.09025">
        <ele>231.91799926758</ele>
        <time>2009-06-03T17:30:34Z</time>
      </trkpt>
      <trkpt lat="45.00846" lon="5.08935">
        <ele>227.2200012207</ele>
        <time>2009-06-03T17:30:49Z</time>
      </trkpt>
      <trkpt lat="45.00901" lon="5.08903">
        <ele>224.40400695801</ele>
        <time>2009-06-03T17:30:55Z</time>
      </trkpt>
      <trkpt lat="45.00919" lon="5.08892">
        <ele>223.73100280762</ele>
        <time>2009-06-03T17:30:57Z</time>
      </trkpt>
      <trkpt lat="45.00969" lon="5.08893">
        <ele>221.41299438477</ele>
        <time>2009-06-03T17:31:02Z</time>
      </trkpt>
      <trkpt lat="45.01003" lon="5.08884">
        <ele>221.45899963379</ele>
        <time>2009-06-03T17:31:06Z</time>
      </trkpt>
      <trkpt lat="45.01011" lon="5.08878">
        <ele>221.2619934082</ele>
        <time>2009-06-03T17:31:07Z</time>
      </trkpt>
      <trkpt lat="45.01076" lon="5.08822">
        <ele>221.89599609375</ele>
        <time>2009-06-03T17:31:16Z</time>
      </trkpt>
      <trkpt lat="45.01096" lon="5.0879">
        <ele>222.16000366211</ele>
        <time>2009-06-03T17:31:20Z</time>
      </trkpt>
      <trkpt lat="45.01167" lon="5.08641">
        <ele>221.35499572754</ele>
        <time>2009-06-03T17:31:38Z</time>
      </trkpt>
      <trkpt lat="45.01293" lon="5.08461">
        <ele>219.88800048828</ele>
        <time>2009-06-03T17:31:57Z</time>
      </trkpt>
      <trkpt lat="45.01305" lon="5.08443">
        <ele>219.26899719238</ele>
        <time>2009-06-03T17:31:59Z</time>
      </trkpt>
      <trkpt lat="45.0134" lon="5.08415">
        <ele>219.94999694824</ele>
        <time>2009-06-03T17:32:04Z</time>
      </trkpt>
      <trkpt lat="45.01364" lon="5.08401">
        <ele>219.28900146484</ele>
        <time>2009-06-03T17:32:07Z</time>
      </trkpt>
      <trkpt lat="45.01448" lon="5.08308">
        <ele>218.21000671387</ele>
        <time>2009-06-03T17:32:19Z</time>
      </trkpt>
      <trkpt lat="45.01524" lon="5.0822">
        <ele>215.75199890137</ele>
        <time>2009-06-03T17:32:30Z</time>
      </trkpt>
      <trkpt lat="45.01584" lon="5.08168">
        <ele>213.77299499512</ele>
        <time>2009-06-03T17:32:38Z</time>
      </trkpt>
      <trkpt lat="45.01689" lon="5.08053">
        <ele>214.44799804688</ele>
        <time>2009-06-03T17:32:54Z</time>
      </trkpt>
      <trkpt lat="45.01807" lon="5.07898">
        <ele>213.31199645996</ele>
        <time>2009-06-03T17:33:13Z</time>
      </trkpt>
      <trkpt lat="45.0191" lon="5.07783">
        <ele>211.65400695801</ele>
        <time>2009-06-03T17:33:28Z</time>
      </trkpt>
      <trkpt lat="45.02048" lon="5.07701">
        <ele>211.15899658203</ele>
        <time>2009-06-03T17:33:45Z</time>
      </trkpt>
      <trkpt lat="45.02177" lon="5.07669">
        <ele>207.47099304199</ele>
        <time>2009-06-03T17:34:00Z</time>
      </trkpt>
      <trkpt lat="45.02227" lon="5.07671">
        <ele>202.85400390625</ele>
        <time>2009-06-03T17:34:06Z</time>
      </trkpt>
      <trkpt lat="45.02267" lon="5.07663">
        <ele>200.82400512695</ele>
        <time>2009-06-03T17:34:09Z</time>
      </trkpt>
      <trkpt lat="45.02374" lon="5.07598">
        <ele>201.11999511719</ele>
        <time>2009-06-03T17:34:20Z</time>
      </trkpt>
      <trkpt lat="45.02401" lon="5.0758">
        <ele>199.63400268555</ele>
        <time>2009-06-03T17:34:23Z</time>
      </trkpt>
      <trkpt lat="45.02493" lon="5.07527">
        <ele>196.66400146484</ele>
        <time>2009-06-03T17:34:33Z</time>
      </trkpt>
      <trkpt lat="45.02513" lon="5.07517">
        <ele>195.69599914551</ele>
        <time>2009-06-03T17:34:35Z</time>
      </trkpt>
      <trkpt lat="45.02613" lon="5.07463">
        <ele>192.22599792481</ele>
        <time>2009-06-03T17:34:46Z</time>
      </trkpt>
      <trkpt lat="45.02644" lon="5.07438">
        <ele>191.41200256348</ele>
        <time>2009-06-03T17:34:50Z</time>
      </trkpt>
      <trkpt lat="45.02678" lon="5.07451">
        <ele>192.00300598144</ele>
        <time>2009-06-03T17:34:55Z</time>
      </trkpt>
      <trkpt lat="45.02678" lon="5.07462">
        <ele>192.32299804688</ele>
        <time>2009-06-03T17:34:56Z</time>
      </trkpt>
      <trkpt lat="45.02678" lon="5.07505">
        <ele>190.50700378418</ele>
        <time>2009-06-03T17:35:00Z</time>
      </trkpt>
      <trkpt lat="45.02697" lon="5.07538">
        <ele>189.97300720215</ele>
        <time>2009-06-03T17:35:04Z</time>
      </trkpt>
      <trkpt lat="45.02812" lon="5.07598">
        <ele>188.35499572754</ele>
        <time>2009-06-03T17:35:20Z</time>
      </trkpt>
      <trkpt lat="45.02919" lon="5.076">
        <ele>185.97900390625</ele>
        <time>2009-06-03T17:35:35Z</time>
      </trkpt>
      <trkpt lat="45.03059" lon="5.0759">
        <ele>185.81100463867</ele>
        <time>2009-06-03T17:35:55Z</time>
      </trkpt>
      <trkpt lat="45.03103" lon="5.07579">
        <ele>184.1369934082</ele>
        <time>2009-06-03T17:36:01Z</time>
      </trkpt>
      <trkpt lat="45.0315" lon="5.07594">
        <ele>185.99800109863</ele>
        <time>2009-06-03T17:36:09Z</time>
      </trkpt>
      <trkpt lat="45.03148" lon="5.07613">
        <ele>185.76800537109</ele>
        <time>2009-06-03T17:36:10Z</time>
      </trkpt>
      <trkpt lat="45.03152" lon="5.07633">
        <ele>184.33200073242</ele>
        <time>2009-06-03T17:36:12Z</time>
      </trkpt>
      <trkpt lat="45.03185" lon="5.07637">
        <ele>184.00399780273</ele>
        <time>2009-06-03T17:36:18Z</time>
      </trkpt>
      <trkpt lat="45.03189" lon="5.07619">
        <ele>185.28900146484</ele>
        <time>2009-06-03T17:36:21Z</time>
      </trkpt>
      <trkpt lat="45.03211" lon="5.07588">
        <ele>184.78100585938</ele>
        <time>2009-06-03T17:36:25Z</time>
      </trkpt>
      <trkpt lat="45.03223" lon="5.0758">
        <ele>185.19900512695</ele>
        <time>2009-06-03T17:36:27Z</time>
      </trkpt>
      <trkpt lat="45.03312" lon="5.07573">
        <ele>184.12699890137</ele>
        <time>2009-06-03T17:36:40Z</time>
      </trkpt>
      <trkpt lat="45.03333" lon="5.07574">
        <ele>182.87100219727</ele>
        <time>2009-06-03T17:36:43Z</time>
      </trkpt>
      <trkpt lat="45.03461" lon="5.07592">
        <ele>180.36999511719</ele>
        <time>2009-06-03T17:37:01Z</time>
      </trkpt>
      <trkpt lat="45.03506" lon="5.07594">
        <ele>182.00999450684</ele>
        <time>2009-06-03T17:37:08Z</time>
      </trkpt>
      <trkpt lat="45.03526" lon="5.07614">
        <ele>183.27400207519</ele>
        <time>2009-06-03T17:37:14Z</time>
      </trkpt>
      <trkpt lat="45.03525" lon="5.07622">
        <ele>182.95199584961</ele>
        <time>2009-06-03T17:37:15Z</time>
      </trkpt>
      <trkpt lat="45.03483" lon="5.07725">
        <ele>182.24600219727</ele>
        <time>2009-06-03T17:37:27Z</time>
      </trkpt>
      <trkpt lat="45.03451" lon="5.07795">
        <ele>183.13400268555</ele>
        <time>2009-06-03T17:37:35Z</time>
      </trkpt>
      <trkpt lat="45.03444" lon="5.07871">
        <ele>182.49699401856</ele>
        <time>2009-06-03T17:37:43Z</time>
      </trkpt>
      <trkpt lat="45.03498" lon="5.08043">
        <ele>183.54499816894</ele>
        <time>2009-06-03T17:38:02Z</time>
      </trkpt>
      <trkpt lat="45.03553" lon="5.08169">
        <ele>183.63999938965</ele>
        <time>2009-06-03T17:38:19Z</time>
      </trkpt>
      <trkpt lat="45.03553" lon="5.08169">
        <ele>185.26300048828</ele>
        <time>2009-06-03T17:38:22Z</time>
      </trkpt>
      <trkpt lat="45.03564" lon="5.08206">
        <ele>185.42399597168</ele>
        <time>2009-06-03T17:38:23Z</time>
      </trkpt>
      <trkpt lat="45.03572" lon="5.08268">
        <ele>184.50900268555</ele>
        <time>2009-06-03T17:38:31Z</time>
      </trkpt>
      <trkpt lat="45.03598" lon="5.08269">
        <ele>184.82400512695</ele>
        <time>2009-06-03T17:38:35Z</time>
      </trkpt>
      <trkpt lat="45.0367" lon="5.08286">
        <ele>180.73399353027</ele>
        <time>2009-06-03T17:38:45Z</time>
      </trkpt>
      <trkpt lat="45.03725" lon="5.08313">
        <ele>178.26300048828</ele>
        <time>2009-06-03T17:38:52Z</time>
      </trkpt>
      <trkpt lat="45.03788" lon="5.08331">
        <ele>175.20899963379</ele>
        <time>2009-06-03T17:38:59Z</time>
      </trkpt>
      <trkpt lat="45.03904" lon="5.08346">
        <ele>178.32899475098</ele>
        <time>2009-06-03T17:39:14Z</time>
      </trkpt>
      <trkpt lat="45.03927" lon="5.08349">
        <ele>175.0890045166</ele>
        <time>2009-06-03T17:39:19Z</time>
      </trkpt>
      <trkpt lat="45.03952" lon="5.08354">
        <ele>176.32099914551</ele>
        <time>2009-06-03T17:39:22Z</time>
      </trkpt>
      <trkpt lat="45.04082" lon="5.0837">
        <ele>179.69400024414</ele>
        <time>2009-06-03T17:39:44Z</time>
      </trkpt>
      <trkpt lat="45.04245" lon="5.08386">
        <ele>181.70599365234</ele>
        <time>2009-06-03T17:40:12Z</time>
      </trkpt>
      <trkpt lat="45.04285" lon="5.08392">
        <ele>183.60899353027</ele>
        <time>2009-06-03T17:40:19Z</time>
      </trkpt>
      <trkpt lat="45.04316" lon="5.08437">
        <ele>183.14700317383</ele>
        <time>2009-06-03T17:40:27Z</time>
      </trkpt>
      <trkpt lat="45.04327" lon="5.08446">
        <ele>182.83599853516</ele>
        <time>2009-06-03T17:40:29Z</time>
      </trkpt>
      <trkpt lat="45.04356" lon="5.0848">
        <ele>184.70799255371</ele>
        <time>2009-06-03T17:40:36Z</time>
      </trkpt>
      <trkpt lat="45.04365" lon="5.08564">
        <ele>186.41700744629</ele>
        <time>2009-06-03T17:40:47Z</time>
      </trkpt>
      <trkpt lat="45.04397" lon="5.08595">
        <ele>182.49499511719</ele>
        <time>2009-06-03T17:40:54Z</time>
      </trkpt>
      <trkpt lat="45.0455" lon="5.08579">
        <ele>182.74200439453</ele>
        <time>2009-06-03T17:41:16Z</time>
      </trkpt>
      <trkpt lat="45.04629" lon="5.08564">
        <ele>183.29699707031</ele>
        <time>2009-06-03T17:41:31Z</time>
      </trkpt>
      <trkpt lat="45.04697" lon="5.08551">
        <ele>183.12300109863</ele>
        <time>2009-06-03T17:41:46Z</time>
      </trkpt>
      <trkpt lat="45.04728" lon="5.08545">
        <ele>183.25399780273</ele>
        <time>2009-06-03T17:41:52Z</time>
      </trkpt>
      <trkpt lat="45.04784" lon="5.08535">
        <ele>183.04800415039</ele>
        <time>2009-06-03T17:42:02Z</time>
      </trkpt>
      <trkpt lat="45.04826" lon="5.08533">
        <ele>183.9940032959</ele>
        <time>2009-06-03T17:42:10Z</time>
      </trkpt>
      <trkpt lat="45.04852" lon="5.08525">
        <ele>182.96699523926</ele>
        <time>2009-06-03T17:42:15Z</time>
      </trkpt>
      <trkpt lat="45.04857" lon="5.08524">
        <ele>183.00799560547</ele>
        <time>2009-06-03T17:42:16Z</time>
      </trkpt>
      <trkpt lat="45.04946" lon="5.08517">
        <ele>184.70899963379</ele>
        <time>2009-06-03T17:42:32Z</time>
      </trkpt>
      <trkpt lat="45.05046" lon="5.0851">
        <ele>185.31599426269</ele>
        <time>2009-06-03T17:42:50Z</time>
      </trkpt>
      <trkpt lat="45.05062" lon="5.08509">
        <ele>185.77099609375</ele>
        <time>2009-06-03T17:42:53Z</time>
      </trkpt>
      <trkpt lat="45.05077" lon="5.08508">
        <ele>186.64399719238</ele>
        <time>2009-06-03T17:42:59Z</time>
      </trkpt>
      <trkpt lat="45.05075" lon="5.08488">
        <ele>184.81399536133</ele>
        <time>2009-06-03T17:43:04Z</time>
      </trkpt>
      <trkpt lat="45.05072" lon="5.08458">
        <ele>186.19000244141</ele>
        <time>2009-06-03T17:43:08Z</time>
      </trkpt>
      <trkpt lat="45.05067" lon="5.084">
        <ele>185.48100280762</ele>
        <time>2009-06-03T17:43:15Z</time>
      </trkpt>
      <trkpt lat="45.0506" lon="5.08319">
        <ele>185.17500305176</ele>
        <time>2009-06-03T17:43:24Z</time>
      </trkpt>
      <trkpt lat="45.05033" lon="5.08203">
        <ele>184.83099365234</ele>
        <time>2009-06-03T17:43:35Z</time>
      </trkpt>
      <trkpt lat="45.05014" lon="5.08057">
        <ele>183.80200195312</ele>
        <time>2009-06-03T17:43:49Z</time>
      </trkpt>
      <trkpt lat="45.0502" lon="5.07969">
        <ele>184.06399536133</ele>
        <time>2009-06-03T17:43:57Z</time>
      </trkpt>
      <trkpt lat="45.05038" lon="5.07909">
        <ele>184.13000488281</ele>
        <time>2009-06-03T17:44:04Z</time>
      </trkpt>
      <trkpt lat="45.05052" lon="5.0786">
        <ele>182.86099243164</ele>
        <time>2009-06-03T17:44:09Z</time>
      </trkpt>
      <trkpt lat="45.05066" lon="5.07849">
        <ele>181.15699768066</ele>
        <time>2009-06-03T17:44:11Z</time>
      </trkpt>
      <trkpt lat="45.05182" lon="5.07765">
        <ele>180.73699951172</ele>
        <time>2009-06-03T17:44:25Z</time>
      </trkpt>
      <trkpt lat="45.05189" lon="5.0776">
        <ele>180.92900085449</ele>
        <time>2009-06-03T17:44:26Z</time>
      </trkpt>
      <trkpt lat="45.05213" lon="5.07743">
        <ele>182.875</ele>
        <time>2009-06-03T17:44:30Z</time>
      </trkpt>
      <trkpt lat="45.05236" lon="5.07727">
        <ele>183.72999572754</ele>
        <time>2009-06-03T17:44:36Z</time>
      </trkpt>
      <trkpt lat="45.05236" lon="5.07727">
        <ele>185.14100646973</ele>
        <time>2009-06-03T17:44:38Z</time>
      </trkpt>
      <trkpt lat="45.05265" lon="5.07715">
        <ele>184.0059967041</ele>
        <time>2009-06-03T17:44:40Z</time>
      </trkpt>
      <trkpt lat="45.05311" lon="5.07648">
        <ele>185.83599853516</ele>
        <time>2009-06-03T17:44:51Z</time>
      </trkpt>
      <trkpt lat="45.05391" lon="5.07524">
        <ele>184.95100402832</ele>
        <time>2009-06-03T17:45:10Z</time>
      </trkpt>
      <trkpt lat="45.05469" lon="5.07365">
        <ele>184.3869934082</ele>
        <time>2009-06-03T17:45:29Z</time>
      </trkpt>
      <trkpt lat="45.05491" lon="5.07318">
        <ele>183.33599853516</ele>
        <time>2009-06-03T17:45:34Z</time>
      </trkpt>
      <trkpt lat="45.05561" lon="5.07176">
        <ele>182.56300354004</ele>
        <time>2009-06-03T17:45:50Z</time>
      </trkpt>
      <trkpt lat="45.05566" lon="5.07165">
        <ele>182.88400268555</ele>
        <time>2009-06-03T17:45:52Z</time>
      </trkpt>
      <trkpt lat="45.05585" lon="5.07135">
        <ele>182.89399719238</ele>
        <time>2009-06-03T17:45:56Z</time>
      </trkpt>
      <trkpt lat="45.0564" lon="5.06967">
        <ele>181.24800109863</ele>
        <time>2009-06-03T17:46:12Z</time>
      </trkpt>
      <trkpt lat="45.05672" lon="5.06741">
        <ele>180.95199584961</ele>
        <time>2009-06-03T17:46:32Z</time>
      </trkpt>
      <trkpt lat="45.05724" lon="5.06525">
        <ele>180.77900695801</ele>
        <time>2009-06-03T17:46:53Z</time>
      </trkpt>
      <trkpt lat="45.05732" lon="5.06506">
        <ele>181.83799743652</ele>
        <time>2009-06-03T17:46:55Z</time>
      </trkpt>
      <trkpt lat="45.05742" lon="5.06479">
        <ele>182.05400085449</ele>
        <time>2009-06-03T17:46:58Z</time>
      </trkpt>
      <trkpt lat="45.05763" lon="5.06455">
        <ele>182.22500610352</ele>
        <time>2009-06-03T17:47:02Z</time>
      </trkpt>
      <trkpt lat="45.05804" lon="5.06434">
        <ele>181.05599975586</ele>
        <time>2009-06-03T17:47:09Z</time>
      </trkpt>
      <trkpt lat="45.05823" lon="5.06431">
        <ele>182.91700744629</ele>
        <time>2009-06-03T17:47:12Z</time>
      </trkpt>
      <trkpt lat="45.05835" lon="5.06429">
        <ele>182.04899597168</ele>
        <time>2009-06-03T17:47:14Z</time>
      </trkpt>
      <trkpt lat="45.05911" lon="5.06398">
        <ele>183.09199523926</ele>
        <time>2009-06-03T17:47:26Z</time>
      </trkpt>
      <trkpt lat="45.06028" lon="5.06361">
        <ele>183.02400207519</ele>
        <time>2009-06-03T17:47:44Z</time>
      </trkpt>
      <trkpt lat="45.06094" lon="5.06349">
        <ele>183.17999267578</ele>
        <time>2009-06-03T17:47:55Z</time>
      </trkpt>
      <trkpt lat="45.06149" lon="5.06347">
        <ele>182.29499816894</ele>
        <time>2009-06-03T17:48:04Z</time>
      </trkpt>
      <trkpt lat="45.06255" lon="5.06333">
        <ele>182.83500671387</ele>
        <time>2009-06-03T17:48:21Z</time>
      </trkpt>
      <trkpt lat="45.06347" lon="5.06296">
        <ele>182.10699462891</ele>
        <time>2009-06-03T17:48:36Z</time>
      </trkpt>
      <trkpt lat="45.06446" lon="5.0624">
        <ele>181.38999938965</ele>
        <time>2009-06-03T17:48:52Z</time>
      </trkpt>
      <trkpt lat="45.06459" lon="5.06233">
        <ele>179.79400634766</ele>
        <time>2009-06-03T17:48:54Z</time>
      </trkpt>
      <trkpt lat="45.06574" lon="5.06174">
        <ele>182.34700012207</ele>
        <time>2009-06-03T17:49:14Z</time>
      </trkpt>
      <trkpt lat="45.06635" lon="5.06144">
        <ele>182.76600646973</ele>
        <time>2009-06-03T17:49:27Z</time>
      </trkpt>
      <trkpt lat="45.0673" lon="5.06078">
        <ele>182.90800476074</ele>
        <time>2009-06-03T17:49:42Z</time>
      </trkpt>
      <trkpt lat="45.06789" lon="5.06008">
        <ele>183.19299316406</ele>
        <time>2009-06-03T17:49:54Z</time>
      </trkpt>
      <trkpt lat="45.06798" lon="5.05957">
        <ele>183.32600402832</ele>
        <time>2009-06-03T17:50:00Z</time>
      </trkpt>
      <trkpt lat="45.06791" lon="5.05817">
        <ele>182.08099365234</ele>
        <time>2009-06-03T17:50:14Z</time>
      </trkpt>
      <trkpt lat="45.06789" lon="5.05787">
        <ele>180.69000244141</ele>
        <time>2009-06-03T17:50:18Z</time>
      </trkpt>
      <trkpt lat="45.06861" lon="5.05754">
        <ele>181.57600402832</ele>
        <time>2009-06-03T17:50:28Z</time>
      </trkpt>
      <trkpt lat="45.06903" lon="5.05705">
        <ele>180.57099914551</ele>
        <time>2009-06-03T17:50:36Z</time>
      </trkpt>
      <trkpt lat="45.0693" lon="5.05677">
        <ele>181.27600097656</ele>
        <time>2009-06-03T17:50:41Z</time>
      </trkpt>
      <trkpt lat="45.06979" lon="5.05638">
        <ele>182.18699645996</ele>
        <time>2009-06-03T17:50:49Z</time>
      </trkpt>
      <trkpt lat="45.07024" lon="5.05557">
        <ele>182.83700561523</ele>
        <time>2009-06-03T17:51:00Z</time>
      </trkpt>
      <trkpt lat="45.07047" lon="5.05512">
        <ele>183.82000732422</ele>
        <time>2009-06-03T17:51:06Z</time>
      </trkpt>
      <trkpt lat="45.07089" lon="5.05432">
        <ele>185.78500366211</ele>
        <time>2009-06-03T17:51:19Z</time>
      </trkpt>
      <trkpt lat="45.0709" lon="5.05431">
        <ele>185.80999755859</ele>
        <time>2009-06-03T17:51:23Z</time>
      </trkpt>
      <trkpt lat="45.07098" lon="5.05325">
        <ele>186.72500610352</ele>
        <time>2009-06-03T17:51:36Z</time>
      </trkpt>
      <trkpt lat="45.07119" lon="5.05275">
        <ele>189.09800720215</ele>
        <time>2009-06-03T17:51:44Z</time>
      </trkpt>
      <trkpt lat="45.07137" lon="5.05252">
        <ele>189.27200317383</ele>
        <time>2009-06-03T17:51:49Z</time>
      </trkpt>
      <trkpt lat="45.07165" lon="5.05217">
        <ele>192.21000671387</ele>
        <time>2009-06-03T17:51:57Z</time>
      </trkpt>
      <trkpt lat="45.07214" lon="5.05152">
        <ele>195.17599487305</ele>
        <time>2009-06-03T17:52:12Z</time>
      </trkpt>
      <trkpt lat="45.07232" lon="5.0513">
        <ele>196.19299316406</ele>
        <time>2009-06-03T17:52:16Z</time>
      </trkpt>
      <trkpt lat="45.07248" lon="5.05109">
        <ele>197.01400756836</ele>
        <time>2009-06-03T17:52:21Z</time>
      </trkpt>
      <trkpt lat="45.07299" lon="5.05044">
        <ele>199.14799499512</ele>
        <time>2009-06-03T17:52:36Z</time>
      </trkpt>
      <trkpt lat="45.07312" lon="5.05026">
        <ele>198.8630065918</ele>
        <time>2009-06-03T17:52:40Z</time>
      </trkpt>
      <trkpt lat="45.07317" lon="5.05018">
        <ele>199.39300537109</ele>
        <time>2009-06-03T17:52:42Z</time>
      </trkpt>
      <trkpt lat="45.07362" lon="5.04973">
        <ele>199.19799804688</ele>
        <time>2009-06-03T17:52:53Z</time>
      </trkpt>
      <trkpt lat="45.07446" lon="5.04912">
        <ele>200.09899902344</ele>
        <time>2009-06-03T17:53:12Z</time>
      </trkpt>
      <trkpt lat="45.07569" lon="5.04895">
        <ele>199.87899780273</ele>
        <time>2009-06-03T17:53:30Z</time>
      </trkpt>
      <trkpt lat="45.07607" lon="5.0489">
        <ele>198.70399475098</ele>
        <time>2009-06-03T17:53:36Z</time>
      </trkpt>
      <trkpt lat="45.07743" lon="5.04881">
        <ele>198.93899536133</ele>
        <time>2009-06-03T17:53:58Z</time>
      </trkpt>
      <trkpt lat="45.07851" lon="5.04868">
        <ele>200.55700683594</ele>
        <time>2009-06-03T17:54:17Z</time>
      </trkpt>
      <trkpt lat="45.07917" lon="5.04857">
        <ele>202.07499694824</ele>
        <time>2009-06-03T17:54:29Z</time>
      </trkpt>
      <trkpt lat="45.08022" lon="5.0484">
        <ele>202.36199951172</ele>
        <time>2009-06-03T17:54:47Z</time>
      </trkpt>
      <trkpt lat="45.08139" lon="5.04829">
        <ele>200.44599914551</ele>
        <time>2009-06-03T17:55:05Z</time>
      </trkpt>
      <trkpt lat="45.08282" lon="5.04816">
        <ele>198.10800170898</ele>
        <time>2009-06-03T17:55:24Z</time>
      </trkpt>
      <trkpt lat="45.08408" lon="5.04802">
        <ele>198.16700744629</ele>
        <time>2009-06-03T17:55:42Z</time>
      </trkpt>
      <trkpt lat="45.0844" lon="5.04797">
        <ele>198.9700012207</ele>
        <time>2009-06-03T17:55:47Z</time>
      </trkpt>
      <trkpt lat="45.08477" lon="5.04808">
        <ele>199.08599853516</ele>
        <time>2009-06-03T17:55:55Z</time>
      </trkpt>
      <trkpt lat="45.08568" lon="5.04778">
        <ele>199.7619934082</ele>
        <time>2009-06-03T17:56:09Z</time>
      </trkpt>
      <trkpt lat="45.08672" lon="5.04763">
        <ele>202.04899597168</ele>
        <time>2009-06-03T17:56:25Z</time>
      </trkpt>
      <trkpt lat="45.08785" lon="5.04747">
        <ele>204.38200378418</ele>
        <time>2009-06-03T17:56:43Z</time>
      </trkpt>
      <trkpt lat="45.08949" lon="5.04728">
        <ele>203.31300354004</ele>
        <time>2009-06-03T17:57:07Z</time>
      </trkpt>
      <trkpt lat="45.09071" lon="5.04722">
        <ele>205.74200439453</ele>
        <time>2009-06-03T17:57:26Z</time>
      </trkpt>
      <trkpt lat="45.09144" lon="5.0473">
        <ele>208.28700256348</ele>
        <time>2009-06-03T17:57:40Z</time>
      </trkpt>
      <trkpt lat="45.09166" lon="5.04756">
        <ele>207.89999389648</ele>
        <time>2009-06-03T17:57:46Z</time>
      </trkpt>
      <trkpt lat="45.09171" lon="5.0477">
        <ele>206.84100341797</ele>
        <time>2009-06-03T17:57:48Z</time>
      </trkpt>
      <trkpt lat="45.09175" lon="5.04817">
        <ele>206.48199462891</ele>
        <time>2009-06-03T17:57:54Z</time>
      </trkpt>
      <trkpt lat="45.09205" lon="5.04805">
        <ele>206.10600280762</ele>
        <time>2009-06-03T17:57:57Z</time>
      </trkpt>
      <trkpt lat="45.09265" lon="5.04787">
        <ele>208.27299499512</ele>
        <time>2009-06-03T17:58:07Z</time>
      </trkpt>
      <trkpt lat="45.09283" lon="5.04781">
        <ele>208.20500183106</ele>
        <time>2009-06-03T17:58:10Z</time>
      </trkpt>
      <trkpt lat="45.09301" lon="5.04764">
        <ele>209.37300109863</ele>
        <time>2009-06-03T17:58:14Z</time>
      </trkpt>
      <trkpt lat="45.09311" lon="5.04747">
        <ele>208.84300231934</ele>
        <time>2009-06-03T17:58:16Z</time>
      </trkpt>
      <trkpt lat="45.09382" lon="5.04693">
        <ele>211.16200256348</ele>
        <time>2009-06-03T17:58:28Z</time>
      </trkpt>
      <trkpt lat="45.09456" lon="5.04656">
        <ele>212.8390045166</ele>
        <time>2009-06-03T17:58:40Z</time>
      </trkpt>
      <trkpt lat="45.09525" lon="5.04621">
        <ele>214.46899414062</ele>
        <time>2009-06-03T17:58:52Z</time>
      </trkpt>
      <trkpt lat="45.09564" lon="5.04598">
        <ele>214.72999572754</ele>
        <time>2009-06-03T17:58:59Z</time>
      </trkpt>
      <trkpt lat="45.09581" lon="5.04577">
        <ele>214.96499633789</ele>
        <time>2009-06-03T17:59:03Z</time>
      </trkpt>
      <trkpt lat="45.09602" lon="5.04537">
        <ele>215.90699768066</ele>
        <time>2009-06-03T17:59:09Z</time>
      </trkpt>
      <trkpt lat="45.09611" lon="5.04531">
        <ele>216.42599487305</ele>
        <time>2009-06-03T17:59:11Z</time>
      </trkpt>
      <trkpt lat="45.09621" lon="5.04486">
        <ele>218.25799560547</ele>
        <time>2009-06-03T17:59:19Z</time>
      </trkpt>
      <trkpt lat="45.09624" lon="5.04473">
        <ele>218.70399475098</ele>
        <time>2009-06-03T17:59:21Z</time>
      </trkpt>
      <trkpt lat="45.0963" lon="5.0444">
        <ele>220.10299682617</ele>
        <time>2009-06-03T17:59:29Z</time>
      </trkpt>
      <trkpt lat="45.09686" lon="5.04324">
        <ele>219.05499267578</ele>
        <time>2009-06-03T17:59:43Z</time>
      </trkpt>
      <trkpt lat="45.09792" lon="5.0421">
        <ele>216.70399475098</ele>
        <time>2009-06-03T18:00:00Z</time>
      </trkpt>
      <trkpt lat="45.09845" lon="5.04147">
        <ele>216.57400512695</ele>
        <time>2009-06-03T18:00:09Z</time>
      </trkpt>
      <trkpt lat="45.09878" lon="5.04051">
        <ele>215.99899291992</ele>
        <time>2009-06-03T18:00:19Z</time>
      </trkpt>
      <trkpt lat="45.09883" lon="5.0403">
        <ele>216.57600402832</ele>
        <time>2009-06-03T18:00:21Z</time>
      </trkpt>
      <trkpt lat="45.0988" lon="5.03967">
        <ele>216.36599731445</ele>
        <time>2009-06-03T18:00:27Z</time>
      </trkpt>
      <trkpt lat="45.09806" lon="5.03766">
        <ele>217.61799621582</ele>
        <time>2009-06-03T18:00:47Z</time>
      </trkpt>
      <trkpt lat="45.09789" lon="5.03645">
        <ele>220.55299377441</ele>
        <time>2009-06-03T18:01:01Z</time>
      </trkpt>
      <trkpt lat="45.09789" lon="5.0362">
        <ele>220.71800231934</ele>
        <time>2009-06-03T18:01:04Z</time>
      </trkpt>
      <trkpt lat="45.09802" lon="5.0358">
        <ele>219.85299682617</ele>
        <time>2009-06-03T18:01:09Z</time>
      </trkpt>
      <trkpt lat="45.09875" lon="5.03447">
        <ele>217.69099426269</ele>
        <time>2009-06-03T18:01:25Z</time>
      </trkpt>
      <trkpt lat="45.0991" lon="5.0336">
        <ele>219.96200561523</ele>
        <time>2009-06-03T18:01:36Z</time>
      </trkpt>
      <trkpt lat="45.09912" lon="5.03353">
        <ele>219.91600036621</ele>
        <time>2009-06-03T18:01:37Z</time>
      </trkpt>
      <trkpt lat="45.09941" lon="5.03249">
        <ele>224.86099243164</ele>
        <time>2009-06-03T18:01:55Z</time>
      </trkpt>
      <trkpt lat="45.09958" lon="5.03191">
        <ele>226.36999511719</ele>
        <time>2009-06-03T18:02:06Z</time>
      </trkpt>
      <trkpt lat="45.09994" lon="5.03066">
        <ele>228.88200378418</ele>
        <time>2009-06-03T18:02:27Z</time>
      </trkpt>
      <trkpt lat="45.10025" lon="5.02957">
        <ele>232.72900390625</ele>
        <time>2009-06-03T18:02:46Z</time>
      </trkpt>
      <trkpt lat="45.10051" lon="5.02863">
        <ele>236.68600463867</ele>
        <time>2009-06-03T18:03:02Z</time>
      </trkpt>
      <trkpt lat="45.10052" lon="5.02857">
        <ele>236.97900390625</ele>
        <time>2009-06-03T18:03:03Z</time>
      </trkpt>
      <trkpt lat="45.10057" lon="5.02832">
        <ele>238.58000183106</ele>
        <time>2009-06-03T18:03:07Z</time>
      </trkpt>
      <trkpt lat="45.10059" lon="5.02809">
        <ele>239.93800354004</ele>
        <time>2009-06-03T18:03:12Z</time>
      </trkpt>
      <trkpt lat="45.10059" lon="5.02809">
        <ele>240.72200012207</ele>
        <time>2009-06-03T18:03:14Z</time>
      </trkpt>
      <trkpt lat="45.1006" lon="5.02746">
        <ele>242.77499389648</ele>
        <time>2009-06-03T18:03:21Z</time>
      </trkpt>
      <trkpt lat="45.10055" lon="5.02737">
        <ele>243.19000244141</ele>
        <time>2009-06-03T18:03:23Z</time>
      </trkpt>
      <trkpt lat="45.10045" lon="5.0272">
        <ele>244.72200012207</ele>
        <time>2009-06-03T18:03:27Z</time>
      </trkpt>
      <trkpt lat="45.10022" lon="5.02692">
        <ele>246.30200195312</ele>
        <time>2009-06-03T18:03:34Z</time>
      </trkpt>
      <trkpt lat="45.10007" lon="5.02674">
        <ele>247.38900756836</ele>
        <time>2009-06-03T18:03:39Z</time>
      </trkpt>
      <trkpt lat="45.09988" lon="5.02648">
        <ele>249.48199462891</ele>
        <time>2009-06-03T18:03:46Z</time>
      </trkpt>
      <trkpt lat="45.09967" lon="5.02583">
        <ele>252.67399597168</ele>
        <time>2009-06-03T18:04:00Z</time>
      </trkpt>
      <trkpt lat="45.09941" lon="5.02543">
        <ele>254.77200317383</ele>
        <time>2009-06-03T18:04:11Z</time>
      </trkpt>
      <trkpt lat="45.09914" lon="5.02504">
        <ele>256.83200073242</ele>
        <time>2009-06-03T18:04:22Z</time>
      </trkpt>
      <trkpt lat="45.09896" lon="5.02458">
        <ele>259.06298828125</ele>
        <time>2009-06-03T18:04:34Z</time>
      </trkpt>
      <trkpt lat="45.09882" lon="5.02417">
        <ele>260.9880065918</ele>
        <time>2009-06-03T18:04:44Z</time>
      </trkpt>
      <trkpt lat="45.09858" lon="5.02328">
        <ele>258.87799072266</ele>
        <time>2009-06-03T18:04:57Z</time>
      </trkpt>
      <trkpt lat="45.09853" lon="5.02308">
        <ele>257.80599975586</ele>
        <time>2009-06-03T18:04:59Z</time>
      </trkpt>
      <trkpt lat="45.09853" lon="5.02223">
        <ele>253.73599243164</ele>
        <time>2009-06-03T18:05:06Z</time>
      </trkpt>
      <trkpt lat="45.09856" lon="5.02209">
        <ele>252.32600402832</ele>
        <time>2009-06-03T18:05:07Z</time>
      </trkpt>
      <trkpt lat="45.09866" lon="5.02163">
        <ele>250.89900207519</ele>
        <time>2009-06-03T18:05:10Z</time>
      </trkpt>
      <trkpt lat="45.09888" lon="5.02103">
        <ele>248.29400634766</ele>
        <time>2009-06-03T18:05:14Z</time>
      </trkpt>
      <trkpt lat="45.09937" lon="5.01969">
        <ele>242.45599365234</ele>
        <time>2009-06-03T18:05:22Z</time>
      </trkpt>
      <trkpt lat="45.09966" lon="5.01886">
        <ele>240.34599304199</ele>
        <time>2009-06-03T18:05:27Z</time>
      </trkpt>
      <trkpt lat="45.09994" lon="5.01805">
        <ele>239.30599975586</ele>
        <time>2009-06-03T18:05:32Z</time>
      </trkpt>
      <trkpt lat="45.10004" lon="5.01774">
        <ele>238.85299682617</ele>
        <time>2009-06-03T18:05:34Z</time>
      </trkpt>
      <trkpt lat="45.10054" lon="5.01582">
        <ele>238.76699829102</ele>
        <time>2009-06-03T18:05:47Z</time>
      </trkpt>
      <trkpt lat="45.10072" lon="5.01354">
        <ele>239.69000244141</ele>
        <time>2009-06-03T18:06:05Z</time>
      </trkpt>
      <trkpt lat="45.10095" lon="5.01168">
        <ele>238.88499450684</ele>
        <time>2009-06-03T18:06:23Z</time>
      </trkpt>
      <trkpt lat="45.10149" lon="5.01065">
        <ele>238.4880065918</ele>
        <time>2009-06-03T18:06:35Z</time>
      </trkpt>
      <trkpt lat="45.10251" lon="5.00931">
        <ele>236.19500732422</ele>
        <time>2009-06-03T18:06:51Z</time>
      </trkpt>
      <trkpt lat="45.10393" lon="5.00816">
        <ele>232.92799377441</ele>
        <time>2009-06-03T18:07:10Z</time>
      </trkpt>
      <trkpt lat="45.10516" lon="5.00713">
        <ele>234.60600280762</ele>
        <time>2009-06-03T18:07:30Z</time>
      </trkpt>
      <trkpt lat="45.1058" lon="5.00656">
        <ele>238.70300292969</ele>
        <time>2009-06-03T18:07:45Z</time>
      </trkpt>
      <trkpt lat="45.10634" lon="5.0062">
        <ele>241.58399963379</ele>
        <time>2009-06-03T18:08:00Z</time>
      </trkpt>
      <trkpt lat="45.10694" lon="5.00597">
        <ele>244.62600708008</ele>
        <time>2009-06-03T18:08:17Z</time>
      </trkpt>
      <trkpt lat="45.10758" lon="5.00583">
        <ele>247.92700195312</ele>
        <time>2009-06-03T18:08:36Z</time>
      </trkpt>
      <trkpt lat="45.1081" lon="5.00571">
        <ele>251.57200622559</ele>
        <time>2009-06-03T18:08:54Z</time>
      </trkpt>
      <trkpt lat="45.10862" lon="5.0056">
        <ele>255.12600708008</ele>
        <time>2009-06-03T18:09:12Z</time>
      </trkpt>
      <trkpt lat="45.10912" lon="5.00545">
        <ele>257.30099487305</ele>
        <time>2009-06-03T18:09:28Z</time>
      </trkpt>
      <trkpt lat="45.10979" lon="5.005">
        <ele>255.18800354004</ele>
        <time>2009-06-03T18:09:44Z</time>
      </trkpt>
      <trkpt lat="45.10996" lon="5.00488">
        <ele>253.87899780273</ele>
        <time>2009-06-03T18:09:47Z</time>
      </trkpt>
      <trkpt lat="45.11042" lon="5.00457">
        <ele>251.00900268555</ele>
        <time>2009-06-03T18:09:54Z</time>
      </trkpt>
      <trkpt lat="45.11087" lon="5.00428">
        <ele>247.06799316406</ele>
        <time>2009-06-03T18:10:00Z</time>
      </trkpt>
      <trkpt lat="45.11095" lon="5.00423">
        <ele>247.12199401856</ele>
        <time>2009-06-03T18:10:01Z</time>
      </trkpt>
      <trkpt lat="45.11153" lon="5.0039">
        <ele>242.52000427246</ele>
        <time>2009-06-03T18:10:08Z</time>
      </trkpt>
      <trkpt lat="45.11212" lon="5.00359">
        <ele>240.19400024414</ele>
        <time>2009-06-03T18:10:15Z</time>
      </trkpt>
      <trkpt lat="45.11362" lon="5.00254">
        <ele>236.34100341797</ele>
        <time>2009-06-03T18:10:33Z</time>
      </trkpt>
      <trkpt lat="45.11465" lon="5.00163">
        <ele>237.03300476074</ele>
        <time>2009-06-03T18:10:49Z</time>
      </trkpt>
      <trkpt lat="45.11556" lon="5.00077">
        <ele>236.02099609375</ele>
        <time>2009-06-03T18:11:04Z</time>
      </trkpt>
      <trkpt lat="45.11645" lon="4.99959">
        <ele>231.38900756836</ele>
        <time>2009-06-03T18:11:20Z</time>
      </trkpt>
      <trkpt lat="45.11674" lon="4.99929">
        <ele>229.30099487305</ele>
        <time>2009-06-03T18:11:24Z</time>
      </trkpt>
      <trkpt lat="45.11736" lon="4.999">
        <ele>223.32099914551</ele>
        <time>2009-06-03T18:11:31Z</time>
      </trkpt>
      <trkpt lat="45.11737" lon="4.99899">
        <ele>223.13000488281</ele>
        <time>2009-06-03T18:11:32Z</time>
      </trkpt>
      <trkpt lat="45.11823" lon="4.99861">
        <ele>218.46000671387</ele>
        <time>2009-06-03T18:11:40Z</time>
      </trkpt>
      <trkpt lat="45.11823" lon="4.99861">
        <ele>217.09700012207</ele>
        <time>2009-06-03T18:11:42Z</time>
      </trkpt>
      <trkpt lat="45.11875" lon="4.99836">
        <ele>214.80599975586</ele>
        <time>2009-06-03T18:11:45Z</time>
      </trkpt>
      <trkpt lat="45.11909" lon="4.99807">
        <ele>212.95700073242</ele>
        <time>2009-06-03T18:11:49Z</time>
      </trkpt>
      <trkpt lat="45.1197" lon="4.99719">
        <ele>213.21099853516</ele>
        <time>2009-06-03T18:11:58Z</time>
      </trkpt>
      <trkpt lat="45.12056" lon="4.99564">
        <ele>213.13999938965</ele>
        <time>2009-06-03T18:12:14Z</time>
      </trkpt>
      <trkpt lat="45.12098" lon="4.99491">
        <ele>212.29899597168</ele>
        <time>2009-06-03T18:12:22Z</time>
      </trkpt>
      <trkpt lat="45.12149" lon="4.9935">
        <ele>211.69900512695</ele>
        <time>2009-06-03T18:12:35Z</time>
      </trkpt>
      <trkpt lat="45.12201" lon="4.99156">
        <ele>212.43699645996</ele>
        <time>2009-06-03T18:12:52Z</time>
      </trkpt>
      <trkpt lat="45.12214" lon="4.99095">
        <ele>213.46499633789</ele>
        <time>2009-06-03T18:12:58Z</time>
      </trkpt>
      <trkpt lat="45.12231" lon="4.99074">
        <ele>215.17900085449</ele>
        <time>2009-06-03T18:13:01Z</time>
      </trkpt>
      <trkpt lat="45.12234" lon="4.99044">
        <ele>214.90699768066</ele>
        <time>2009-06-03T18:13:07Z</time>
      </trkpt>
      <trkpt lat="45.12198" lon="4.99041">
        <ele>212.76100158691</ele>
        <time>2009-06-03T18:13:12Z</time>
      </trkpt>
      <trkpt lat="45.12139" lon="4.98968">
        <ele>208.62100219727</ele>
        <time>2009-06-03T18:13:21Z</time>
      </trkpt>
      <trkpt lat="45.12064" lon="4.98817">
        <ele>207.21000671387</ele>
        <time>2009-06-03T18:13:35Z</time>
      </trkpt>
      <trkpt lat="45.12022" lon="4.98658">
        <ele>206.97700500488</ele>
        <time>2009-06-03T18:13:49Z</time>
      </trkpt>
      <trkpt lat="45.12017" lon="4.9851">
        <ele>206.79299926758</ele>
        <time>2009-06-03T18:14:02Z</time>
      </trkpt>
      <trkpt lat="45.1202" lon="4.98462">
        <ele>206.53100585938</ele>
        <time>2009-06-03T18:14:06Z</time>
      </trkpt>
      <trkpt lat="45.12059" lon="4.9841">
        <ele>207.39900207519</ele>
        <time>2009-06-03T18:14:12Z</time>
      </trkpt>
      <trkpt lat="45.12064" lon="4.98259">
        <ele>205.12800598144</ele>
        <time>2009-06-03T18:14:24Z</time>
      </trkpt>
      <trkpt lat="45.12055" lon="4.98119">
        <ele>204.14599609375</ele>
        <time>2009-06-03T18:14:35Z</time>
      </trkpt>
      <trkpt lat="45.12009" lon="4.97898">
        <ele>202.04600524902</ele>
        <time>2009-06-03T18:14:52Z</time>
      </trkpt>
      <trkpt lat="45.11955" lon="4.97603">
        <ele>200.90400695801</ele>
        <time>2009-06-03T18:15:15Z</time>
      </trkpt>
      <trkpt lat="45.11907" lon="4.97339">
        <ele>198.03799438477</ele>
        <time>2009-06-03T18:15:36Z</time>
      </trkpt>
      <trkpt lat="45.11879" lon="4.97172">
        <ele>198.98500061035</ele>
        <time>2009-06-03T18:15:50Z</time>
      </trkpt>
      <trkpt lat="45.11883" lon="4.97094">
        <ele>200.14500427246</ele>
        <time>2009-06-03T18:15:58Z</time>
      </trkpt>
      <trkpt lat="45.11905" lon="4.97079">
        <ele>201.59399414062</ele>
        <time>2009-06-03T18:16:01Z</time>
      </trkpt>
      <trkpt lat="45.11888" lon="4.97054">
        <ele>200.66400146484</ele>
        <time>2009-06-03T18:16:07Z</time>
      </trkpt>
      <trkpt lat="45.11888" lon="4.97054">
        <ele>200.5359954834</ele>
        <time>2009-06-03T18:16:08Z</time>
      </trkpt>
      <trkpt lat="45.11775" lon="4.96898">
        <ele>200.40100097656</ele>
        <time>2009-06-03T18:16:27Z</time>
      </trkpt>
      <trkpt lat="45.11763" lon="4.96848">
        <ele>199.61000061035</ele>
        <time>2009-06-03T18:16:33Z</time>
      </trkpt>
      <trkpt lat="45.11722" lon="4.96813">
        <ele>199.12899780273</ele>
        <time>2009-06-03T18:16:39Z</time>
      </trkpt>
      <trkpt lat="45.11716" lon="4.96806">
        <ele>199.07400512695</ele>
        <time>2009-06-03T18:16:40Z</time>
      </trkpt>
      <trkpt lat="45.11649" lon="4.96675">
        <ele>197.86700439453</ele>
        <time>2009-06-03T18:16:53Z</time>
      </trkpt>
      <trkpt lat="45.11586" lon="4.96522">
        <ele>198.09599304199</ele>
        <time>2009-06-03T18:17:08Z</time>
      </trkpt>
      <trkpt lat="45.1158" lon="4.96466">
        <ele>199.26499938965</ele>
        <time>2009-06-03T18:17:14Z</time>
      </trkpt>
      <trkpt lat="45.11581" lon="4.96448">
        <ele>200.08099365234</ele>
        <time>2009-06-03T18:17:17Z</time>
      </trkpt>
      <trkpt lat="45.11581" lon="4.96446">
        <ele>200.16700744629</ele>
        <time>2009-06-03T18:17:18Z</time>
      </trkpt>
      <trkpt lat="45.11557" lon="4.96471">
        <ele>199.93699645996</ele>
        <time>2009-06-03T18:17:20Z</time>
      </trkpt>
      <trkpt lat="45.11556" lon="4.96469">
        <ele>200.06799316406</ele>
        <time>2009-06-03T18:17:22Z</time>
      </trkpt>
      <trkpt lat="45.11544" lon="4.9645">
        <ele>200.34100341797</ele>
        <time>2009-06-03T18:17:56Z</time>
      </trkpt>
      <trkpt lat="45.11581" lon="4.9643">
        <ele>200.47700500488</ele>
        <time>2009-06-03T18:17:58Z</time>
      </trkpt>
      <trkpt lat="45.11581" lon="4.96429">
        <ele>200.45500183106</ele>
        <time>2009-06-03T18:18:01Z</time>
      </trkpt>
      <trkpt lat="45.11546" lon="4.96453">
        <ele>200.28199768066</ele>
        <time>2009-06-03T18:18:05Z</time>
      </trkpt>
    </trkseg>
  </trk>
</gpx>